# Wetter Temperatur Luftdruck Luftfeuchtigkeit Sichtweite Windgeschwindigkeit Windrichtung Zeit
1 Drizzle 2 1020 100 3200 5.1 230 22:24 24.01.2020
2 Drizzle 2 1020 100 4500 4.1 230 21:43 24.01.2020
3 Mist 2 1020 93 5000 3.6 240 21:21 24.01.2020
4 Mist 2 1020 100 5000 4.1 240 20:57 24.01.2020
5 Mist 2 1020 100 5000 4.1 230 20:39 24.01.2020
6 Mist 2 1020 100 5000 4.1 230 20:20 24.01.2020
7 Mist 2 1020 100 4800 4.6 230 19:57 24.01.2020
8 Mist 2 1020 100 4800 4.6 230 19:57 24.01.2020
9 -273 0 0 0 0 0 19:38 24.01.2020
10 Drizzle 2 1021 100 4000 4.6 230 19:38 24.01.2020
11 Drizzle 2 1020 100 4000 4.6 230 19:20 24.01.2020
12 Drizzle 2 1020 100 4000 4.6 230 18:43 24.01.2020
13 Drizzle 2 1020 100 3200 4.1 230 18:24 24.01.2020
14 Drizzle 2 1020 100 4000 3.6 240 17:54 24.01.2020
15 Drizzle 2 1020 100 3500 5.1 230 17:36 24.01.2020
16 Drizzle 2 1020 100 3500 5.1 230 17:18 24.01.2020
17 Drizzle 2 1020 100 2500 5.1 230 16:39 24.01.2020
18 Drizzle 2 1020 100 2500 5.1 230 16:20 24.01.2020
19 Drizzle 3 1020 100 2500 4.1 230 15:43 24.01.2020
20 Drizzle 3 1020 100 2500 4.1 230 15:23 24.01.2020
21 Drizzle 3 1020 100 2400 4.1 220 14:59 24.01.2020
22 Drizzle 3 1020 93 2800 4.6 220 14:40 24.01.2020
23 Drizzle 3 1020 93 2800 4.6 220 14:21 24.01.2020
24 Drizzle 3 1021 93 2100 5.1 220 13:43 24.01.2020
25 Drizzle 2 1021 93 2100 4.1 230 13:23 24.01.2020
26 Mist 2 1021 93 2800 3.1 220 12:45 24.01.2020
27 Mist 2 1021 93 2800 3.1 220 12:45 24.01.2020
28 Mist 2 1021 93 2800 3.1 220 12:23 24.01.2020
29 Mist 2 1021 93 2000 4.1 210 11:58 24.01.2020
30 Mist 2 1021 100 1700 3.6 210 11:39 24.01.2020
31 Mist 2 1021 100 1700 3.6 210 11:18 24.01.2020
32 Mist 2 1022 93 1400 3.6 230 10:43 24.01.2020
33 Mist 1 1022 93 1400 3.6 230 10:21 24.01.2020
34 Fog 1 1022 100 600 2.6 240 09:55 24.01.2020
35 Fog 1 1022 100 350 2.6 240 09:37 24.01.2020
36 Fog 1 1022 100 350 2.6 240 09:18 24.01.2020
37 Fog 1 1022 100 800 2.6 240 08:40 24.01.2020
38 Fog 1 1022 100 800 2.6 240 08:19 24.01.2020
39 Mist 1 1022 100 1000 3.1 240 07:49 24.01.2020
40 Mist 1 1022 86 1900 4.1 240 07:28 24.01.2020
41 Mist 1 1022 86 1800 3.1 230 06:48 24.01.2020
42 Mist 1 1022 86 2200 3.1 230 06:28 24.01.2020
43 Fog 0 1022 86 1600 3.1 270 05:57 24.01.2020
44 Mist 1 1023 91 2400 3.1 250 04:54 24.01.2020
45 Mist 1 1024 100 1500 2.1 250 02:53 24.01.2020
46 Fog 1 1025 100 750 2.6 230 02:24 24.01.2020
47 Fog 1 1025 100 750 1.5 240 01:42 24.01.2020
48 Fog 1 1025 100 1100 1.5 260 01:24 24.01.2020
49 Clouds 2 1026 94 6000 2.1 260 00:23 24.01.2020
50 Clear 2 1026 94 6000 2.1 230 23:49 23.01.2020
51 Clear 2 1026 95 6000 1 260 23:31 23.01.2020
52 Clouds 3 1027 95 8000 1.5 240 22:59 23.01.2020
53 Clouds 3 1027 95 9000 1 0 22:38 23.01.2020
54 Clouds 3 1027 95 9000 1 0 22:19 23.01.2020
55 Clouds 3 1027 86 10000 2.1 280 21:57 23.01.2020
56 Clouds 4 1027 80 10000 1.5 270 21:39 23.01.2020
57 Clouds 4 1027 80 10000 1.5 270 21:20 23.01.2020
58 Clouds 4 1027 80 10000 2.6 240 20:58 23.01.2020
59 Clouds 4 1028 75 10000 3.6 250 20:38 23.01.2020
60 Clouds 4 1028 75 10000 3.6 250 20:38 23.01.2020
61 Clouds 4 1028 75 10000 3.6 250 20:19 23.01.2020
62 Clouds 4 1028 75 10000 3.6 250 20:19 23.01.2020
63 Clouds 4 1028 75 10000 3.1 260 19:56 23.01.2020
64 Clouds 4 1028 75 10000 3.1 240 19:38 23.01.2020
65 Clouds 5 1028 75 10000 3.1 240 19:19 23.01.2020
66 Clouds 5 1028 75 10000 2.6 240 18:55 23.01.2020
67 Clouds 5 1028 75 10000 3.1 240 18:36 23.01.2020
68 Clouds 5 1028 75 10000 3.1 240 18:18 23.01.2020
69 Clouds 5 1029 75 10000 3.1 230 17:43 23.01.2020
70 Clouds 6 1029 75 10000 3.6 240 17:20 23.01.2020
71 Clouds 6 1029 75 10000 3.6 240 16:58 23.01.2020
72 Clouds 6 1029 70 10000 4.1 240 16:37 23.01.2020
73 Clouds 6 1029 70 10000 4.1 240 16:18 23.01.2020
74 Clouds 6 1029 70 10000 4.6 230 15:57 23.01.2020
75 Clouds 6 1030 70 10000 3.6 240 15:37 23.01.2020
76 Clouds 6 1030 70 10000 3.6 240 15:18 23.01.2020
77 Clouds 6 1030 70 10000 4.1 240 14:56 23.01.2020
78 Clouds 6 1031 75 10000 4.6 230 14:38 23.01.2020
79 Clouds 6 1031 75 10000 4.1 240 14:20 23.01.2020
80 Clouds 6 1031 70 10000 4.6 270 13:44 23.01.2020
81 Clouds 6 1031 70 10000 4.6 270 13:20 23.01.2020
82 Clouds 6 1032 70 10000 3.6 240 12:55 23.01.2020
83 Clouds 6 1032 81 10000 3.1 260 12:36 23.01.2020
84 Clouds 6 1032 81 10000 3.1 260 12:18 23.01.2020
85 Clouds 6 1033 81 10000 2.6 260 11:43 23.01.2020
86 Clouds 5 1033 81 10000 2.6 260 11:24 23.01.2020
87 Clouds 5 1033 81 10000 2.1 250 10:58 23.01.2020
88 Clouds 5 1033 81 10000 2.1 250 10:40 23.01.2020
89 Clouds 5 1033 93 10000 2.6 240 10:18 23.01.2020
90 Clouds 5 1033 93 10000 2.6 270 09:40 23.01.2020
91 Clouds 5 1033 93 10000 2.6 270 09:21 23.01.2020
92 Clouds 5 1033 93 9000 2.6 260 08:56 23.01.2020
93 Drizzle 5 1033 93 10000 2.6 270 08:37 23.01.2020
94 Drizzle 5 1033 93 10000 2.6 270 08:18 23.01.2020
95 Clouds 4 1033 93 10000 2.1 260 07:37 23.01.2020
96 Clouds 4 1033 93 10000 2.1 260 07:18 23.01.2020
97 Clouds 4 1033 86 10000 2.1 260 06:44 23.01.2020
98 Clouds 4 1033 93 10000 2.1 240 06:18 23.01.2020
99 Clear 4 1034 86 10000 2.1 240 04:25 23.01.2020
100 Clouds 4 1034 93 10000 0.5 0 03:36 23.01.2020
101 Clouds 4 1035 87 10000 1.5 290 01:55 23.01.2020
102 Clouds 4 1035 87 10000 2.1 290 00:46 23.01.2020
103 Clouds 4 1035 87 10000 2.1 290 00:24 23.01.2020
104 Clouds 4 1035 87 10000 2.1 290 23:46 22.01.2020
105 Clouds 4 1035 87 10000 2.1 300 23:28 22.01.2020
106 Clouds 4 1035 87 10000 2.6 280 22:55 22.01.2020
107 Clouds 5 1034 87 10000 2.6 290 22:36 22.01.2020
108 Clouds 5 1034 87 10000 2.6 290 22:18 22.01.2020
109 Clouds 5 1034 87 10000 3.6 290 21:38 22.01.2020
110 Clouds 5 1034 87 10000 3.6 290 21:20 22.01.2020
111 Clouds 5 1034 87 10000 2.6 280 20:56 22.01.2020
112 Clouds 5 1034 81 10000 2.6 290 20:36 22.01.2020
113 Clouds 5 1034 81 10000 2.6 290 20:36 22.01.2020
114 Clouds 5 1034 81 10000 2.6 290 20:18 22.01.2020
115 Clouds 5 1034 75 10000 2.6 290 19:55 22.01.2020
116 Clouds 5 1033 75 10000 2.1 300 19:36 22.01.2020
117 Clouds 5 1033 75 10000 2.1 300 19:18 22.01.2020
118 Clouds 6 1033 75 10000 3.1 300 18:55 22.01.2020
119 Clouds 5 1033 93 10000 2.6 290 18:36 22.01.2020
120 Clouds 6 1033 75 10000 3.1 290 18:18 22.01.2020
121 Clouds 6 1033 75 10000 3.1 290 18:18 22.01.2020
122 Clouds 6 1032 81 10000 3.1 290 17:40 22.01.2020
123 Clouds 6 1032 81 10000 3.1 290 17:21 22.01.2020
124 Clouds 7 1032 81 10000 3.6 300 16:58 22.01.2020
125 Clouds 7 1032 81 10000 4.1 310 16:39 22.01.2020
126 Clouds 7 1032 81 10000 4.1 310 16:21 22.01.2020
127 Clouds 7 1032 75 10000 4.6 300 15:56 22.01.2020
128 Clouds 7 1032 75 10000 4.6 300 15:38 22.01.2020
129 Clouds 7 1032 75 10000 4.6 290 15:18 22.01.2020
130 Clouds 7 1032 75 10000 7.2 320 14:39 22.01.2020
131 Clouds 7 1032 75 10000 7.2 320 14:21 22.01.2020
132 Clouds 7 1033 75 10000 6.2 320 13:59 22.01.2020
133 Clouds 7 1032 81 10000 3.93 311 13:38 22.01.2020
134 Clouds 7 1032 81 10000 3.98 308 13:19 22.01.2020
135 Clouds 7 1033 81 10000 5.7 310 12:57 22.01.2020
136 Clouds 7 1033 81 10000 5.7 310 12:39 22.01.2020
137 Clouds 7 1033 87 10000 4.1 290 12:20 22.01.2020
138 Clouds 7 1032 87 10000 1 0 11:58 22.01.2020
139 Clouds 6 1032 87 10000 3.6 300 11:40 22.01.2020
140 Clouds 6 1032 87 10000 3.6 300 11:19 22.01.2020
141 Clouds 6 1032 87 10000 3.6 290 10:59 22.01.2020
142 Clouds 6 1032 93 9000 4.6 280 10:41 22.01.2020
143 Clouds 6 1032 93 9000 4.6 280 10:18 22.01.2020
144 Drizzle 5 1032 93 4700 3.53 303 09:42 22.01.2020
145 Drizzle 5 1032 93 4700 3.53 303 09:42 22.01.2020
146 Drizzle 5 1032 93 4700 3.53 303 09:24 22.01.2020
147 Drizzle 5 1032 93 3500 3.53 303 08:57 22.01.2020
148 Drizzle 5 1032 93 2500 3.53 303 08:39 22.01.2020
149 Drizzle 6 1032 93 2500 3.75 268 08:20 22.01.2020
150 Drizzle 6 1031 100 2500 3.75 268 07:46 22.01.2020
151 Mist 5 1032 93 2700 5.7 270 07:28 22.01.2020
152 Mist 5 1032 93 3900 5.7 270 06:46 22.01.2020
153 Drizzle 5 1032 93 3000 5.1 280 06:26 22.01.2020
154 Drizzle 5 1031 93 2300 5.7 260 05:26 22.01.2020
155 Clouds 5 1034 100 3700 4.6 260 03:30 22.01.2020
156 Clouds 5 1033 100 2800 4.6 250 02:57 22.01.2020
157 Drizzle 5 1034 93 6000 3.6 250 01:43 22.01.2020
158 Drizzle 5 1034 86 7000 4.1 250 00:44 22.01.2020
159 Clouds 5 1035 86 10000 4.6 250 00:26 22.01.2020
160 Clouds 5 1035 86 10000 4.1 250 23:38 21.01.2020
161 Clouds 5 1035 86 10000 4.1 250 23:20 21.01.2020
162 Clouds 5 1035 86 10000 4.1 250 22:59 21.01.2020
163 Clouds 5 1035 86 9000 3.6 250 22:39 21.01.2020
164 Clouds 5 1035 86 9000 3.6 250 22:20 21.01.2020
165 Clouds 5 1035 86 9000 4.1 260 21:56 21.01.2020
166 Clouds 5 1036 86 9000 4.1 260 21:37 21.01.2020
167 Clouds 5 1036 86 9000 4.1 260 21:19 21.01.2020
168 Clouds 5 1036 80 9000 4.1 260 20:55 21.01.2020
169 Clouds 5 1036 80 9000 3.6 260 20:37 21.01.2020
170 Clouds 5 1036 80 9000 3.6 260 20:18 21.01.2020
171 Clouds 5 1036 80 10000 4.1 260 19:55 21.01.2020
172 Clouds 5 1036 80 10000 4.1 270 19:37 21.01.2020
173 Clouds 4 1036 80 10000 4.1 270 19:18 21.01.2020
174 Clouds 4 1036 80 9000 5.1 250 18:54 21.01.2020
175 Clouds 4 1036 86 9000 4.6 260 18:36 21.01.2020
176 Clouds 4 1036 86 9000 4.6 260 18:18 21.01.2020
177 Clouds 4 1036 80 9000 4.6 260 17:42 21.01.2020
178 Clouds 5 1037 80 10000 5.1 250 17:20 21.01.2020
179 Clouds 5 1037 80 10000 5.1 250 16:58 21.01.2020
180 Clouds 5 1037 80 10000 4.1 260 16:37 21.01.2020
181 Clouds 5 1037 80 10000 4.1 260 16:18 21.01.2020
182 Clouds 5 1037 80 10000 5.1 240 15:41 21.01.2020
183 Clouds 5 1037 80 10000 5.1 240 15:21 21.01.2020
184 Clouds 5 1038 80 10000 4.1 260 14:59 21.01.2020
185 Clouds 5 1038 80 10000 4.6 250 14:37 21.01.2020
186 Clouds 5 1038 80 10000 4.6 250 14:19 21.01.2020
187 Clouds 5 1039 80 10000 4.6 250 13:40 21.01.2020
188 Clouds 5 1039 80 10000 4.6 260 13:19 21.01.2020
189 Clouds 5 1039 80 10000 6.2 250 12:43 21.01.2020
190 Clouds 5 1039 80 10000 6.2 250 12:43 21.01.2020
191 Clouds 5 1039 80 10000 6.2 250 12:25 21.01.2020
192 Clouds 4 1040 86 8000 6.2 260 11:57 21.01.2020
193 Clouds 4 1040 86 8000 6.2 260 11:39 21.01.2020
194 Clouds 4 1039 86 7000 5.7 260 11:21 21.01.2020
195 Clouds 4 1040 86 7000 5.1 260 10:55 21.01.2020
196 Clouds 4 1039 93 7000 5.7 260 10:37 21.01.2020
197 Clouds 4 1039 93 7000 5.7 260 10:18 21.01.2020
198 Clouds 4 1040 93 6000 6.2 260 09:41 21.01.2020
199 Clouds 3 1039 93 6000 6.2 260 09:22 21.01.2020
200 Mist 3 1039 93 4200 4.6 250 08:49 21.01.2020
201 Clouds 3 1039 93 6000 5.1 250 08:29 21.01.2020
202 Clouds 3 1039 93 6000 5.7 250 07:59 21.01.2020
203 Clouds 3 1039 93 6000 5.7 250 07:40 21.01.2020
204 Clouds 3 1039 93 6000 4.6 240 07:21 21.01.2020
205 Mist 3 1039 93 5000 3.6 240 06:49 21.01.2020
206 Clouds 3 1040 93 6000 3.6 230 06:29 21.01.2020
207 Clouds 3 1040 93 6000 3.6 230 06:29 21.01.2020
208 Clouds 3 1040 93 6000 3.6 230 06:29 21.01.2020
209 Clouds 3 1040 93 7000 3.6 240 05:42 21.01.2020
210 Clouds 4 1040 93 7000 3.1 240 04:40 21.01.2020
211 Clouds 4 1041 86 7000 3.1 240 02:57 21.01.2020
212 Clouds 4 1041 86 9000 3.6 240 01:55 21.01.2020
213 Clouds 4 1042 86 9000 4.6 230 01:26 21.01.2020
214 Clouds 4 1042 93 9000 4.1 240 00:37 21.01.2020
215 Clouds 4 1042 93 9000 4.6 230 23:59 20.01.2020
216 Clouds 4 1042 93 9000 4.6 230 23:41 20.01.2020
217 Clouds 4 1043 93 9000 4.6 230 23:19 20.01.2020
218 Clouds 4 1043 93 9000 5.1 230 22:58 20.01.2020
219 Clouds 4 1043 93 9000 5.1 230 22:38 20.01.2020
220 Clouds 4 1043 93 9000 4.6 230 22:20 20.01.2020
221 Clouds 4 1043 93 9000 4.6 230 22:20 20.01.2020
222 Clouds 4 1043 93 10000 4.1 230 21:58 20.01.2020
223 Clouds 4 1043 93 10000 4.1 240 21:37 20.01.2020
224 Clouds 4 1043 93 10000 4.1 240 21:19 20.01.2020
225 Clouds 4 1043 86 10000 4.1 240 20:57 20.01.2020
226 Clouds 4 1043 86 10000 4.1 230 20:38 20.01.2020
227 Clouds 4 1043 86 10000 4.1 230 20:18 20.01.2020
228 Clouds 5 1043 86 10000 4.1 230 19:56 20.01.2020
229 Clouds 5 1043 86 10000 4.1 230 19:56 20.01.2020
230 Clouds 5 1044 93 10000 3.6 230 19:38 20.01.2020
231 Clouds 5 1043 81 10000 3.6 230 19:18 20.01.2020
232 Clouds 5 1043 81 10000 3.6 230 18:44 20.01.2020
233 Clouds 5 1043 81 10000 4.1 240 18:23 20.01.2020
234 Clouds 5 1043 87 10000 4.6 230 17:59 20.01.2020
235 Clouds 6 1044 87 10000 3.6 230 17:36 20.01.2020
236 Clouds 6 1044 87 10000 3.6 230 17:36 20.01.2020
237 Clouds 6 1044 87 10000 3.6 230 17:18 20.01.2020
238 Clouds 6 1044 75 10000 4.6 240 16:44 20.01.2020
239 Clouds 6 1044 75 10000 4.6 240 16:25 20.01.2020
240 Clouds 7 1044 81 10000 3.6 250 15:58 20.01.2020
241 Clouds 7 1044 81 10000 4.1 240 15:40 20.01.2020
242 Clouds 7 1044 81 10000 4.1 240 15:21 20.01.2020
243 Clouds 7 1044 81 10000 5.1 240 14:56 20.01.2020
244 Clouds 7 1044 87 10000 3.6 250 14:37 20.01.2020
245 Clouds 7 1044 87 10000 3.6 250 14:19 20.01.2020
246 Clouds 7 1045 81 10000 4.6 250 13:42 20.01.2020
247 Clouds 6 1045 81 10000 4.1 250 13:23 20.01.2020
248 Clouds 6 1045 81 10000 3.6 240 12:56 20.01.2020
249 Clouds 6 1045 87 10000 3.1 250 12:38 20.01.2020
250 Clouds 6 1045 87 10000 3.1 250 12:19 20.01.2020
251 Clouds 5 1046 87 10000 3.1 250 11:43 20.01.2020
252 Clouds 5 1046 87 10000 3.1 240 11:24 20.01.2020
253 Clouds 5 1045 93 10000 2.6 250 10:58 20.01.2020
254 Clouds 5 1045 93 10000 2.6 250 10:40 20.01.2020
255 Clouds 4 1045 93 7000 2.6 250 10:20 20.01.2020
256 Clouds 4 1045 93 6000 2.1 230 09:41 20.01.2020
257 Clouds 4 1045 93 6000 2.1 240 09:23 20.01.2020
258 Clouds 4 1045 93 6000 2.1 240 08:55 20.01.2020
259 Clouds 4 1044 93 8000 2.1 250 08:31 20.01.2020
260 Clouds 4 1044 93 9000 2.6 240 07:55 20.01.2020
261 Clouds 3 1044 93 9000 2.6 220 07:37 20.01.2020
262 Clouds 3 1044 93 9000 2.6 220 07:19 20.01.2020
263 Clouds 3 1044 100 9000 2.1 240 06:40 20.01.2020
264 Clouds 3 1044 100 9000 0.5 0 06:20 20.01.2020
265 Clouds 3 1044 97 8000 1 0 05:38 20.01.2020
266 Clouds 3 1044 96 8000 1 0 05:19 20.01.2020
267 Clouds 2 1044 96 9000 1 310 03:55 20.01.2020
268 Clouds 2 1043 95 10000 0.5 0 01:58 20.01.2020
269 Clouds 1 1043 100 10000 0.5 0 01:39 20.01.2020
270 Clouds 1 1043 100 9000 1 270 00:56 20.01.2020
271 Clear 1 1043 92 9000 1 320 00:38 20.01.2020
272 Clear 1 1043 92 9000 1 320 00:20 20.01.2020
273 Clear 1 1042 100 10000 1 0 23:38 19.01.2020
274 Clear 1 1042 100 10000 1 0 23:18 19.01.2020
275 Clear 1 1042 100 10000 0.5 0 22:55 19.01.2020
276 Clear 1 1042 94 10000 0.5 0 22:37 19.01.2020
277 Clear 1 1042 94 10000 0.5 0 22:19 19.01.2020
278 Clear 1 1041 94 10000 1.5 310 21:56 19.01.2020
279 Clear 2 1041 86 10000 2.1 320 21:38 19.01.2020
280 Clear 2 1041 86 10000 2.1 320 21:19 19.01.2020
281 Clear 2 1041 94 10000 2.1 300 20:56 19.01.2020
282 Clear 2 1040 93 10000 2.6 320 20:38 19.01.2020
283 Clear 2 1040 93 10000 2.6 320 20:19 19.01.2020
284 Clear 2 1040 92 10000 2.1 310 19:55 19.01.2020
285 Clear 2 1039 86 10000 1.5 300 19:37 19.01.2020
286 Clear 2 1039 86 10000 1.5 300 19:19 19.01.2020
287 Clear 3 1039 92 10000 0.5 0 18:55 19.01.2020
288 Clear 3 1038 92 10000 1 0 18:37 19.01.2020
289 Clear 3 1038 92 10000 1 0 18:19 19.01.2020
290 Clouds 4 1038 92 10000 2.1 310 17:57 19.01.2020
291 Clouds 4 1038 92 10000 2.6 310 17:39 19.01.2020
292 Clouds 5 1038 77 10000 2.6 310 17:20 19.01.2020
293 Clouds 5 1037 77 10000 3.6 310 16:57 19.01.2020
294 Clouds 5 1036 77 10000 5.1 310 16:38 19.01.2020
295 Clear 5 1037 70 10000 3.6 300 16:19 19.01.2020
296 Clouds 6 1036 77 10000 5.1 320 15:57 19.01.2020
297 Clouds 6 1035 77 10000 6.7 320 15:37 19.01.2020
298 Clouds 7 1035 77 10000 6.7 320 15:19 19.01.2020
299 Clouds 7 1035 65 10000 6.7 320 14:57 19.01.2020
300 Clear 7 1035 65 10000 6.2 320 14:38 19.01.2020
301 Clear 7 1035 65 10000 6.2 320 14:18 19.01.2020
302 Clear 7 1035 65 10000 6.2 320 14:18 19.01.2020
303 Clear 7 1035 61 10000 6.7 320 13:56 19.01.2020
304 Clear 7 1035 65 10000 6.2 320 13:37 19.01.2020
305 Clear 7 1035 65 10000 6.2 320 13:19 19.01.2020
306 Clear 6 1034 70 10000 5.7 310 12:55 19.01.2020
307 Clear 6 1034 70 10000 4.6 300 12:36 19.01.2020
308 Clear 6 1034 70 10000 4.6 300 12:18 19.01.2020
309 Clear 5 1034 81 10000 4.6 290 11:42 19.01.2020
310 Clear 4 1034 86 10000 4.1 290 11:20 19.01.2020
311 Clouds 4 1033 86 10000 3.6 280 10:56 19.01.2020
312 Clouds 3 1033 93 10000 1.5 270 10:38 19.01.2020
313 Clouds 3 1033 93 10000 1.5 270 10:19 19.01.2020
314 Clouds 2 1032 93 10000 2.1 270 09:55 19.01.2020
315 Clouds 2 1031 100 10000 0.5 0 09:36 19.01.2020
316 Rain 2 1031 93 9000 1.5 270 09:18 19.01.2020
317 Rain 2 1031 93 9000 1.5 270 08:44 19.01.2020
318 Rain 1 1030 86 10000 1.5 280 08:26 19.01.2020
319 Clouds 1 1029 93 10000 2.1 270 07:42 19.01.2020
320 Clouds 1 1029 93 10000 2.1 270 07:22 19.01.2020
321 Clouds 1 1029 93 10000 2.6 250 06:53 19.01.2020
322 Clouds 1 1029 93 10000 2.6 260 06:21 19.01.2020
323 Clouds 2 1026 86 10000 3.1 260 02:47 19.01.2020
324 Clouds 2 1026 86 10000 3.6 260 02:24 19.01.2020
325 Clouds 2 1025 86 10000 3.1 260 01:28 19.01.2020
326 Clouds 2 1025 93 10000 3.1 240 00:54 19.01.2020
327 Rain 2 1024 93 10000 2.6 250 00:31 19.01.2020
328 Rain 2 1024 93 10000 2.6 250 23:59 18.01.2020
329 Clouds 3 1024 93 10000 2.6 250 23:41 18.01.2020
330 Clouds 3 1024 93 10000 2.6 250 23:23 18.01.2020
331 Clouds 3 1024 93 10000 2.6 250 23:23 18.01.2020
332 Clouds 3 1024 86 10000 2.6 250 22:56 18.01.2020
333 Rain 3 1024 93 10000 3.1 260 22:38 18.01.2020
334 Rain 3 1024 93 10000 3.1 260 22:20 18.01.2020
335 Clouds 3 1023 86 10000 3.1 260 21:57 18.01.2020
336 Clouds 3 1023 86 10000 3.6 250 21:38 18.01.2020
337 Clouds 3 1023 86 10000 3.6 250 21:20 18.01.2020
338 Clouds 3 1023 86 10000 3.1 250 20:44 18.01.2020
339 Clouds 3 1023 86 10000 4.1 240 20:22 18.01.2020
340 Clouds 3 1022 86 10000 3.1 240 19:59 18.01.2020
341 Clouds 3 1022 86 10000 4.1 230 19:41 18.01.2020
342 Clouds 3 1022 86 10000 4.1 230 19:22 18.01.2020
343 Clouds 4 1022 80 10000 4.1 240 18:43 18.01.2020
344 Clouds 4 1022 80 10000 3.6 240 18:24 18.01.2020
345 Clouds 4 1021 80 10000 4.1 250 17:57 18.01.2020
346 Clouds 4 1021 80 10000 4.1 250 17:39 18.01.2020
347 Clouds 4 1021 80 10000 4.1 250 17:20 18.01.2020
348 Clouds 5 1021 80 10000 4.1 250 16:56 18.01.2020
349 Rain 5 1020 86 10000 5.7 250 16:37 18.01.2020
350 Rain 5 1020 86 10000 5.7 250 16:19 18.01.2020
351 Rain 5 1020 86 10000 5.7 240 15:43 18.01.2020
352 Rain 5 1020 86 10000 6.7 230 15:24 18.01.2020
353 Rain 5 1020 80 10000 6.7 240 14:59 18.01.2020
354 Rain 5 1020 80 10000 6.7 240 14:40 18.01.2020
355 Clouds 5 1020 80 10000 6.7 240 14:19 18.01.2020
356 Clouds 5 1019 80 10000 7.2 240 13:55 18.01.2020
357 Clouds 5 1019 80 10000 7.2 230 13:36 18.01.2020
358 Clouds 5 1019 80 10000 7.2 230 13:18 18.01.2020
359 Clouds 5 1019 80 10000 7.7 240 12:40 18.01.2020
360 Clouds 5 1019 80 10000 7.7 240 12:21 18.01.2020
361 Clouds 5 1020 80 10000 8.7 220 11:45 18.01.2020
362 Clouds 5 1019 80 10000 7.2 230 11:24 18.01.2020
363 Clouds 4 1019 80 10000 8.2 220 10:58 18.01.2020
364 Clouds 4 1019 86 10000 7.7 230 10:39 18.01.2020
365 Clouds 4 1019 86 10000 7.7 230 10:20 18.01.2020
366 Clouds 4 1019 80 10000 6.7 220 09:50 18.01.2020
367 Clouds 4 1018 86 10000 6.7 230 09:32 18.01.2020
368 Clouds 4 1018 80 10000 6.2 230 08:59 18.01.2020
369 Clouds 4 1018 80 10000 6.2 230 08:41 18.01.2020
370 Clouds 4 1018 80 10000 6.7 230 08:19 18.01.2020
371 Clouds 4 1018 80 10000 6.2 230 07:52 18.01.2020
372 Clouds 5 1017 80 10000 6.7 230 07:32 18.01.2020
373 Clouds 5 1017 80 10000 6.2 230 06:48 18.01.2020
374 Clouds 5 1017 80 10000 6.7 230 06:19 18.01.2020
375 Clouds 5 1017 75 10000 6.7 240 05:30 18.01.2020
376 Clouds 6 1015 70 10000 5.7 240 03:39 18.01.2020
377 Clouds 7 1014 75 10000 6.2 240 02:20 18.01.2020
378 Clouds 7 1014 75 10000 6.7 240 01:36 18.01.2020
379 Clouds 7 1013 81 10000 6.7 240 00:38 18.01.2020
380 Clouds 7 1013 87 10000 6.7 240 00:19 18.01.2020
381 Clouds 8 1013 93 9000 5.1 230 23:44 17.01.2020
382 Clouds 8 1013 93 9000 5.1 230 23:21 17.01.2020
383 Clouds 8 1013 93 7000 5.7 230 22:59 17.01.2020
384 Clouds 8 1013 93 6000 4.6 230 22:40 17.01.2020
385 Clouds 8 1013 93 6000 4.6 230 22:19 17.01.2020
386 Drizzle 8 1012 93 5000 5.1 220 21:42 17.01.2020
387 Drizzle 8 1012 93 5000 5.1 210 21:24 17.01.2020
388 Rain 8 1012 93 7000 5.1 220 20:59 17.01.2020
389 Rain 8 1012 93 9000 4.1 220 20:41 17.01.2020
390 Rain 8 1012 93 9000 4.1 220 20:20 17.01.2020
391 Rain 8 1012 93 10000 4.1 230 19:57 17.01.2020
392 Rain 8 1012 81 10000 5.7 220 19:38 17.01.2020
393 Rain 8 1012 81 10000 5.7 220 19:20 17.01.2020
394 Rain 8 1012 71 10000 5.7 210 18:57 17.01.2020
395 Rain 9 1012 71 10000 5.7 210 18:38 17.01.2020
396 Clouds 9 1012 71 10000 5.7 200 18:20 17.01.2020
397 Clouds 9 1012 71 10000 4.6 190 17:40 17.01.2020
398 Clouds 9 1012 71 10000 4.6 190 17:21 17.01.2020
399 Clouds 9 1012 71 10000 3.6 180 16:57 17.01.2020
400 Clouds 9 1012 71 10000 4.6 190 16:38 17.01.2020
401 Clouds 9 1012 71 10000 3.6 210 16:19 17.01.2020
402 Clouds 10 1012 71 10000 3.6 210 15:45 17.01.2020
403 Clouds 10 1012 66 10000 4.1 210 15:26 17.01.2020
404 Clouds 10 1013 66 10000 4.1 180 14:45 17.01.2020
405 Clouds 10 1013 66 10000 4.6 190 14:27 17.01.2020
406 Clouds 10 1013 62 10000 6.2 170 13:58 17.01.2020
407 Clouds 10 1013 62 10000 6.2 170 13:38 17.01.2020
408 Clouds 10 1014 66 10000 6.2 170 13:19 17.01.2020
409 Clouds 10 1015 70 10000 5.1 170 12:44 17.01.2020
410 Clouds 9 1015 70 10000 5.1 170 12:22 17.01.2020
411 Clouds 8 1015 75 10000 6.7 140 11:40 17.01.2020
412 Clouds 8 1015 75 10000 6.7 140 11:19 17.01.2020
413 Clouds 7 1016 75 10000 6.2 150 10:44 17.01.2020
414 Clouds 7 1016 81 10000 5.1 150 10:23 17.01.2020
415 Clouds 6 1016 81 10000 5.7 160 09:59 17.01.2020
416 Clouds 6 1016 81 10000 5.1 160 09:41 17.01.2020
417 Clouds 6 1016 81 10000 5.1 160 09:20 17.01.2020
418 Clouds 6 1016 81 10000 6.7 160 08:46 17.01.2020
419 Clouds 6 1017 81 10000 6.2 160 08:25 17.01.2020
420 Clouds 6 1017 81 10000 6.2 160 08:25 17.01.2020
421 Clouds 6 1017 81 10000 6.7 150 07:56 17.01.2020
422 Clouds 6 1017 81 10000 6.7 150 07:56 17.01.2020
423 Clouds 6 1017 81 10000 6.7 160 07:36 17.01.2020
424 Clouds 6 1017 81 10000 6.7 160 07:18 17.01.2020
425 Clouds 5 1017 87 10000 6.7 160 06:41 17.01.2020
426 Clouds 5 1018 86 10000 4.6 150 05:59 17.01.2020
427 Clouds 5 1018 88 0 3.67 166 03:44 17.01.2020
428 Clouds 5 1022 81 0 3.67 166 02:55 17.01.2020
429 Clouds 5 1020 94 0 0.45 139 02:28 17.01.2020
430 Clouds 5 1021 94 0 0.45 143 01:32 17.01.2020
431 Clouds 5 1021 94 0 0.45 144 00:58 17.01.2020
432 Clouds 5 1020 95 0 0.45 180 00:29 17.01.2020
433 Clouds 5 1022 86 10000 4.6 140 23:54 16.01.2020
434 Clouds 5 1022 86 10000 4.6 140 23:54 16.01.2020
435 Clouds 5 1022 86 10000 4.6 140 23:36 16.01.2020
436 Clouds 5 1022 86 10000 5.1 140 23:18 16.01.2020
437 Clouds 5 1023 86 10000 5.7 140 22:40 16.01.2020
438 Clouds 5 1023 86 10000 5.7 140 22:21 16.01.2020
439 Clouds 5 1023 81 10000 5.1 150 21:57 16.01.2020
440 Clouds 5 1024 81 10000 5.1 150 21:37 16.01.2020
441 Clouds 5 1024 81 10000 5.1 150 21:19 16.01.2020
442 Clouds 5 1024 81 10000 5.7 150 20:56 16.01.2020
443 Clouds 5 1024 81 10000 5.7 150 20:38 16.01.2020
444 Clouds 5 1024 81 10000 5.7 150 20:18 16.01.2020
445 Clouds 6 1024 75 10000 5.7 150 19:56 16.01.2020
446 Clouds 6 1024 81 10000 5.1 140 19:37 16.01.2020
447 Clouds 6 1024 81 10000 5.1 140 19:19 16.01.2020
448 Clouds 6 1024 81 10000 5.1 140 19:19 16.01.2020
449 Clouds 6 1025 81 10000 4.1 140 18:55 16.01.2020
450 Clouds 6 1025 87 10000 4.1 140 18:37 16.01.2020
451 Clouds 6 1025 87 10000 4.1 140 18:18 16.01.2020
452 Clouds 6 1025 87 10000 4.1 140 17:42 16.01.2020
453 Clouds 6 1025 81 10000 4.1 140 17:23 16.01.2020
454 Clouds 7 1025 75 10000 3.1 160 16:57 16.01.2020
455 Clouds 7 1025 75 10000 3.6 160 16:39 16.01.2020
456 Clouds 8 1025 75 10000 3.6 160 16:19 16.01.2020
457 Clouds 8 1025 75 10000 2.1 190 15:44 16.01.2020
458 Clouds 8 1025 75 10000 4.1 210 15:23 16.01.2020
459 Clouds 9 1025 76 10000 2.6 180 14:57 16.01.2020
460 Clouds 8 1025 76 10000 2.6 180 14:39 16.01.2020
461 Clouds 8 1025 75 10000 3.1 190 14:20 16.01.2020
462 Clouds 8 1026 76 10000 5.1 210 13:45 16.01.2020
463 Clouds 8 1026 81 10000 4.1 210 13:26 16.01.2020
464 Clouds 7 1026 81 10000 4.6 210 12:47 16.01.2020
465 Clouds 7 1026 81 10000 4.6 210 12:29 16.01.2020
466 Clouds 7 1026 81 10000 4.6 210 12:29 16.01.2020
467 Clouds 7 1026 81 10000 4.6 210 12:29 16.01.2020
468 Clouds 7 1026 81 10000 4.6 220 11:59 16.01.2020
469 Clouds 6 1026 87 10000 5.1 220 11:41 16.01.2020
470 Clouds 6 1026 87 10000 5.1 220 11:23 16.01.2020
471 Clouds 5 1026 93 10000 5.1 220 10:55 16.01.2020
472 Clouds 5 1026 93 9000 4.6 220 10:36 16.01.2020
473 Clouds 5 1026 93 9000 4.6 220 10:18 16.01.2020
474 Clouds 4 1025 93 8000 5.1 220 09:42 16.01.2020
475 Clouds 4 1024 93 8000 5.1 230 09:24 16.01.2020
476 Clouds 4 1024 93 8000 5.1 220 08:58 16.01.2020
477 Clouds 4 1024 93 10000 4.6 230 08:39 16.01.2020
478 Clouds 4 1024 93 10000 4.6 230 08:18 16.01.2020
479 Clouds 4 1023 93 10000 4.6 220 07:42 16.01.2020
480 Clouds 4 1023 93 10000 4.6 220 07:23 16.01.2020
481 Clouds 4 1023 93 10000 4.6 220 07:23 16.01.2020
482 Clouds 4 1023 93 10000 5.1 220 06:52 16.01.2020
483 Clouds 5 1022 93 10000 5.1 220 06:34 16.01.2020
484 Clouds 5 1022 86 10000 5.1 230 05:49 16.01.2020
485 Clouds 5 1022 87 10000 4.6 230 04:50 16.01.2020
486 Clouds 5 1021 87 10000 5.7 230 03:57 16.01.2020
487 Clouds 5 1020 87 10000 4.6 230 02:47 16.01.2020
488 Clouds 5 1020 93 10000 4.6 230 02:21 16.01.2020
489 Clouds 6 1018 87 10000 4.6 230 00:43 16.01.2020
490 Clouds 6 1018 87 10000 4.1 240 00:23 16.01.2020
491 Clouds 6 1017 87 10000 4.1 250 23:45 15.01.2020
492 Clouds 6 1016 93 10000 3.6 250 23:22 15.01.2020
493 Clouds 6 1016 93 10000 3.1 240 22:57 15.01.2020
494 Clouds 7 1015 87 10000 3.1 260 22:38 15.01.2020
495 Clouds 7 1015 87 10000 3.1 260 22:18 15.01.2020
496 Clouds 7 1014 87 10000 4.1 270 21:56 15.01.2020
497 Rain 7 1013 87 10000 6.2 270 21:37 15.01.2020
498 Rain 8 1013 87 10000 6.2 270 21:37 15.01.2020
499 Rain 8 1013 87 10000 6.2 270 21:18 15.01.2020
500 Rain 9 1012 81 10000 8.2 230 20:55 15.01.2020
501 Rain 10 1011 76 10000 7.2 240 20:37 15.01.2020
502 Rain 11 1010 66 10000 9.3 230 20:19 15.01.2020
503 Rain 11 1010 66 10000 9.3 230 19:54 15.01.2020
504 Clouds 11 1010 62 10000 10.3 220 19:36 15.01.2020
505 Clouds 12 1010 62 10000 10.3 220 19:18 15.01.2020
506 Clouds 12 1009 58 10000 9.8 210 18:56 15.01.2020
507 Clouds 12 1009 58 10000 9.3 210 18:37 15.01.2020
508 Clouds 12 1009 58 10000 9.3 210 18:37 15.01.2020
509 Clouds 12 1009 58 10000 9.3 210 18:19 15.01.2020
510 Rain 12 1009 58 10000 10.3 210 17:55 15.01.2020
511 Clouds 12 1008 58 10000 10.3 210 17:37 15.01.2020
512 Clouds 12 1008 58 10000 10.3 210 17:18 15.01.2020
513 Clouds 12 1008 58 10000 8.2 200 16:40 15.01.2020
514 Clouds 12 1008 58 10000 8.2 200 16:21 15.01.2020
515 Clouds 12 1008 58 10000 7.2 200 15:57 15.01.2020
516 Clouds 13 1008 58 10000 7.7 200 15:39 15.01.2020
517 Clouds 13 1008 58 10000 7.7 200 15:18 15.01.2020
518 Clouds 13 1008 58 10000 6.7 200 14:43 15.01.2020
519 Clouds 13 1007 54 10000 9.8 210 14:20 15.01.2020
520 Clouds 13 1008 54 10000 11.8 210 13:46 15.01.2020
521 Clouds 13 1007 54 10000 12.3 210 13:27 15.01.2020
522 Clouds 13 1007 54 10000 10.8 210 12:59 15.01.2020
523 Clouds 13 1007 54 10000 10.8 210 12:40 15.01.2020
524 Clouds 13 1007 58 10000 10.8 220 12:20 15.01.2020
525 Clouds 12 1008 62 10000 11.8 210 11:58 15.01.2020
526 Clouds 12 1008 62 10000 11.8 210 11:37 15.01.2020
527 Clouds 12 1007 62 10000 10.8 210 11:19 15.01.2020
528 Clouds 12 1007 62 10000 10.3 200 10:46 15.01.2020
529 Clouds 12 1007 62 10000 10.3 200 10:27 15.01.2020
530 Clouds 12 1007 66 10000 10.3 210 09:54 15.01.2020
531 Clouds 11 1007 66 10000 10.8 210 09:36 15.01.2020
532 Clouds 11 1007 66 10000 10.8 210 09:18 15.01.2020
533 Clouds 11 1006 66 10000 11.3 210 08:41 15.01.2020
534 Rain 11 1006 66 10000 11.3 210 08:23 15.01.2020
535 Clouds 11 1006 71 10000 9.8 210 07:53 15.01.2020
536 Clouds 11 1006 71 10000 9.8 210 07:32 15.01.2020
537 Clouds 11 1006 71 10000 9.8 210 06:47 15.01.2020
538 Clouds 11 1005 71 10000 10.8 210 06:21 15.01.2020
539 Clouds 11 1005 71 10000 10.3 210 04:45 15.01.2020
540 Clouds 11 1004 71 10000 10.3 210 02:39 15.01.2020
541 Clouds 11 1004 71 10000 10.8 220 01:28 15.01.2020
542 Clouds 11 1004 71 10000 10.8 220 01:28 15.01.2020
543 Clouds 11 1004 71 10000 10.8 210 00:59 15.01.2020
544 Clouds 11 1004 71 10000 10.8 210 00:36 15.01.2020
545 Clouds 11 1004 71 10000 10.8 210 00:18 15.01.2020
546 Clouds 11 1004 71 10000 10.8 210 23:45 14.01.2020
547 Clouds 11 1004 71 10000 10.8 210 23:24 14.01.2020
548 Clouds 11 1003 76 10000 10.8 210 22:54 14.01.2020
549 Clouds 11 1003 71 10000 10.8 200 22:36 14.01.2020
550 Clouds 11 1003 71 10000 10.8 200 22:18 14.01.2020
551 Clouds 10 1003 71 10000 11.3 200 21:55 14.01.2020
552 Clouds 10 1003 71 10000 9.8 190 21:37 14.01.2020
553 Clouds 10 1003 71 10000 8.2 190 21:19 14.01.2020
554 Clouds 10 1004 76 10000 8.7 190 20:42 14.01.2020
555 -273 0 0 0 0 0 20:22 14.01.2020
556 Clouds 10 1004 76 10000 8.7 190 19:57 14.01.2020
557 Clouds 10 1004 81 10000 7.7 190 19:38 14.01.2020
558 Clouds 10 1004 81 10000 7.7 190 19:20 14.01.2020
559 Clouds 10 1004 81 10000 7.7 190 19:20 14.01.2020
560 Rain 9 1004 81 10000 6.7 190 18:58 14.01.2020
561 Clouds 9 1004 81 10000 8.7 200 18:39 14.01.2020
562 Clouds 9 1004 81 10000 8.7 200 18:19 14.01.2020
563 Clouds 9 1004 81 10000 8.7 200 18:19 14.01.2020
564 Clouds 9 1004 81 10000 7.7 210 17:39 14.01.2020
565 Clouds 9 1004 81 10000 7.7 210 17:20 14.01.2020
566 Clouds 9 1004 81 10000 8.7 210 16:59 14.01.2020
567 Clouds 9 1004 81 10000 8.7 210 16:41 14.01.2020
568 Clouds 9 1004 81 10000 6.2 200 16:21 14.01.2020
569 Clouds 9 1004 81 10000 7.7 210 15:55 14.01.2020
570 Clouds 9 1004 81 10000 8.2 220 15:37 14.01.2020
571 Clouds 9 1004 81 10000 8.2 220 15:18 14.01.2020
572 Clouds 9 1004 81 10000 7.7 230 14:43 14.01.2020
573 Clouds 9 1004 81 10000 7.7 230 14:20 14.01.2020
574 Rain 9 1004 87 10000 8.2 220 13:54 14.01.2020
575 Rain 9 1004 93 10000 8.7 220 13:36 14.01.2020
576 Rain 9 1004 93 10000 8.7 220 13:18 14.01.2020
577 Rain 9 1004 87 10000 10.3 210 12:40 14.01.2020
578 Rain 9 1004 87 10000 10.3 210 12:20 14.01.2020
579 Rain 9 1004 87 10000 10.3 210 12:20 14.01.2020
580 Rain 9 1004 87 10000 10.3 210 12:20 14.01.2020
581 Rain 9 1003 87 10000 10.3 220 11:43 14.01.2020
582 Rain 8 1003 87 10000 9.8 210 11:23 14.01.2020
583 Rain 8 1003 87 10000 10.8 210 10:59 14.01.2020
584 Rain 8 1002 87 10000 8.7 200 10:39 14.01.2020
585 Rain 8 1002 87 10000 8.7 200 10:20 14.01.2020
586 Rain 8 1002 87 10000 8.7 200 09:58 14.01.2020
587 Rain 8 1002 93 10000 9.3 200 09:40 14.01.2020
588 Rain 8 1002 93 10000 9.3 200 09:20 14.01.2020
589 Rain 8 1002 93 10000 9.8 200 08:48 14.01.2020
590 Rain 7 1002 93 10000 7.7 180 08:25 14.01.2020
591 Rain 8 1002 87 10000 6.7 180 07:53 14.01.2020
592 Rain 7 1003 87 10000 7.2 180 07:33 14.01.2020
593 Rain 7 1003 87 10000 7.2 180 06:54 14.01.2020
594 Rain 7 1003 81 10000 8.7 180 06:33 14.01.2020
595 Clouds 7 1004 75 10000 8.7 180 05:27 14.01.2020
596 Clouds 6 1005 75 10000 6.7 160 03:52 14.01.2020
597 Clouds 6 1006 81 10000 6.2 160 02:43 14.01.2020
598 Clouds 5 1007 86 10000 6.7 150 01:55 14.01.2020
599 Clouds 5 1008 81 10000 7.2 150 00:51 14.01.2020
600 Clouds 5 1009 86 10000 6.7 160 00:33 14.01.2020
601 Clouds 5 1009 86 10000 6.7 160 00:33 14.01.2020
602 Clouds 5 1009 81 10000 7.2 160 23:55 13.01.2020
603 Clouds 5 1010 86 10000 7.2 160 23:37 13.01.2020
604 Clouds 5 1010 86 10000 7.2 160 23:18 13.01.2020
605 Clouds 5 1010 86 10000 5.7 160 22:42 13.01.2020
606 Clouds 4 1011 86 10000 6.7 160 22:22 13.01.2020
607 Clouds 5 1011 86 10000 7.2 150 21:57 13.01.2020
608 Clouds 5 1012 86 10000 6.2 150 21:38 13.01.2020
609 Clouds 5 1012 86 10000 6.2 150 21:19 13.01.2020
610 Clouds 5 1012 87 10000 5.1 150 20:59 13.01.2020
611 Clouds 5 1012 87 10000 5.1 150 20:59 13.01.2020
612 Clouds 4 1012 93 10000 2.6 150 20:41 13.01.2020
613 Clouds 4 1012 93 10000 2.6 150 20:22 13.01.2020
614 Clouds 5 1013 87 10000 5.7 170 19:59 13.01.2020
615 Clouds 5 1014 81 10000 4.1 180 19:40 13.01.2020
616 Clouds 5 1014 81 10000 4.1 180 19:20 13.01.2020
617 Clouds 5 1014 81 10000 4.6 190 18:57 13.01.2020
618 Clouds 5 1014 81 10000 4.6 190 18:37 13.01.2020
619 Clouds 5 1014 81 10000 4.1 180 18:19 13.01.2020
620 Clouds 5 1015 81 10000 4.1 180 17:55 13.01.2020
621 Clouds 5 1015 81 10000 4.6 180 17:36 13.01.2020
622 Clouds 6 1015 81 10000 4.6 180 17:18 13.01.2020
623 Clouds 7 1012 92 0 3.21 208 16:40 13.01.2020
624 Clouds 7 1012 92 0 3.21 208 16:40 13.01.2020
625 Clouds 7 1014 66 0 3.21 208 16:21 13.01.2020
626 Clouds 7 1013 87 0 3.21 208 15:55 13.01.2020
627 Clouds 7 1015 64 0 3.21 208 15:36 13.01.2020
628 Clouds 7 1013 88 0 3.21 208 15:18 13.01.2020
629 Clouds 7 1014 91 0 3.21 208 14:42 13.01.2020
630 Clouds 7 1016 91 0 0.89 202 14:23 13.01.2020
631 Clouds 7 1017 80 0 3.98 233 13:58 13.01.2020
632 Clouds 7 1018 83 0 0.45 197 13:39 13.01.2020
633 Clouds 7 1014 98 0 1.34 225 13:39 13.01.2020
634 Clouds 7 1015 95 0 3.67 228 13:21 13.01.2020
635 Clouds 7 1018 87 10000 4.1 220 12:56 13.01.2020
636 Clouds 7 1018 87 10000 4.1 220 12:37 13.01.2020
637 Clouds 7 1018 87 10000 4.1 220 12:37 13.01.2020
638 Clouds 6 1018 87 10000 4.1 220 12:19 13.01.2020
639 Clouds 6 1018 87 10000 4.1 220 12:19 13.01.2020
640 Clouds 6 1018 87 10000 4.1 220 12:19 13.01.2020
641 Clouds 6 1018 93 10000 4.1 220 11:39 13.01.2020
642 Clouds 6 1018 93 10000 4.1 220 11:20 13.01.2020
643 Clouds 6 1018 93 10000 5.7 220 10:57 13.01.2020
644 Clouds 5 1018 87 10000 4.6 200 10:39 13.01.2020
645 Clouds 5 1018 87 10000 4.6 200 10:39 13.01.2020
646 Clouds 5 1018 87 10000 4.6 200 10:20 13.01.2020
647 Clouds 5 1018 87 10000 4.6 200 10:20 13.01.2020
648 Clouds 5 1018 93 10000 3.6 210 09:58 13.01.2020
649 Clouds 5 1018 93 10000 4.1 210 09:40 13.01.2020
650 Clouds 5 1018 93 10000 4.1 210 09:21 13.01.2020
651 Clouds 5 1018 93 10000 3.6 200 08:41 13.01.2020
652 Clouds 5 1018 93 10000 3.1 220 08:20 13.01.2020
653 Clouds 5 1018 93 10000 4.1 220 07:52 13.01.2020
654 Clouds 5 1018 100 10000 3.6 220 07:33 13.01.2020
655 Clouds 5 1018 93 10000 3.6 210 06:43 13.01.2020
656 Clouds 5 1018 93 10000 3.6 210 06:22 13.01.2020
657 Clouds 5 1018 87 10000 4.1 240 05:36 13.01.2020
658 Clouds 6 1018 93 10000 3.6 250 04:25 13.01.2020
659 Clouds 6 1018 87 10000 4.6 250 03:26 13.01.2020
660 Clouds 6 1018 93 10000 4.1 260 02:47 13.01.2020
661 Drizzle 6 1018 93 5000 4.1 270 02:29 13.01.2020
662 Drizzle 7 1017 93 9000 5.7 270 01:23 13.01.2020
663 Drizzle 7 1016 93 9000 5.7 260 00:42 13.01.2020
664 Drizzle 7 1016 93 9000 5.7 260 00:24 13.01.2020
665 Drizzle 7 1016 93 10000 5.7 250 23:56 12.01.2020
666 Drizzle 7 1015 87 9000 7.7 250 23:37 12.01.2020
667 Drizzle 7 1015 87 9000 7.7 250 23:19 12.01.2020
668 Drizzle 7 1014 93 8000 6.7 240 22:42 12.01.2020
669 Drizzle 7 1014 93 8000 6.7 240 22:24 12.01.2020
670 Rain 8 1014 93 9000 5.7 240 21:57 12.01.2020
671 Drizzle 8 1014 93 10000 7.2 230 21:39 12.01.2020
672 Drizzle 8 1014 93 10000 7.2 230 21:20 12.01.2020
673 Clouds 7 1014 87 10000 7.2 230 20:57 12.01.2020
674 Rain 7 1014 87 10000 8.7 230 20:39 12.01.2020
675 Rain 7 1014 87 10000 8.7 230 20:20 12.01.2020
676 Rain 7 1013 93 10000 8.7 230 19:56 12.01.2020
677 Rain 7 1013 93 8000 8.7 230 19:38 12.01.2020
678 Rain 7 1013 93 8000 8.7 230 19:38 12.01.2020
679 Rain 7 1013 93 8000 8.7 230 19:19 12.01.2020
680 Clouds 7 1013 93 10000 8.2 230 18:57 12.01.2020
681 Clouds 7 1013 93 10000 8.7 220 18:39 12.01.2020
682 Clouds 7 1013 93 10000 8.7 220 18:21 12.01.2020
683 Clouds 6 1013 87 10000 8.7 230 17:57 12.01.2020
684 Clouds 6 1013 93 10000 9.3 220 17:38 12.01.2020
685 Clouds 6 1013 93 10000 9.3 220 17:19 12.01.2020
686 Clouds 6 1013 93 6000 9.3 220 16:55 12.01.2020
687 Rain 6 1013 93 5000 8.2 220 16:37 12.01.2020
688 Rain 6 1013 93 5000 8.2 220 16:18 12.01.2020
689 Drizzle 5 1014 93 3500 8.2 220 15:42 12.01.2020
690 Drizzle 5 1014 93 3500 8.2 220 15:24 12.01.2020
691 Rain 5 1014 93 4500 8.2 210 14:57 12.01.2020
692 Rain 5 1014 93 4500 7.2 210 14:38 12.01.2020
693 Rain 5 1014 93 4500 7.2 210 14:19 12.01.2020
694 Drizzle 5 1015 93 4500 7.7 210 13:54 12.01.2020
695 Drizzle 5 1015 93 5000 7.2 210 13:36 12.01.2020
696 Drizzle 5 1015 93 5000 7.2 210 13:18 12.01.2020
697 Rain 5 1015 86 7000 8.7 220 12:42 12.01.2020
698 Rain 5 1016 86 10000 9.3 210 12:20 12.01.2020
699 Rain 5 1016 86 10000 8.2 220 11:59 12.01.2020
700 Rain 5 1016 75 10000 7.2 220 11:39 12.01.2020
701 Rain 5 1016 75 10000 7.2 220 11:20 12.01.2020
702 Clouds 5 1017 75 10000 8.2 220 10:42 12.01.2020
703 Clouds 5 1016 75 10000 8.7 220 10:22 12.01.2020
704 Clouds 5 1016 80 10000 8.2 220 09:59 12.01.2020
705 Clouds 5 1016 80 10000 8.2 220 09:41 12.01.2020
706 Clouds 5 1016 80 10000 8.7 210 09:20 12.01.2020
707 Rain 5 1017 80 10000 8.2 210 08:45 12.01.2020
708 Rain 5 1017 80 10000 8.2 210 08:21 12.01.2020
709 Rain 6 1018 81 10000 8.7 220 07:44 12.01.2020
710 Rain 6 1018 81 10000 8.7 220 07:25 12.01.2020
711 Rain 6 1018 81 10000 8.2 220 06:50 12.01.2020
712 Clouds 6 1018 75 10000 8.2 220 06:32 12.01.2020
713 Clouds 6 1019 75 10000 7.7 220 05:47 12.01.2020
714 Clouds 6 1019 75 10000 7.7 220 04:52 12.01.2020
715 Clouds 6 1019 75 10000 8.2 220 03:29 12.01.2020
716 Clouds 6 1020 75 10000 8.7 220 02:43 12.01.2020
717 Clouds 6 1020 75 10000 8.7 220 02:22 12.01.2020
718 Clouds 6 1021 75 10000 8.2 220 01:30 12.01.2020
719 Clouds 6 1021 75 10000 8.2 220 00:45 12.01.2020
720 Clouds 6 1021 75 10000 9.3 220 00:22 12.01.2020
721 Clouds 6 1021 75 10000 10.3 220 23:56 11.01.2020
722 Clouds 6 1021 75 10000 9.3 220 23:37 11.01.2020
723 Clouds 6 1021 75 10000 9.3 220 23:18 11.01.2020
724 Clouds 6 1022 75 10000 9.3 220 22:56 11.01.2020
725 Clouds 6 1022 75 10000 8.7 210 22:37 11.01.2020
726 Clouds 6 1022 75 10000 8.7 210 22:18 11.01.2020
727 Clouds 6 1023 75 10000 8.7 210 21:44 11.01.2020
728 Clouds 5 1023 75 10000 8.7 210 21:19 11.01.2020
729 Clouds 5 1024 70 10000 7.7 220 20:56 11.01.2020
730 Clouds 5 1024 70 10000 7.2 220 20:38 11.01.2020
731 Clouds 5 1024 70 10000 7.2 220 20:19 11.01.2020
732 Clouds 5 1024 80 10000 6.2 220 19:56 11.01.2020
733 Clouds 5 1024 75 10000 8.7 210 19:38 11.01.2020
734 Clouds 5 1024 75 10000 8.7 210 19:20 11.01.2020
735 Clouds 5 1024 75 10000 9.3 210 18:55 11.01.2020
736 Clouds 5 1024 80 10000 8.7 200 18:36 11.01.2020
737 Clouds 5 1024 80 10000 8.7 200 18:18 11.01.2020
738 Clouds 5 1024 80 10000 8.7 200 18:18 11.01.2020
739 Clouds 5 1024 80 10000 8.7 200 18:18 11.01.2020
740 Clouds 5 1024 80 10000 8.7 200 18:18 11.01.2020
741 Clouds 5 1025 80 10000 8.7 210 17:57 11.01.2020
742 Clouds 5 1025 80 10000 8.2 200 17:39 11.01.2020
743 Clouds 5 1025 80 10000 8.2 200 17:18 11.01.2020
744 Clouds 5 1026 80 10000 7.7 210 16:43 11.01.2020
745 Clouds 5 1026 80 10000 7.7 210 16:24 11.01.2020
746 Clouds 5 1026 80 10000 7.7 210 15:56 11.01.2020
747 Clouds 5 1026 75 10000 7.7 210 15:38 11.01.2020
748 Clouds 5 1026 75 10000 7.7 210 15:19 11.01.2020
749 Clouds 5 1026 80 10000 7.7 210 14:46 11.01.2020
750 Clouds 5 1027 75 10000 8.2 220 14:25 11.01.2020
751 Clouds 5 1027 80 10000 8.7 220 13:57 11.01.2020
752 Clouds 5 1027 80 10000 6.7 210 13:38 11.01.2020
753 Clouds 5 1027 80 10000 6.7 210 13:20 11.01.2020
754 Clouds 5 1027 80 10000 7.2 210 12:56 11.01.2020
755 Clouds 5 1028 80 10000 7.2 210 12:37 11.01.2020
756 Clouds 5 1028 80 10000 7.2 210 12:19 11.01.2020
757 Clouds 4 1029 86 10000 5.1 210 11:42 11.01.2020
758 Clouds 4 1029 86 10000 5.1 210 11:24 11.01.2020
759 Clouds 3 1029 86 10000 5.7 220 10:47 11.01.2020
760 Clouds 3 1029 86 10000 5.7 220 10:47 11.01.2020
761 Clouds 3 1029 93 10000 4.6 220 10:25 11.01.2020
762 Clouds 2 1028 86 10000 4.6 210 09:44 11.01.2020
763 Clouds 2 1028 100 10000 3.6 220 09:21 11.01.2020
764 Clouds 2 1028 100 10000 3.6 220 09:21 11.01.2020
765 Clouds 2 1028 88 10000 3.6 210 08:59 11.01.2020
766 Clouds 2 1028 89 10000 3.6 210 08:40 11.01.2020
767 Clouds 2 1028 95 10000 3.6 210 08:19 11.01.2020
768 Clouds 2 1028 100 10000 3.1 210 07:43 11.01.2020
769 Clouds 2 1028 100 10000 3.1 210 07:24 11.01.2020
770 Clouds 2 1028 93 10000 2.6 250 06:43 11.01.2020
771 Clouds 3 1028 86 10000 3.1 260 05:31 11.01.2020
772 Clouds 3 1027 93 10000 2.1 250 04:43 11.01.2020
773 Clouds 3 1027 93 10000 2.1 250 04:25 11.01.2020
774 Clouds 3 1027 80 10000 2.1 270 02:48 11.01.2020
775 Clouds 4 1026 80 10000 3.1 280 01:48 11.01.2020
776 Clouds 4 1026 80 10000 3.1 280 01:30 11.01.2020
777 Clouds 4 1026 75 10000 4.6 300 00:58 11.01.2020
778 Clouds 4 1025 75 10000 5.1 300 00:29 11.01.2020
779 Clouds 4 1025 80 10000 4.1 290 23:59 10.01.2020
780 Clouds 4 1024 80 10000 4.1 290 23:39 10.01.2020
781 Clouds 4 1024 80 10000 4.1 290 23:20 10.01.2020
782 Clouds 4 1024 80 10000 5.1 290 22:55 10.01.2020
783 Clouds 4 1023 80 10000 5.1 290 22:37 10.01.2020
784 Clouds 4 1023 80 10000 5.1 290 22:18 10.01.2020
785 Clouds 4 1022 80 10000 5.1 290 21:54 10.01.2020
786 Clouds 4 1021 75 10000 5.1 290 21:36 10.01.2020
787 Clouds 4 1021 75 10000 5.1 290 21:18 10.01.2020
788 Clouds 4 1021 80 10000 6.2 300 20:42 10.01.2020
789 Clouds 4 1021 80 10000 6.2 300 20:24 10.01.2020
790 Clouds 4 1021 80 10000 6.2 300 20:24 10.01.2020
791 Clouds 4 1020 80 10000 6.2 310 19:55 10.01.2020
792 Clouds 5 1019 80 10000 5.1 310 19:37 10.01.2020
793 Clouds 5 1019 80 10000 5.1 310 19:19 10.01.2020
794 Clouds 5 1019 80 10000 7.2 310 18:41 10.01.2020
795 Clouds 5 1018 80 10000 9.3 310 18:19 10.01.2020
796 Clouds 5 1018 80 10000 9.3 310 18:19 10.01.2020
797 Clouds 5 1017 86 10000 8.2 300 17:57 10.01.2020
798 Drizzle 5 1016 86 8000 8.2 300 17:39 10.01.2020
799 Drizzle 5 1016 86 8000 8.2 300 17:20 10.01.2020
800 Clouds 6 1015 81 10000 8.7 290 16:56 10.01.2020
801 Clouds 6 1014 93 10000 7.2 290 16:37 10.01.2020
802 Clouds 6 1014 93 10000 7.2 290 16:19 10.01.2020
803 Clouds 7 1013 93 10000 7.2 280 15:56 10.01.2020
804 Drizzle 7 1012 87 7000 5.7 260 15:36 10.01.2020
805 Drizzle 7 1012 87 7000 5.7 260 15:18 10.01.2020
806 Drizzle 7 1012 87 5000 5.7 250 14:54 10.01.2020
807 Clouds 8 1011 76 10000 6.7 240 14:36 10.01.2020
808 Clouds 8 1011 76 10000 6.7 240 14:18 10.01.2020
809 Rain 8 1011 76 10000 6.7 250 13:43 10.01.2020
810 Rain 8 1011 81 10000 7.2 240 13:25 10.01.2020
811 Clouds 8 1011 81 10000 5.7 240 12:58 10.01.2020
812 Clouds 8 1011 81 10000 6.2 230 12:39 10.01.2020
813 Clouds 8 1011 81 10000 6.2 230 12:39 10.01.2020
814 Clouds 8 1011 81 10000 6.2 230 12:19 10.01.2020
815 Clouds 8 1011 81 10000 6.2 230 12:19 10.01.2020
816 Clouds 9 1011 81 10000 6.7 230 11:56 10.01.2020
817 Clouds 8 1010 81 10000 6.2 240 11:38 10.01.2020
818 Clouds 8 1010 81 10000 6.2 240 11:38 10.01.2020
819 Clouds 8 1010 81 10000 6.2 240 11:18 10.01.2020
820 Clouds 8 1010 81 10000 6.2 230 10:58 10.01.2020
821 Clouds 8 1010 81 10000 6.7 240 10:36 10.01.2020
822 Clouds 8 1010 81 10000 6.7 240 10:18 10.01.2020
823 Clouds 8 1010 81 10000 5.7 240 09:43 10.01.2020
824 Clouds 8 1009 81 10000 6.2 240 09:24 10.01.2020
825 Clouds 9 1009 87 10000 4.6 240 08:43 10.01.2020
826 Clouds 9 1009 87 10000 4.6 240 08:24 10.01.2020
827 Clouds 9 1009 87 10000 4.6 240 08:24 10.01.2020
828 Clouds 9 1008 87 10000 5.1 260 07:58 10.01.2020
829 Clouds 9 1008 87 10000 5.1 260 07:39 10.01.2020
830 Rain 10 1008 93 10000 6.2 230 07:19 10.01.2020
831 Rain 11 1007 93 9000 5.1 220 06:27 10.01.2020
832 Rain 11 1007 93 8000 5.7 220 05:59 10.01.2020
833 Rain 11 1007 100 6000 5.7 220 04:44 10.01.2020
834 Drizzle 11 1007 100 8000 6.2 210 03:31 10.01.2020
835 Drizzle 11 1007 100 5000 5.7 210 02:52 10.01.2020
836 Drizzle 11 1007 100 5000 5.7 210 01:53 10.01.2020
837 Drizzle 11 1007 100 5000 6.2 210 01:30 10.01.2020
838 Drizzle 11 1007 100 6000 6.7 210 00:49 10.01.2020
839 Drizzle 11 1007 100 6000 5.7 210 00:31 10.01.2020
840 Drizzle 11 1007 100 8000 5.1 210 23:57 09.01.2020
841 Drizzle 11 1007 100 8000 5.1 210 23:57 09.01.2020
842 Drizzle 11 1007 100 9000 6.2 210 23:36 09.01.2020
843 Drizzle 11 1007 100 9000 6.2 210 23:18 09.01.2020
844 Clouds 11 1007 100 7000 5.1 210 22:56 09.01.2020
845 Drizzle 11 1007 93 4000 5.7 210 22:37 09.01.2020
846 Drizzle 11 1007 93 4000 5.7 210 22:18 09.01.2020
847 Rain 11 1008 93 9000 4.6 210 21:55 09.01.2020
848 Rain 11 1007 93 10000 4.6 210 21:37 09.01.2020
849 Rain 11 1007 93 10000 4.6 210 21:18 09.01.2020
850 Drizzle 11 1007 100 9000 5.7 210 20:55 09.01.2020
851 Drizzle 11 1007 100 9000 5.7 210 20:37 09.01.2020
852 Drizzle 11 1007 100 9000 5.1 210 20:18 09.01.2020
853 Drizzle 11 1008 93 7000 5.7 210 19:39 09.01.2020
854 Drizzle 11 1008 93 10000 5.7 210 19:21 09.01.2020
855 Drizzle 11 1008 93 10000 5.7 210 18:57 09.01.2020
856 Drizzle 11 1008 100 4000 5.7 210 18:39 09.01.2020
857 Clouds 11 1007 93 10000 6.2 210 18:21 09.01.2020
858 Drizzle 11 1008 93 7000 5.7 210 17:57 09.01.2020
859 Drizzle 11 1008 93 7000 5.7 210 17:39 09.01.2020
860 Clouds 11 1008 93 10000 5.7 210 17:18 09.01.2020
861 Drizzle 11 1008 93 6000 6.2 220 16:42 09.01.2020
862 Drizzle 11 1008 93 6000 6.2 220 16:21 09.01.2020
863 Clouds 10 1008 93 10000 7.2 210 15:43 09.01.2020
864 Rain 10 1008 93 8000 7.7 210 15:23 09.01.2020
865 Rain 10 1008 93 10000 7.7 210 14:59 09.01.2020
866 Rain 10 1008 93 10000 7.7 210 14:41 09.01.2020
867 Rain 10 1008 87 10000 8.2 210 14:19 09.01.2020
868 Rain 10 1009 87 9000 6.7 200 13:56 09.01.2020
869 Rain 10 1009 93 10000 6.2 200 13:38 09.01.2020
870 Rain 10 1009 87 7000 6.2 190 13:19 09.01.2020
871 Clouds 9 1010 93 10000 5.7 190 12:56 09.01.2020
872 Clouds 9 1010 93 10000 5.7 190 12:38 09.01.2020
873 Drizzle 9 1010 100 10000 5.7 170 12:18 09.01.2020
874 Drizzle 9 1011 93 9000 6.2 170 11:42 09.01.2020
875 Drizzle 9 1011 93 9000 6.2 170 11:24 09.01.2020
876 Clouds 9 1012 93 10000 6.2 160 10:59 09.01.2020
877 Clouds 8 1012 93 10000 6.2 160 10:41 09.01.2020
878 Drizzle 8 1013 93 6000 6.7 170 10:21 09.01.2020
879 Drizzle 8 1013 93 4100 7.2 160 09:49 09.01.2020
880 Drizzle 8 1013 93 4100 7.2 160 09:25 09.01.2020
881 Drizzle 8 1013 93 6000 6.7 150 08:59 09.01.2020
882 Drizzle 8 1014 93 3200 5.1 170 08:40 09.01.2020
883 Mist 8 1015 93 5000 5.1 160 08:22 09.01.2020
884 Rain 8 1015 93 4800 4.1 160 07:57 09.01.2020
885 Rain 8 1015 93 4800 4.1 160 07:37 09.01.2020
886 Rain 8 1016 93 4800 3.1 160 07:19 09.01.2020
887 Mist 7 1016 100 5000 3.6 160 06:38 09.01.2020
888 Mist 7 1017 93 5000 2.6 140 06:18 09.01.2020
889 Mist 7 1017 93 4800 2.1 160 05:40 09.01.2020
890 Clouds 7 1018 93 10000 1.5 150 04:42 09.01.2020
891 Clouds 7 1020 93 10000 2.1 150 03:28 09.01.2020
892 Clouds 6 1020 93 9000 2.1 150 02:47 09.01.2020
893 Clouds 7 1020 100 9000 1 190 01:56 09.01.2020
894 Clouds 7 1020 93 10000 1 220 01:34 09.01.2020
895 Clouds 7 1021 93 10000 2.1 190 00:40 09.01.2020
896 Clouds 7 1021 93 10000 1 0 00:20 09.01.2020
897 Clouds 7 1021 100 10000 2.1 210 23:41 08.01.2020
898 Clouds 7 1021 93 9000 1 0 23:23 08.01.2020
899 Clouds 7 1021 100 10000 1 250 22:58 08.01.2020
900 Clouds 7 1021 100 10000 1 250 22:38 08.01.2020
901 Clouds 7 1021 100 10000 1.5 280 22:20 08.01.2020
902 Clouds 7 1021 93 10000 1.5 260 21:56 08.01.2020
903 Clouds 7 1021 93 10000 1.5 260 21:38 08.01.2020
904 Clouds 7 1021 93 10000 2.1 250 21:19 08.01.2020
905 Clouds 8 1021 93 10000 2.1 250 20:57 08.01.2020
906 Clouds 8 1021 93 10000 2.1 270 20:38 08.01.2020
907 Clouds 8 1021 93 10000 2.1 260 20:20 08.01.2020
908 Clouds 8 1021 93 10000 2.1 260 19:56 08.01.2020
909 Clouds 8 1021 93 10000 2.1 260 19:56 08.01.2020
910 Clouds 8 1021 93 10000 2.1 260 19:56 08.01.2020
911 Clouds 8 1021 93 10000 2.6 260 19:37 08.01.2020
912 Clouds 8 1021 93 10000 2.6 260 19:37 08.01.2020
913 Clouds 8 1021 93 10000 2.6 260 19:18 08.01.2020
914 Clouds 8 1021 93 10000 2.6 260 18:55 08.01.2020
915 Clouds 9 1020 93 10000 3.1 270 18:37 08.01.2020
916 Clouds 9 1020 100 10000 3.1 270 18:18 08.01.2020
917 Clouds 9 1020 93 10000 5.1 280 17:47 08.01.2020
918 Clouds 9 1020 93 10000 5.1 280 17:24 08.01.2020
919 Clouds 10 1019 100 10000 3.6 270 16:57 08.01.2020
920 Clouds 10 1019 100 10000 3.6 270 16:39 08.01.2020
921 Clouds 10 1019 100 10000 3.6 260 16:19 08.01.2020
922 Clouds 10 1019 100 10000 3.6 260 16:19 08.01.2020
923 Clouds 10 1019 100 10000 3.6 260 15:58 08.01.2020
924 Drizzle 10 1018 100 4500 4.1 250 15:39 08.01.2020
925 Drizzle 10 1018 100 5000 3.6 240 15:19 08.01.2020
926 Drizzle 10 1018 100 4000 4.1 250 14:55 08.01.2020
927 Drizzle 10 1018 100 4000 4.1 250 14:37 08.01.2020
928 Drizzle 10 1018 93 4500 5.1 240 14:19 08.01.2020
929 Drizzle 10 1018 93 3500 5.1 250 13:39 08.01.2020
930 Drizzle 9 1018 93 6000 6.7 240 13:18 08.01.2020
931 Clouds 9 1018 93 6000 5.7 240 12:41 08.01.2020
932 Clouds 9 1018 93 6000 6.2 240 12:19 08.01.2020
933 Clouds 9 1018 93 6000 6.2 230 11:55 08.01.2020
934 Clouds 9 1018 93 6000 6.2 230 11:55 08.01.2020
935 Clouds 9 1018 93 6000 6.2 230 11:37 08.01.2020
936 Drizzle 9 1018 93 6000 6.7 230 11:18 08.01.2020
937 Drizzle 8 1017 100 6000 6.7 230 10:54 08.01.2020
938 Drizzle 8 1017 100 6000 6.7 230 10:36 08.01.2020
939 Drizzle 8 1017 93 4200 6.2 230 10:18 08.01.2020
940 Drizzle 8 1017 93 5000 7.2 230 09:41 08.01.2020
941 Drizzle 8 1017 93 8000 6.7 230 09:19 08.01.2020
942 Drizzle 8 1017 93 8000 6.7 230 08:56 08.01.2020
943 Rain 8 1017 93 8000 7.7 220 08:37 08.01.2020
944 Clouds 8 1017 87 10000 7.2 220 08:18 08.01.2020
945 Rain 7 1017 93 10000 7.2 220 07:48 08.01.2020
946 Rain 7 1017 93 10000 7.7 220 07:29 08.01.2020
947 Rain 7 1017 93 10000 7.2 220 07:29 08.01.2020
948 Clouds 7 1017 87 10000 7.2 220 06:45 08.01.2020
949 Clouds 7 1017 87 10000 7.2 220 06:19 08.01.2020
950 Rain 7 1018 81 10000 7.2 230 05:41 08.01.2020
951 Rain 7 1018 81 10000 7.2 230 05:41 08.01.2020
952 Rain 7 1018 81 10000 7.7 230 04:56 08.01.2020
953 Rain 7 1017 75 10000 7.2 210 04:24 08.01.2020
954 Rain 7 1018 75 10000 7.7 210 02:45 08.01.2020
955 Clouds 7 1018 75 10000 8.7 210 02:21 08.01.2020
956 Rain 7 1019 75 10000 8.7 210 01:46 08.01.2020
957 Clouds 7 1019 81 10000 7.7 210 01:19 08.01.2020
958 Clouds 6 1020 81 10000 8.7 210 00:27 08.01.2020
959 Clouds 6 1020 81 10000 8.7 210 23:57 07.01.2020
960 Rain 6 1021 81 10000 8.2 210 23:39 07.01.2020
961 Clouds 6 1021 81 10000 7.7 210 23:20 07.01.2020
962 Clouds 6 1021 81 10000 7.7 210 23:20 07.01.2020
963 Clouds 6 1022 81 10000 7.2 220 22:40 07.01.2020
964 Clouds 6 1022 81 10000 7.7 220 22:20 07.01.2020
965 Clouds 6 1022 81 10000 7.7 220 21:57 07.01.2020
966 Clouds 6 1022 87 10000 5.7 210 21:38 07.01.2020
967 Clouds 6 1022 81 10000 8.7 210 21:20 07.01.2020
968 Clouds 6 1022 87 10000 5.7 210 20:55 07.01.2020
969 Clouds 5 1022 87 10000 5.7 210 20:37 07.01.2020
970 Clouds 5 1022 87 10000 6.7 200 20:19 07.01.2020
971 Clouds 5 1022 87 10000 6.7 200 19:38 07.01.2020
972 Clouds 5 1023 87 10000 6.7 200 19:20 07.01.2020
973 Clouds 5 1023 87 10000 6.7 200 18:58 07.01.2020
974 Clouds 5 1023 87 10000 7.2 210 18:40 07.01.2020
975 Clouds 5 1024 87 10000 6.2 210 18:19 07.01.2020
976 Clouds 5 1024 87 10000 6.2 210 18:00 07.01.2020
977 Clouds 6 1024 87 10000 4.6 210 17:39 07.01.2020
978 Clouds 6 1024 87 10000 3.6 220 17:21 07.01.2020
979 Clouds 6 1024 87 10000 3.6 220 16:57 07.01.2020
980 Clouds 6 1024 81 10000 4.1 220 16:38 07.01.2020
981 Clouds 7 1024 81 10000 4.6 230 16:19 07.01.2020
982 Clouds 7 1024 81 10000 4.6 230 15:58 07.01.2020
983 Clouds 7 1024 75 10000 5.1 240 15:40 07.01.2020
984 Clouds 7 1024 75 10000 5.7 250 15:22 07.01.2020
985 Clouds 7 1023 75 10000 6.7 240 14:55 07.01.2020
986 Clouds 7 1023 75 10000 6.7 240 14:37 07.01.2020
987 Clouds 7 1023 81 10000 4.6 230 14:18 07.01.2020
988 Clouds 7 1023 81 10000 4.6 250 13:40 07.01.2020
989 Clouds 7 1023 81 10000 4.1 260 13:19 07.01.2020
990 Clouds 7 1023 81 10000 4.1 240 12:42 07.01.2020
991 Clouds 7 1023 81 10000 4.1 240 12:42 07.01.2020
992 Clouds 7 1023 87 9000 4.1 240 12:21 07.01.2020
993 Clouds 7 1023 87 9000 4.1 230 11:59 07.01.2020
994 Clouds 7 1023 87 9000 4.1 230 11:40 07.01.2020
995 Clouds 7 1023 87 9000 4.6 230 11:21 07.01.2020
996 Clouds 6 1022 93 8000 3.6 230 10:42 07.01.2020
997 Clouds 6 1022 93 8000 3.6 230 10:24 07.01.2020
998 Drizzle 6 1022 93 7000 3.6 240 09:59 07.01.2020
999 Clouds 5 1022 93 6000 4.1 230 09:38 07.01.2020
1000 Mist 5 1021 93 5000 4.6 230 09:20 07.01.2020
1001 Mist 5 1021 93 4800 3.6 240 08:47 07.01.2020
1002 Mist 5 1021 93 4800 3.6 240 08:28 07.01.2020
1003 Mist 5 1020 93 4500 4.6 240 07:55 07.01.2020
1004 Mist 4 1020 93 4200 4.1 240 07:35 07.01.2020
1005 Drizzle 4 1019 93 3500 4.1 230 06:54 07.01.2020
1006 Drizzle 4 1019 93 3500 4.1 230 06:35 07.01.2020
1007 Drizzle 3 1019 93 3500 3.6 230 05:58 07.01.2020
1008 Drizzle 3 1019 93 3500 3.6 230 05:39 07.01.2020
1009 Clouds 2 1018 90 10000 4.6 230 03:44 07.01.2020
1010 Clouds 2 1018 90 10000 4.1 220 02:38 07.01.2020
1011 Clouds 2 1018 90 10000 4.1 230 01:59 07.01.2020
1012 Clouds 1 1018 86 10000 2.6 210 01:36 07.01.2020
1013 Clouds 2 1018 89 10000 3.1 170 00:55 07.01.2020
1014 Clouds 2 1018 89 10000 3.6 170 00:20 07.01.2020
1015 Clouds 2 1018 89 10000 3.6 170 23:56 06.01.2020
1016 Clouds 2 1018 89 10000 3.6 170 23:37 06.01.2020
1017 Clouds 2 1019 86 10000 3.1 160 23:19 06.01.2020
1018 Clouds 2 1019 80 10000 4.1 180 22:44 06.01.2020
1019 Clouds 3 1019 80 10000 4.1 180 22:24 06.01.2020
1020 Clouds 3 1019 80 10000 4.1 190 21:58 06.01.2020
1021 Clouds 4 1019 75 10000 4.1 190 21:39 06.01.2020
1022 Clouds 4 1020 75 10000 4.6 190 21:20 06.01.2020
1023 Clouds 4 1020 75 10000 4.6 190 21:20 06.01.2020
1024 Clouds 4 1020 75 10000 4.6 190 21:20 06.01.2020
1025 Clouds 4 1020 75 10000 4.6 190 20:57 06.01.2020
1026 Clouds 4 1020 75 10000 5.1 200 20:39 06.01.2020
1027 Clouds 5 1020 75 10000 5.1 200 20:20 06.01.2020
1028 Clouds 5 1021 81 10000 6.2 190 19:57 06.01.2020
1029 Clouds 5 1021 81 10000 6.2 190 19:38 06.01.2020
1030 Clouds 5 1021 81 10000 4.6 200 19:20 06.01.2020
1031 Clouds 5 1021 81 10000 4.1 190 18:48 06.01.2020
1032 Clouds 5 1021 81 10000 3.6 190 18:25 06.01.2020
1033 Clouds 5 1021 87 10000 4.6 210 17:59 06.01.2020
1034 Clouds 5 1021 87 10000 4.6 210 17:39 06.01.2020
1035 Clouds 5 1022 87 10000 5.7 210 17:19 06.01.2020
1036 Clouds 5 1022 87 10000 5.1 210 16:55 06.01.2020
1037 Clouds 6 1022 87 10000 5.1 210 16:36 06.01.2020
1038 Clouds 6 1022 87 10000 5.1 200 16:18 06.01.2020
1039 Clouds 6 1023 87 10000 5.1 210 15:42 06.01.2020
1040 Clouds 6 1023 87 10000 4.6 210 15:20 06.01.2020
1041 Clouds 6 1023 87 10000 4.6 210 14:59 06.01.2020
1042 Clouds 6 1023 81 10000 4.6 210 14:41 06.01.2020
1043 Clouds 6 1023 81 10000 4.6 210 14:41 06.01.2020
1044 Clouds 6 1024 87 10000 4.1 210 14:21 06.01.2020
1045 Clouds 6 1024 87 10000 4.1 210 13:58 06.01.2020
1046 Clouds 6 1024 93 10000 3.6 210 13:38 06.01.2020
1047 Drizzle 6 1024 93 7000 4.6 220 13:19 06.01.2020
1048 Drizzle 6 1025 93 4000 4.6 220 12:43 06.01.2020
1049 Drizzle 6 1025 93 4000 4.6 230 12:21 06.01.2020
1050 Drizzle 6 1025 93 4000 4.6 230 11:59 06.01.2020
1051 Clouds 5 1025 93 6000 4.6 230 11:41 06.01.2020
1052 Clouds 5 1025 93 6000 4.6 230 11:23 06.01.2020
1053 Drizzle 5 1026 100 4800 4.6 230 10:58 06.01.2020
1054 Drizzle 5 1026 100 4800 4.6 230 10:39 06.01.2020
1055 Mist 5 1026 100 4500 4.1 230 10:20 06.01.2020
1056 Drizzle 5 1026 100 3000 4.1 230 09:39 06.01.2020
1057 Clouds 5 1026 93 6000 4.1 230 09:20 06.01.2020
1058 Drizzle 5 1026 93 4800 4.6 230 08:51 06.01.2020
1059 Drizzle 5 1026 93 4800 4.6 230 08:33 06.01.2020
1060 Clouds 5 1026 93 6000 3.6 240 07:57 06.01.2020
1061 Clouds 5 1026 93 6000 3.6 240 07:36 06.01.2020
1062 Drizzle 5 1026 93 5000 5.1 230 06:47 06.01.2020
1063 Drizzle 5 1026 93 4900 4.1 230 06:27 06.01.2020
1064 Drizzle 5 1026 93 5000 4.6 230 05:48 06.01.2020
1065 Drizzle 5 1027 93 4600 4.6 230 04:53 06.01.2020
1066 Drizzle 5 1027 86 7000 5.1 230 04:20 06.01.2020
1067 Clouds 5 1027 93 10000 5.1 230 03:25 06.01.2020
1068 Clouds 5 1028 87 10000 5.1 240 02:25 06.01.2020
1069 Drizzle 5 1028 86 8000 5.7 230 01:46 06.01.2020
1070 Drizzle 5 1028 86 8000 5.7 230 01:28 06.01.2020
1071 Clouds 5 1028 81 10000 5.1 230 00:44 06.01.2020
1072 Clouds 5 1028 81 10000 5.1 230 00:44 06.01.2020
1073 Clouds 5 1028 81 10000 5.1 230 00:24 06.01.2020
1074 Clouds 5 1028 81 10000 5.1 230 23:57 05.01.2020
1075 Clouds 6 1028 81 10000 5.1 230 23:37 05.01.2020
1076 Clouds 5 1029 81 10000 5.1 230 23:19 05.01.2020
1077 Clouds 6 1029 87 10000 5.1 230 22:40 05.01.2020
1078 Drizzle 5 1029 87 9000 5.1 230 22:20 05.01.2020
1079 Clouds 5 1029 87 9000 5.1 230 21:56 05.01.2020
1080 Clouds 5 1029 87 9000 5.1 230 21:38 05.01.2020
1081 Clouds 5 1029 87 8000 4.6 230 21:20 05.01.2020
1082 Drizzle 5 1029 93 7000 5.1 230 20:56 05.01.2020
1083 Drizzle 5 1029 93 7000 5.1 230 20:38 05.01.2020
1084 Drizzle 5 1029 93 6000 5.1 220 20:19 05.01.2020
1085 Drizzle 5 1029 93 6000 5.1 220 20:19 05.01.2020
1086 Drizzle 6 1029 93 6000 5.1 220 19:58 05.01.2020
1087 Clouds 5 1030 93 7000 4.6 220 19:38 05.01.2020
1088 Drizzle 5 1030 93 5000 4.6 230 19:20 05.01.2020
1089 Drizzle 5 1030 93 5000 4.6 230 19:20 05.01.2020
1090 Drizzle 5 1030 93 5000 4.6 230 18:55 05.01.2020
1091 Mist 5 1030 93 5000 5.1 210 18:37 05.01.2020
1092 Mist 5 1030 93 5000 5.1 210 18:37 05.01.2020
1093 Mist 5 1030 93 5000 5.1 210 18:19 05.01.2020
1094 Mist 5 1030 93 5000 5.1 210 17:57 05.01.2020
1095 Mist 5 1030 93 5000 4.6 220 17:38 05.01.2020
1096 Mist 5 1030 93 5000 4.6 220 17:38 05.01.2020
1097 Mist 5 1030 93 5000 4.6 220 17:38 05.01.2020
1098 Mist 5 1030 93 5000 4.6 220 17:38 05.01.2020
1099 Mist 5 1030 93 5000 4.6 220 17:19 05.01.2020
1100 Mist 5 1030 93 5000 4.6 220 16:56 05.01.2020
1101 Mist 5 1031 93 5000 4.1 230 16:38 05.01.2020
1102 Drizzle 5 1031 93 5000 4.6 220 16:19 05.01.2020
1103 Clouds 4 1031 93 6000 5.1 220 15:38 05.01.2020
1104 Clouds 4 1031 93 6000 5.1 220 15:38 05.01.2020
1105 Clouds 4 1031 93 7000 5.1 220 15:20 05.01.2020
1106 Clouds 4 1031 93 7000 5.1 220 14:56 05.01.2020
1107 Clouds 4 1031 86 9000 3.6 220 14:38 05.01.2020
1108 Drizzle 4 1031 86 10000 4.1 210 14:19 05.01.2020
1109 Clouds 4 1031 86 10000 3.6 210 13:56 05.01.2020
1110 Clouds 4 1031 86 10000 3.6 210 13:38 05.01.2020
1111 Clouds 4 1031 86 10000 3.6 210 13:19 05.01.2020
1112 Clouds 4 1031 86 10000 3.6 210 13:19 05.01.2020
1113 Clouds 4 1032 86 10000 3.6 210 12:55 05.01.2020
1114 Clouds 4 1032 86 10000 3.6 210 12:37 05.01.2020
1115 Clouds 3 1032 80 10000 3.6 200 12:19 05.01.2020
1116 Clouds 3 1032 86 10000 2.6 210 11:44 05.01.2020
1117 Clouds 2 1032 86 10000 3.1 230 11:20 05.01.2020
1118 Clouds 2 1032 86 10000 3.1 230 11:20 05.01.2020
1119 Clear 2 1032 86 10000 3.1 210 10:58 05.01.2020
1120 Clear 2 1032 86 10000 3.1 210 10:40 05.01.2020
1121 Clear 2 1032 89 10000 2.6 230 10:19 05.01.2020
1122 Clear 0 1032 89 10000 2.1 210 09:42 05.01.2020
1123 Clouds 0 1032 86 10000 2.1 230 09:22 05.01.2020
1124 Clouds 0 1032 86 10000 1.5 240 08:52 05.01.2020
1125 Clouds 0 1032 86 10000 1.5 240 08:32 05.01.2020
1126 Clouds 0 1032 94 10000 2.6 240 07:59 05.01.2020
1127 Clouds 1 1032 94 10000 2.1 260 07:39 05.01.2020
1128 Clouds 1 1032 94 10000 2.1 260 07:39 05.01.2020
1129 Clouds 1 1032 94 10000 2.1 260 07:20 05.01.2020
1130 Clouds 1 1031 94 10000 2.6 260 06:44 05.01.2020
1131 Clouds 2 1031 94 10000 2.6 260 05:38 05.01.2020
1132 Clouds 2 1031 69 10000 3.1 260 04:55 05.01.2020
1133 Clouds 2 1031 69 10000 1 0 04:18 05.01.2020
1134 Clouds 2 1031 69 10000 1 0 04:18 05.01.2020
1135 Clouds 2 1031 69 10000 1 0 04:18 05.01.2020
1136 Clouds 2 1031 69 10000 2.1 270 03:18 05.01.2020
1137 Clouds 2 1031 69 10000 2.1 270 02:32 05.01.2020
1138 Clouds 2 1030 74 10000 3.1 280 01:49 05.01.2020
1139 Clouds 2 1030 74 10000 3.6 280 01:20 05.01.2020
1140 Clouds 2 1030 74 10000 3.6 280 00:57 05.01.2020
1141 Clouds 1 1029 74 10000 3.6 270 00:39 05.01.2020
1142 Clouds 2 1029 80 10000 3.6 270 00:19 05.01.2020
1143 Clouds 1 1029 86 10000 1 0 23:41 04.01.2020
1144 Clouds 1 1029 86 10000 1 0 23:41 04.01.2020
1145 Clouds 2 1028 83 10000 2.6 270 23:20 04.01.2020
1146 Clouds 2 1028 83 10000 2.6 270 22:56 04.01.2020
1147 Clouds 2 1028 83 10000 3.1 280 22:38 04.01.2020
1148 Clouds 2 1028 83 10000 3.6 270 22:20 04.01.2020
1149 Clear 3 1027 83 10000 3.6 280 21:55 04.01.2020
1150 Clear 3 1027 83 10000 3.6 280 21:37 04.01.2020
1151 Clear 3 1027 83 10000 2.6 290 21:18 04.01.2020
1152 Clear 3 1026 83 10000 3.1 290 20:55 04.01.2020
1153 Clear 3 1026 83 10000 3.1 290 20:36 04.01.2020
1154 Clear 3 1026 83 10000 3.1 290 20:36 04.01.2020
1155 Clouds 3 1025 76 10000 3.6 280 20:18 04.01.2020
1156 Clouds 3 1025 76 10000 4.6 300 19:41 04.01.2020
1157 Clouds 4 1024 76 10000 6.2 290 19:23 04.01.2020
1158 Clouds 4 1024 76 10000 6.2 290 18:57 04.01.2020
1159 Clouds 4 1024 76 10000 5.7 290 18:38 04.01.2020
1160 Clouds 4 1023 76 10000 5.1 290 18:20 04.01.2020
1161 Clouds 4 1023 76 10000 5.1 290 17:56 04.01.2020
1162 Clouds 4 1023 76 10000 5.1 290 17:38 04.01.2020
1163 Clouds 4 1022 69 10000 5.7 290 17:20 04.01.2020
1164 Clouds 4 1021 69 10000 5.1 290 16:42 04.01.2020
1165 Clouds 5 1021 69 10000 5.1 290 16:24 04.01.2020
1166 Clouds 5 1021 69 10000 5.7 300 15:57 04.01.2020
1167 Clouds 5 1020 70 10000 6.2 300 15:39 04.01.2020
1168 Rain 5 1019 75 10000 7.2 300 15:19 04.01.2020
1169 Rain 5 1019 75 10000 7.2 300 14:57 04.01.2020
1170 Rain 5 1019 75 10000 8.2 310 14:39 04.01.2020
1171 Clouds 6 1018 81 10000 6.2 300 14:19 04.01.2020
1172 Rain 5 1018 81 10000 7.2 290 13:55 04.01.2020
1173 Rain 6 1018 81 10000 7.2 290 13:37 04.01.2020
1174 Rain 6 1018 81 10000 7.2 290 13:37 04.01.2020
1175 Clouds 6 1018 81 10000 8.7 310 13:18 04.01.2020
1176 Clouds 6 1018 81 10000 8.7 310 13:18 04.01.2020
1177 Rain 6 1018 87 9000 9.8 310 12:42 04.01.2020
1178 Rain 6 1016 87 7000 10.8 280 12:20 04.01.2020
1179 Rain 6 1016 87 7000 10.8 280 12:20 04.01.2020
1180 Rain 6 1016 87 7000 10.8 280 12:20 04.01.2020
1181 Rain 6 1017 87 9000 9.3 270 11:59 04.01.2020
1182 Rain 6 1017 87 9000 9.3 270 11:40 04.01.2020
1183 Rain 6 1017 87 10000 7.7 260 11:19 04.01.2020
1184 Rain 6 1017 87 10000 7.7 260 10:58 04.01.2020
1185 Rain 6 1017 93 10000 6.7 260 10:38 04.01.2020
1186 Rain 6 1017 87 10000 6.2 250 10:19 04.01.2020
1187 Rain 6 1017 87 10000 7.2 250 09:42 04.01.2020
1188 Rain 6 1018 87 10000 7.2 260 09:24 04.01.2020
1189 Rain 6 1018 87 10000 6.2 260 08:44 04.01.2020
1190 Rain 6 1018 87 10000 6.2 260 08:25 04.01.2020
1191 Clouds 5 1018 86 10000 6.2 270 07:51 04.01.2020
1192 Clouds 5 1018 86 10000 7.2 260 07:33 04.01.2020
1193 Clouds 5 1019 86 10000 7.2 260 06:43 04.01.2020
1194 Clouds 5 1019 86 10000 4.6 250 05:57 04.01.2020
1195 Clouds 4 1019 86 10000 5.1 250 04:50 04.01.2020
1196 Clouds 4 1019 86 10000 5.1 250 04:29 04.01.2020
1197 Clouds 4 1020 86 10000 5.1 250 03:28 04.01.2020
1198 Clouds 4 1020 86 10000 4.1 250 02:46 04.01.2020
1199 Clouds 4 1020 86 10000 5.1 260 02:18 04.01.2020
1200 Clouds 4 1020 86 10000 4.6 260 01:41 04.01.2020
1201 Clouds 4 1020 86 10000 4.1 260 01:23 04.01.2020
1202 Clouds 4 1020 86 10000 4.1 250 00:29 04.01.2020
1203 Clouds 4 1019 93 10000 3.6 250 23:57 03.01.2020
1204 Rain 4 1019 86 10000 4.6 260 23:37 03.01.2020
1205 Clouds 4 1019 86 10000 3.6 260 23:18 03.01.2020
1206 Clouds 4 1018 86 10000 4.1 270 22:40 03.01.2020
1207 Clouds 4 1018 93 10000 3.6 270 22:19 03.01.2020
1208 Clouds 5 1018 93 10000 4.1 280 21:57 03.01.2020
1209 Clouds 5 1018 93 10000 4.1 280 21:38 03.01.2020
1210 Clouds 5 1017 93 10000 3.6 280 21:19 03.01.2020
1211 Clouds 5 1016 93 10000 3.1 280 20:56 03.01.2020
1212 Clouds 5 1016 93 10000 3.1 280 20:38 03.01.2020
1213 Clouds 5 1016 93 10000 3.6 300 20:18 03.01.2020
1214 Rain 5 1015 93 10000 5.7 320 19:55 03.01.2020
1215 Rain 5 1015 93 10000 5.7 320 19:37 03.01.2020
1216 Rain 5 1014 87 10000 5.7 330 19:18 03.01.2020
1217 Rain 6 1014 87 10000 5.1 340 18:41 03.01.2020
1218 Rain 6 1012 93 10000 7.2 340 18:23 03.01.2020
1219 Rain 7 1011 100 7000 4.1 280 17:55 03.01.2020
1220 Rain 7 1011 100 7000 4.1 280 17:36 03.01.2020
1221 Rain 7 1011 100 7000 4.1 280 17:36 03.01.2020
1222 Rain 7 1011 100 8000 3.6 250 17:18 03.01.2020
1223 Rain 7 1011 100 7000 4.1 250 16:42 03.01.2020
1224 Rain 8 1011 100 7000 4.1 250 16:22 03.01.2020
1225 Rain 8 1011 100 7000 4.1 250 16:22 03.01.2020
1226 Drizzle 8 1011 93 4400 5.1 230 15:43 03.01.2020
1227 Drizzle 8 1011 93 5000 5.7 230 15:19 03.01.2020
1228 Drizzle 8 1011 93 5000 5.7 230 15:19 03.01.2020
1229 Drizzle 8 1011 93 5000 5.7 230 14:59 03.01.2020
1230 Drizzle 8 1011 93 3500 6.2 230 14:38 03.01.2020
1231 Drizzle 8 1011 93 3300 6.2 230 14:19 03.01.2020
1232 Drizzle 7 1011 93 3500 6.2 230 13:43 03.01.2020
1233 Drizzle 7 1011 93 3500 6.2 230 13:24 03.01.2020
1234 Drizzle 7 1011 93 5000 6.7 230 12:58 03.01.2020
1235 Drizzle 7 1011 93 6000 6.7 230 12:39 03.01.2020
1236 Drizzle 7 1012 100 3500 6.7 230 12:21 03.01.2020
1237 Drizzle 7 1012 93 6000 6.2 230 11:44 03.01.2020
1238 Drizzle 7 1012 93 4000 6.7 230 11:21 03.01.2020
1239 Drizzle 6 1013 93 5000 7.2 230 10:44 03.01.2020
1240 Drizzle 6 1013 100 4000 7.7 220 10:26 03.01.2020
1241 Drizzle 6 1013 100 4000 7.7 220 09:58 03.01.2020
1242 Drizzle 6 1013 93 3500 7.2 210 09:39 03.01.2020
1243 Drizzle 6 1013 93 3500 7.2 210 09:21 03.01.2020
1244 Drizzle 6 1013 93 3500 7.7 210 08:57 03.01.2020
1245 Drizzle 5 1013 93 3500 7.7 210 08:38 03.01.2020
1246 Drizzle 5 1013 93 5000 7.7 210 08:19 03.01.2020
1247 Drizzle 5 1013 87 3500 7.7 210 07:40 03.01.2020
1248 Drizzle 5 1013 87 3500 7.7 210 07:40 03.01.2020
1249 Drizzle 5 1013 93 5000 7.2 210 07:18 03.01.2020
1250 Clouds 5 1013 87 10000 7.7 210 06:50 03.01.2020
1251 Clouds 5 1014 86 10000 7.7 210 06:32 03.01.2020
1252 Clouds 5 1014 86 10000 7.2 210 05:45 03.01.2020
1253 Clouds 4 1015 86 10000 6.7 210 04:23 03.01.2020
1254 Clouds 4 1016 86 10000 7.2 210 02:57 03.01.2020
1255 Clouds 4 1016 86 10000 6.7 210 02:33 03.01.2020
1256 Clouds 3 1017 93 10000 6.7 210 01:45 03.01.2020
1257 Clouds 3 1018 86 10000 6.7 220 00:53 03.01.2020
1258 Clouds 3 1018 86 10000 6.7 220 00:31 03.01.2020
1259 Clouds 3 1019 93 7000 4.1 210 23:57 02.01.2020
1260 Clouds 2 1019 93 7000 4.1 210 23:38 02.01.2020
1261 Clouds 2 1019 93 8000 6.2 210 23:19 02.01.2020
1262 Clouds 2 1019 93 7000 6.2 210 22:57 02.01.2020
1263 Clouds 2 1020 100 5000 3.6 200 22:39 02.01.2020
1264 Drizzle 2 1020 93 5000 5.7 210 22:18 02.01.2020
1265 Drizzle 1 1020 93 5000 5.7 200 21:42 02.01.2020
1266 Drizzle 1 1021 93 4500 5.7 210 21:23 02.01.2020
1267 Drizzle 1 1021 93 4500 5.7 210 21:00 02.01.2020
1268 Drizzle 1 1021 93 4500 5.1 210 21:00 02.01.2020
1269 Drizzle 1 1021 93 4500 5.1 210 21:00 02.01.2020
1270 Drizzle 1 1021 93 4500 5.7 210 21:00 02.01.2020
1271 Mist 1 1021 100 3000 3.6 220 20:39 02.01.2020
1272 Drizzle 0 1021 84 4700 4.6 210 20:21 02.01.2020
1273 Drizzle 0 1021 84 3200 3.6 180 19:56 02.01.2020
1274 Drizzle 0 1021 84 3200 3.6 180 19:38 02.01.2020
1275 Drizzle 0 1022 84 2600 5.1 200 19:19 02.01.2020
1276 Mist 0 1022 84 1800 4.6 210 18:58 02.01.2020
1277 Mist 0 1022 84 1800 4.6 210 18:40 02.01.2020
1278 Mist 0 1022 84 1800 5.7 220 18:22 02.01.2020
1279 Mist 0 1022 84 1800 5.7 220 17:57 02.01.2020
1280 Mist 0 1022 84 1400 5.7 220 17:37 02.01.2020
1281 Mist 0 1022 84 2200 6.2 220 17:19 02.01.2020
1282 Mist -1 1022 84 2400 6.2 230 16:57 02.01.2020
1283 Mist 0 1022 84 2400 6.2 230 16:38 02.01.2020
1284 Mist 0 1022 84 2400 6.2 230 16:38 02.01.2020
1285 Mist 0 1023 84 3300 5.7 230 16:20 02.01.2020
1286 Mist 0 1023 84 2800 5.1 230 15:56 02.01.2020
1287 Mist 0 1023 84 2800 5.1 230 15:37 02.01.2020
1288 Mist -1 1023 100 2200 5.1 240 15:19 02.01.2020
1289 Mist -1 1023 100 2400 5.7 230 14:55 02.01.2020
1290 Mist -1 1023 100 2400 5.7 230 14:55 02.01.2020
1291 Mist 0 1023 100 2400 5.7 230 14:55 02.01.2020
1292 Mist 0 1023 100 2400 5.7 230 14:36 02.01.2020
1293 Mist 0 1024 100 2000 4.6 230 14:18 02.01.2020
1294 Mist 0 1024 92 3800 4.1 250 13:47 02.01.2020
1295 Mist 0 1024 79 5000 4.6 250 13:29 02.01.2020
1296 Clouds 0 1025 76 6000 6.2 230 12:45 02.01.2020
1297 Clouds 0 1025 76 6000 6.2 230 12:25 02.01.2020
1298 Clouds 0 1025 76 6000 6.2 230 12:25 02.01.2020
1299 Clear 0 1025 80 10000 5.7 210 11:58 02.01.2020
1300 Clear 0 1025 80 10000 5.7 210 11:40 02.01.2020
1301 Clear 0 1026 83 10000 3.1 220 11:19 02.01.2020
1302 Clear 0 1026 83 10000 3.1 210 10:44 02.01.2020
1303 Clouds -1 1026 86 9000 2.6 220 10:25 02.01.2020
1304 Clouds -1 1026 92 8000 2.6 210 09:48 02.01.2020
1305 Clouds -1 1026 92 8000 2.6 210 09:29 02.01.2020
1306 Mist -1 1026 100 3000 2.6 200 08:47 02.01.2020
1307 Mist -1 1026 100 2800 3.1 230 08:27 02.01.2020
1308 Mist -1 1026 100 2000 3.1 230 07:53 02.01.2020
1309 Mist -1 1026 100 2000 3.1 230 07:30 02.01.2020
1310 Mist -1 1026 92 1000 4.1 210 06:46 02.01.2020
1311 Mist -1 1026 92 1400 2.6 220 06:27 02.01.2020
1312 Mist -1 1027 100 1400 2.6 230 05:29 02.01.2020
1313 Mist -2 1027 100 1200 4.1 220 04:32 02.01.2020
1314 Mist -2 1027 100 1200 2.1 240 02:48 02.01.2020
1315 Mist -2 1028 100 2500 2.6 230 01:59 02.01.2020
1316 Mist -2 1028 100 2500 3.1 240 01:39 02.01.2020
1317 Mist -2 1029 92 3000 4.6 260 00:59 02.01.2020
1318 Mist -2 1029 92 3000 4.6 260 00:34 02.01.2020
1319 Mist -2 1029 92 3200 2.1 270 23:58 01.01.2020
1320 Mist -2 1029 92 3200 2.1 270 23:40 01.01.2020
1321 Mist -2 1029 100 3200 1.5 260 23:19 01.01.2020
1322 Mist -2 1029 92 4000 2.1 230 22:38 01.01.2020
1323 Mist -2 1029 100 4000 2.1 220 22:20 01.01.2020
1324 Mist -2 1029 100 4000 2.1 220 22:20 01.01.2020
1325 Mist -2 1029 92 5000 1 230 21:56 01.01.2020
1326 Mist -2 1029 92 5000 1 230 21:38 01.01.2020
1327 Mist -2 1029 100 5000 2.6 220 21:19 01.01.2020
1328 Mist -2 1029 100 5000 2.6 220 20:56 01.01.2020
1329 Mist -2 1029 92 5000 3.6 200 20:56 01.01.2020
1330 Mist -2 1029 92 5000 3.6 200 20:38 01.01.2020
1331 Mist -2 1029 92 5000 3.6 200 20:38 01.01.2020
1332 Mist -1 1030 92 5000 3.6 220 20:19 01.01.2020
1333 Mist -1 1030 92 5000 3.6 220 20:19 01.01.2020
1334 Mist -1 1030 92 5000 3.6 220 19:55 01.01.2020
1335 Clouds -1 1030 92 6000 3.6 240 19:55 01.01.2020
1336 Clouds -1 1030 92 6000 3.6 240 19:55 01.01.2020
1337 Mist -1 1030 92 5000 3.6 220 19:55 01.01.2020
1338 Mist -1 1030 92 5000 3.6 220 19:55 01.01.2020
1339 Clouds -1 1030 92 6000 3.6 240 19:37 01.01.2020
1340 Clouds -1 1030 92 6000 3.6 230 19:19 01.01.2020
1341 Clouds -1 1030 92 6000 3.6 230 18:56 01.01.2020
1342 Mist -1 1030 100 5000 2.1 250 18:36 01.01.2020
1343 Mist -1 1030 100 3500 1.5 220 18:18 01.01.2020
1344 Mist -1 1031 100 3500 2.6 250 17:56 01.01.2020
1345 Mist -1 1031 100 3500 2.6 250 17:38 01.01.2020
1346 Fog 0 1030 100 300 2.6 240 17:19 01.01.2020
1347 Fog 0 1031 93 150 2.1 240 16:55 01.01.2020
1348 Fog 0 1031 93 150 2.1 240 16:36 01.01.2020
1349 Fog 1 1031 93 600 0.5 0 16:18 01.01.2020
1350 Fog 1 1031 93 600 0.5 0 15:54 01.01.2020
1351 Fog 1 1031 93 700 1.5 220 15:36 01.01.2020
1352 Fog 1 1031 93 3000 2.1 220 15:18 01.01.2020
1353 Fog 1 1031 93 6000 3.1 220 14:41 01.01.2020
1354 Fog 2 1031 93 6000 3.1 220 14:22 01.01.2020
1355 Fog 2 1032 85 7000 3.6 220 13:56 01.01.2020
1356 Fog 2 1032 85 7000 3.6 220 13:56 01.01.2020
1357 Clouds 2 1032 85 10000 3.6 220 13:37 01.01.2020
1358 Clouds 2 1032 86 10000 2.6 220 13:19 01.01.2020
1359 Clouds 2 1032 93 10000 2.6 220 12:57 01.01.2020
1360 Clouds 2 1032 93 10000 2.6 220 12:39 01.01.2020
1361 Clouds 2 1033 86 10000 2.6 230 12:19 01.01.2020
1362 Clouds 2 1033 86 10000 2.6 230 11:56 01.01.2020
1363 Clouds 2 1033 86 9000 2.6 230 11:37 01.01.2020
1364 Clouds 1 1033 93 8000 2.1 230 11:18 01.01.2020
1365 Clouds 1 1033 93 8000 2.1 230 10:54 01.01.2020
1366 Clouds 1 1033 100 10000 2.1 230 10:36 01.01.2020
1367 Clouds 1 1033 93 8000 2.6 220 10:18 01.01.2020
1368 Clouds 0 1033 93 8000 2.6 220 09:38 01.01.2020
1369 Clouds 0 1033 92 6000 2.1 210 09:19 01.01.2020
1370 Clouds 0 1033 92 6000 2.1 210 08:56 01.01.2020
1371 Mist 0 1033 100 2500 1 0 08:37 01.01.2020
1372 Fog 0 1033 100 800 0.5 0 08:19 01.01.2020
1373 Fog -1 1033 100 900 0.5 0 07:55 01.01.2020
1374 Fog -1 1033 100 900 0.5 0 07:37 01.01.2020
1375 Fog -1 1033 100 900 0.5 0 07:37 01.01.2020
1376 Mist 0 1033 100 2000 1.5 220 06:45 01.01.2020
1377 Mist 0 1033 100 2000 1.5 220 06:22 01.01.2020
1378 Mist 1 1033 96 5000 1.5 260 05:45 01.01.2020
1379 Fog 0 1033 96 1100 1 190 03:48 01.01.2020
1380 Fog 0 1033 96 1100 1 190 03:28 01.01.2020
1381 Fog 1 1033 100 400 1.5 270 02:59 01.01.2020
1382 Fog 1 1033 100 300 1 0 02:41 01.01.2020
1383 Fog 1 1033 95 250 2.1 240 02:21 01.01.2020
1384 Fog 1 1034 95 300 0.5 0 01:40 01.01.2020
1385 Fog 1 1034 93 800 0.5 10 01:21 01.01.2020
1386 Mist 1 1034 93 3200 1 0 00:45 01.01.2020
1387 Clouds 2 1034 86 7000 2.1 280 00:26 01.01.2020
1388 Clear 1 1035 93 8000 1.5 260 23:56 31.12.2019
1389 Clouds 2 1034 86 7000 2.6 290 23:36 31.12.2019
1390 Clouds 2 1034 86 7000 2.1 300 23:18 31.12.2019
1391 Clouds 2 1034 86 9000 3.1 280 22:55 31.12.2019
1392 Clouds 2 1034 86 9000 3.1 280 22:36 31.12.2019
1393 Clouds 2 1034 86 9000 3.6 260 22:18 31.12.2019
1394 Clouds 2 1034 86 9000 3.1 270 21:43 31.12.2019
1395 Clouds 2 1034 86 9000 2.6 270 21:25 31.12.2019
1396 Clouds 3 1033 93 9000 2.1 260 20:57 31.12.2019
1397 Clouds 3 1033 93 9000 2.1 260 20:39 31.12.2019
1398 Clear 3 1033 86 10000 2.1 260 20:20 31.12.2019
1399 Clear 3 1033 86 10000 2.1 260 19:58 31.12.2019
1400 Clear 3 1033 86 10000 2.6 270 19:40 31.12.2019
1401 Clouds 4 1033 80 10000 4.1 270 19:21 31.12.2019
1402 Clouds 4 1033 80 10000 4.1 280 18:57 31.12.2019
1403 Clouds 4 1033 80 10000 4.1 280 18:38 31.12.2019
1404 Clear 5 1032 80 10000 3.6 290 18:19 31.12.2019
1405 Clouds 5 1032 75 10000 4.1 290 17:56 31.12.2019
1406 Clouds 5 1032 75 10000 4.1 290 17:56 31.12.2019
1407 Clouds 5 1032 75 10000 4.1 290 17:36 31.12.2019
1408 Clouds 5 1032 81 10000 4.6 290 17:18 31.12.2019
1409 Clouds 5 1032 81 10000 4.6 290 16:56 31.12.2019
1410 Clouds 6 1031 75 10000 4.6 290 16:37 31.12.2019
1411 Clouds 6 1031 75 10000 4.6 290 16:18 31.12.2019
1412 Clouds 7 1031 75 10000 4.6 290 15:56 31.12.2019
1413 Clouds 7 1031 70 10000 4.6 300 15:38 31.12.2019
1414 Clouds 7 1031 75 10000 5.1 290 15:20 31.12.2019
1415 Clouds 8 1030 75 10000 5.7 290 14:56 31.12.2019
1416 Clouds 8 1030 75 10000 5.7 290 14:37 31.12.2019
1417 Clouds 8 1030 75 10000 6.7 290 14:19 31.12.2019
1418 Clouds 8 1030 75 10000 6.7 290 13:56 31.12.2019
1419 Clouds 8 1030 75 10000 6.2 290 13:38 31.12.2019
1420 Clouds 8 1030 75 10000 5.7 280 13:20 31.12.2019
1421 Clouds 8 1030 75 10000 6.7 290 12:56 31.12.2019
1422 Clouds 8 1030 75 10000 6.7 290 12:38 31.12.2019
1423 Clouds 7 1030 75 10000 5.1 290 12:19 31.12.2019
1424 Clouds 7 1029 75 10000 5.1 290 11:56 31.12.2019
1425 Clear 7 1030 81 10000 5.7 270 11:37 31.12.2019
1426 Clouds 7 1029 81 10000 4.6 280 11:19 31.12.2019
1427 Clouds 7 1029 81 10000 5.1 280 10:56 31.12.2019
1428 Clouds 6 1029 81 10000 5.1 280 10:37 31.12.2019
1429 Clouds 6 1028 75 10000 5.7 280 10:19 31.12.2019
1430 Clouds 6 1028 75 10000 5.7 280 09:58 31.12.2019
1431 Clouds 6 1028 81 10000 4.6 280 09:38 31.12.2019
1432 Clouds 5 1027 81 10000 5.1 270 09:19 31.12.2019
1433 Clouds 5 1027 81 10000 5.1 270 08:57 31.12.2019
1434 Clouds 5 1027 81 10000 5.1 270 08:37 31.12.2019
1435 Clouds 5 1027 81 10000 4.1 280 08:18 31.12.2019
1436 Clouds 5 1026 81 10000 4.1 270 07:41 31.12.2019
1437 Clouds 5 1026 87 10000 4.1 280 07:19 31.12.2019
1438 Clouds 6 1026 87 10000 4.6 290 06:48 31.12.2019
1439 Clouds 6 1025 87 10000 5.1 290 05:55 31.12.2019
1440 Clouds 6 1024 93 8000 4.6 280 04:27 31.12.2019
1441 Drizzle 6 1022 93 4500 5.1 270 03:27 31.12.2019
1442 Drizzle 5 1022 93 4000 4.6 260 02:49 31.12.2019
1443 Drizzle 5 1022 93 4500 5.1 250 01:55 31.12.2019
1444 Drizzle 5 1022 93 4000 5.1 270 01:34 31.12.2019
1445 Clouds 5 1022 80 10000 5.1 250 00:59 31.12.2019
1446 Clouds 5 1022 80 10000 5.1 250 00:41 31.12.2019
1447 Clouds 5 1022 75 10000 5.7 260 00:21 31.12.2019
1448 Clouds 5 1022 75 10000 5.7 260 23:56 30.12.2019
1449 Clouds 5 1022 91 10000 6.2 260 23:37 30.12.2019
1450 Clouds 5 1022 65 10000 5.7 260 23:19 30.12.2019
1451 Clouds 5 1022 65 10000 5.7 260 22:56 30.12.2019
1452 Clouds 5 1022 60 10000 5.1 250 22:37 30.12.2019
1453 Clear 5 1022 56 10000 5.1 240 22:19 30.12.2019
1454 Clear 5 1022 56 10000 5.1 240 21:56 30.12.2019
1455 Clear 5 1022 52 10000 4.6 250 21:38 30.12.2019
1456 Clear 5 1022 45 10000 5.1 250 21:18 30.12.2019
1457 Clear 5 1022 45 10000 5.1 250 21:18 30.12.2019
1458 Clear 5 1022 45 10000 5.1 250 20:56 30.12.2019
1459 Clear 5 1022 45 10000 6.2 250 20:38 30.12.2019
1460 Clouds 5 1022 45 10000 5.7 240 20:19 30.12.2019
1461 Clouds 5 1022 45 10000 5.7 240 19:57 30.12.2019
1462 Clouds 5 1022 41 10000 5.1 240 19:37 30.12.2019
1463 Clouds 5 1022 41 10000 4.6 240 19:19 30.12.2019
1464 Clouds 5 1023 41 10000 5.1 240 18:56 30.12.2019
1465 Clouds 5 1023 41 10000 5.1 240 18:38 30.12.2019
1466 Clouds 5 1023 41 10000 5.1 250 18:20 30.12.2019
1467 Clouds 5 1023 41 10000 4.6 240 17:55 30.12.2019
1468 Clouds 5 1023 39 10000 5.1 240 17:36 30.12.2019
1469 Clouds 5 1023 45 10000 4.1 230 17:18 30.12.2019
1470 Clouds 5 1023 45 10000 4.1 230 16:55 30.12.2019
1471 Clouds 6 1023 48 10000 5.1 220 16:36 30.12.2019
1472 Clouds 6 1023 39 10000 4.6 230 16:18 30.12.2019
1473 Clouds 7 1023 39 10000 5.7 220 15:55 30.12.2019
1474 Clouds 7 1023 39 10000 5.7 220 15:36 30.12.2019
1475 Clouds 7 1024 36 10000 6.2 230 15:18 30.12.2019
1476 Clouds 8 1024 34 10000 5.1 240 14:42 30.12.2019
1477 Clouds 8 1024 31 10000 5.7 240 14:19 30.12.2019
1478 Clouds 8 1024 31 10000 5.7 240 13:56 30.12.2019
1479 Clouds 8 1024 33 10000 6.2 230 13:37 30.12.2019
1480 Clouds 7 1025 39 10000 3.6 230 13:19 30.12.2019
1481 Clouds 7 1025 33 10000 4.6 240 12:43 30.12.2019
1482 Clouds 7 1025 36 10000 5.7 230 12:22 30.12.2019
1483 Clouds 7 1025 36 10000 5.7 230 11:59 30.12.2019
1484 Clouds 6 1026 39 10000 5.7 220 11:40 30.12.2019
1485 Clouds 6 1026 41 10000 6.2 230 11:19 30.12.2019
1486 Clouds 6 1026 41 10000 6.2 230 11:19 30.12.2019
1487 Clouds 5 1026 41 10000 6.2 230 10:57 30.12.2019
1488 Clouds 5 1026 38 10000 5.1 230 10:38 30.12.2019
1489 Clouds 5 1026 38 10000 5.7 230 10:18 30.12.2019
1490 Clouds 5 1026 41 10000 5.7 220 09:41 30.12.2019
1491 Clouds 5 1026 38 10000 5.1 220 09:20 30.12.2019
1492 Clouds 5 1026 38 10000 5.1 220 08:55 30.12.2019
1493 Clouds 5 1026 38 10000 4.6 220 08:36 30.12.2019
1494 Clouds 5 1027 38 10000 5.1 220 08:18 30.12.2019
1495 Clouds 5 1027 38 10000 5.1 220 08:18 30.12.2019
1496 Clouds 5 1027 44 10000 4.6 220 07:40 30.12.2019
1497 Clouds 5 1027 44 10000 5.1 220 06:58 30.12.2019
1498 Clouds 4 1027 44 10000 5.1 220 06:23 30.12.2019
1499 Clouds 4 1029 48 10000 5.1 220 04:23 30.12.2019
1500 Clouds 4 1029 44 10000 4.1 220 03:39 30.12.2019
1501 Clouds 4 1030 51 10000 5.1 220 02:41 30.12.2019
1502 Clouds 4 1030 44 10000 4.6 230 02:20 30.12.2019
1503 Clouds 3 1030 51 10000 3.6 220 01:26 30.12.2019
1504 Clouds 3 1031 51 10000 4.1 220 00:47 30.12.2019
1505 Clouds 3 1031 51 10000 4.6 220 00:26 30.12.2019
1506 Clouds 3 1031 59 10000 5.1 210 23:40 29.12.2019
1507 Clouds 2 1032 59 10000 3.6 220 23:22 29.12.2019
1508 Clouds 2 1032 59 10000 4.6 220 22:57 29.12.2019
1509 Clouds 2 1032 59 10000 4.6 220 22:38 29.12.2019
1510 Clouds 2 1032 59 10000 5.7 220 22:20 29.12.2019
1511 Clouds 2 1032 59 10000 4.6 210 21:55 29.12.2019
1512 Clouds 2 1032 59 10000 4.6 210 21:36 29.12.2019
1513 Clouds 2 1033 59 10000 3.6 220 21:18 29.12.2019
1514 Clouds 2 1033 69 10000 2.1 210 20:55 29.12.2019
1515 Clouds 2 1033 69 10000 2.1 210 20:55 29.12.2019
1516 Clouds 2 1033 69 10000 2.1 210 20:37 29.12.2019
1517 Clouds 2 1033 69 10000 2.1 210 20:37 29.12.2019
1518 Clouds 2 1033 69 10000 4.1 220 20:18 29.12.2019
1519 Clouds 1 1033 69 10000 2.1 190 19:55 29.12.2019
1520 Clouds 1 1033 69 10000 2.1 190 19:37 29.12.2019
1521 Clouds 1 1033 69 10000 4.1 210 19:18 29.12.2019
1522 Clouds 1 1034 69 10000 4.1 220 18:54 29.12.2019
1523 Clouds 1 1034 69 10000 4.1 220 18:36 29.12.2019
1524 Clouds 1 1034 69 10000 4.6 220 18:18 29.12.2019
1525 Clouds 1 1034 69 10000 3.1 190 17:55 29.12.2019
1526 Clouds 1 1034 69 10000 3.1 190 17:36 29.12.2019
1527 Clouds 1 1034 69 10000 4.6 200 17:18 29.12.2019
1528 Clouds 1 1035 69 10000 4.6 210 16:55 29.12.2019
1529 Clouds 1 1035 69 10000 4.6 210 16:36 29.12.2019
1530 Clouds 1 1035 69 10000 3.6 220 16:18 29.12.2019
1531 Clouds 1 1035 69 10000 3.6 220 15:55 29.12.2019
1532 Clouds 1 1035 74 10000 2.1 220 15:37 29.12.2019
1533 Clouds 1 1035 80 10000 2.1 220 15:18 29.12.2019
1534 Clouds 1 1035 69 10000 5.1 210 14:55 29.12.2019
1535 Clouds 1 1035 69 10000 5.1 210 14:37 29.12.2019
1536 Clouds 1 1035 69 10000 4.6 220 14:18 29.12.2019
1537 Clouds 1 1035 69 10000 4.6 220 13:55 29.12.2019
1538 Clouds 1 1035 69 10000 4.6 210 13:37 29.12.2019
1539 Clouds 1 1036 80 10000 2.1 200 13:18 29.12.2019
1540 Clouds 0 1036 80 10000 2.1 210 12:41 29.12.2019
1541 Clouds 0 1036 80 10000 3.1 150 12:23 29.12.2019
1542 Clouds 0 1037 67 10000 3.1 160 11:55 29.12.2019
1543 Clouds 0 1037 67 10000 3.1 160 11:37 29.12.2019
1544 Clouds 0 1037 75 10000 2.1 180 11:19 29.12.2019
1545 Clouds -1 1037 75 10000 2.6 160 10:41 29.12.2019
1546 Clouds -1 1037 75 10000 2.1 160 10:22 29.12.2019
1547 Clouds -1 1037 75 10000 2.1 160 09:56 29.12.2019
1548 Clouds -1 1037 86 10000 3.1 150 09:38 29.12.2019
1549 Clouds -1 1037 86 10000 3.1 160 09:19 29.12.2019
1550 Clouds -2 1038 86 10000 2.6 170 08:46 29.12.2019
1551 Clouds -2 1038 86 10000 3.1 160 08:24 29.12.2019
1552 Clouds -2 1038 86 10000 3.1 160 07:55 29.12.2019
1553 Clouds -2 1038 92 10000 3.6 150 07:28 29.12.2019
1554 Clouds -2 1038 86 10000 3.6 160 06:55 29.12.2019
1555 Clouds -2 1038 86 10000 3.6 160 06:25 29.12.2019
1556 Clouds -2 1038 92 10000 2.6 140 05:51 29.12.2019
1557 Clouds -3 1039 92 10000 2.1 150 04:36 29.12.2019
1558 Clouds -2 1039 92 10000 2.1 160 03:51 29.12.2019
1559 Clouds -2 1040 86 10000 1.5 180 03:20 29.12.2019
1560 Clouds -2 1039 86 10000 2.1 160 02:20 29.12.2019
1561 Clouds -1 1039 86 10000 4.1 160 01:31 29.12.2019
1562 Clouds -1 1039 86 10000 4.1 160 01:31 29.12.2019
1563 Clouds -1 1039 86 10000 4.1 160 01:31 29.12.2019
1564 Clouds -1 1039 86 10000 4.1 140 00:58 29.12.2019
1565 Clouds -1 1040 86 10000 3.1 150 00:40 29.12.2019
1566 Clouds -1 1040 81 10000 4.1 160 00:21 29.12.2019
1567 Clouds -1 1040 81 10000 3.1 160 23:42 28.12.2019
1568 Clouds -1 1041 80 10000 3.1 180 23:18 28.12.2019
1569 Clouds -1 1041 80 10000 3.1 160 22:39 28.12.2019
1570 Clouds -1 1041 80 10000 3.1 160 22:39 28.12.2019
1571 Clouds -1 1041 80 10000 4.1 160 22:20 28.12.2019
1572 Clouds -1 1041 80 10000 4.6 160 21:58 28.12.2019
1573 Clouds -1 1041 80 10000 4.6 160 21:39 28.12.2019
1574 Clouds -1 1041 80 10000 3.6 150 21:21 28.12.2019
1575 Clouds -1 1041 80 10000 3.6 150 21:21 28.12.2019
1576 Clouds -1 1042 80 10000 3.1 160 20:57 28.12.2019
1577 Clouds -1 1042 82 10000 3.1 160 20:37 28.12.2019
1578 Clouds -1 1042 82 10000 3.1 160 20:37 28.12.2019
1579 Clouds 0 1042 82 10000 3.1 150 20:19 28.12.2019
1580 Clouds 0 1042 82 10000 3.1 150 19:58 28.12.2019
1581 Clouds 0 1042 82 10000 3.1 150 19:39 28.12.2019
1582 Clouds 0 1042 82 10000 4.1 150 19:20 28.12.2019
1583 Clouds 0 1042 82 10000 4.1 150 18:57 28.12.2019
1584 Clouds 0 1041 82 10000 4.6 150 18:39 28.12.2019
1585 Clouds 0 1041 82 10000 4.6 160 18:19 28.12.2019
1586 Clouds 0 1041 82 10000 4.6 150 17:55 28.12.2019
1587 Clouds 0 1041 82 10000 4.6 150 17:36 28.12.2019
1588 Clouds 0 1041 84 10000 3.6 160 17:18 28.12.2019
1589 Clouds 0 1042 84 10000 4.1 160 16:46 28.12.2019
1590 Clouds 0 1042 84 10000 4.6 160 16:26 28.12.2019
1591 Clouds 0 1042 74 10000 3.6 160 15:46 28.12.2019
1592 Clouds 0 1042 74 10000 3.6 160 15:24 28.12.2019
1593 Clouds 1 1042 74 10000 3.6 160 14:59 28.12.2019
1594 Clouds 1 1042 74 10000 3.6 150 14:39 28.12.2019
1595 Clouds 1 1042 74 10000 3.6 160 14:20 28.12.2019
1596 Clouds 1 1042 74 10000 3.6 160 13:56 28.12.2019
1597 Clouds 1 1042 74 10000 4.6 150 13:37 28.12.2019
1598 Clouds 1 1042 80 10000 3.1 150 13:18 28.12.2019
1599 Clouds 1 1042 80 10000 2.1 140 12:43 28.12.2019
1600 Clouds 0 1042 80 10000 2.6 120 12:24 28.12.2019
1601 Clouds 0 1043 79 10000 1.5 100 11:56 28.12.2019
1602 Clouds 0 1043 79 10000 1.5 100 11:56 28.12.2019
1603 Clouds 0 1043 79 10000 1.5 100 11:38 28.12.2019
1604 Clouds 0 1043 88 10000 1 0 11:19 28.12.2019
1605 Clouds -1 1042 92 10000 0.5 60 10:44 28.12.2019
1606 Clouds -2 1042 86 10000 0.5 60 10:22 28.12.2019
1607 Clouds -2 1042 92 10000 1 0 09:58 28.12.2019
1608 Clouds -2 1042 92 10000 1 0 09:40 28.12.2019
1609 Clouds -2 1042 92 10000 0.5 0 09:20 28.12.2019
1610 Clouds -2 1042 100 10000 1 0 08:44 28.12.2019
1611 Clouds -2 1041 92 10000 1 60 08:26 28.12.2019
1612 Clouds -2 1041 92 10000 1 60 07:55 28.12.2019
1613 Clouds -2 1041 92 10000 1.5 80 07:32 28.12.2019
1614 Fog -2 1041 92 10000 0.5 0 06:41 28.12.2019
1615 Clouds -2 1041 92 10000 0.5 0 05:19 28.12.2019
1616 Clouds -1 1040 100 10000 0.5 60 03:47 28.12.2019
1617 Clouds -2 1040 92 10000 1.5 320 02:49 28.12.2019
1618 Clouds -2 1040 100 10000 0.5 0 02:19 28.12.2019
1619 Clouds -2 1040 92 10000 2.1 340 01:50 28.12.2019
1620 Clouds -2 1039 92 10000 1 310 01:20 28.12.2019
1621 Clouds -1 1039 92 10000 0.5 0 00:41 28.12.2019
1622 Clouds -1 1039 92 10000 1 290 00:23 28.12.2019
1623 Clouds -1 1038 92 10000 1 0 23:45 27.12.2019
1624 Clouds -1 1038 92 10000 1 0 23:21 27.12.2019
1625 Clouds -1 1038 92 10000 1 0 22:58 27.12.2019
1626 Clouds -1 1038 92 10000 1.5 330 22:39 27.12.2019
1627 Clouds 0 1038 92 10000 0.5 50 22:21 27.12.2019
1628 Clouds 0 1038 92 10000 0.5 50 21:59 27.12.2019
1629 Clouds 0 1038 85 10000 1 0 21:40 27.12.2019
1630 Clouds 1 1038 85 10000 1.5 360 21:22 27.12.2019
1631 Clouds 1 1037 80 10000 1 0 20:42 27.12.2019
1632 Clouds 1 1037 74 10000 1 0 20:24 27.12.2019
1633 Clouds 1 1037 74 10000 1 0 19:57 27.12.2019
1634 Clouds 2 1037 80 10000 2.1 10 19:38 27.12.2019
1635 Clouds 2 1036 80 10000 1 0 19:19 27.12.2019
1636 Clouds 2 1036 80 10000 1 0 18:55 27.12.2019
1637 Clouds 2 1036 77 10000 1.5 360 18:36 27.12.2019
1638 Clouds 2 1036 74 10000 1.5 360 18:18 27.12.2019
1639 Clouds 2 1035 77 10000 2.1 30 17:42 27.12.2019
1640 Clouds 2 1034 75 10000 2.1 30 17:20 27.12.2019
1641 Clouds 2 1034 75 10000 3.1 50 16:59 27.12.2019
1642 Clouds 3 1034 75 10000 3.1 50 16:41 27.12.2019
1643 Clouds 3 1034 75 10000 3.1 50 16:41 27.12.2019
1644 Clouds 3 1033 75 10000 3.1 40 16:22 27.12.2019
1645 Clouds 3 1033 75 10000 3.1 40 15:57 27.12.2019
1646 Clouds 3 1033 75 10000 1 0 15:37 27.12.2019
1647 Clouds 3 1033 86 10000 1 0 15:18 27.12.2019
1648 Clouds 3 1032 75 10000 1.5 10 14:55 27.12.2019
1649 Clouds 3 1032 75 10000 1.5 10 14:37 27.12.2019
1650 Clouds 3 1032 76 10000 2.1 10 14:19 27.12.2019
1651 Clouds 3 1032 76 10000 2.1 30 13:44 27.12.2019
1652 Clouds 3 1032 74 10000 2.1 30 13:22 27.12.2019
1653 Clouds 3 1032 75 10000 2.6 50 12:49 27.12.2019
1654 Clouds 3 1032 75 10000 2.6 50 12:29 27.12.2019
1655 Clouds 3 1031 75 10000 2.6 30 11:59 27.12.2019
1656 Clouds 3 1031 74 10000 3.1 20 11:41 27.12.2019
1657 Clouds 2 1031 80 10000 2.6 30 11:20 27.12.2019
1658 Clouds 2 1030 91 10000 2.1 20 10:47 27.12.2019
1659 Clouds 2 1030 91 10000 2.1 20 10:24 27.12.2019
1660 Clouds 2 1029 91 10000 2.1 10 09:58 27.12.2019
1661 Clouds 2 1029 91 10000 2.1 10 09:39 27.12.2019
1662 Clouds 2 1028 91 10000 2.6 20 09:21 27.12.2019
1663 Clouds 2 1028 80 10000 4.6 50 08:49 27.12.2019
1664 Clouds 2 1028 80 10000 4.6 50 08:30 27.12.2019
1665 Clouds 2 1027 96 10000 3.6 40 07:48 27.12.2019
1666 Clouds 2 1027 96 10000 3.6 40 07:26 27.12.2019
1667 Clouds 3 1026 86 10000 3.1 50 06:33 27.12.2019
1668 Clouds 3 1025 93 10000 2.1 50 04:58 27.12.2019
1669 Clouds 3 1024 100 6000 0.5 0 02:53 27.12.2019
1670 Clouds 2 1023 93 6000 0.5 40 01:59 27.12.2019
1671 Clouds 3 1023 93 6000 0.5 40 01:24 27.12.2019
1672 Clouds 3 1023 93 7000 0.5 210 00:58 27.12.2019
1673 Rain 3 1023 93 8000 0.69 264 00:40 27.12.2019
1674 Rain 3 1024 100 8000 0.69 264 00:21 27.12.2019
1675 Clouds 3 1023 93 9000 0.69 264 23:41 26.12.2019
1676 Clouds 3 1023 93 10000 0.5 0 23:22 26.12.2019
1677 Clouds 3 1023 100 10000 1.86 251 22:45 26.12.2019
1678 Clouds 3 1023 100 10000 1.86 251 22:23 26.12.2019
1679 Clouds 3 1023 93 10000 1 0 21:59 26.12.2019
1680 Clouds 4 1023 93 10000 0.5 0 21:38 26.12.2019
1681 Clouds 4 1023 100 10000 0.5 0 21:20 26.12.2019
1682 Clouds 4 1023 100 10000 0.5 0 20:46 26.12.2019
1683 Fog 3 1023 100 10000 0.5 0 20:23 26.12.2019
1684 Fog 3 1023 100 10000 0.5 0 19:59 26.12.2019
1685 Clouds 3 1023 93 10000 0.5 0 19:40 26.12.2019
1686 Clouds 4 1023 100 10000 1 320 19:22 26.12.2019
1687 Clouds 4 1023 100 10000 1 320 18:58 26.12.2019
1688 Clouds 4 1023 93 10000 1.5 310 18:39 26.12.2019
1689 Clouds 4 1022 86 10000 2.1 240 18:19 26.12.2019
1690 Clouds 4 1022 86 10000 2.1 240 17:57 26.12.2019
1691 Clouds 5 1023 93 10000 2.1 240 17:38 26.12.2019
1692 Clouds 5 1022 93 10000 1.5 270 17:18 26.12.2019
1693 Clouds 5 1022 93 10000 1.5 250 16:43 26.12.2019
1694 Clouds 5 1022 87 10000 2.6 250 16:23 26.12.2019
1695 Clouds 5 1022 87 10000 2.6 250 15:56 26.12.2019
1696 Clouds 5 1022 87 10000 2.6 250 15:56 26.12.2019
1697 Clouds 5 1022 87 10000 2.6 260 15:38 26.12.2019
1698 Clouds 6 1022 87 10000 3.1 270 15:18 26.12.2019
1699 Rain 6 1022 87 10000 3.1 260 14:40 26.12.2019
1700 Clouds 6 1022 87 10000 2.6 260 14:22 26.12.2019
1701 Clouds 6 1023 87 10000 3.6 260 13:44 26.12.2019
1702 Clouds 6 1023 87 10000 3.6 260 13:44 26.12.2019
1703 Clouds 6 1023 87 10000 3.6 260 13:23 26.12.2019
1704 Clouds 6 1023 87 10000 3.6 270 12:58 26.12.2019
1705 Rain 6 1023 87 10000 3.6 280 12:58 26.12.2019
1706 Rain 6 1023 87 10000 3.6 280 12:39 26.12.2019
1707 Rain 6 1023 87 10000 3.6 270 12:21 26.12.2019
1708 Clouds 6 1023 87 10000 4.1 280 11:58 26.12.2019
1709 Clouds 5 1023 87 10000 4.1 280 11:39 26.12.2019
1710 Rain 5 1023 87 10000 3.1 270 11:20 26.12.2019
1711 Clouds 5 1023 93 10000 3.6 270 10:49 26.12.2019
1712 Rain 5 1023 93 10000 3.1 260 10:24 26.12.2019
1713 Clouds 5 1023 93 10000 3.6 250 09:54 26.12.2019
1714 Clouds 4 1023 93 10000 3.1 270 09:32 26.12.2019
1715 Clouds 4 1023 93 10000 3.1 270 08:58 26.12.2019
1716 Clouds 4 1022 93 10000 3.1 260 08:38 26.12.2019
1717 Clouds 5 1022 93 10000 2.6 260 08:20 26.12.2019
1718 Clouds 4 1022 93 10000 3.1 260 07:35 26.12.2019
1719 Rain 4 1022 93 10000 3.1 260 06:57 26.12.2019
1720 Clouds 5 1022 93 10000 3.1 270 06:37 26.12.2019
1721 Clouds 5 1022 93 10000 2.6 270 06:19 26.12.2019
1722 Clouds 5 1022 93 10000 2.6 270 05:40 26.12.2019
1723 Clouds 5 1022 93 10000 2.1 290 04:33 26.12.2019
1724 Rain 5 1022 93 10000 3.1 280 03:31 26.12.2019
1725 Rain 5 1022 87 10000 3.1 280 02:46 26.12.2019
1726 Rain 5 1022 87 10000 3.1 280 02:25 26.12.2019
1727 Rain 5 1022 87 10000 2.6 270 02:25 26.12.2019
1728 Rain 5 1022 87 10000 3.6 270 01:44 26.12.2019
1729 Rain 5 1022 93 10000 3.6 260 01:24 26.12.2019
1730 Rain 5 1022 93 10000 3.6 260 00:44 26.12.2019
1731 Clouds 5 1022 100 10000 2.1 250 00:23 26.12.2019
1732 Clouds 5 1022 100 10000 2.1 250 23:57 25.12.2019
1733 Rain 5 1021 87 10000 2.6 270 23:37 25.12.2019
1734 Rain 5 1021 87 10000 3.1 260 23:18 25.12.2019
1735 Clouds 5 1021 87 10000 3.6 270 22:55 25.12.2019
1736 Clouds 5 1021 93 10000 3.6 270 22:37 25.12.2019
1737 Clouds 5 1021 93 10000 2.6 250 22:18 25.12.2019
1738 Clouds 5 1021 100 10000 2.6 250 21:55 25.12.2019
1739 Clouds 5 1021 87 10000 2.6 260 21:37 25.12.2019
1740 Rain 5 1021 87 10000 2.6 270 21:18 25.12.2019
1741 Clouds 5 1021 87 10000 2.6 270 20:40 25.12.2019
1742 Rain 5 1020 87 10000 3.1 250 20:21 25.12.2019
1743 Rain 5 1020 87 10000 3.1 250 19:59 25.12.2019
1744 Clouds 5 1020 93 10000 1.5 250 19:41 25.12.2019
1745 Clouds 5 1020 87 10000 1 0 19:21 25.12.2019
1746 Clouds 5 1020 81 10000 3.1 340 18:40 25.12.2019
1747 Clouds 6 1020 81 10000 3.6 320 18:21 25.12.2019
1748 Clouds 6 1020 81 10000 3.6 320 17:58 25.12.2019
1749 Clouds 6 1018 88 0 1.88 288 17:39 25.12.2019
1750 Clouds 6 1018 94 0 3.09 300 17:18 25.12.2019
1751 Clouds 6 1019 93 10000 3.1 290 16:55 25.12.2019
1752 Clouds 6 1019 93 10000 3.1 290 16:36 25.12.2019
1753 Clouds 6 1018 93 10000 3.1 290 16:18 25.12.2019
1754 Clouds 6 1018 93 10000 2.6 290 15:56 25.12.2019
1755 Clouds 6 1017 87 10000 3.6 280 15:37 25.12.2019
1756 Clouds 7 1017 87 10000 3.1 290 15:18 25.12.2019
1757 Clouds 7 1017 87 10000 3.6 280 14:54 25.12.2019
1758 Clouds 6 1017 87 10000 3.6 280 14:36 25.12.2019
1759 Clouds 6 1016 87 10000 3.1 290 14:18 25.12.2019
1760 Clouds 6 1016 93 10000 3.1 290 13:41 25.12.2019
1761 Clouds 6 1015 93 10000 3.6 300 13:20 25.12.2019
1762 Clouds 6 1015 100 8000 2.6 290 12:44 25.12.2019
1763 Clouds 6 1015 93 6000 3.6 280 12:22 25.12.2019
1764 Mist 5 1014 93 5000 2.6 270 11:58 25.12.2019
1765 Mist 5 1014 93 5000 2.6 270 11:40 25.12.2019
1766 Mist 5 1014 100 5000 1.5 260 11:21 25.12.2019
1767 Mist 5 1014 100 5000 1.5 250 10:39 25.12.2019
1768 Rain 5 1013 93 4000 1.5 250 10:21 25.12.2019
1769 Rain 4 1013 93 4000 1.5 270 09:59 25.12.2019
1770 Rain 4 1013 93 4000 1.5 270 09:40 25.12.2019
1771 Rain 4 1012 100 4000 1.5 260 09:22 25.12.2019
1772 Rain 4 1012 100 4800 1 270 08:43 25.12.2019
1773 Rain 4 1011 100 6000 1 310 08:24 25.12.2019
1774 Rain 4 1011 100 6000 1 310 08:24 25.12.2019
1775 Rain 4 1011 100 7000 2.1 300 07:44 25.12.2019
1776 Clouds 4 1011 93 8000 1.5 280 07:23 25.12.2019
1777 Clouds 4 1010 100 7000 1 0 06:24 25.12.2019
1778 Clouds 4 1010 93 7000 1 330 05:51 25.12.2019
1779 Clouds 4 1009 100 7000 0.5 330 04:47 25.12.2019
1780 Clouds 4 1009 100 7000 0.5 0 04:25 25.12.2019
1781 Clouds 4 1009 100 7000 0.5 280 03:46 25.12.2019
1782 Clouds 4 1009 100 7000 1 0 03:18 25.12.2019
1783 Clouds 4 1008 100 7000 1 320 02:32 25.12.2019
1784 Mist 4 1008 100 4800 1.5 10 01:54 25.12.2019
1785 Rain 4 1007 100 8000 1 310 01:24 25.12.2019
1786 Fog 4 1007 100 8000 1.5 310 00:46 25.12.2019
1787 Fog 4 1007 100 8000 0.5 330 00:27 25.12.2019
1788 Fog 4 1007 100 8000 0.5 330 23:55 24.12.2019
1789 Fog 4 1006 100 9000 0.5 0 23:36 24.12.2019
1790 Fog 4 1006 100 9000 1 320 23:18 24.12.2019
1791 Drizzle 4 1006 100 10000 1 340 22:38 24.12.2019
1792 Drizzle 4 1006 100 10000 0.5 0 22:20 24.12.2019
1793 Drizzle 4 1006 100 10000 0.5 0 22:20 24.12.2019
1794 Drizzle 4 1006 100 10000 0.5 0 22:20 24.12.2019
1795 Drizzle 5 1005 93 10000 0.5 0 21:42 24.12.2019
1796 Drizzle 5 1005 93 10000 1.5 40 21:22 24.12.2019
1797 Drizzle 5 1005 93 10000 1.5 40 21:22 24.12.2019
1798 Drizzle 5 1005 93 10000 1 0 20:45 24.12.2019
1799 Drizzle 5 1005 93 10000 1.5 40 20:24 24.12.2019
1800 Drizzle 5 1005 93 10000 1.5 40 19:57 24.12.2019
1801 Drizzle 5 1005 93 10000 1 0 19:39 24.12.2019
1802 Rain 5 1004 93 10000 2.1 50 19:19 24.12.2019
1803 Rain 5 1004 93 10000 1.5 50 18:43 24.12.2019
1804 Rain 5 1004 93 10000 1.5 50 18:24 24.12.2019
1805 Rain 5 1004 93 10000 1.5 50 17:58 24.12.2019
1806 Rain 5 1004 93 10000 1.5 40 17:38 24.12.2019
1807 Rain 5 1004 93 10000 1 0 17:20 24.12.2019
1808 Rain 5 1004 93 10000 2.1 180 16:55 24.12.2019
1809 Rain 5 1004 93 10000 2.1 180 16:37 24.12.2019
1810 Rain 6 1004 87 8000 3.6 210 16:19 24.12.2019
1811 Rain 6 1004 93 6000 3.1 190 15:54 24.12.2019
1812 Rain 6 1004 93 6000 3.1 190 15:36 24.12.2019
1813 Rain 6 1004 100 5000 3.1 150 15:18 24.12.2019
1814 Rain 6 1004 100 5000 3.1 150 14:55 24.12.2019
1815 Rain 6 1004 100 6000 3.1 150 14:36 24.12.2019
1816 Rain 6 1005 93 6000 3.6 150 14:18 24.12.2019
1817 Drizzle 7 1005 87 5000 4.1 150 13:55 24.12.2019
1818 Drizzle 7 1005 87 5000 4.1 150 13:37 24.12.2019
1819 Clouds 7 1006 87 10000 3.6 160 13:19 24.12.2019
1820 Clouds 7 1006 81 10000 3.1 150 12:55 24.12.2019
1821 Clouds 7 1006 81 10000 3.1 150 12:36 24.12.2019
1822 Clouds 7 1007 81 10000 2.6 200 12:18 24.12.2019
1823 Clouds 6 1007 81 10000 2.6 200 11:55 24.12.2019
1824 Clouds 6 1007 81 10000 3.1 190 11:36 24.12.2019
1825 Clouds 6 1008 81 10000 4.6 200 11:18 24.12.2019
1826 Clouds 6 1008 81 10000 4.6 200 11:18 24.12.2019
1827 Clouds 6 1008 81 10000 4.6 200 10:55 24.12.2019
1828 Clouds 6 1008 81 10000 4.6 200 10:55 24.12.2019
1829 Clouds 6 1009 87 10000 4.6 200 10:37 24.12.2019
1830 Clouds 6 1009 87 10000 5.7 210 10:19 24.12.2019
1831 Clouds 6 1009 87 10000 6.7 210 09:54 24.12.2019
1832 Clouds 6 1009 87 10000 6.7 210 09:36 24.12.2019
1833 Clouds 6 1009 87 10000 6.2 210 09:18 24.12.2019
1834 Clouds 6 1009 93 10000 5.1 220 08:44 24.12.2019
1835 Clouds 6 1009 87 10000 5.1 220 08:20 24.12.2019
1836 Clouds 6 1009 87 10000 5.1 220 07:46 24.12.2019
1837 Clouds 6 1009 87 10000 4.6 220 07:25 24.12.2019
1838 Clouds 6 1009 87 10000 4.6 220 07:25 24.12.2019
1839 Clouds 6 1010 87 10000 4.1 220 06:58 24.12.2019
1840 Clouds 6 1010 87 10000 4.1 220 06:38 24.12.2019
1841 Clouds 6 1010 87 10000 4.6 220 06:19 24.12.2019
1842 Clouds 6 1010 87 10000 5.1 230 05:20 24.12.2019
1843 Clouds 6 1010 93 10000 4.1 230 04:44 24.12.2019
1844 Rain 6 1010 87 10000 4.6 230 03:50 24.12.2019
1845 Rain 6 1010 93 10000 5.1 230 03:22 24.12.2019
1846 Rain 7 1009 87 9000 4.1 230 02:23 24.12.2019
1847 Rain 7 1009 87 8000 4.1 250 01:50 24.12.2019
1848 Rain 7 1009 87 10000 4.1 230 01:22 24.12.2019
1849 Clouds 7 1009 93 10000 4.1 230 00:45 24.12.2019
1850 Clouds 7 1009 93 10000 4.1 230 00:24 24.12.2019
1851 Clouds 7 1009 93 10000 4.1 240 23:59 23.12.2019
1852 Rain 7 1008 93 7000 5.1 250 23:40 23.12.2019
1853 Rain 7 1008 87 10000 3.6 240 23:22 23.12.2019
1854 Rain 7 1008 87 10000 3.6 240 22:56 23.12.2019
1855 Clouds 7 1008 93 10000 4.1 240 22:56 23.12.2019
1856 Clouds 7 1008 93 10000 4.1 240 22:37 23.12.2019
1857 Rain 7 1007 93 10000 4.1 250 22:18 23.12.2019
1858 Rain 7 1007 93 10000 4.1 240 21:55 23.12.2019
1859 Rain 7 1007 93 10000 4.1 240 21:36 23.12.2019
1860 Rain 7 1007 93 9000 4.1 240 21:18 23.12.2019
1861 Rain 7 1007 93 9000 4.1 240 20:57 23.12.2019
1862 Rain 6 1007 87 10000 4.1 240 20:39 23.12.2019
1863 Rain 6 1006 93 10000 3.1 250 20:18 23.12.2019
1864 Clouds 6 1006 87 10000 3.6 250 19:56 23.12.2019
1865 Clouds 6 1006 87 10000 3.6 250 19:38 23.12.2019
1866 Clouds 6 1006 87 10000 4.1 240 19:19 23.12.2019
1867 Clouds 6 1005 87 10000 5.1 240 18:57 23.12.2019
1868 Clouds 6 1005 87 10000 5.1 240 18:38 23.12.2019
1869 Clouds 6 1005 87 10000 3.6 240 18:20 23.12.2019
1870 Clouds 6 1005 87 10000 2.6 250 17:56 23.12.2019
1871 Clouds 7 1005 87 10000 2.6 250 17:37 23.12.2019
1872 Clouds 7 1004 81 10000 4.1 260 17:19 23.12.2019
1873 Rain 7 1004 87 10000 3.6 260 16:55 23.12.2019
1874 Rain 7 1004 87 10000 3.6 260 16:36 23.12.2019
1875 Clouds 7 1004 87 10000 4.6 260 16:18 23.12.2019
1876 Clouds 7 1004 87 10000 4.6 260 15:55 23.12.2019
1877 Rain 7 1003 81 10000 5.7 250 15:36 23.12.2019
1878 Rain 8 1003 81 10000 5.1 250 15:18 23.12.2019
1879 Rain 8 1002 81 10000 5.7 250 14:45 23.12.2019
1880 Clouds 8 1002 81 10000 5.7 250 14:26 23.12.2019
1881 Clouds 8 1002 81 10000 5.7 250 14:26 23.12.2019
1882 Clouds 8 1001 81 10000 4.1 240 13:59 23.12.2019
1883 Clouds 8 1001 81 10000 4.1 240 13:41 23.12.2019
1884 Clouds 8 1001 81 10000 4.1 250 13:22 23.12.2019
1885 Clouds 8 1000 81 10000 5.1 240 12:59 23.12.2019
1886 Clouds 7 1000 81 10000 5.1 240 12:40 23.12.2019
1887 Clouds 7 1000 81 10000 4.6 250 12:21 23.12.2019
1888 Clouds 7 1000 81 10000 5.1 240 11:56 23.12.2019
1889 Clouds 7 1000 81 10000 5.1 240 11:38 23.12.2019
1890 Clouds 7 999 87 10000 4.6 240 11:20 23.12.2019
1891 Clouds 7 999 87 10000 4.6 240 11:20 23.12.2019
1892 Clouds 7 999 87 10000 5.1 230 10:55 23.12.2019
1893 Clouds 7 999 87 10000 4.6 240 10:55 23.12.2019
1894 Clouds 7 999 87 10000 5.1 230 10:37 23.12.2019
1895 Rain 7 998 87 10000 4.1 230 10:18 23.12.2019
1896 Rain 7 998 93 10000 4.1 250 09:54 23.12.2019
1897 Rain 7 998 93 10000 4.1 250 09:36 23.12.2019
1898 Rain 7 997 87 10000 4.6 240 09:18 23.12.2019
1899 Rain 7 997 93 10000 4.6 250 08:41 23.12.2019
1900 Rain 7 996 93 10000 5.1 250 08:22 23.12.2019
1901 Rain 7 996 93 10000 5.1 250 07:56 23.12.2019
1902 Clouds 7 996 93 10000 3.6 250 07:38 23.12.2019
1903 Clouds 6 995 93 10000 4.6 250 07:18 23.12.2019
1904 Rain 7 995 87 10000 4.6 250 06:39 23.12.2019
1905 Rain 7 994 87 10000 4.1 250 06:21 23.12.2019
1906 Clouds 7 993 93 10000 4.1 250 05:45 23.12.2019
1907 Rain 7 992 93 10000 5.1 250 04:44 23.12.2019
1908 Rain 6 991 93 10000 4.6 270 03:59 23.12.2019
1909 Rain 6 990 93 6000 2.1 180 02:48 23.12.2019
1910 Rain 6 989 93 7000 2.1 170 02:20 23.12.2019
1911 Rain 5 989 93 7000 2.1 170 01:51 23.12.2019
1912 Rain 5 989 93 7000 2.1 170 01:32 23.12.2019
1913 Rain 5 989 93 7000 2.1 170 01:32 23.12.2019
1914 Rain 5 989 93 7000 2.1 170 01:32 23.12.2019
1915 Drizzle 5 989 93 7000 3.6 140 00:54 23.12.2019
1916 Drizzle 5 989 93 7000 3.6 140 00:35 23.12.2019
1917 Drizzle 5 988 100 6000 3.1 150 23:57 22.12.2019
1918 Clouds 5 988 100 8000 3.6 140 23:39 22.12.2019
1919 Drizzle 5 988 93 6000 3.1 130 23:20 22.12.2019
1920 Drizzle 5 988 93 6000 3.1 130 22:57 22.12.2019
1921 Drizzle 5 988 93 6000 3.1 140 22:38 22.12.2019
1922 Drizzle 5 988 93 6000 3.1 140 22:38 22.12.2019
1923 Drizzle 5 988 93 6000 3.1 130 22:19 22.12.2019
1924 Drizzle 5 987 93 4000 3.6 130 21:56 22.12.2019
1925 Drizzle 5 987 93 4000 3.6 130 21:38 22.12.2019
1926 Drizzle 5 987 93 4000 3.6 130 21:38 22.12.2019
1927 Drizzle 5 987 93 4000 3.6 130 21:38 22.12.2019
1928 Clouds 4 987 86 10000 3.6 130 21:20 22.12.2019
1929 Rain 4 987 86 10000 4.1 130 20:55 22.12.2019
1930 Rain 5 987 86 10000 4.1 130 20:37 22.12.2019
1931 Rain 5 987 86 10000 4.1 130 20:37 22.12.2019
1932 Rain 4 987 86 10000 4.1 120 20:18 22.12.2019
1933 Clouds 4 987 86 10000 4.1 130 19:40 22.12.2019
1934 Clouds 4 987 86 10000 4.6 130 19:21 22.12.2019
1935 Clouds 5 986 86 10000 4.6 120 18:58 22.12.2019
1936 Clouds 5 986 86 10000 4.6 120 18:38 22.12.2019
1937 Clouds 4 986 86 10000 4.1 120 18:19 22.12.2019
1938 Clouds 5 986 86 10000 4.1 120 17:55 22.12.2019
1939 Clouds 5 986 86 10000 4.1 120 17:37 22.12.2019
1940 Clouds 5 986 86 10000 3.6 120 17:18 22.12.2019
1941 Clouds 5 986 86 10000 3.6 120 16:56 22.12.2019
1942 Clouds 5 986 86 10000 3.6 120 16:37 22.12.2019
1943 Clouds 5 986 86 10000 5.1 130 16:19 22.12.2019
1944 Clouds 5 985 81 10000 4.6 120 15:54 22.12.2019
1945 Clouds 5 985 81 10000 4.6 120 15:36 22.12.2019
1946 Clouds 5 985 81 10000 4.6 130 15:18 22.12.2019
1947 Clouds 5 985 86 10000 5.1 130 14:39 22.12.2019
1948 Clouds 5 985 86 10000 4.6 130 14:19 22.12.2019
1949 Clouds 5 985 86 10000 4.6 130 13:56 22.12.2019
1950 Clouds 5 985 86 10000 4.1 120 13:38 22.12.2019
1951 Clouds 5 986 86 10000 4.1 130 13:20 22.12.2019
1952 Clouds 5 986 86 10000 4.1 130 12:57 22.12.2019
1953 Clouds 4 985 86 10000 4.6 130 12:39 22.12.2019
1954 Clouds 4 985 86 10000 4.1 130 12:20 22.12.2019
1955 Clouds 4 986 86 10000 4.1 130 11:59 22.12.2019
1956 Clouds 4 986 86 10000 4.1 130 11:39 22.12.2019
1957 Rain 4 986 93 10000 4.1 130 11:20 22.12.2019
1958 Rain 4 986 93 10000 4.1 130 10:58 22.12.2019
1959 Rain 3 986 86 10000 3.6 130 10:40 22.12.2019
1960 Rain 3 986 86 10000 4.6 120 10:21 22.12.2019
1961 Clouds 3 986 86 10000 4.1 130 09:58 22.12.2019
1962 Clouds 3 986 86 10000 4.1 130 09:40 22.12.2019
1963 Clouds 3 985 86 10000 4.1 130 09:21 22.12.2019
1964 Clouds 3 985 93 10000 4.1 120 08:59 22.12.2019
1965 Clouds 3 985 93 10000 4.1 120 08:37 22.12.2019
1966 Clouds 3 985 86 10000 4.1 120 08:18 22.12.2019
1967 Clouds 3 985 93 10000 4.6 130 07:38 22.12.2019
1968 Clouds 3 985 86 10000 4.1 120 07:19 22.12.2019
1969 Clouds 3 985 86 10000 4.6 120 06:40 22.12.2019
1970 Clouds 4 985 86 10000 3.6 120 05:53 22.12.2019
1971 Clouds 4 985 86 10000 3.6 140 05:21 22.12.2019
1972 Clouds 4 985 86 10000 4.1 110 04:29 22.12.2019
1973 Clouds 4 986 86 10000 3.6 130 03:53 22.12.2019
1974 Clouds 4 986 80 10000 4.6 150 02:40 22.12.2019
1975 Clouds 4 986 80 10000 4.6 150 02:40 22.12.2019
1976 Clouds 4 986 86 10000 4.1 120 01:47 22.12.2019
1977 Clouds 4 987 93 10000 4.1 140 01:28 22.12.2019
1978 Clouds 4 987 86 10000 4.1 140 00:46 22.12.2019
1979 Clouds 4 987 86 10000 4.1 140 00:23 22.12.2019
1980 Clouds 4 987 86 10000 4.1 140 23:56 21.12.2019
1981 Clouds 5 987 86 10000 4.1 130 23:38 21.12.2019
1982 Clouds 4 988 86 10000 3.1 130 23:19 21.12.2019
1983 Clouds 5 988 86 10000 3.6 140 22:41 21.12.2019
1984 Clouds 5 988 93 10000 3.1 140 22:19 21.12.2019
1985 Clouds 5 988 93 10000 3.1 140 21:57 21.12.2019
1986 Clouds 5 988 86 10000 3.6 140 21:38 21.12.2019
1987 Clouds 5 989 86 10000 4.1 150 21:20 21.12.2019
1988 Clouds 6 989 86 10000 4.1 150 20:59 21.12.2019
1989 Clouds 6 989 87 10000 3.6 160 20:39 21.12.2019
1990 Clouds 6 989 87 10000 5.1 150 20:21 21.12.2019
1991 Clouds 6 989 87 10000 5.1 150 19:58 21.12.2019
1992 Clouds 6 989 81 10000 5.1 150 19:40 21.12.2019
1993 Clouds 6 989 81 10000 5.1 140 19:19 21.12.2019
1994 Clouds 6 989 81 10000 5.1 150 18:45 21.12.2019
1995 Clouds 6 989 81 10000 5.1 140 18:24 21.12.2019
1996 Clouds 6 989 81 10000 5.1 140 17:58 21.12.2019
1997 Clouds 7 990 81 10000 5.1 150 17:39 21.12.2019
1998 Clouds 7 990 87 10000 4.6 150 17:21 21.12.2019
1999 Clouds 7 990 87 10000 4.6 150 16:59 21.12.2019
2000 Clouds 7 990 87 10000 4.1 150 16:41 21.12.2019
2001 Clouds 7 990 81 10000 4.1 150 16:19 21.12.2019
2002 Clouds 7 990 81 10000 4.1 150 15:57 21.12.2019
2003 Clouds 8 990 81 10000 4.1 160 15:39 21.12.2019
2004 Clouds 8 990 76 10000 3.6 160 15:20 21.12.2019
2005 Clouds 8 990 76 10000 3.6 160 14:57 21.12.2019
2006 Clouds 9 990 76 10000 4.6 170 14:38 21.12.2019
2007 Clouds 9 991 76 10000 4.6 160 14:20 21.12.2019
2008 Clouds 9 991 71 10000 3.1 170 13:56 21.12.2019
2009 Clouds 9 991 71 10000 3.1 170 13:38 21.12.2019
2010 Clouds 9 991 76 10000 4.1 210 13:18 21.12.2019
2011 Clouds 9 991 76 10000 3.6 190 12:55 21.12.2019
2012 Clouds 8 991 76 10000 3.6 190 12:37 21.12.2019
2013 Clouds 8 991 76 10000 4.6 210 12:18 21.12.2019
2014 Clouds 7 991 81 10000 3.6 210 11:44 21.12.2019
2015 Clouds 7 991 81 10000 3.6 210 11:26 21.12.2019
2016 Clouds 7 991 81 10000 3.6 210 10:57 21.12.2019
2017 Clouds 6 991 75 10000 4.6 210 10:39 21.12.2019
2018 Clouds 6 992 87 10000 4.1 220 10:21 21.12.2019
2019 Clouds 6 991 87 10000 3.6 220 09:56 21.12.2019
2020 Clouds 6 991 87 10000 3.6 220 09:38 21.12.2019
2021 Clouds 6 991 87 10000 4.1 210 09:19 21.12.2019
2022 Clouds 6 991 81 10000 5.1 210 08:46 21.12.2019
2023 Clouds 6 991 81 10000 5.1 210 08:26 21.12.2019
2024 Clouds 6 991 87 10000 3.6 220 07:47 21.12.2019
2025 Clouds 6 991 81 10000 5.1 210 07:23 21.12.2019
2026 Clouds 6 991 81 10000 5.1 210 07:23 21.12.2019
2027 Clouds 7 991 87 10000 4.6 210 06:46 21.12.2019
2028 Clouds 7 990 87 10000 5.1 210 06:28 21.12.2019
2029 Clouds 7 990 87 10000 5.1 210 05:58 21.12.2019
2030 Clouds 7 990 87 10000 4.1 210 04:59 21.12.2019
2031 Clouds 7 990 93 10000 3.6 210 04:33 21.12.2019
2032 Clouds 7 990 87 10000 3.6 220 03:56 21.12.2019
2033 Clouds 7 990 87 10000 4.6 210 02:23 21.12.2019
2034 Clouds 8 989 93 10000 2.6 200 01:43 21.12.2019
2035 Clouds 8 988 93 10000 1.5 210 01:24 21.12.2019
2036 Rain 8 988 100 10000 1.5 220 00:40 21.12.2019
2037 Rain 8 988 93 10000 2.1 260 00:21 21.12.2019
2038 Rain 8 988 93 7000 3.6 270 23:39 20.12.2019
2039 Rain 8 988 100 9000 4.1 170 23:21 20.12.2019
2040 Rain 8 988 100 9000 4.1 170 22:59 20.12.2019
2041 Rain 8 987 93 10000 4.1 170 22:39 20.12.2019
2042 Rain 8 987 93 10000 4.1 160 22:19 20.12.2019
2043 Rain 8 987 93 10000 4.1 150 21:42 20.12.2019
2044 Rain 8 987 87 10000 5.1 150 21:21 20.12.2019
2045 Rain 8 987 87 10000 5.1 150 20:59 20.12.2019
2046 Rain 8 987 87 10000 5.1 150 20:38 20.12.2019
2047 Rain 8 987 76 10000 6.2 150 20:19 20.12.2019
2048 Rain 8 987 76 10000 6.2 150 19:57 20.12.2019
2049 Clouds 8 987 76 10000 4.1 140 19:38 20.12.2019
2050 Clouds 8 987 76 10000 4.6 140 19:19 20.12.2019
2051 Clouds 8 987 76 10000 5.1 130 18:42 20.12.2019
2052 Clouds 8 987 76 10000 4.6 130 18:23 20.12.2019
2053 Rain 8 988 75 10000 4.6 130 17:58 20.12.2019
2054 Rain 8 988 75 10000 4.6 130 17:40 20.12.2019
2055 Clouds 8 988 75 10000 4.6 130 17:20 20.12.2019
2056 Clouds 8 988 75 10000 4.1 130 16:59 20.12.2019
2057 Clouds 8 988 75 10000 5.7 130 16:38 20.12.2019
2058 Clouds 8 988 75 10000 5.7 130 16:20 20.12.2019
2059 Clouds 8 988 75 10000 5.7 130 16:20 20.12.2019
2060 Clouds 8 989 75 10000 6.7 140 15:56 20.12.2019
2061 Clouds 8 989 75 10000 6.2 140 15:38 20.12.2019
2062 Clouds 8 989 75 10000 6.2 140 15:19 20.12.2019
2063 Clouds 8 989 75 10000 6.2 140 14:43 20.12.2019
2064 Clouds 8 989 75 10000 6.2 140 14:25 20.12.2019
2065 Clouds 8 990 70 10000 5.7 150 13:59 20.12.2019
2066 Clouds 8 990 70 10000 5.7 150 13:41 20.12.2019
2067 Clouds 8 989 75 10000 5.7 130 13:20 20.12.2019
2068 Clouds 7 990 75 10000 5.7 130 12:57 20.12.2019
2069 Clouds 7 991 75 10000 5.7 130 12:37 20.12.2019
2070 Clouds 7 991 75 10000 5.7 130 12:19 20.12.2019
2071 Clouds 7 991 81 10000 5.7 130 11:58 20.12.2019
2072 Clouds 6 991 81 10000 5.7 130 11:39 20.12.2019
2073 Clouds 6 992 87 10000 5.7 120 11:19 20.12.2019
2074 Clouds 5 993 87 10000 5.1 120 10:57 20.12.2019
2075 Clouds 5 993 87 10000 5.1 120 10:39 20.12.2019
2076 Clouds 5 993 87 10000 5.1 120 10:39 20.12.2019
2077 Clouds 5 995 93 7000 3.6 120 10:20 20.12.2019
2078 Clouds 5 995 93 7000 3.6 120 09:54 20.12.2019
2079 Clouds 4 995 100 7000 3.6 130 09:36 20.12.2019
2080 Clouds 4 995 100 7000 3.6 130 09:18 20.12.2019
2081 Clouds 4 995 100 6000 5.1 120 08:42 20.12.2019
2082 Mist 4 996 93 5000 5.1 130 08:22 20.12.2019
2083 Mist 5 996 93 5000 4.6 120 07:58 20.12.2019
2084 Mist 5 997 93 5000 5.1 120 07:40 20.12.2019
2085 Mist 5 997 93 5000 5.1 120 07:19 20.12.2019
2086 Mist 5 997 93 5000 5.1 120 06:51 20.12.2019
2087 Mist 5 997 93 4800 5.1 120 06:31 20.12.2019
2088 Mist 5 998 93 3500 4.6 120 05:53 20.12.2019
2089 Mist 5 999 100 3500 4.6 120 05:34 20.12.2019
2090 Mist 5 1000 100 4500 3.6 130 04:33 20.12.2019
2091 Mist 6 1001 93 4000 5.7 140 03:30 20.12.2019
2092 Mist 6 1002 93 4500 3.6 120 02:43 20.12.2019
2093 Clouds 6 1003 93 10000 3.6 130 01:49 20.12.2019
2094 Clouds 6 1003 93 10000 3.6 130 01:49 20.12.2019
2095 Clouds 6 1003 93 10000 4.6 140 01:30 20.12.2019
2096 Clouds 6 1003 93 10000 3.6 140 00:43 20.12.2019
2097 Clouds 7 1004 87 10000 2.6 120 00:25 20.12.2019
2098 Clouds 7 1004 87 10000 5.1 140 23:44 19.12.2019
2099 Clouds 7 1005 87 10000 5.1 140 23:26 19.12.2019
2100 Clouds 7 1005 81 10000 4.6 140 22:59 19.12.2019
2101 Clouds 7 1005 81 10000 5.7 140 22:37 19.12.2019
2102 Clouds 7 1005 81 10000 5.7 140 22:19 19.12.2019
2103 Clouds 7 1005 81 10000 6.2 130 21:55 19.12.2019
2104 Clouds 7 1006 81 10000 6.2 140 21:37 19.12.2019
2105 Clouds 7 1006 81 10000 6.2 140 21:18 19.12.2019
2106 Clouds 8 1007 76 10000 6.7 160 20:56 19.12.2019
2107 Clouds 8 1007 76 10000 5.1 140 20:36 19.12.2019
2108 Clouds 8 1007 76 10000 5.1 140 20:18 19.12.2019
2109 Clouds 8 1007 76 10000 4.1 140 19:57 19.12.2019
2110 Clouds 8 1007 76 10000 4.1 140 19:57 19.12.2019
2111 Clouds 8 1008 76 10000 4.6 140 19:39 19.12.2019
2112 Clouds 8 1008 76 10000 4.6 140 19:39 19.12.2019
2113 Clouds 8 1008 81 10000 6.2 130 19:19 19.12.2019
2114 Clouds 8 1008 81 10000 6.2 130 19:19 19.12.2019
2115 Clouds 8 1008 81 10000 6.2 130 18:55 19.12.2019
2116 Clouds 8 1008 76 10000 5.1 140 18:37 19.12.2019
2117 Clouds 8 1008 76 10000 5.1 140 18:18 19.12.2019
2118 Clouds 8 1008 81 10000 5.1 140 17:54 19.12.2019
2119 Clouds 8 1009 76 10000 6.7 120 17:36 19.12.2019
2120 Clear 8 1009 76 10000 4.6 130 17:18 19.12.2019
2121 Clear 8 1009 76 10000 4.6 130 16:54 19.12.2019
2122 Clear 9 1010 76 10000 4.6 150 16:36 19.12.2019
2123 Clear 9 1010 76 10000 4.6 150 16:18 19.12.2019
2124 Clear 9 1010 76 10000 5.1 140 15:54 19.12.2019
2125 Clear 9 1010 76 10000 5.7 140 15:36 19.12.2019
2126 Clear 10 1010 76 10000 5.7 140 15:18 19.12.2019
2127 Clear 10 1011 76 10000 5.1 140 14:42 19.12.2019
2128 Clouds 10 1011 76 10000 5.1 140 14:20 19.12.2019
2129 Clouds 10 1011 76 10000 5.1 140 13:58 19.12.2019
2130 Clouds 10 1012 81 10000 5.7 150 13:38 19.12.2019
2131 Clouds 9 1012 76 10000 6.2 150 13:19 19.12.2019
2132 Clouds 9 1012 76 10000 6.2 150 12:57 19.12.2019
2133 Clouds 8 1013 81 10000 6.2 150 12:38 19.12.2019
2134 Clouds 8 1013 81 10000 6.2 150 12:19 19.12.2019
2135 Clouds 7 1013 87 10000 7.7 150 11:58 19.12.2019
2136 Clouds 7 1013 81 10000 6.2 150 11:39 19.12.2019
2137 Clouds 6 1013 81 10000 6.2 150 11:18 19.12.2019
2138 Clouds 6 1013 81 10000 6.2 150 11:18 19.12.2019
2139 Clouds 6 1014 87 10000 6.7 150 10:56 19.12.2019
2140 Clouds 5 1014 93 10000 6.2 140 10:37 19.12.2019
2141 Clouds 5 1014 93 10000 6.2 140 10:19 19.12.2019
2142 Clouds 5 1014 87 10000 6.2 140 09:54 19.12.2019
2143 Clouds 5 1014 93 10000 6.2 140 09:36 19.12.2019
2144 Clouds 5 1014 86 10000 5.7 140 09:18 19.12.2019
2145 Clouds 5 1014 86 10000 5.1 140 08:41 19.12.2019
2146 Clouds 5 1014 86 10000 5.1 140 08:19 19.12.2019
2147 Clouds 4 1014 86 10000 5.7 140 07:58 19.12.2019
2148 Clouds 4 1015 86 10000 5.1 140 07:38 19.12.2019
2149 Clouds 4 1015 86 10000 5.1 140 07:19 19.12.2019
2150 Clouds 4 1015 86 10000 4.6 140 06:50 19.12.2019
2151 Clouds 4 1015 86 10000 4.6 140 06:30 19.12.2019
2152 Clouds 4 1015 86 10000 4.6 140 05:55 19.12.2019
2153 Clouds 4 1015 86 10000 5.1 140 05:36 19.12.2019
2154 Clouds 4 1015 93 10000 4.6 140 04:52 19.12.2019
2155 Clouds 4 1016 93 10000 3.6 130 03:23 19.12.2019
2156 Clouds 4 1017 93 10000 3.6 130 02:24 19.12.2019
2157 Clouds 4 1018 93 10000 2.6 120 01:23 19.12.2019
2158 Clouds 4 1018 93 10000 2.6 130 00:44 19.12.2019
2159 Clouds 4 1018 86 10000 3.1 120 00:25 19.12.2019
2160 Clouds 4 1019 93 10000 3.1 130 23:59 18.12.2019
2161 Clouds 4 1019 93 10000 3.1 130 23:41 18.12.2019
2162 Clouds 4 1019 86 10000 3.6 140 23:19 18.12.2019
2163 Clouds 4 1019 93 10000 2.6 140 22:56 18.12.2019
2164 Clouds 4 1019 93 10000 3.1 130 22:37 18.12.2019
2165 Clouds 4 1019 93 10000 3.1 130 22:19 18.12.2019
2166 Clouds 4 1019 86 10000 3.1 140 21:57 18.12.2019
2167 Clouds 4 1019 81 10000 3.1 160 21:39 18.12.2019
2168 Clouds 4 1019 81 10000 3.1 160 21:19 18.12.2019
2169 Clouds 4 1018 86 10000 2.1 140 20:55 18.12.2019
2170 Clouds 5 1018 87 10000 1.5 150 20:37 18.12.2019
2171 Clouds 5 1018 87 10000 1.5 150 20:19 18.12.2019
2172 Clouds 5 1018 87 10000 2.6 210 19:55 18.12.2019
2173 Clouds 5 1018 93 10000 2.1 210 19:37 18.12.2019
2174 Clouds 5 1018 93 10000 2.1 210 19:18 18.12.2019
2175 Clouds 5 1018 86 10000 2.6 210 18:45 18.12.2019
2176 Clouds 6 1018 93 10000 2.6 210 18:25 18.12.2019
2177 Clouds 6 1018 87 10000 3.1 230 17:58 18.12.2019
2178 Clouds 6 1018 87 10000 3.6 230 17:40 18.12.2019
2179 Clouds 6 1018 87 10000 3.6 230 17:20 18.12.2019
2180 Clouds 7 1018 87 10000 3.6 240 16:58 18.12.2019
2181 Clouds 7 1018 87 10000 3.6 240 16:40 18.12.2019
2182 Clouds 7 1017 87 10000 4.1 230 16:22 18.12.2019
2183 Clouds 7 1017 87 10000 4.1 230 15:57 18.12.2019
2184 Clouds 7 1017 87 10000 4.1 240 15:38 18.12.2019
2185 Clouds 7 1016 81 10000 4.1 230 15:20 18.12.2019
2186 Clouds 7 1016 81 10000 4.1 230 14:56 18.12.2019
2187 Clouds 7 1016 81 10000 3.6 240 14:36 18.12.2019
2188 Clouds 7 1016 87 10000 4.6 230 14:18 18.12.2019
2189 Clouds 7 1015 87 10000 4.6 230 13:54 18.12.2019
2190 Clouds 7 1015 87 10000 4.6 230 13:36 18.12.2019
2191 Clouds 7 1015 93 10000 4.6 230 13:18 18.12.2019
2192 Clouds 7 1015 93 10000 4.6 230 13:18 18.12.2019
2193 Clouds 7 1015 87 10000 4.1 220 12:40 18.12.2019
2194 Clouds 7 1015 87 10000 4.1 220 12:40 18.12.2019
2195 Clouds 7 1015 87 10000 4.6 230 12:21 18.12.2019
2196 Clouds 7 1015 87 10000 4.6 230 11:57 18.12.2019
2197 Clouds 6 1015 87 10000 4.6 230 11:39 18.12.2019
2198 Clouds 6 1015 87 10000 3.6 230 11:20 18.12.2019
2199 Clouds 6 1015 87 10000 3.6 230 10:58 18.12.2019
2200 Clouds 6 1014 87 10000 4.6 230 10:39 18.12.2019
2201 Clouds 6 1013 87 10000 4.1 250 10:20 18.12.2019
2202 Clouds 6 1013 87 10000 4.1 250 09:58 18.12.2019
2203 Clouds 6 1012 87 10000 5.7 250 09:20 18.12.2019
2204 Clouds 6 1012 93 10000 4.6 240 08:55 18.12.2019
2205 Clouds 6 1012 93 10000 4.6 240 08:37 18.12.2019
2206 Clouds 6 1011 93 10000 4.1 240 08:19 18.12.2019
2207 Clouds 6 1011 93 10000 4.1 230 07:42 18.12.2019
2208 Clouds 6 1010 93 10000 4.1 230 07:21 18.12.2019
2209 Clouds 6 1010 87 10000 3.1 240 06:52 18.12.2019
2210 Clouds 6 1009 87 10000 4.6 240 06:26 18.12.2019
2211 Clouds 6 1009 81 10000 4.1 250 05:37 18.12.2019
2212 Clouds 7 1008 87 10000 5.1 280 04:35 18.12.2019
2213 Rain 10 1003 87 10000 7.2 240 02:50 18.12.2019
2214 Rain 10 1003 87 10000 7.2 240 02:30 18.12.2019
2215 Rain 10 1001 87 10000 7.2 220 01:47 18.12.2019
2216 Rain 10 1001 87 10000 7.2 220 01:28 18.12.2019
2217 Rain 10 1001 87 10000 8.2 210 00:59 18.12.2019
2218 Rain 10 1001 87 5000 8.7 210 00:39 18.12.2019
2219 Rain 11 1000 71 10000 5.1 210 00:21 18.12.2019
2220 Clouds 11 1000 66 10000 4.6 180 23:54 17.12.2019
2221 Clouds 11 1000 66 10000 4.6 180 23:36 17.12.2019
2222 Clouds 12 1000 66 10000 5.1 180 23:18 17.12.2019
2223 Clouds 11 1000 66 10000 5.7 170 22:54 17.12.2019
2224 Clouds 11 1000 66 10000 5.7 170 22:36 17.12.2019
2225 Clouds 11 1001 66 10000 6.2 170 22:18 17.12.2019
2226 Clouds 12 1001 66 10000 5.7 170 21:55 17.12.2019
2227 Clouds 11 1001 66 10000 5.7 170 21:36 17.12.2019
2228 Clouds 11 1001 66 10000 5.1 160 21:18 17.12.2019
2229 Clouds 11 1001 66 10000 6.2 160 20:40 17.12.2019
2230 Clouds 11 1001 66 10000 5.7 170 20:19 17.12.2019
2231 Clouds 11 1001 66 10000 5.7 170 19:59 17.12.2019
2232 Clouds 11 1001 76 10000 5.1 170 19:41 17.12.2019
2233 Clouds 11 1001 76 10000 5.1 170 19:41 17.12.2019
2234 Clouds 11 1001 76 10000 5.1 170 19:41 17.12.2019
2235 Clouds 11 1001 71 10000 5.7 170 19:20 17.12.2019
2236 Clouds 11 1001 71 10000 6.2 170 18:58 17.12.2019
2237 Clouds 11 1001 71 10000 6.2 170 18:40 17.12.2019
2238 Clouds 11 1001 76 10000 6.2 170 18:21 17.12.2019
2239 Clouds 11 1001 76 10000 5.1 170 17:58 17.12.2019
2240 Clouds 11 1001 76 10000 5.1 170 17:39 17.12.2019
2241 Clouds 11 1001 76 10000 5.7 170 17:19 17.12.2019
2242 Clouds 11 1001 71 10000 5.7 160 16:56 17.12.2019
2243 Clouds 11 1001 71 10000 5.7 160 16:37 17.12.2019
2244 Clouds 11 1001 71 10000 5.7 160 16:37 17.12.2019
2245 Clouds 11 1001 66 10000 5.1 190 16:19 17.12.2019
2246 Clouds 12 1001 66 10000 5.7 190 15:55 17.12.2019
2247 Clouds 11 1001 66 10000 5.7 190 15:37 17.12.2019
2248 Clouds 12 1001 66 10000 4.6 180 15:18 17.12.2019
2249 Clouds 12 1001 66 10000 5.1 190 14:55 17.12.2019
2250 Clouds 11 1001 66 10000 5.1 190 14:36 17.12.2019
2251 Clouds 11 1000 66 10000 4.1 160 14:18 17.12.2019
2252 Clouds 11 1000 71 10000 4.1 150 13:55 17.12.2019
2253 Clouds 11 1000 71 10000 4.1 150 13:37 17.12.2019
2254 Clouds 11 1001 76 10000 4.1 150 13:18 17.12.2019
2255 Clouds 11 1001 76 10000 4.1 170 12:41 17.12.2019
2256 Clouds 10 1001 76 10000 4.1 170 12:19 17.12.2019
2257 Clouds 10 1001 76 10000 4.1 170 12:19 17.12.2019
2258 Clouds 10 1001 76 10000 4.1 170 12:19 17.12.2019
2259 Clouds 9 1001 76 10000 4.1 170 11:59 17.12.2019
2260 Clouds 9 1001 76 10000 5.1 170 11:37 17.12.2019
2261 Clouds 8 1001 81 10000 4.6 160 11:19 17.12.2019
2262 Clouds 8 1001 81 10000 4.6 160 11:19 17.12.2019
2263 Clouds 8 1001 87 10000 3.1 170 10:59 17.12.2019
2264 Clouds 7 1001 87 10000 3.1 170 10:41 17.12.2019
2265 Clouds 7 1001 87 10000 3.1 170 10:41 17.12.2019
2266 Clouds 7 1001 87 10000 4.1 150 10:22 17.12.2019
2267 Clouds 6 1001 87 10000 4.1 150 09:59 17.12.2019
2268 Clouds 6 1001 93 10000 3.6 130 09:41 17.12.2019
2269 Clouds 6 1001 93 10000 3.1 140 09:20 17.12.2019
2270 Clouds 6 1001 87 10000 2.6 150 08:56 17.12.2019
2271 Clouds 6 1001 87 10000 2.6 150 08:38 17.12.2019
2272 Clouds 6 1001 93 10000 2.6 160 08:19 17.12.2019
2273 Clouds 6 1000 93 10000 3.1 140 07:54 17.12.2019
2274 Clouds 6 1000 93 10000 3.1 140 07:36 17.12.2019
2275 Clouds 6 1001 93 10000 3.6 150 07:18 17.12.2019
2276 Clouds 6 1000 93 10000 3.6 130 06:35 17.12.2019
2277 Clouds 6 1001 100 9000 3.1 130 05:56 17.12.2019
2278 Clouds 6 1001 93 10000 2.6 110 05:36 17.12.2019
2279 Clouds 6 1002 100 10000 3.1 130 04:33 17.12.2019
2280 Clouds 6 1003 93 10000 2.1 90 02:47 17.12.2019
2281 Rain 6 1003 93 10000 1.5 90 01:56 17.12.2019
2282 Rain 6 1004 93 10000 2.1 120 01:20 17.12.2019
2283 Clouds 6 1004 93 10000 1 0 00:38 17.12.2019
2284 Clouds 6 1004 93 10000 2.6 130 00:20 17.12.2019
2285 Clouds 6 1004 87 10000 2.6 110 23:42 16.12.2019
2286 Clouds 6 1004 87 10000 2.6 110 23:42 16.12.2019
2287 Clouds 6 1004 87 10000 2.6 110 23:42 16.12.2019
2288 Clouds 6 1005 93 10000 1.5 100 23:19 16.12.2019
2289 Clouds 6 1005 93 10000 2.6 110 22:58 16.12.2019
2290 Clouds 6 1005 93 10000 2.6 110 22:38 16.12.2019
2291 Clouds 6 1005 87 10000 2.1 110 22:20 16.12.2019
2292 Clouds 6 1005 93 10000 1.5 0 21:56 16.12.2019
2293 Clouds 6 1005 93 10000 1.5 0 21:38 16.12.2019
2294 Clouds 6 1005 87 10000 2.6 140 21:20 16.12.2019
2295 Clouds 6 1005 87 10000 3.1 140 20:58 16.12.2019
2296 Clouds 6 1005 87 10000 3.1 140 20:39 16.12.2019
2297 Clouds 6 1005 87 10000 3.1 150 20:19 16.12.2019
2298 Clouds 6 1005 87 10000 2.6 150 19:56 16.12.2019
2299 Clouds 6 1005 87 10000 2.6 150 19:37 16.12.2019
2300 Clouds 6 1005 93 10000 1.5 160 19:19 16.12.2019
2301 Clouds 7 1005 87 10000 2.6 160 18:58 16.12.2019
2302 Clouds 7 1005 87 10000 2.6 160 18:58 16.12.2019
2303 Clouds 7 1005 87 10000 2.6 160 18:40 16.12.2019
2304 Clouds 7 1005 87 10000 2.6 160 18:40 16.12.2019
2305 Clouds 7 1005 87 10000 2.6 200 18:20 16.12.2019
2306 Clouds 7 1005 87 10000 3.1 210 17:58 16.12.2019
2307 Clouds 7 1005 87 10000 3.1 210 17:39 16.12.2019
2308 Clouds 7 1005 87 10000 2.1 180 17:21 16.12.2019
2309 Clouds 7 1005 81 10000 4.6 210 16:57 16.12.2019
2310 Clouds 7 1005 81 10000 4.6 210 16:39 16.12.2019
2311 Clouds 7 1005 81 10000 5.1 210 16:20 16.12.2019
2312 Clouds 7 1005 81 10000 5.1 210 15:59 16.12.2019
2313 Clouds 7 1005 81 10000 5.1 210 15:39 16.12.2019
2314 Clouds 7 1005 81 10000 5.1 210 15:20 16.12.2019
2315 Clouds 7 1005 81 10000 5.7 210 14:57 16.12.2019
2316 Clouds 7 1005 81 10000 5.7 210 14:37 16.12.2019
2317 Clouds 7 1005 81 10000 5.7 210 14:37 16.12.2019
2318 Clouds 7 1005 81 10000 5.7 210 14:19 16.12.2019
2319 Clouds 7 1005 81 10000 5.7 210 14:19 16.12.2019
2320 Clouds 7 1005 81 10000 5.7 210 14:19 16.12.2019
2321 Clouds 7 1005 81 10000 5.1 210 13:56 16.12.2019
2322 Clouds 7 1005 81 10000 5.1 210 13:37 16.12.2019
2323 Clouds 7 1005 81 10000 6.7 200 13:19 16.12.2019
2324 Clouds 7 1005 75 10000 3.6 190 12:58 16.12.2019
2325 Clouds 7 1005 75 10000 3.6 190 12:39 16.12.2019
2326 Clouds 6 1006 81 10000 3.6 180 12:19 16.12.2019
2327 Clouds 6 1006 81 10000 4.6 180 11:58 16.12.2019
2328 Clouds 6 1006 81 10000 4.6 180 11:40 16.12.2019
2329 Clouds 5 1006 81 10000 4.6 180 11:20 16.12.2019
2330 Clouds 5 1006 80 10000 6.2 180 10:57 16.12.2019
2331 Clouds 5 1006 80 10000 6.2 180 10:39 16.12.2019
2332 Clouds 5 1006 80 10000 6.2 170 10:20 16.12.2019
2333 Clouds 4 1006 75 10000 6.7 180 09:45 16.12.2019
2334 Clouds 4 1006 75 10000 6.7 180 09:27 16.12.2019
2335 Clouds 4 1005 75 10000 4.1 170 08:57 16.12.2019
2336 Clouds 4 1005 75 10000 4.1 170 08:38 16.12.2019
2337 Clouds 4 1005 75 10000 5.1 180 08:18 16.12.2019
2338 Clouds 4 1005 75 10000 4.1 180 07:47 16.12.2019
2339 Clouds 4 1005 75 10000 4.1 180 07:28 16.12.2019
2340 Clouds 4 1005 75 10000 4.6 190 06:45 16.12.2019
2341 Clouds 4 1005 75 10000 4.6 190 06:26 16.12.2019
2342 Clouds 4 1006 75 10000 5.1 200 05:54 16.12.2019
2343 Clouds 4 1006 75 10000 5.1 200 05:35 16.12.2019
2344 Clouds 4 1006 75 10000 4.6 210 04:27 16.12.2019
2345 Clouds 4 1006 86 10000 4.6 210 02:36 16.12.2019
2346 Clouds 5 1005 80 10000 5.1 220 01:45 16.12.2019
2347 Clouds 6 1005 81 10000 6.2 230 00:54 16.12.2019
2348 Clouds 6 1005 81 10000 6.2 230 00:36 16.12.2019
2349 Clouds 6 1004 75 10000 6.2 230 00:18 16.12.2019
2350 Clouds 6 1004 75 10000 7.2 230 23:40 15.12.2019
2351 Clouds 7 1004 70 10000 7.7 230 23:21 15.12.2019
2352 Clouds 7 1003 75 10000 6.7 230 22:56 15.12.2019
2353 Clouds 7 1003 75 10000 6.7 230 22:38 15.12.2019
2354 Clouds 7 1003 81 10000 7.2 230 22:19 15.12.2019
2355 Clouds 7 1003 81 10000 7.2 230 21:57 15.12.2019
2356 Rain 7 1002 81 10000 7.2 230 21:38 15.12.2019
2357 Clouds 7 1002 70 10000 7.7 230 21:19 15.12.2019
2358 Clouds 7 1001 75 10000 7.2 230 20:58 15.12.2019
2359 Clouds 7 1001 75 10000 7.2 230 20:39 15.12.2019
2360 Clouds 7 1001 75 10000 7.2 230 20:39 15.12.2019
2361 Clouds 7 1001 75 10000 6.7 220 20:20 15.12.2019
2362 Clouds 7 1000 75 10000 6.7 230 19:58 15.12.2019
2363 Clouds 7 1000 75 10000 6.7 230 19:40 15.12.2019
2364 Clouds 7 1000 75 10000 8.7 230 19:20 15.12.2019
2365 Clouds 7 1000 75 10000 8.7 230 18:57 15.12.2019
2366 Clouds 7 999 70 10000 8.2 240 18:39 15.12.2019
2367 Rain 7 998 75 10000 7.7 240 18:19 15.12.2019
2368 Rain 7 998 75 10000 7.7 240 18:19 15.12.2019
2369 Clouds 7 998 65 10000 8.7 230 17:56 15.12.2019
2370 Clouds 7 998 65 10000 8.7 230 17:56 15.12.2019
2371 Clouds 7 998 65 10000 8.7 230 17:38 15.12.2019
2372 Rain 7 997 65 10000 7.7 240 17:19 15.12.2019
2373 Rain 7 997 61 10000 8.2 240 16:57 15.12.2019
2374 Rain 7 997 61 10000 8.2 240 16:39 15.12.2019
2375 Rain 7 996 61 10000 10.3 240 16:20 15.12.2019
2376 Clouds 8 995 61 10000 9.8 240 15:56 15.12.2019
2377 Clouds 8 995 61 10000 9.8 240 15:38 15.12.2019
2378 Clouds 8 995 61 10000 9.8 240 15:19 15.12.2019
2379 Clouds 8 995 61 10000 9.8 240 14:56 15.12.2019
2380 Clouds 8 994 69 10000 9.8 240 14:37 15.12.2019
2381 Clouds 8 994 62 10000 10.8 240 14:18 15.12.2019
2382 Clouds 8 994 55 10000 10.8 240 13:58 15.12.2019
2383 Clouds 8 993 49 10000 10.3 240 13:37 15.12.2019
2384 Clouds 8 993 55 10000 11.3 240 13:19 15.12.2019
2385 Clouds 8 992 55 10000 12.3 240 12:56 15.12.2019
2386 Clouds 8 992 55 10000 12.3 240 12:38 15.12.2019
2387 Clouds 8 992 61 10000 10.3 240 12:20 15.12.2019
2388 Clouds 8 991 61 10000 11.3 230 11:56 15.12.2019
2389 Clouds 8 991 61 10000 11.3 230 11:36 15.12.2019
2390 Clouds 8 990 70 10000 10.8 230 11:18 15.12.2019
2391 Clouds 7 990 81 10000 8.7 220 10:55 15.12.2019
2392 Clouds 7 990 81 10000 10.8 210 10:36 15.12.2019
2393 Clouds 6 990 81 10000 10.8 210 10:18 15.12.2019
2394 Clouds 6 989 87 10000 9.3 210 09:40 15.12.2019
2395 Clouds 5 989 87 10000 5.7 180 09:20 15.12.2019
2396 Clouds 5 989 87 10000 5.7 180 08:58 15.12.2019
2397 Clouds 5 989 93 10000 6.7 170 08:39 15.12.2019
2398 Rain 4 989 93 6000 8.2 170 08:21 15.12.2019
2399 Clouds 4 989 75 10000 7.7 160 07:56 15.12.2019
2400 Clouds 4 989 75 10000 7.7 160 07:34 15.12.2019
2401 Clouds 4 991 80 10000 5.7 150 06:51 15.12.2019
2402 Clouds 3 992 86 10000 6.2 150 06:20 15.12.2019
2403 Clouds 3 993 84 10000 4.6 150 05:26 15.12.2019
2404 Clouds 3 994 84 10000 5.1 180 04:47 15.12.2019
2405 Clouds 3 995 84 10000 4.1 190 03:31 15.12.2019
2406 Clouds 3 995 84 10000 4.6 220 02:34 15.12.2019
2407 Clouds 4 995 72 10000 6.7 220 01:47 15.12.2019
2408 Clouds 4 995 80 10000 7.7 230 01:28 15.12.2019
2409 Clouds 4 995 80 10000 7.7 230 00:58 15.12.2019
2410 Clouds 4 995 80 10000 7.2 230 00:40 15.12.2019
2411 Clouds 4 994 80 10000 7.7 230 00:21 15.12.2019
2412 Clouds 4 993 80 10000 7.7 230 23:40 14.12.2019
2413 Clouds 4 993 80 10000 7.7 230 23:40 14.12.2019
2414 Rain 4 993 75 10000 8.2 240 23:21 14.12.2019
2415 Rain 4 992 75 10000 7.7 240 22:58 14.12.2019
2416 Rain 4 993 75 10000 8.2 240 22:58 14.12.2019
2417 Rain 4 992 75 10000 7.7 240 22:40 14.12.2019
2418 Clouds 4 991 70 10000 8.7 250 22:21 14.12.2019
2419 Clouds 5 991 75 10000 7.2 240 21:56 14.12.2019
2420 Clouds 5 991 75 10000 7.2 240 21:38 14.12.2019
2421 Clouds 5 990 75 10000 7.7 230 21:19 14.12.2019
2422 Clouds 5 990 75 10000 7.7 230 20:57 14.12.2019
2423 Clouds 5 990 75 10000 7.2 220 20:38 14.12.2019
2424 Clouds 5 989 75 10000 7.7 210 20:19 14.12.2019
2425 Clouds 5 989 75 10000 6.7 210 19:56 14.12.2019
2426 Clouds 5 989 75 10000 6.7 210 19:37 14.12.2019
2427 Clouds 5 988 80 10000 6.7 220 19:18 14.12.2019
2428 Clouds 5 988 80 10000 7.2 220 18:56 14.12.2019
2429 Clouds 5 988 80 10000 7.2 220 18:37 14.12.2019
2430 Clouds 5 988 80 10000 5.1 230 18:19 14.12.2019
2431 Clouds 5 988 80 10000 7.7 230 17:43 14.12.2019
2432 Rain 5 988 80 10000 7.2 230 17:23 14.12.2019
2433 Rain 5 987 75 10000 8.2 240 16:58 14.12.2019
2434 Rain 5 987 75 10000 8.2 240 16:38 14.12.2019
2435 Rain 5 987 75 10000 8.2 240 16:38 14.12.2019
2436 Rain 5 986 75 10000 7.7 240 16:18 14.12.2019
2437 Clouds 5 986 75 10000 8.2 240 15:43 14.12.2019
2438 Rain 5 985 81 10000 8.2 230 15:22 14.12.2019
2439 Rain 5 985 81 10000 8.2 230 14:59 14.12.2019
2440 Rain 5 985 81 10000 7.2 230 14:38 14.12.2019
2441 Clouds 5 984 81 10000 7.2 230 14:19 14.12.2019
2442 Clouds 5 984 81 10000 7.7 230 13:56 14.12.2019
2443 Clouds 5 984 81 10000 7.7 230 13:38 14.12.2019
2444 Clouds 5 984 86 10000 7.7 230 13:18 14.12.2019
2445 Clouds 4 983 86 10000 6.2 220 12:55 14.12.2019
2446 Clouds 4 983 86 10000 6.2 220 12:37 14.12.2019
2447 Rain 4 983 93 10000 5.1 230 12:18 14.12.2019
2448 Rain 4 983 86 9000 8.2 230 11:55 14.12.2019
2449 Clouds 4 982 80 10000 6.2 230 11:36 14.12.2019
2450 Clouds 4 982 80 10000 6.2 230 11:18 14.12.2019
2451 Clouds 4 982 86 10000 6.2 230 10:55 14.12.2019
2452 Clouds 4 982 86 10000 6.2 230 10:37 14.12.2019
2453 Rain 4 982 86 10000 5.1 220 10:18 14.12.2019
2454 Clouds 4 981 86 10000 6.7 210 09:40 14.12.2019
2455 Clouds 4 981 86 10000 6.7 210 09:40 14.12.2019
2456 Clouds 4 981 86 10000 6.2 210 09:20 14.12.2019
2457 Clouds 4 981 86 10000 6.2 210 09:20 14.12.2019
2458 Clouds 4 981 86 10000 6.2 200 08:45 14.12.2019
2459 Clouds 4 980 86 10000 6.7 210 08:20 14.12.2019
2460 Clouds 4 980 86 10000 6.7 210 07:58 14.12.2019
2461 Clouds 4 980 86 10000 6.7 210 07:38 14.12.2019
2462 Clouds 4 980 86 10000 6.7 210 07:19 14.12.2019
2463 Clouds 4 980 86 10000 6.7 210 06:41 14.12.2019
2464 Clouds 3 980 86 10000 5.7 210 06:22 14.12.2019
2465 Rain 3 980 93 5000 4.6 200 05:25 14.12.2019
2466 Mist 2 981 93 5000 3.6 170 03:34 14.12.2019
2467 Rain 1 982 100 5000 3.1 160 02:23 14.12.2019
2468 Snow 1 982 100 5000 3.1 160 01:44 14.12.2019
2469 Snow 1 982 100 5000 3.1 170 00:59 14.12.2019
2470 Snow 1 982 100 5000 3.1 170 00:40 14.12.2019
2471 Snow 1 982 96 6000 2.6 160 00:20 14.12.2019
2472 Rain 1 982 96 8000 3.6 160 23:41 13.12.2019
2473 Rain 1 982 95 10000 3.1 160 23:19 13.12.2019
2474 Rain 1 982 95 10000 3.6 150 22:57 13.12.2019
2475 Rain 1 982 95 10000 3.6 150 22:38 13.12.2019
2476 Clouds 1 982 95 10000 3.1 150 22:18 13.12.2019
2477 Clouds 1 982 95 10000 3.6 140 21:46 13.12.2019
2478 Clouds 1 982 95 10000 3.6 130 21:22 13.12.2019
2479 Clouds 1 982 95 10000 3.6 130 20:59 13.12.2019
2480 Clouds 1 982 80 10000 3.6 130 20:40 13.12.2019
2481 Clouds 1 982 80 10000 3.6 120 20:21 13.12.2019
2482 Clouds 1 982 80 10000 3.6 120 19:57 13.12.2019
2483 Clouds 1 981 80 10000 4.6 120 19:39 13.12.2019
2484 Clouds 1 981 80 10000 4.6 120 19:20 13.12.2019
2485 Clouds 1 981 80 10000 5.1 120 18:56 13.12.2019
2486 Clouds 1 981 80 10000 4.6 120 18:38 13.12.2019
2487 Clouds 1 981 80 10000 4.6 120 18:38 13.12.2019
2488 Clouds 1 981 80 10000 4.6 120 18:18 13.12.2019
2489 Clouds 2 981 80 10000 4.1 110 17:41 13.12.2019
2490 Clouds 1 981 80 10000 4.1 110 17:19 13.12.2019
2491 Clouds 2 981 80 10000 4.6 120 16:58 13.12.2019
2492 Clouds 2 980 80 10000 5.1 120 16:39 13.12.2019
2493 Clouds 2 980 80 10000 5.1 120 16:20 13.12.2019
2494 Clouds 2 980 80 10000 4.1 110 15:43 13.12.2019
2495 Clouds 2 980 80 10000 5.7 120 15:23 13.12.2019
2496 Clouds 2 980 80 10000 6.2 110 14:58 13.12.2019
2497 Clouds 2 980 80 10000 5.1 110 14:40 13.12.2019
2498 Clouds 2 980 80 10000 5.1 110 14:20 13.12.2019
2499 Clouds 2 979 80 10000 5.7 100 13:57 13.12.2019
2500 Clouds 2 980 80 10000 6.7 110 13:37 13.12.2019
2501 Clouds 2 980 80 10000 6.7 110 13:19 13.12.2019
2502 Clouds 2 980 80 10000 7.2 120 12:42 13.12.2019
2503 Clouds 2 980 80 10000 7.2 120 12:20 13.12.2019
2504 Clouds 2 980 86 10000 6.7 120 11:57 13.12.2019
2505 Clouds 2 980 86 10000 6.7 120 11:57 13.12.2019
2506 Clouds 1 980 86 10000 7.2 110 11:39 13.12.2019
2507 Clouds 1 980 86 10000 7.2 110 11:39 13.12.2019
2508 Clouds 1 980 86 10000 7.2 110 11:20 13.12.2019
2509 Clouds 1 981 86 10000 6.2 110 10:42 13.12.2019
2510 Clouds 1 980 86 10000 7.2 110 10:42 13.12.2019
2511 Clouds 1 980 86 10000 7.2 110 10:42 13.12.2019
2512 Clouds 1 981 86 10000 6.2 110 10:23 13.12.2019
2513 Clouds 1 981 86 10000 6.2 120 09:56 13.12.2019
2514 Clouds 1 981 86 10000 6.7 120 09:38 13.12.2019
2515 Clouds 1 981 86 10000 6.7 120 09:18 13.12.2019
2516 Clouds 1 981 86 10000 6.7 120 09:18 13.12.2019
2517 Clouds 1 982 86 10000 6.2 120 08:41 13.12.2019
2518 Clouds 1 982 86 10000 6.2 120 08:23 13.12.2019
2519 Clouds 1 982 86 10000 5.7 130 07:46 13.12.2019
2520 Clouds 1 982 86 10000 6.7 130 07:21 13.12.2019
2521 Clear 1 983 86 10000 6.2 120 06:54 13.12.2019
2522 Clear 1 983 86 10000 5.7 120 06:29 13.12.2019
2523 Clear 1 983 86 10000 6.7 110 05:46 13.12.2019
2524 Clear 1 984 86 10000 5.1 120 05:27 13.12.2019
2525 Clear 1 985 80 10000 7.7 120 04:35 13.12.2019
2526 Clear 2 986 80 10000 6.2 120 03:47 13.12.2019
2527 Clear 2 988 83 10000 6.7 140 02:34 13.12.2019
2528 Clear 2 989 86 10000 7.2 140 01:48 13.12.2019
2529 Clouds 2 990 86 10000 6.7 140 00:57 13.12.2019
2530 Clouds 2 991 86 10000 6.7 150 00:37 13.12.2019
2531 Clouds 2 991 86 10000 5.7 140 23:59 12.12.2019
2532 Clouds 2 992 86 10000 5.7 150 23:40 12.12.2019
2533 Clouds 2 992 86 10000 5.7 150 23:22 12.12.2019
2534 Clouds 2 992 86 10000 6.2 150 22:56 12.12.2019
2535 Clouds 2 993 86 10000 5.1 140 22:37 12.12.2019
2536 Clouds 2 993 86 10000 5.1 140 22:19 12.12.2019
2537 Clouds 2 994 93 10000 5.1 150 21:55 12.12.2019
2538 Clouds 2 994 93 10000 5.1 150 21:55 12.12.2019
2539 Clouds 2 994 93 10000 5.1 150 21:55 12.12.2019
2540 Clouds 2 994 86 10000 5.1 160 21:37 12.12.2019
2541 Clouds 2 994 86 10000 5.1 160 21:19 12.12.2019
2542 Clouds 2 995 93 10000 5.1 150 20:57 12.12.2019
2543 Clouds 3 995 93 10000 2.6 140 20:38 12.12.2019
2544 Clouds 3 995 93 10000 2.6 140 20:20 12.12.2019
2545 Clouds 3 996 86 10000 4.6 160 19:55 12.12.2019
2546 Clouds 3 996 86 10000 5.7 170 19:37 12.12.2019
2547 Clouds 3 996 86 10000 5.7 170 19:18 12.12.2019
2548 Clouds 3 996 93 10000 5.1 170 18:55 12.12.2019
2549 Clouds 4 996 86 10000 4.1 190 18:36 12.12.2019
2550 Clouds 4 996 86 10000 4.1 190 18:18 12.12.2019
2551 Clouds 4 997 86 10000 4.6 190 17:55 12.12.2019
2552 Clouds 4 997 86 10000 4.6 190 17:55 12.12.2019
2553 Clouds 4 997 86 10000 4.1 200 17:37 12.12.2019
2554 Clouds 4 997 86 10000 5.1 200 17:18 12.12.2019
2555 Clouds 4 997 86 10000 5.1 200 16:54 12.12.2019
2556 Clouds 5 997 86 10000 5.7 200 16:36 12.12.2019
2557 Clouds 5 997 86 10000 5.7 200 16:18 12.12.2019
2558 Rain 5 998 86 10000 5.7 210 15:42 12.12.2019
2559 Rain 5 998 86 10000 5.7 210 15:19 12.12.2019
2560 Clouds 5 998 86 10000 5.7 210 14:57 12.12.2019
2561 Clouds 5 998 86 10000 5.7 220 14:36 12.12.2019
2562 Rain 5 998 81 10000 6.2 220 14:18 12.12.2019
2563 Rain 5 998 81 10000 6.2 220 13:55 12.12.2019
2564 Clouds 5 999 81 10000 5.1 220 13:36 12.12.2019
2565 Clouds 5 999 81 10000 5.1 220 13:18 12.12.2019
2566 Rain 5 999 93 8000 5.7 210 12:55 12.12.2019
2567 Clouds 5 999 93 9000 4.1 200 12:36 12.12.2019
2568 Clouds 5 999 93 7000 5.1 200 12:18 12.12.2019
2569 Clouds 5 1000 93 6000 4.6 200 11:40 12.12.2019
2570 Clouds 5 1000 93 7000 5.7 200 11:22 12.12.2019
2571 Clouds 5 1000 93 7000 5.7 200 10:59 12.12.2019
2572 Clouds 4 1000 86 7000 6.2 210 10:41 12.12.2019
2573 Clouds 4 1000 86 7000 6.2 210 10:23 12.12.2019
2574 Clouds 4 1000 86 7000 5.1 210 09:58 12.12.2019
2575 Clouds 4 1000 86 6000 4.1 200 09:39 12.12.2019
2576 Mist 4 1000 86 5000 5.1 210 09:21 12.12.2019
2577 Mist 4 1000 86 5000 5.1 210 08:54 12.12.2019
2578 Mist 4 1000 86 5000 5.7 210 08:36 12.12.2019
2579 Mist 4 1000 86 5000 5.7 210 08:18 12.12.2019
2580 Mist 4 1000 100 4400 3.6 200 07:41 12.12.2019
2581 Mist 4 1000 100 4400 3.6 200 07:21 12.12.2019
2582 Clouds 4 1000 93 5000 2.1 200 06:44 12.12.2019
2583 Mist 4 1000 93 5000 2.6 200 06:44 12.12.2019
2584 Clouds 4 1000 93 5000 2.1 200 06:23 12.12.2019
2585 Mist 4 1001 100 4900 3.6 220 05:35 12.12.2019
2586 Mist 4 1001 93 4800 3.6 220 04:51 12.12.2019
2587 Mist 4 1001 100 3000 3.6 220 02:57 12.12.2019
2588 Mist 4 1001 100 2700 3.1 220 02:37 12.12.2019
2589 Mist 4 1001 100 2700 3.1 220 02:18 12.12.2019
2590 Mist 4 1002 100 2000 3.1 230 01:37 12.12.2019
2591 Mist 4 1002 100 2000 3.1 230 01:18 12.12.2019
2592 Drizzle 4 1002 100 4500 3.6 220 00:40 12.12.2019
2593 Drizzle 4 1002 100 4500 3.6 220 00:19 12.12.2019
2594 Rain 4 1003 100 8000 4.1 210 23:44 11.12.2019
2595 Rain 4 1003 100 8000 4.1 210 23:20 11.12.2019
2596 Rain 4 1003 93 7000 3.1 210 22:57 11.12.2019
2597 Rain 4 1003 93 7000 3.1 210 22:38 11.12.2019
2598 Rain 4 1003 93 7000 3.1 210 22:19 11.12.2019
2599 Rain 4 1003 93 6000 2.6 200 21:57 11.12.2019
2600 Rain 4 1003 93 6000 2.6 210 21:37 11.12.2019
2601 Rain 4 1003 93 6000 2.6 210 21:19 11.12.2019
2602 Rain 4 1003 93 8000 2.1 200 20:56 11.12.2019
2603 Rain 4 1003 93 8000 2.1 200 20:56 11.12.2019
2604 Rain 4 1004 93 7000 2.1 180 20:37 11.12.2019
2605 Rain 4 1004 93 7000 2.1 180 20:37 11.12.2019
2606 Rain 4 1004 93 7000 2.1 180 20:37 11.12.2019
2607 Rain 4 1004 93 7000 2.1 180 20:19 11.12.2019
2608 Rain 4 1004 93 7000 2.1 180 20:19 11.12.2019
2609 Rain 4 1004 93 7000 2.6 170 19:57 11.12.2019
2610 Rain 4 1004 93 7000 3.1 160 19:39 11.12.2019
2611 Rain 4 1004 93 7000 3.1 160 19:19 11.12.2019
2612 Rain 5 1004 93 10000 3.1 170 18:41 11.12.2019
2613 Rain 5 1004 93 10000 3.1 170 18:21 11.12.2019
2614 Rain 5 1004 93 10000 3.6 170 17:57 11.12.2019
2615 Rain 5 1004 93 10000 3.1 170 17:39 11.12.2019
2616 Rain 5 1004 93 10000 3.1 170 17:19 11.12.2019
2617 Rain 5 1005 93 10000 3.6 180 16:58 11.12.2019
2618 Rain 5 1005 100 9000 3.1 200 16:40 11.12.2019
2619 Rain 5 1005 100 9000 3.1 200 16:22 11.12.2019
2620 Rain 5 1005 100 10000 3.1 200 15:59 11.12.2019
2621 Rain 5 1005 87 10000 3.6 200 15:59 11.12.2019
2622 Rain 5 1005 93 8000 4.1 210 15:40 11.12.2019
2623 Rain 5 1005 93 8000 4.1 210 15:22 11.12.2019
2624 Rain 5 1005 93 8000 4.6 200 14:56 11.12.2019
2625 Rain 5 1006 93 8000 3.6 200 14:38 11.12.2019
2626 Rain 5 1006 93 8000 3.6 200 14:20 11.12.2019
2627 Rain 5 1006 93 8000 4.1 210 13:56 11.12.2019
2628 Rain 5 1006 93 8000 3.6 210 13:38 11.12.2019
2629 Rain 5 1006 93 8000 3.6 210 13:19 11.12.2019
2630 Rain 5 1007 93 10000 4.1 200 12:56 11.12.2019
2631 Rain 5 1007 93 10000 4.6 210 12:38 11.12.2019
2632 Rain 5 1007 93 10000 4.6 210 12:19 11.12.2019
2633 Rain 5 1007 93 10000 4.6 210 11:57 11.12.2019
2634 Rain 5 1008 93 10000 5.1 220 11:38 11.12.2019
2635 Rain 5 1008 93 10000 5.1 220 11:38 11.12.2019
2636 Rain 5 1008 93 10000 5.1 220 11:18 11.12.2019
2637 Rain 5 1008 93 10000 5.7 210 11:18 11.12.2019
2638 Rain 4 1008 93 10000 5.7 210 10:55 11.12.2019
2639 Rain 4 1008 86 10000 5.1 210 10:37 11.12.2019
2640 Rain 4 1008 86 10000 5.1 210 10:19 11.12.2019
2641 Rain 4 1008 86 10000 5.7 210 09:40 11.12.2019
2642 Rain 4 1008 86 10000 5.7 210 09:21 11.12.2019
2643 Rain 4 1008 80 10000 6.2 210 08:58 11.12.2019
2644 Rain 5 1008 80 10000 6.7 210 08:38 11.12.2019
2645 Rain 5 1008 80 10000 6.7 210 08:19 11.12.2019
2646 Rain 5 1008 70 10000 7.7 200 07:55 11.12.2019
2647 Rain 5 1008 75 10000 8.2 210 07:37 11.12.2019
2648 Rain 5 1008 75 10000 8.2 210 07:18 11.12.2019
2649 Rain 5 1008 75 10000 8.2 210 07:18 11.12.2019
2650 Clouds 5 1008 70 10000 8.2 210 06:43 11.12.2019
2651 Clouds 5 1008 70 10000 8.2 210 06:22 11.12.2019
2652 Clouds 5 1008 76 10000 9.8 200 05:41 11.12.2019
2653 Clouds 5 1008 79 10000 9.8 200 05:20 11.12.2019
2654 Clouds 5 1009 60 10000 8.2 190 04:28 11.12.2019
2655 Clouds 5 1009 56 10000 8.2 190 02:49 11.12.2019
2656 Clouds 5 1011 65 10000 7.2 170 01:26 11.12.2019
2657 Clouds 4 1011 65 10000 7.7 170 00:49 11.12.2019
2658 Clouds 4 1012 65 10000 8.2 170 00:23 11.12.2019
2659 Clouds 4 1012 65 10000 8.7 170 23:58 10.12.2019
2660 Clouds 4 1012 65 10000 8.7 170 23:39 10.12.2019
2661 Clouds 4 1013 65 10000 7.7 180 23:21 10.12.2019
2662 Clouds 4 1013 69 10000 7.2 170 22:40 10.12.2019
2663 Clouds 4 1014 69 10000 6.7 170 22:22 10.12.2019
2664 Clouds 4 1014 69 10000 6.7 160 21:57 10.12.2019
2665 Clouds 3 1015 69 10000 6.7 170 21:39 10.12.2019
2666 Clouds 3 1015 69 10000 6.7 170 21:39 10.12.2019
2667 Clouds 3 1015 69 10000 6.7 170 21:21 10.12.2019
2668 Clouds 3 1016 74 10000 7.2 170 20:57 10.12.2019
2669 Clouds 3 1016 74 10000 6.7 170 20:38 10.12.2019
2670 Clouds 3 1016 79 10000 6.7 170 20:19 10.12.2019
2671 Clouds 3 1016 79 10000 6.7 170 20:19 10.12.2019
2672 Clouds 3 1016 79 10000 6.7 170 20:19 10.12.2019
2673 Clouds 3 1016 79 10000 6.7 170 20:19 10.12.2019
2674 Clouds 3 1017 79 10000 7.2 180 19:56 10.12.2019
2675 Clouds 3 1017 79 10000 6.7 170 19:37 10.12.2019
2676 Clouds 3 1017 79 10000 6.7 170 19:19 10.12.2019
2677 Clouds 3 1017 79 10000 6.2 180 18:55 10.12.2019
2678 Clouds 3 1018 79 10000 5.7 180 18:36 10.12.2019
2679 Clouds 3 1018 79 10000 5.7 180 18:18 10.12.2019
2680 Clouds 3 1019 79 10000 4.6 180 17:41 10.12.2019
2681 Clouds 4 1019 81 10000 5.7 180 17:22 10.12.2019
2682 Clouds 4 1019 81 10000 5.7 180 16:58 10.12.2019
2683 Clouds 4 1020 81 10000 4.6 190 16:39 10.12.2019
2684 Clouds 4 1020 81 10000 4.6 190 16:19 10.12.2019
2685 Clouds 5 1020 75 10000 5.7 210 15:40 10.12.2019
2686 Clouds 5 1020 75 10000 5.7 210 15:19 10.12.2019
2687 Clouds 5 1021 75 10000 5.1 210 14:59 10.12.2019
2688 Clouds 5 1021 75 10000 5.1 210 14:41 10.12.2019
2689 Clouds 6 1021 75 10000 4.1 220 14:23 10.12.2019
2690 Clouds 6 1021 75 10000 5.1 220 13:59 10.12.2019
2691 Clouds 6 1021 75 10000 5.7 220 13:40 10.12.2019
2692 Clouds 6 1021 75 10000 5.7 220 13:20 10.12.2019
2693 Clouds 5 1021 80 10000 4.1 220 12:55 10.12.2019
2694 Clouds 5 1022 80 10000 3.1 220 12:36 10.12.2019
2695 Clouds 5 1022 80 10000 3.1 220 12:18 10.12.2019
2696 Clouds 4 1022 75 10000 3.6 240 11:41 10.12.2019
2697 Clouds 4 1022 75 10000 3.6 240 11:23 10.12.2019
2698 Clouds 3 1021 86 10000 3.1 230 10:55 10.12.2019
2699 Clouds 3 1021 93 10000 4.1 220 10:37 10.12.2019
2700 Clouds 2 1021 93 10000 4.1 220 10:19 10.12.2019
2701 Clouds 2 1021 87 10000 2.6 220 09:54 10.12.2019
2702 Clouds 2 1021 87 10000 2.1 260 09:36 10.12.2019
2703 Clouds 1 1021 87 10000 2.1 260 09:18 10.12.2019
2704 Clouds 2 1020 86 10000 2.6 250 08:42 10.12.2019
2705 Clouds 2 1020 85 10000 2.6 250 08:23 10.12.2019
2706 Clouds 2 1020 85 10000 3.1 250 07:58 10.12.2019
2707 Clear 2 1019 85 10000 3.1 260 07:40 10.12.2019
2708 Clear 2 1019 85 10000 3.1 260 07:22 10.12.2019
2709 Clear 2 1019 85 10000 2.6 260 06:46 10.12.2019
2710 Clouds 3 1018 85 10000 3.6 280 06:19 10.12.2019
2711 Clouds 3 1018 85 10000 2.1 260 05:54 10.12.2019
2712 Clouds 3 1017 81 10000 3.6 270 04:52 10.12.2019
2713 Clouds 4 1015 80 10000 3.1 270 03:38 10.12.2019
2714 Clouds 4 1014 75 10000 3.6 290 02:46 10.12.2019
2715 Clouds 4 1013 80 10000 3.6 270 01:45 10.12.2019
2716 Clouds 4 1012 80 10000 3.1 270 01:21 10.12.2019
2717 Clouds 4 1011 80 10000 3.6 270 00:42 10.12.2019
2718 Clouds 4 1010 80 10000 3.6 270 00:22 10.12.2019
2719 Clouds 4 1010 75 10000 4.1 310 23:42 09.12.2019
2720 Clouds 4 1009 75 10000 5.7 290 23:42 09.12.2019
2721 Clouds 4 1009 75 10000 5.7 290 23:42 09.12.2019
2722 Clouds 4 1009 75 10000 5.7 290 23:23 09.12.2019
2723 Clouds 5 1008 75 10000 5.7 280 22:58 09.12.2019
2724 Clouds 5 1008 80 10000 6.7 290 22:40 09.12.2019
2725 Clouds 5 1007 80 10000 6.2 290 22:20 09.12.2019
2726 Clouds 5 1007 70 10000 5.7 280 21:57 09.12.2019
2727 Clouds 5 1007 70 10000 5.7 280 21:39 09.12.2019
2728 Clouds 5 1006 75 10000 5.1 280 21:19 09.12.2019
2729 Clouds 5 1005 75 10000 5.7 290 20:57 09.12.2019
2730 Clouds 5 1005 75 10000 5.7 290 20:57 09.12.2019
2731 Clouds 5 1004 70 10000 6.2 290 20:39 09.12.2019
2732 Rain 5 1004 70 10000 6.2 290 20:20 09.12.2019
2733 Rain 5 1004 70 10000 6.2 290 20:20 09.12.2019
2734 Clouds 5 1004 75 10000 4.1 300 19:56 09.12.2019
2735 Rain 5 1003 81 10000 4.1 290 19:38 09.12.2019
2736 Rain 5 1003 81 10000 4.1 290 19:20 09.12.2019
2737 Clouds 5 1002 87 10000 3.6 280 18:58 09.12.2019
2738 Rain 5 1001 87 10000 3.6 280 18:39 09.12.2019
2739 Rain 6 1001 87 10000 3.6 280 18:20 09.12.2019
2740 Clouds 6 1000 87 10000 3.1 290 17:59 09.12.2019
2741 Rain 6 999 87 10000 7.2 300 17:40 09.12.2019
2742 Rain 6 999 87 10000 7.2 300 17:21 09.12.2019
2743 Drizzle 6 998 87 10000 3.1 260 16:56 09.12.2019
2744 Rain 6 998 87 10000 2.6 260 16:38 09.12.2019
2745 Rain 6 998 87 10000 2.6 260 16:20 09.12.2019
2746 -273 0 0 0 0 0 15:56 09.12.2019
2747 Clouds 7 996 81 10000 4.6 230 15:38 09.12.2019
2748 Clouds 7 996 81 10000 4.6 230 15:19 09.12.2019
2749 Drizzle 7 996 81 10000 5.1 230 14:59 09.12.2019
2750 Clouds 7 995 81 10000 5.7 210 14:40 09.12.2019
2751 Clouds 7 995 81 10000 5.7 210 14:18 09.12.2019
2752 Drizzle 7 995 81 10000 5.7 230 13:56 09.12.2019
2753 Clouds 7 995 81 10000 5.7 230 13:37 09.12.2019
2754 Clouds 7 995 81 10000 6.7 230 13:19 09.12.2019
2755 Clouds 7 995 81 10000 6.7 230 12:55 09.12.2019
2756 Clouds 7 995 81 10000 6.7 230 12:55 09.12.2019
2757 Clouds 7 994 75 10000 7.2 220 12:37 09.12.2019
2758 Clouds 7 994 75 10000 7.2 220 12:18 09.12.2019
2759 Rain 7 994 81 10000 6.7 210 11:40 09.12.2019
2760 Rain 7 994 81 10000 6.7 210 11:22 09.12.2019
2761 Rain 7 994 81 10000 6.7 210 11:22 09.12.2019
2762 Clouds 7 994 81 10000 6.7 210 10:59 09.12.2019
2763 Clouds 6 994 81 10000 6.7 210 10:39 09.12.2019
2764 Clouds 6 994 81 10000 6.7 210 10:20 09.12.2019
2765 Clouds 6 994 81 10000 5.7 210 09:55 09.12.2019
2766 Clouds 6 993 81 10000 6.7 210 09:36 09.12.2019
2767 Clouds 6 993 81 10000 6.7 210 09:18 09.12.2019
2768 Clouds 6 993 81 10000 6.7 220 08:40 09.12.2019
2769 Clouds 6 993 81 10000 6.7 220 08:22 09.12.2019
2770 Clouds 6 993 81 10000 6.7 220 07:53 09.12.2019
2771 Clouds 6 993 81 10000 7.2 220 07:34 09.12.2019
2772 Clouds 6 993 75 10000 7.7 220 06:59 09.12.2019
2773 Clouds 6 993 81 10000 6.2 220 06:37 09.12.2019
2774 Clouds 6 993 81 10000 6.2 220 06:19 09.12.2019
2775 Rain 6 993 87 10000 7.2 220 05:25 09.12.2019
2776 Clouds 6 993 86 10000 6.7 220 04:29 09.12.2019
2777 Clouds 6 993 81 10000 6.7 230 03:18 09.12.2019
2778 Clouds 6 992 87 10000 5.1 230 01:48 09.12.2019
2779 Clouds 6 992 87 10000 5.1 230 01:28 09.12.2019
2780 Clouds 6 992 75 10000 5.7 230 00:45 09.12.2019
2781 Clouds 6 992 70 10000 7.2 240 00:24 09.12.2019
2782 Clouds 7 992 81 10000 7.2 220 23:39 08.12.2019
2783 Clouds 7 992 81 10000 7.2 220 23:21 08.12.2019
2784 Clouds 6 992 81 10000 7.2 220 22:56 08.12.2019
2785 Clouds 7 993 81 10000 6.7 230 22:38 08.12.2019
2786 Clouds 7 993 81 10000 6.7 230 22:18 08.12.2019
2787 Clouds 7 993 81 10000 6.7 230 22:18 08.12.2019
2788 Clouds 7 993 81 10000 6.7 210 21:57 08.12.2019
2789 Clouds 7 993 81 10000 6.7 210 21:39 08.12.2019
2790 Clouds 7 993 87 10000 6.2 230 21:39 08.12.2019
2791 Clouds 7 993 87 10000 6.2 230 21:19 08.12.2019
2792 Clouds 7 993 81 10000 7.2 230 20:57 08.12.2019
2793 Rain 7 993 81 10000 9.3 240 20:38 08.12.2019
2794 Rain 7 993 81 10000 9.3 240 20:38 08.12.2019
2795 Rain 7 993 81 10000 9.3 240 20:20 08.12.2019
2796 Clouds 8 994 81 10000 5.7 240 19:57 08.12.2019
2797 Clouds 8 994 81 10000 5.7 240 19:39 08.12.2019
2798 Clouds 8 994 81 10000 6.7 240 19:21 08.12.2019
2799 Clouds 8 994 76 10000 6.2 250 18:55 08.12.2019
2800 Clouds 8 994 81 10000 5.7 250 18:37 08.12.2019
2801 Clouds 8 994 81 10000 5.7 250 18:18 08.12.2019
2802 Rain 8 993 87 10000 8.2 250 17:56 08.12.2019
2803 Rain 8 993 81 10000 7.2 250 17:38 08.12.2019
2804 Rain 9 993 81 10000 7.2 250 17:19 08.12.2019
2805 Clouds 9 993 81 10000 8.2 250 16:56 08.12.2019
2806 Clouds 9 993 81 10000 6.7 240 16:38 08.12.2019
2807 Clouds 9 993 81 10000 6.7 240 16:20 08.12.2019
2808 Clouds 9 993 81 10000 7.2 250 15:55 08.12.2019
2809 Rain 9 993 87 10000 8.7 240 15:36 08.12.2019
2810 Rain 9 993 87 10000 8.7 240 15:18 08.12.2019
2811 Clouds 9 993 87 10000 9.8 230 14:43 08.12.2019
2812 Clouds 9 993 87 10000 9.3 230 14:24 08.12.2019
2813 Drizzle 9 993 93 9000 8.7 230 13:58 08.12.2019
2814 Drizzle 9 994 93 6000 8.7 230 13:40 08.12.2019
2815 Drizzle 9 994 93 6000 8.7 230 13:21 08.12.2019
2816 Drizzle 9 994 93 6000 10.8 220 12:55 08.12.2019
2817 Drizzle 9 994 93 4800 10.3 220 12:37 08.12.2019
2818 Drizzle 9 994 93 4800 10.3 220 12:18 08.12.2019
2819 Drizzle 8 995 93 4800 10.3 220 11:55 08.12.2019
2820 Rain 8 996 93 1400 8.7 220 11:37 08.12.2019
2821 Rain 8 996 93 1400 8.7 220 11:19 08.12.2019
2822 Rain 8 996 93 1400 8.7 220 11:19 08.12.2019
2823 Rain 8 996 93 10000 9.3 220 10:39 08.12.2019
2824 Rain 8 996 93 10000 9.3 220 10:21 08.12.2019
2825 Rain 8 996 81 9000 9.8 210 09:58 08.12.2019
2826 Rain 8 996 76 10000 11.3 210 09:39 08.12.2019
2827 Rain 8 996 76 10000 11.3 210 09:20 08.12.2019
2828 Clouds 9 997 76 10000 11.8 210 08:59 08.12.2019
2829 Clouds 9 997 70 10000 11.8 210 08:41 08.12.2019
2830 Clouds 9 997 70 10000 11.8 210 08:22 08.12.2019
2831 Clouds 9 998 70 10000 10.8 210 07:49 08.12.2019
2832 Clouds 8 999 76 10000 10.8 210 07:21 08.12.2019
2833 Clouds 8 999 76 10000 9.8 220 06:58 08.12.2019
2834 Clouds 8 1000 76 10000 9.8 220 06:38 08.12.2019
2835 Clouds 8 1000 76 10000 9.8 220 06:18 08.12.2019
2836 Clouds 8 1001 81 10000 8.7 220 05:22 08.12.2019
2837 Clouds 8 1003 81 10000 7.2 210 04:20 08.12.2019
2838 Clouds 8 1004 75 10000 7.2 220 03:38 08.12.2019
2839 Clouds 8 1005 81 10000 7.2 220 02:41 08.12.2019
2840 Clouds 8 1005 81 10000 7.2 220 02:19 08.12.2019
2841 Clouds 8 1007 81 10000 6.7 230 01:34 08.12.2019
2842 Clouds 8 1007 87 10000 6.2 230 00:52 08.12.2019
2843 -273 0 0 0 0 0 00:23 08.12.2019
2844 Clouds 8 1007 81 10000 6.2 240 23:57 07.12.2019
2845 Clouds 8 1008 81 10000 4.6 240 23:37 07.12.2019
2846 Clouds 8 1008 81 10000 4.6 240 23:18 07.12.2019
2847 Clouds 8 1008 93 10000 5.7 240 22:55 07.12.2019
2848 Rain 8 1008 93 10000 5.7 250 22:36 07.12.2019
2849 Rain 8 1008 93 10000 5.7 250 22:18 07.12.2019
2850 Clouds 8 1008 87 10000 6.2 240 21:55 07.12.2019
2851 Clouds 8 1008 87 10000 5.1 240 21:37 07.12.2019
2852 Clouds 8 1008 87 10000 5.1 240 21:18 07.12.2019
2853 Clouds 8 1009 93 10000 6.2 240 20:38 07.12.2019
2854 Rain 8 1009 93 10000 6.2 240 20:20 07.12.2019
2855 Rain 8 1008 93 10000 6.2 250 19:58 07.12.2019
2856 Rain 8 1008 93 10000 6.2 250 19:58 07.12.2019
2857 Rain 8 1008 93 10000 6.2 250 19:39 07.12.2019
2858 Clouds 8 1008 93 10000 5.7 250 19:21 07.12.2019
2859 Rain 8 1008 93 10000 5.1 250 18:59 07.12.2019
2860 Rain 8 1008 87 10000 4.1 260 18:40 07.12.2019
2861 Rain 8 1008 87 10000 4.1 260 18:40 07.12.2019
2862 Rain 8 1008 87 10000 4.1 260 18:18 07.12.2019
2863 Clouds 8 1008 87 10000 4.6 260 17:56 07.12.2019
2864 Clouds 8 1008 93 10000 4.6 250 17:37 07.12.2019
2865 Clouds 8 1008 93 10000 4.6 250 17:19 07.12.2019
2866 Clouds 8 1007 93 10000 5.1 260 16:56 07.12.2019
2867 Clouds 8 1007 93 10000 5.7 270 16:36 07.12.2019
2868 Clouds 8 1007 93 10000 5.7 270 16:18 07.12.2019
2869 Clouds 8 1007 93 10000 5.1 260 15:41 07.12.2019
2870 Rain 8 1006 93 10000 5.7 280 15:23 07.12.2019
2871 Clouds 8 1006 87 10000 5.7 270 14:57 07.12.2019
2872 Drizzle 8 1006 93 7000 6.2 270 14:38 07.12.2019
2873 Drizzle 8 1006 93 7000 6.2 270 14:18 07.12.2019
2874 Drizzle 8 1005 87 7000 6.2 270 13:41 07.12.2019
2875 Drizzle 8 1005 87 7000 6.2 270 13:21 07.12.2019
2876 Rain 8 1005 93 6000 5.7 270 12:56 07.12.2019
2877 Rain 8 1005 93 6000 5.7 270 12:38 07.12.2019
2878 Rain 8 1005 93 6000 5.7 270 12:20 07.12.2019
2879 Rain 8 1005 87 7000 6.7 260 11:57 07.12.2019
2880 Rain 8 1005 87 10000 5.7 260 11:38 07.12.2019
2881 Rain 8 1005 87 10000 5.7 260 11:20 07.12.2019
2882 Rain 8 1004 87 10000 6.7 270 10:38 07.12.2019
2883 Rain 8 1004 87 10000 6.7 270 10:19 07.12.2019
2884 Rain 8 1004 87 10000 6.7 270 10:19 07.12.2019
2885 Rain 8 1003 87 10000 8.7 270 09:41 07.12.2019
2886 Drizzle 8 1003 87 3800 7.7 270 09:22 07.12.2019
2887 Drizzle 8 1002 87 10000 7.2 260 08:59 07.12.2019
2888 Drizzle 8 1002 87 10000 7.2 260 08:39 07.12.2019
2889 Drizzle 8 1001 87 10000 6.7 260 08:21 07.12.2019
2890 Rain 8 1001 87 10000 6.2 260 07:45 07.12.2019
2891 Rain 8 1001 87 10000 7.7 260 07:25 07.12.2019
2892 Clouds 8 1000 87 10000 6.7 260 06:50 07.12.2019
2893 Rain 8 1000 87 10000 6.7 270 06:25 07.12.2019
2894 Drizzle 8 999 93 4900 5.7 250 05:30 07.12.2019
2895 Rain 8 998 93 10000 6.7 230 03:59 07.12.2019
2896 Drizzle 8 998 93 4000 7.7 230 03:40 07.12.2019
2897 Drizzle 7 998 93 5000 8.2 220 02:21 07.12.2019
2898 Drizzle 8 998 93 10000 8.7 210 01:35 07.12.2019
2899 Drizzle 7 998 93 10000 8.7 210 00:55 07.12.2019
2900 Clouds 7 999 93 10000 7.7 210 00:20 07.12.2019
2901 Clouds 7 999 93 10000 7.7 210 23:56 06.12.2019
2902 Drizzle 7 999 100 3800 8.2 210 23:38 06.12.2019
2903 Drizzle 7 999 100 3800 8.2 210 23:18 06.12.2019
2904 Drizzle 7 999 93 6000 8.7 210 22:39 06.12.2019
2905 Drizzle 7 999 93 6000 8.7 210 22:20 06.12.2019
2906 Drizzle 7 1000 93 4200 8.2 210 21:58 06.12.2019
2907 Drizzle 7 1000 93 5000 8.7 210 21:39 06.12.2019
2908 Drizzle 7 1000 93 5000 8.7 210 21:20 06.12.2019
2909 Drizzle 7 1000 93 4700 8.7 210 20:45 06.12.2019
2910 Drizzle 6 1000 93 5000 8.7 210 20:25 06.12.2019
2911 Drizzle 6 1000 93 8000 8.2 210 19:59 06.12.2019
2912 Drizzle 6 1001 93 4500 8.2 210 19:40 06.12.2019
2913 Drizzle 6 1001 93 4500 8.2 210 19:22 06.12.2019
2914 Drizzle 6 1001 93 4500 8.2 210 18:58 06.12.2019
2915 Drizzle 6 1001 93 4600 7.7 210 18:40 06.12.2019
2916 Drizzle 6 1001 93 4600 7.7 210 18:21 06.12.2019
2917 Drizzle 6 1001 93 4800 8.2 210 17:57 06.12.2019
2918 Drizzle 6 1001 93 4800 8.2 210 17:57 06.12.2019
2919 Drizzle 6 1002 93 6000 9.3 210 17:39 06.12.2019
2920 Drizzle 6 1002 93 6000 9.3 210 17:21 06.12.2019
2921 Drizzle 5 1002 93 4400 8.2 210 16:56 06.12.2019
2922 Drizzle 5 1002 93 4800 9.3 210 16:37 06.12.2019
2923 Drizzle 5 1002 93 4800 9.3 210 16:18 06.12.2019
2924 Drizzle 6 1002 93 4600 9.3 210 15:41 06.12.2019
2925 Drizzle 6 1003 93 5000 9.3 210 15:22 06.12.2019
2926 Drizzle 6 1003 93 5000 8.2 210 14:58 06.12.2019
2927 Drizzle 6 1003 93 5000 7.7 220 14:40 06.12.2019
2928 Drizzle 6 1003 93 5000 7.7 220 14:20 06.12.2019
2929 Drizzle 6 1004 93 6000 9.3 220 13:46 06.12.2019
2930 Drizzle 6 1004 93 6000 8.2 220 13:27 06.12.2019
2931 Drizzle 5 1005 100 4500 9.3 220 12:58 06.12.2019
2932 Drizzle 5 1005 100 4500 9.3 220 12:39 06.12.2019
2933 Drizzle 6 1005 93 4800 9.3 220 12:21 06.12.2019
2934 Drizzle 6 1006 93 2500 8.7 220 11:42 06.12.2019
2935 Drizzle 5 1006 93 2500 8.7 220 11:23 06.12.2019
2936 Rain 5 1006 93 4500 9.3 220 10:57 06.12.2019
2937 Rain 5 1006 93 3500 8.2 220 10:38 06.12.2019
2938 Rain 5 1006 93 3500 8.2 220 10:20 06.12.2019
2939 Rain 5 1006 93 4500 8.2 230 09:56 06.12.2019
2940 Rain 5 1006 93 4800 7.7 230 09:37 06.12.2019
2941 Rain 5 1006 93 4800 7.7 230 09:19 06.12.2019
2942 Rain 5 1006 93 7000 7.7 230 08:43 06.12.2019
2943 Rain 5 1006 87 7000 7.7 230 08:25 06.12.2019
2944 Rain 5 1006 87 7000 8.2 230 07:43 06.12.2019
2945 -273 0 0 0 0 0 07:23 06.12.2019
2946 Rain 5 1006 87 6000 7.7 230 07:23 06.12.2019
2947 Rain 5 1006 87 6000 7.7 230 07:23 06.12.2019
2948 Rain 5 1006 93 6000 8.7 230 06:53 06.12.2019
2949 Rain 5 1007 93 5000 8.2 230 06:26 06.12.2019
2950 Rain 5 1006 93 5000 8.7 230 05:51 06.12.2019
2951 Rain 4 1007 86 6000 8.2 220 03:57 06.12.2019
2952 Rain 3 1009 79 8000 8.7 220 01:48 06.12.2019
2953 Rain 3 1009 79 8000 8.7 220 01:48 06.12.2019
2954 Clouds 2 1010 85 8000 8.7 210 00:57 06.12.2019
2955 Clouds 3 1010 85 8000 8.2 220 00:37 06.12.2019
2956 Clouds 3 1010 85 8000 8.2 220 00:19 06.12.2019
2957 Clouds 3 1011 93 6000 8.7 210 23:37 05.12.2019
2958 Clouds 4 1011 93 6000 8.7 210 23:18 05.12.2019
2959 Clouds 4 1011 93 6000 8.2 210 22:55 05.12.2019
2960 Clouds 4 1012 86 7000 7.7 210 22:36 05.12.2019
2961 Clouds 3 1012 86 7000 7.7 210 22:18 05.12.2019
2962 Clouds 3 1013 80 7000 8.2 210 21:42 05.12.2019
2963 Clouds 3 1013 86 7000 7.2 200 21:24 05.12.2019
2964 Clouds 3 1013 86 6000 7.7 210 20:59 05.12.2019
2965 Clouds 3 1013 86 6000 7.7 210 20:40 05.12.2019
2966 Clouds 4 1014 93 6000 7.7 220 20:20 05.12.2019
2967 Clouds 4 1014 93 6000 7.7 210 19:56 05.12.2019
2968 Clouds 4 1014 93 6000 7.7 210 19:38 05.12.2019
2969 Clouds 3 1014 93 6000 7.2 210 19:19 05.12.2019
2970 Clouds 4 1015 93 6000 7.2 220 18:54 05.12.2019
2971 Clouds 4 1015 93 6000 7.2 220 18:36 05.12.2019
2972 Clouds 4 1015 93 7000 7.2 230 18:18 05.12.2019
2973 Clouds 3 1015 86 10000 5.7 220 17:39 05.12.2019
2974 Clouds 3 1015 86 10000 5.7 220 17:39 05.12.2019
2975 Clouds 3 1015 86 10000 5.7 220 17:19 05.12.2019
2976 Clouds 3 1015 86 10000 5.7 220 16:57 05.12.2019
2977 Clouds 3 1015 86 10000 6.2 210 16:38 05.12.2019
2978 Clouds 4 1016 86 10000 5.7 220 16:20 05.12.2019
2979 Clouds 4 1016 80 10000 5.1 210 15:56 05.12.2019
2980 Clouds 4 1016 80 10000 5.1 210 15:37 05.12.2019
2981 Clouds 4 1016 80 10000 5.1 210 15:19 05.12.2019
2982 Clouds 4 1016 80 10000 5.1 210 14:55 05.12.2019
2983 Clouds 5 1016 80 10000 5.1 210 14:36 05.12.2019
2984 Clear 5 1017 77 10000 4.6 220 14:18 05.12.2019
2985 Clear 5 1017 80 10000 4.6 210 13:56 05.12.2019
2986 Clear 5 1017 80 10000 4.6 210 13:37 05.12.2019
2987 Clear 5 1017 80 10000 4.6 220 13:18 05.12.2019
2988 Clear 4 1017 80 10000 5.1 220 12:43 05.12.2019
2989 Clear 4 1018 80 10000 2.6 240 12:24 05.12.2019
2990 Clear 3 1018 78 10000 3.1 220 11:59 05.12.2019
2991 Clear 3 1018 78 10000 3.1 220 11:39 05.12.2019
2992 Clouds 2 1018 86 10000 3.1 230 11:20 05.12.2019
2993 Clouds 2 1018 86 10000 3.1 230 10:57 05.12.2019
2994 Clouds 1 1017 87 10000 4.1 210 10:39 05.12.2019
2995 Clouds 1 1018 87 10000 3.1 220 10:18 05.12.2019
2996 Clouds 0 1018 87 9000 3.1 180 09:55 05.12.2019
2997 Clouds 0 1018 87 9000 3.1 180 09:36 05.12.2019
2998 Clouds 0 1019 87 8000 2.1 220 09:18 05.12.2019
2999 Mist 0 1018 92 5000 1.5 210 08:39 05.12.2019
3000 Mist 0 1018 92 5000 2.6 200 08:20 05.12.2019
3001 Mist 0 1018 92 5000 2.6 200 08:20 05.12.2019
3002 Mist 0 1019 100 5000 1 0 07:57 05.12.2019
3003 Mist 0 1019 100 5000 1 0 07:38 05.12.2019
3004 Mist 0 1018 100 5000 1.5 200 07:20 05.12.2019
3005 Fog 0 1018 92 4000 1 0 06:45 05.12.2019
3006 Clear 0 1018 93 7000 1.5 290 06:23 05.12.2019
3007 Clear 0 1018 93 7000 1.5 190 05:48 05.12.2019
3008 Clear 0 1018 93 7000 2.6 190 05:24 05.12.2019
3009 Clear 0 1018 93 7000 1.5 300 04:27 05.12.2019
3010 Clear 0 1018 93 7000 1.5 300 04:27 05.12.2019
3011 Clear 1 1019 93 7000 1.5 290 03:31 05.12.2019
3012 Clear 1 1019 93 7000 2.6 190 02:40 05.12.2019
3013 Clear 1 1019 93 7000 1.5 220 02:21 05.12.2019
3014 Clear 1 1019 94 7000 2.1 200 01:49 05.12.2019
3015 Clear 2 1020 93 7000 2.1 230 01:21 05.12.2019
3016 Clear 2 1020 93 8000 2.6 200 00:38 05.12.2019
3017 Clear 2 1020 93 8000 1.5 220 00:19 05.12.2019
3018 Clouds 3 1020 93 10000 3.1 210 23:45 04.12.2019
3019 Clouds 2 1020 93 10000 3.6 210 23:22 04.12.2019
3020 Clouds 2 1020 93 10000 3.6 210 23:22 04.12.2019
3021 Clouds 3 1020 93 10000 3.1 230 22:57 04.12.2019
3022 Clouds 3 1020 93 10000 3.1 230 22:38 04.12.2019
3023 Clouds 3 1021 93 10000 4.1 220 22:19 04.12.2019
3024 Clear 3 1020 93 10000 3.6 220 21:56 04.12.2019
3025 Clear 3 1020 93 10000 3.6 220 21:56 04.12.2019
3026 Clear 3 1020 93 10000 3.6 220 21:37 04.12.2019
3027 Clear 4 1020 93 10000 2.6 220 21:19 04.12.2019
3028 Clouds 4 1020 93 10000 3.6 210 20:56 04.12.2019
3029 Clouds 4 1020 93 10000 3.6 210 20:56 04.12.2019
3030 Clouds 4 1020 93 10000 3.6 210 20:38 04.12.2019
3031 Clouds 4 1021 86 10000 3.6 220 20:20 04.12.2019
3032 Clouds 4 1020 86 10000 4.1 220 19:54 04.12.2019
3033 Clouds 5 1020 86 10000 4.1 220 19:36 04.12.2019
3034 Clouds 5 1020 86 10000 4.1 210 19:18 04.12.2019
3035 Clouds 5 1020 86 10000 3.1 220 18:41 04.12.2019
3036 Clouds 5 1021 81 10000 3.6 220 18:22 04.12.2019
3037 Clouds 5 1020 87 10000 4.1 210 17:58 04.12.2019
3038 Clouds 5 1020 87 10000 4.1 210 17:39 04.12.2019
3039 Clouds 5 1021 87 10000 3.1 220 17:20 04.12.2019
3040 Clouds 5 1021 87 10000 3.1 220 16:56 04.12.2019
3041 Clouds 5 1021 87 10000 3.1 220 16:38 04.12.2019
3042 Clouds 6 1021 87 8000 4.1 220 16:19 04.12.2019
3043 Clouds 6 1021 87 8000 4.1 220 16:19 04.12.2019
3044 Clouds 6 1021 87 7000 4.6 210 15:55 04.12.2019
3045 Clouds 6 1021 87 7000 4.6 210 15:36 04.12.2019
3046 Clouds 6 1021 87 6000 3.1 240 15:18 04.12.2019
3047 Mist 6 1021 87 5000 4.1 240 14:43 04.12.2019
3048 Mist 6 1021 93 3500 4.1 240 14:23 04.12.2019
3049 Mist 6 1021 93 3500 4.1 240 14:23 04.12.2019
3050 Mist 6 1021 100 3500 3.6 230 13:58 04.12.2019
3051 Mist 6 1021 100 3500 3.6 230 13:38 04.12.2019
3052 Drizzle 5 1021 93 4500 3.6 240 13:19 04.12.2019
3053 Mist 5 1021 87 4800 3.6 250 12:44 04.12.2019
3054 Clouds 5 1021 86 7000 3.1 240 12:24 04.12.2019
3055 Clouds 5 1022 93 7000 4.6 240 11:56 04.12.2019
3056 Clouds 5 1022 93 7000 4.6 240 11:38 04.12.2019
3057 Clouds 5 1022 93 7000 3.1 240 11:20 04.12.2019
3058 Clouds 5 1022 86 6000 4.1 230 10:44 04.12.2019
3059 Clouds 5 1022 86 6000 4.6 230 10:23 04.12.2019
3060 Mist 5 1022 86 5000 4.6 230 09:57 04.12.2019
3061 Mist 5 1022 86 5000 4.6 230 09:38 04.12.2019
3062 Mist 5 1021 86 5000 4.6 220 09:19 04.12.2019
3063 Clouds 5 1021 86 6000 4.1 230 08:41 04.12.2019
3064 Clouds 5 1021 86 6000 3.6 230 08:23 04.12.2019
3065 Mist 5 1021 86 5000 4.1 230 07:50 04.12.2019
3066 Mist 5 1021 86 4800 4.1 230 07:30 04.12.2019
3067 Mist 5 1021 93 4000 5.1 220 06:51 04.12.2019
3068 Mist 5 1021 93 4000 5.1 220 06:31 04.12.2019
3069 Mist 5 1022 86 4500 5.1 250 05:43 04.12.2019
3070 Clouds 5 1021 87 7000 5.1 230 04:31 04.12.2019
3071 Clouds 6 1022 87 9000 4.1 240 03:25 04.12.2019
3072 Clouds 6 1022 81 10000 4.6 240 01:21 04.12.2019
3073 Clouds 6 1022 81 10000 4.6 240 00:40 04.12.2019
3074 Clouds 6 1023 81 10000 4.6 230 00:20 04.12.2019
3075 Clouds 6 1022 81 10000 5.7 230 23:41 03.12.2019
3076 Clouds 6 1022 81 10000 5.1 240 23:20 03.12.2019
3077 Drizzle 6 1023 81 10000 5.1 240 22:57 03.12.2019
3078 Drizzle 7 1023 81 10000 5.1 240 22:38 03.12.2019
3079 Clouds 7 1023 81 10000 4.6 240 22:18 03.12.2019
3080 Clouds 7 1023 81 10000 4.6 240 21:56 03.12.2019
3081 Clouds 7 1022 81 10000 6.2 240 21:37 03.12.2019
3082 Clouds 7 1022 81 10000 4.6 240 21:18 03.12.2019
3083 Clouds 7 1022 81 10000 5.1 240 20:41 03.12.2019
3084 Clouds 7 1022 81 10000 5.1 240 20:20 03.12.2019
3085 Clouds 7 1023 81 10000 5.1 240 19:57 03.12.2019
3086 Clouds 7 1023 81 10000 5.1 240 19:38 03.12.2019
3087 Clouds 7 1023 81 10000 4.6 230 19:20 03.12.2019
3088 Clouds 7 1023 81 10000 5.1 240 18:59 03.12.2019
3089 Clouds 7 1023 81 10000 5.1 240 18:41 03.12.2019
3090 Clouds 6 1023 81 10000 4.6 240 18:21 03.12.2019
3091 Clouds 7 1023 81 10000 4.6 240 17:58 03.12.2019
3092 Clouds 7 1023 81 10000 4.6 240 17:58 03.12.2019
3093 Clouds 7 1023 81 10000 4.6 240 17:39 03.12.2019
3094 Clouds 7 1023 81 10000 4.1 240 17:18 03.12.2019
3095 Clouds 7 1023 81 10000 4.1 240 17:18 03.12.2019
3096 Clouds 7 1024 81 10000 4.1 240 16:58 03.12.2019
3097 Clouds 7 1024 81 10000 4.1 240 16:58 03.12.2019
3098 Clouds 7 1024 81 10000 4.1 240 16:58 03.12.2019
3099 -273 0 0 0 0 0 16:39 03.12.2019
3100 Clouds 7 1024 81 10000 4.6 250 16:20 03.12.2019
3101 Clouds 7 1024 81 10000 4.6 250 16:20 03.12.2019
3102 Clouds 7 1024 81 10000 4.6 250 15:57 03.12.2019
3103 Clouds 7 1024 81 10000 5.7 250 15:38 03.12.2019
3104 Clouds 7 1024 75 10000 4.1 250 15:19 03.12.2019
3105 Clouds 7 1024 75 10000 4.1 250 14:44 03.12.2019
3106 Clouds 7 1024 81 10000 4.1 240 14:21 03.12.2019
3107 Clouds 7 1024 81 10000 4.1 240 13:59 03.12.2019
3108 Clouds 7 1025 87 10000 3.6 240 13:38 03.12.2019
3109 Clouds 7 1025 93 9000 4.1 240 13:19 03.12.2019
3110 Clouds 7 1025 93 9000 4.1 240 12:57 03.12.2019
3111 Clouds 7 1025 93 7000 4.1 240 12:37 03.12.2019
3112 Drizzle 7 1025 93 5000 3.6 240 12:18 03.12.2019
3113 Drizzle 6 1025 93 5000 3.6 240 11:55 03.12.2019
3114 Drizzle 6 1025 100 5000 3.6 240 11:37 03.12.2019
3115 Drizzle 6 1025 100 2500 3.6 240 11:18 03.12.2019
3116 Drizzle 5 1025 93 2500 3.6 230 10:43 03.12.2019
3117 Drizzle 5 1025 93 5000 3.1 220 10:21 03.12.2019
3118 Drizzle 5 1025 93 5000 3.1 220 09:59 03.12.2019
3119 Mist 5 1025 100 3500 2.6 220 09:40 03.12.2019
3120 Drizzle 5 1025 100 3000 2.1 210 09:22 03.12.2019
3121 Mist 5 1025 93 3500 1.5 210 08:56 03.12.2019
3122 Mist 5 1025 93 3500 1.5 210 08:38 03.12.2019
3123 Mist 4 1025 100 4000 1.5 210 08:19 03.12.2019
3124 Mist 4 1025 100 3800 2.1 210 07:50 03.12.2019
3125 Mist 4 1025 93 3800 1.5 220 07:24 03.12.2019
3126 -273 0 0 0 0 0 06:24 03.12.2019
3127 Mist 4 1025 100 3500 2.1 220 05:59 03.12.2019
3128 Clouds 3 1025 100 10000 1 0 04:55 03.12.2019
3129 Clouds 3 1025 93 10000 1 0 03:42 03.12.2019
3130 Clouds 3 1025 100 10000 1 0 03:20 03.12.2019
3131 Clouds 4 1025 93 10000 1.5 250 02:51 03.12.2019
3132 Rain 3 1025 93 10000 2.1 250 02:32 03.12.2019
3133 Rain 3 1025 93 10000 1 0 01:57 03.12.2019
3134 Rain 3 1025 93 10000 1 0 01:38 03.12.2019
3135 Rain 3 1025 93 10000 2.1 260 01:18 03.12.2019
3136 Clouds 3 1025 93 10000 2.6 250 00:41 03.12.2019
3137 Clouds 3 1024 93 10000 2.1 250 00:23 03.12.2019
3138 Clouds 3 1024 93 10000 1 0 23:44 02.12.2019
3139 Drizzle 3 1024 86 10000 2.6 270 23:22 02.12.2019
3140 Clouds 3 1024 86 10000 2.6 270 22:56 02.12.2019
3141 Clouds 3 1024 86 10000 2.6 270 22:37 02.12.2019
3142 Clouds 3 1024 86 10000 1 280 22:19 02.12.2019
3143 Clouds 3 1024 86 10000 2.1 320 21:39 02.12.2019
3144 Clouds 3 1024 80 10000 1.5 300 21:20 02.12.2019
3145 Clouds 3 1023 80 10000 2.6 300 20:58 02.12.2019
3146 Clouds 3 1023 80 10000 2.6 300 20:39 02.12.2019
3147 Rain 3 1023 86 10000 2.1 290 20:20 02.12.2019
3148 Rain 3 1023 86 10000 2.1 290 19:59 02.12.2019
3149 Rain 3 1022 86 10000 3.6 290 19:41 02.12.2019
3150 Rain 3 1022 80 10000 3.6 290 19:21 02.12.2019
3151 Rain 3 1022 80 10000 3.6 290 18:48 02.12.2019
3152 Rain 3 1022 80 10000 3.6 290 18:48 02.12.2019
3153 Rain 4 1022 80 10000 4.6 290 18:25 02.12.2019
3154 Rain 4 1022 80 10000 4.6 290 17:59 02.12.2019
3155 Rain 4 1021 80 10000 4.1 280 17:41 02.12.2019
3156 Clouds 4 1022 80 10000 3.6 280 17:21 02.12.2019
3157 Clouds 4 1022 80 10000 3.6 280 17:21 02.12.2019
3158 Clouds 4 1022 80 10000 3.6 280 16:59 02.12.2019
3159 Clouds 5 1021 80 10000 3.1 280 16:39 02.12.2019
3160 Clouds 5 1021 75 10000 5.1 290 16:18 02.12.2019
3161 Clouds 5 1021 75 10000 5.1 290 15:57 02.12.2019
3162 Clouds 6 1020 81 10000 5.1 290 15:38 02.12.2019
3163 Clouds 6 1020 75 10000 5.7 290 15:20 02.12.2019
3164 Clouds 6 1020 75 10000 5.7 290 14:55 02.12.2019
3165 Clouds 6 1020 75 10000 5.7 290 14:37 02.12.2019
3166 Clouds 6 1020 75 10000 4.6 300 14:19 02.12.2019
3167 Clouds 6 1020 87 10000 4.1 290 13:55 02.12.2019
3168 Clouds 6 1020 87 10000 4.1 290 13:36 02.12.2019
3169 Clouds 6 1020 87 10000 4.1 290 13:18 02.12.2019
3170 Clouds 5 1020 87 10000 4.6 290 12:42 02.12.2019
3171 Clouds 5 1020 87 10000 4.6 290 12:42 02.12.2019
3172 Rain 5 1020 93 9000 4.6 270 12:21 02.12.2019
3173 Rain 4 1020 86 10000 3.6 260 11:57 02.12.2019
3174 Rain 4 1020 86 10000 3.6 260 11:38 02.12.2019
3175 Rain 4 1020 86 10000 4.1 260 11:19 02.12.2019
3176 Rain 4 1020 86 10000 4.1 260 10:57 02.12.2019
3177 Clouds 3 1019 86 10000 3.6 260 10:39 02.12.2019
3178 Clouds 3 1019 86 10000 3.6 260 10:21 02.12.2019
3179 Clouds 3 1019 86 10000 3.6 260 09:55 02.12.2019
3180 Clouds 2 1019 93 10000 3.6 260 09:37 02.12.2019
3181 Clouds 2 1019 93 10000 3.6 260 09:18 02.12.2019
3182 Clouds 1 1019 100 7000 2.1 250 08:42 02.12.2019
3183 Clouds 1 1019 100 10000 2.1 250 08:23 02.12.2019
3184 Clouds 1 1019 100 10000 2.1 250 07:59 02.12.2019
3185 Clouds 2 1018 100 10000 2.6 260 07:38 02.12.2019
3186 Clouds 2 1018 100 10000 2.6 260 07:38 02.12.2019
3187 Clouds 2 1018 93 10000 3.1 270 07:19 02.12.2019
3188 Clouds 2 1018 93 10000 3.1 260 06:42 02.12.2019
3189 Clouds 2 1018 93 10000 3.6 260 05:45 02.12.2019
3190 Clouds 2 1018 93 10000 3.6 260 05:19 02.12.2019
3191 Clouds 2 1019 100 9000 3.1 260 03:28 02.12.2019
3192 Clouds 2 1019 93 7000 2.1 250 02:50 02.12.2019
3193 Mist 2 1019 93 4800 1.5 250 01:49 02.12.2019
3194 Mist 2 1019 93 4800 2.6 250 01:21 02.12.2019
3195 Mist 2 1020 93 4800 1.5 260 00:39 02.12.2019
3196 Mist 2 1020 100 4500 2.6 270 00:21 02.12.2019
3197 Mist 2 1020 93 4000 2.1 240 23:43 01.12.2019
3198 Mist 3 1020 93 4000 1.5 260 23:22 01.12.2019
3199 Mist 2 1020 93 4500 2.6 250 22:56 01.12.2019
3200 Mist 3 1020 93 4500 2.6 250 22:38 01.12.2019
3201 Mist 3 1020 93 4500 2.1 260 22:19 01.12.2019
3202 Mist 2 1020 93 4500 1.5 250 21:56 01.12.2019
3203 Mist 2 1020 93 4500 1.5 250 21:38 01.12.2019
3204 Mist 2 1020 93 4000 2.6 230 21:20 01.12.2019
3205 Mist 2 1020 93 4000 2.6 230 20:58 01.12.2019
3206 Mist 2 1020 100 4000 1.5 230 20:39 01.12.2019
3207 Mist 2 1020 93 4000 2.1 240 20:21 01.12.2019
3208 Mist 2 1020 93 4000 2.1 240 19:58 01.12.2019
3209 Mist 2 1020 100 3500 1 0 19:39 01.12.2019
3210 Mist 2 1020 100 3600 1 0 19:20 01.12.2019
3211 Mist 2 1020 93 4000 3.1 200 18:57 01.12.2019
3212 Mist 2 1020 93 4000 3.1 200 18:38 01.12.2019
3213 Mist 2 1020 100 4000 2.6 220 18:19 01.12.2019
3214 Mist 2 1020 100 4000 2.6 220 17:57 01.12.2019
3215 Mist 2 1021 93 4000 1.5 230 17:39 01.12.2019
3216 Mist 2 1021 93 4000 1 0 17:20 01.12.2019
3217 Mist 2 1021 93 4000 1.5 220 16:55 01.12.2019
3218 Mist 2 1021 93 4000 1.5 220 16:37 01.12.2019
3219 Mist 2 1021 93 4000 1.5 220 16:37 01.12.2019
3220 Mist 2 1021 93 3200 1 0 16:18 01.12.2019
3221 Mist 2 1021 93 3000 1.5 230 15:46 01.12.2019
3222 Mist 2 1021 93 3000 1.5 230 15:27 01.12.2019
3223 Mist 2 1021 93 3000 1.5 230 15:27 01.12.2019
3224 Mist 2 1021 93 3200 1.5 230 14:41 01.12.2019
3225 Mist 2 1021 93 3200 1.5 230 14:41 01.12.2019
3226 Mist 2 1021 93 3200 1.5 230 14:41 01.12.2019
3227 Mist 2 1021 93 3200 1.5 230 14:41 01.12.2019
3228 Mist 2 1021 93 3200 2.1 240 14:20 01.12.2019
3229 Mist 2 1021 100 2200 2.1 250 13:56 01.12.2019
3230 Mist 2 1021 100 2200 2.1 250 13:38 01.12.2019
3231 Fog 2 1021 100 300 1.5 210 13:19 01.12.2019
3232 Fog 2 1021 100 150 1.5 220 12:42 01.12.2019
3233 Fog 1 1022 100 150 1 0 11:57 01.12.2019
3234 Fog 1 1022 100 150 1 0 11:56 01.12.2019
3235 Fog 1 1022 100 150 1 0 11:56 01.12.2019
3236 Fog 1 1022 100 150 1 0 11:37 01.12.2019
3237 Fog 1 1022 100 150 0.5 0 11:19 01.12.2019
3238 Fog 1 1022 100 150 1 0 10:43 01.12.2019
3239 Fog 0 1022 100 100 0.5 0 10:21 01.12.2019
3240 Fog 0 1022 100 100 0.5 0 09:57 01.12.2019
3241 Fog 0 1022 100 100 0.5 0 09:38 01.12.2019
3242 Fog 0 1022 91 100 1 0 09:19 01.12.2019
3243 Fog 0 1022 91 100 1 0 09:19 01.12.2019
3244 Fog 0 1022 91 150 1.5 210 08:44 01.12.2019
3245 Fog 0 1022 95 200 2.1 230 08:19 01.12.2019
3246 Fog 0 1022 100 150 1 0 07:50 01.12.2019
3247 Fog 0 1022 100 150 1 0 07:30 01.12.2019
3248 Fog 1 1021 100 200 1 0 06:56 01.12.2019
3249 Fog 1 1022 93 300 0.5 0 06:25 01.12.2019
3250 Fog 1 1022 100 300 0.5 0 05:46 01.12.2019
3251 Fog 1 1022 100 400 0.5 280 04:49 01.12.2019
3252 Mist 1 1022 100 4000 1 0 02:48 01.12.2019
3253 Mist 1 1022 100 4000 1 0 02:30 01.12.2019
3254 Fog 1 1022 100 10000 1 0 01:57 01.12.2019
3255 Fog 1 1022 100 10000 1 0 01:39 01.12.2019
3256 Clouds 2 1023 93 10000 1 0 01:19 01.12.2019
3257 Rain 2 1023 93 10000 0.5 0 00:40 01.12.2019
3258 Clouds 2 1022 100 10000 0.5 0 00:22 01.12.2019
3259 Clouds 2 1022 100 10000 0.5 150 23:42 30.11.2019
3260 Clouds 2 1022 100 10000 1 0 23:23 30.11.2019
3261 Clouds 2 1022 100 10000 1 210 22:50 30.11.2019
3262 Clouds 2 1022 100 10000 1 210 22:30 30.11.2019
3263 Rain 2 1022 93 10000 0.5 0 21:59 30.11.2019
3264 Clouds 2 1022 93 10000 1.5 220 21:40 30.11.2019
3265 Clouds 2 1022 100 10000 0.5 0 21:20 30.11.2019
3266 Fog 1 1022 100 10000 1 0 20:55 30.11.2019
3267 Fog 1 1022 100 10000 0.5 0 20:37 30.11.2019
3268 Fog 1 1022 100 10000 0.5 0 20:19 30.11.2019
3269 Fog 2 1022 100 10000 0.5 0 19:55 30.11.2019
3270 Clouds 2 1022 100 10000 1.5 240 19:37 30.11.2019
3271 Clouds 2 1022 93 10000 1.5 270 19:18 30.11.2019
3272 Clouds 2 1022 93 10000 1.5 270 19:18 30.11.2019
3273 Clouds 2 1022 93 10000 1.5 270 18:56 30.11.2019
3274 Clouds 3 1022 86 10000 2.1 260 18:37 30.11.2019
3275 Clouds 3 1022 86 10000 2.1 260 18:37 30.11.2019
3276 Clouds 3 1022 86 10000 2.1 260 18:18 30.11.2019
3277 Clouds 3 1022 93 10000 2.1 260 17:56 30.11.2019
3278 Clouds 3 1022 86 10000 2.1 260 17:56 30.11.2019
3279 Clouds 4 1022 93 10000 2.1 260 17:37 30.11.2019
3280 Clouds 4 1022 86 10000 3.1 260 17:19 30.11.2019
3281 Clouds 4 1022 86 10000 3.1 260 17:19 30.11.2019
3282 Clouds 4 1022 86 10000 2.6 250 16:56 30.11.2019
3283 Clouds 4 1022 86 10000 2.6 250 16:37 30.11.2019
3284 Clouds 5 1022 86 10000 3.1 250 16:18 30.11.2019
3285 Clouds 5 1021 86 10000 4.1 250 15:42 30.11.2019
3286 Clouds 5 1021 86 10000 4.1 250 15:42 30.11.2019
3287 Clouds 6 1021 81 10000 4.1 250 15:19 30.11.2019
3288 Clouds 6 1021 81 10000 4.1 250 14:57 30.11.2019
3289 Clouds 6 1021 81 10000 3.1 250 14:38 30.11.2019
3290 Rain 6 1021 81 10000 4.1 260 14:19 30.11.2019
3291 Rain 6 1021 81 10000 4.1 260 13:57 30.11.2019
3292 Clouds 6 1021 81 10000 3.6 250 13:57 30.11.2019
3293 Clouds 6 1021 81 10000 3.6 250 13:37 30.11.2019
3294 Clouds 6 1021 81 10000 3.6 260 13:19 30.11.2019
3295 Clouds 6 1021 81 10000 3.6 260 13:19 30.11.2019
3296 Clouds 6 1021 75 10000 3.6 260 12:47 30.11.2019
3297 Clouds 5 1021 75 10000 3.6 260 12:28 30.11.2019
3298 Clouds 5 1021 81 10000 4.1 270 11:58 30.11.2019
3299 Clouds 4 1020 75 10000 4.6 270 11:39 30.11.2019
3300 Clouds 4 1020 80 10000 4.1 270 11:18 30.11.2019
3301 Clouds 3 1020 86 10000 3.6 270 10:45 30.11.2019
3302 Clouds 3 1020 86 10000 3.6 270 10:21 30.11.2019
3303 Clouds 2 1020 86 10000 3.1 260 09:59 30.11.2019
3304 Clouds 2 1020 86 10000 3.1 260 09:40 30.11.2019
3305 Clouds 1 1019 86 10000 3.1 260 09:20 30.11.2019
3306 Clouds 1 1019 93 10000 2.6 260 08:41 30.11.2019
3307 Clouds 1 1019 93 10000 3.6 260 08:19 30.11.2019
3308 Clouds 1 1019 93 10000 3.1 260 07:43 30.11.2019
3309 Clouds 1 1019 93 10000 3.1 260 07:24 30.11.2019
3310 Clouds 1 1018 93 10000 3.1 260 06:46 30.11.2019
3311 Clouds 1 1018 93 10000 3.1 260 06:28 30.11.2019
3312 Clouds 0 1018 88 10000 2.6 260 05:29 30.11.2019
3313 Clouds 0 1017 88 10000 2.1 260 03:40 30.11.2019
3314 Clouds 0 1016 88 10000 2.1 280 02:39 30.11.2019
3315 Clear 0 1016 92 10000 3.1 280 02:20 30.11.2019
3316 Clouds 0 1015 88 10000 2.6 270 01:25 30.11.2019
3317 Clouds 0 1015 86 10000 2.1 240 00:47 30.11.2019
3318 Clouds 0 1015 86 10000 2.1 240 00:28 30.11.2019
3319 Clouds 0 1015 92 10000 1 0 23:55 29.11.2019
3320 Clouds 0 1015 92 10000 1 0 23:37 29.11.2019
3321 Clear 0 1014 86 10000 1 0 23:18 29.11.2019
3322 Clear 0 1014 92 10000 1 0 22:39 29.11.2019
3323 Clear 0 1014 75 10000 1 0 22:21 29.11.2019
3324 Clear 0 1014 86 10000 0.5 120 21:42 29.11.2019
3325 Clear 0 1013 75 10000 1 0 21:22 29.11.2019
3326 Clear 0 1013 75 10000 1 0 20:57 29.11.2019
3327 Clear 0 1013 86 10000 0.5 0 20:38 29.11.2019
3328 Clear 0 1012 76 10000 1 0 20:19 29.11.2019
3329 Clear 0 1012 74 10000 1.5 310 19:56 29.11.2019
3330 Clear 0 1012 74 10000 1.5 310 19:38 29.11.2019
3331 Clear 0 1011 76 10000 1 0 19:19 29.11.2019
3332 Clear 1 1011 76 10000 1.5 310 18:54 29.11.2019
3333 Clear 1 1011 76 10000 1.5 310 18:36 29.11.2019
3334 Clear 1 1011 74 10000 1 0 18:18 29.11.2019
3335 Clear 2 1010 69 10000 1.5 290 17:41 29.11.2019
3336 Clouds 2 1010 64 10000 3.1 300 17:22 29.11.2019
3337 Clouds 3 1009 60 10000 3.6 310 16:56 29.11.2019
3338 Clouds 3 1009 60 10000 3.6 310 16:37 29.11.2019
3339 Clouds 4 1008 60 10000 6.2 310 16:18 29.11.2019
3340 Clouds 5 1008 56 10000 7.7 320 15:40 29.11.2019
3341 Clouds 5 1007 56 10000 7.7 320 15:21 29.11.2019
3342 Clouds 5 1006 56 10000 8.2 310 14:55 29.11.2019
3343 Clouds 5 1006 56 10000 8.2 310 14:37 29.11.2019
3344 Clouds 5 1006 56 10000 6.7 310 14:18 29.11.2019
3345 Clouds 5 1005 52 10000 8.7 320 13:40 29.11.2019
3346 Clouds 5 1004 56 10000 9.3 320 13:20 29.11.2019
3347 Clouds 5 1004 56 10000 9.3 320 12:56 29.11.2019
3348 Clouds 5 1004 60 10000 8.2 320 12:37 29.11.2019
3349 Clouds 5 1003 60 10000 8.7 310 12:19 29.11.2019
3350 Clouds 5 1003 65 10000 8.2 310 11:54 29.11.2019
3351 Clouds 5 1003 65 10000 8.2 310 11:36 29.11.2019
3352 Clouds 5 1002 75 10000 7.2 310 11:18 29.11.2019
3353 -273 0 0 0 0 0 10:55 29.11.2019
3354 Clouds 5 1001 75 10000 6.2 300 10:36 29.11.2019
3355 -273 0 0 0 0 0 10:18 29.11.2019
3356 Clouds 4 1000 80 10000 5.7 290 09:54 29.11.2019
3357 Clouds 4 999 80 10000 5.1 290 09:36 29.11.2019
3358 Clouds 4 999 80 10000 5.1 290 09:18 29.11.2019
3359 Clouds 4 998 80 10000 3.1 280 08:38 29.11.2019
3360 Clouds 4 998 80 10000 4.1 280 08:20 29.11.2019
3361 Clouds 4 997 80 10000 4.1 290 07:56 29.11.2019
3362 Clouds 5 997 80 10000 4.1 290 07:38 29.11.2019
3363 Clouds 5 997 80 10000 6.2 290 07:19 29.11.2019
3364 Clouds 5 996 86 10000 5.7 280 06:42 29.11.2019
3365 Rain 5 995 80 10000 6.2 260 05:48 29.11.2019
3366 Clouds 5 994 75 10000 6.7 270 05:24 29.11.2019
3367 Clouds 5 994 80 10000 5.1 250 04:31 29.11.2019
3368 Clouds 5 994 70 10000 5.1 250 03:21 29.11.2019
3369 Clouds 6 993 70 10000 4.1 250 02:30 29.11.2019
3370 Clouds 6 993 70 10000 5.1 270 01:51 29.11.2019
3371 Rain 6 993 70 10000 9.3 290 01:26 29.11.2019
3372 Clouds 7 992 81 10000 5.1 280 00:43 29.11.2019
3373 Drizzle 7 992 81 10000 5.7 280 00:21 29.11.2019
3374 Drizzle 7 991 93 6000 7.7 290 23:56 28.11.2019
3375 Drizzle 7 991 93 6000 7.7 290 23:36 28.11.2019
3376 Drizzle 7 991 87 8000 6.2 270 23:18 28.11.2019
3377 Clouds 8 990 87 10000 3.6 270 22:38 28.11.2019
3378 Clouds 8 990 87 10000 5.1 280 22:20 28.11.2019
3379 Clouds 8 989 87 10000 6.2 290 21:59 28.11.2019
3380 Clouds 8 989 87 10000 6.2 290 21:40 28.11.2019
3381 Drizzle 8 989 87 8000 6.2 280 21:20 28.11.2019
3382 Drizzle 8 988 93 7000 6.2 270 20:57 28.11.2019
3383 Drizzle 8 988 93 7000 6.2 270 20:39 28.11.2019
3384 Clouds 9 987 93 10000 3.6 260 20:20 28.11.2019
3385 Clouds 9 987 93 10000 3.6 260 19:56 28.11.2019
3386 Clouds 9 987 93 10000 4.1 250 19:37 28.11.2019
3387 Clouds 9 987 93 10000 5.1 270 19:18 28.11.2019
3388 Clouds 9 987 93 10000 5.1 270 18:56 28.11.2019
3389 Clouds 9 987 93 10000 6.7 280 18:38 28.11.2019
3390 Drizzle 9 986 93 10000 7.7 280 18:18 28.11.2019
3391 Drizzle 9 985 93 4800 5.1 260 17:43 28.11.2019
3392 Drizzle 9 985 93 8000 5.1 240 17:25 28.11.2019
3393 Drizzle 9 985 93 4800 5.1 260 17:25 28.11.2019
3394 Drizzle 9 985 93 8000 5.1 240 16:59 28.11.2019
3395 Drizzle 8 984 93 9000 4.6 230 16:40 28.11.2019
3396 Drizzle 8 984 93 8000 6.7 220 16:19 28.11.2019
3397 Drizzle 8 984 93 8000 6.7 220 15:57 28.11.2019
3398 Drizzle 8 984 93 8000 6.7 220 15:57 28.11.2019
3399 Drizzle 9 984 93 8000 7.2 220 15:38 28.11.2019
3400 Drizzle 9 984 93 5000 6.7 220 15:19 28.11.2019
3401 Drizzle 9 984 93 5000 6.2 210 14:57 28.11.2019
3402 Drizzle 9 984 93 5000 6.2 210 14:57 28.11.2019
3403 Drizzle 9 984 93 5000 6.2 210 14:39 28.11.2019
3404 Drizzle 9 984 87 9000 6.2 220 14:19 28.11.2019
3405 Rain 9 984 87 10000 8.7 220 13:42 28.11.2019
3406 Rain 9 984 87 10000 8.7 220 13:23 28.11.2019
3407 Rain 9 984 93 10000 8.2 210 12:56 28.11.2019
3408 Rain 9 984 93 10000 8.2 210 12:38 28.11.2019
3409 Rain 9 985 93 10000 7.7 210 12:20 28.11.2019
3410 Rain 9 985 87 10000 8.7 210 11:55 28.11.2019
3411 Rain 9 985 87 10000 8.7 210 11:37 28.11.2019
3412 Rain 9 985 87 10000 9.3 210 11:18 28.11.2019
3413 Rain 9 985 87 10000 8.7 210 10:42 28.11.2019
3414 Drizzle 9 985 87 10000 7.7 210 10:21 28.11.2019
3415 Drizzle 9 985 87 10000 7.7 210 09:56 28.11.2019
3416 Drizzle 9 985 87 10000 8.2 210 09:38 28.11.2019
3417 Drizzle 9 985 87 10000 8.2 210 09:38 28.11.2019
3418 Rain 9 985 87 10000 7.7 200 09:19 28.11.2019
3419 Rain 9 985 87 10000 8.2 210 08:41 28.11.2019
3420 Rain 9 985 87 10000 9.3 210 08:22 28.11.2019
3421 Clouds 9 985 93 10000 4.6 210 07:58 28.11.2019
3422 Rain 9 985 93 10000 4.6 220 07:39 28.11.2019
3423 Rain 9 984 87 10000 7.7 210 07:21 28.11.2019
3424 Rain 9 984 87 10000 7.7 210 06:41 28.11.2019
3425 Clouds 9 984 87 10000 7.7 210 05:56 28.11.2019
3426 Clouds 9 984 87 10000 7.7 210 05:38 28.11.2019
3427 Rain 9 984 87 10000 7.7 190 04:51 28.11.2019
3428 Rain 9 985 93 10000 5.1 160 02:32 28.11.2019
3429 Rain 8 986 93 10000 5.1 150 01:25 28.11.2019
3430 Rain 8 987 93 10000 4.6 150 00:42 28.11.2019
3431 Rain 8 987 93 10000 5.1 150 00:19 28.11.2019
3432 Clouds 8 987 93 10000 5.1 150 23:39 27.11.2019
3433 Clouds 8 988 87 10000 5.1 150 23:21 27.11.2019
3434 Clouds 8 988 87 10000 5.1 150 22:58 27.11.2019
3435 Clouds 8 988 87 10000 4.6 150 22:38 27.11.2019
3436 Clouds 8 988 87 10000 4.6 140 22:19 27.11.2019
3437 Clouds 8 988 87 10000 4.6 140 21:56 27.11.2019
3438 Clear 8 989 93 10000 4.6 140 21:37 27.11.2019
3439 Clear 8 989 93 10000 4.6 140 21:19 27.11.2019
3440 Clear 8 989 93 10000 4.6 140 21:19 27.11.2019
3441 Clear 8 989 93 10000 4.6 140 20:57 27.11.2019
3442 Clear 8 989 93 10000 4.6 140 20:38 27.11.2019
3443 Clouds 8 989 93 10000 4.6 150 20:19 27.11.2019
3444 Rain 8 989 93 10000 4.6 150 19:57 27.11.2019
3445 Clouds 8 989 93 10000 4.6 150 19:38 27.11.2019
3446 Clouds 8 990 93 10000 4.6 150 19:19 27.11.2019
3447 Clouds 8 990 87 10000 4.6 140 18:58 27.11.2019
3448 Clouds 8 990 87 10000 4.6 140 18:37 27.11.2019
3449 Clouds 8 990 87 10000 4.1 140 18:19 27.11.2019
3450 Clouds 8 990 93 10000 4.1 140 17:56 27.11.2019
3451 Clouds 8 990 93 10000 4.1 140 17:37 27.11.2019
3452 Clouds 8 991 93 10000 5.1 150 17:19 27.11.2019
3453 Clouds 8 991 93 10000 4.6 150 16:56 27.11.2019
3454 Clouds 8 991 93 10000 4.6 150 16:37 27.11.2019
3455 Clouds 8 991 93 10000 4.6 150 16:18 27.11.2019
3456 Clouds 8 991 93 10000 4.6 150 16:18 27.11.2019
3457 Rain 8 991 93 7000 5.1 150 15:57 27.11.2019
3458 Rain 8 991 93 7000 5.1 150 15:38 27.11.2019
3459 Rain 8 991 93 7000 4.6 140 15:20 27.11.2019
3460 Drizzle 8 991 93 6000 4.1 140 14:56 27.11.2019
3461 Drizzle 8 991 93 6000 4.1 140 14:38 27.11.2019
3462 Rain 8 991 87 4500 4.6 150 14:20 27.11.2019
3463 Rain 8 991 87 10000 5.1 160 13:56 27.11.2019
3464 Rain 8 991 87 10000 5.1 160 13:38 27.11.2019
3465 Rain 8 991 87 10000 5.7 140 13:19 27.11.2019
3466 Clouds 8 992 87 10000 6.2 140 12:42 27.11.2019
3467 Clouds 8 992 81 10000 7.2 140 12:22 27.11.2019
3468 Rain 8 992 87 10000 4.6 130 11:59 27.11.2019
3469 Rain 8 992 87 10000 4.6 130 11:37 27.11.2019
3470 Clouds 8 993 87 10000 4.6 120 11:19 27.11.2019
3471 Clouds 8 993 87 10000 4.6 130 10:55 27.11.2019
3472 Clouds 8 993 87 10000 4.6 130 10:37 27.11.2019
3473 Clouds 8 993 87 10000 3.6 130 10:19 27.11.2019
3474 Clouds 8 993 87 10000 4.1 130 09:41 27.11.2019
3475 Clouds 8 994 87 10000 4.6 120 09:23 27.11.2019
3476 Clouds 8 994 87 10000 3.6 110 08:43 27.11.2019
3477 Clouds 8 995 87 10000 3.1 140 08:23 27.11.2019
3478 Clouds 8 995 87 10000 3.1 140 08:23 27.11.2019
3479 Clouds 8 995 87 10000 3.6 150 07:58 27.11.2019
3480 Clouds 8 995 87 10000 3.6 150 07:39 27.11.2019
3481 Clouds 8 994 87 10000 4.1 120 07:20 27.11.2019
3482 Clouds 8 994 87 10000 4.1 120 07:20 27.11.2019
3483 Clouds 8 995 93 10000 4.1 140 06:45 27.11.2019
3484 Clouds 8 996 87 10000 3.6 140 06:25 27.11.2019
3485 Clouds 8 996 87 10000 3.6 130 05:26 27.11.2019
3486 Clouds 8 997 87 10000 3.1 140 04:57 27.11.2019
3487 Clouds 8 997 87 10000 3.1 140 04:37 27.11.2019
3488 Clouds 8 998 87 10000 4.1 140 03:50 27.11.2019
3489 Clouds 8 998 93 10000 3.1 130 03:21 27.11.2019
3490 Clouds 8 998 87 10000 3.6 140 02:54 27.11.2019
3491 Clouds 8 999 93 10000 3.6 140 01:35 27.11.2019
3492 Clouds 8 999 93 10000 4.6 150 00:44 27.11.2019
3493 Rain 8 999 93 10000 4.1 140 00:25 27.11.2019
3494 Clouds 8 1000 93 10000 3.1 120 23:47 26.11.2019
3495 Clouds 8 1000 93 10000 3.1 140 23:26 26.11.2019
3496 Clouds 8 1001 93 10000 3.6 140 22:57 26.11.2019
3497 Clouds 8 1001 93 10000 3.6 140 22:38 26.11.2019
3498 Clouds 8 1001 93 10000 3.6 160 22:19 26.11.2019
3499 Clouds 8 1002 93 10000 4.1 150 21:58 26.11.2019
3500 Clouds 8 1002 93 10000 4.1 150 21:37 26.11.2019
3501 Clouds 8 1002 93 10000 3.6 160 21:19 26.11.2019
3502 Clouds 8 1002 93 10000 3.6 150 20:54 26.11.2019
3503 Clouds 8 1002 93 10000 3.6 150 20:36 26.11.2019
3504 Clouds 7 1002 93 10000 4.1 150 20:18 26.11.2019
3505 Clouds 8 1002 93 10000 4.1 150 19:54 26.11.2019
3506 Clouds 8 1002 93 10000 4.1 150 19:36 26.11.2019
3507 Clouds 8 1002 93 10000 4.6 160 19:18 26.11.2019
3508 Drizzle 7 1002 93 7000 4.1 160 18:56 26.11.2019
3509 Drizzle 7 1002 93 7000 4.1 160 18:37 26.11.2019
3510 Clouds 7 1002 93 9000 4.6 150 18:19 26.11.2019
3511 Clouds 7 1003 93 10000 3.6 150 17:54 26.11.2019
3512 Clouds 7 1003 93 10000 3.6 150 17:36 26.11.2019
3513 Drizzle 7 1003 100 6000 4.1 150 17:18 26.11.2019
3514 Drizzle 7 1003 87 7000 4.1 150 16:54 26.11.2019
3515 Drizzle 7 1003 87 7000 4.1 150 16:36 26.11.2019
3516 Clouds 7 1003 87 10000 3.6 150 16:18 26.11.2019
3517 -273 0 0 0 0 0 15:56 26.11.2019
3518 Clouds 7 1003 87 10000 4.1 160 15:37 26.11.2019
3519 Clouds 7 1004 87 10000 4.1 160 15:18 26.11.2019
3520 Clouds 7 1004 87 10000 4.1 160 14:43 26.11.2019
3521 Clouds 7 1004 87 10000 3.6 160 14:23 26.11.2019
3522 Clouds 7 1004 93 10000 4.1 160 13:43 26.11.2019
3523 Clouds 7 1004 93 9000 4.1 150 13:24 26.11.2019
3524 Clouds 7 1004 87 8000 4.1 160 12:57 26.11.2019
3525 Clouds 7 1004 87 8000 4.1 160 12:36 26.11.2019
3526 Clouds 6 1005 87 7000 3.6 150 12:18 26.11.2019
3527 Clouds 6 1005 93 7000 3.6 160 11:55 26.11.2019
3528 Clouds 6 1005 93 7000 3.6 160 11:37 26.11.2019
3529 Clouds 6 1005 93 6000 3.6 150 11:18 26.11.2019
3530 Clouds 6 1006 93 6000 3.6 140 10:56 26.11.2019
3531 Clouds 5 1006 93 6000 3.6 140 10:37 26.11.2019
3532 Mist 5 1006 100 5000 3.6 160 10:19 26.11.2019
3533 Mist 5 1006 100 5000 3.6 150 09:42 26.11.2019
3534 Mist 5 1006 93 5000 3.1 160 09:24 26.11.2019
3535 Mist 5 1006 93 5000 3.1 150 08:56 26.11.2019
3536 Mist 5 1006 93 5000 3.1 150 08:38 26.11.2019
3537 Clouds 5 1006 93 6000 3.6 150 08:18 26.11.2019
3538 Clouds 5 1006 93 7000 3.6 160 07:43 26.11.2019
3539 Clouds 5 1006 93 7000 3.1 160 07:24 26.11.2019
3540 Clouds 5 1006 93 7000 3.6 160 06:51 26.11.2019
3541 Clouds 5 1006 93 6000 3.6 150 05:59 26.11.2019
3542 Drizzle 5 1007 93 6000 4.1 140 05:32 26.11.2019
3543 Mist 5 1008 93 5000 2.6 150 03:22 26.11.2019
3544 Mist 5 1008 93 5000 2.6 150 03:22 26.11.2019
3545 Mist 5 1008 93 4700 4.1 150 01:42 26.11.2019
3546 Mist 5 1009 93 5000 4.6 160 01:23 26.11.2019
3547 Drizzle 5 1009 93 4000 4.1 140 00:47 26.11.2019
3548 Drizzle 5 1009 93 3200 3.1 130 00:21 26.11.2019
3549 Drizzle 5 1009 93 3500 3.1 160 23:39 25.11.2019
3550 Drizzle 5 1010 93 3500 3.6 150 23:19 25.11.2019
3551 Drizzle 5 1010 93 3800 4.1 160 22:56 25.11.2019
3552 Drizzle 5 1010 93 3800 4.1 160 22:37 25.11.2019
3553 Drizzle 5 1010 93 3800 4.1 160 22:37 25.11.2019
3554 Mist 5 1010 93 5000 4.1 150 22:18 25.11.2019
3555 Mist 5 1010 93 5000 4.1 150 21:56 25.11.2019
3556 Mist 5 1010 93 5000 4.1 150 21:38 25.11.2019
3557 Mist 5 1010 93 5000 4.6 150 21:19 25.11.2019
3558 Mist 5 1010 93 5000 4.6 150 20:55 25.11.2019
3559 Mist 5 1010 93 5000 3.6 140 20:36 25.11.2019
3560 Mist 5 1010 93 5000 3.6 150 20:18 25.11.2019
3561 Mist 5 1010 93 5000 4.6 150 19:54 25.11.2019
3562 Mist 5 1010 93 5000 4.6 150 19:36 25.11.2019
3563 Mist 5 1010 93 5000 4.1 150 19:18 25.11.2019
3564 Clouds 5 1010 93 6000 4.1 130 18:56 25.11.2019
3565 Clouds 5 1010 93 6000 4.1 130 18:37 25.11.2019
3566 Mist 5 1010 93 5000 4.1 120 18:18 25.11.2019
3567 Mist 5 1010 93 4800 3.6 120 17:56 25.11.2019
3568 Mist 5 1011 93 4800 3.1 130 17:37 25.11.2019
3569 Mist 5 1011 93 4800 3.1 130 17:18 25.11.2019
3570 Mist 5 1011 93 4800 3.6 150 16:55 25.11.2019
3571 Mist 5 1011 93 4800 3.6 150 16:37 25.11.2019
3572 Mist 5 1010 93 4500 3.6 140 16:18 25.11.2019
3573 Mist 5 1010 93 4000 4.6 120 15:41 25.11.2019
3574 Mist 5 1010 93 4000 4.1 130 15:21 25.11.2019
3575 Mist 5 1010 93 4000 4.1 130 14:58 25.11.2019
3576 Mist 5 1010 93 4000 3.6 120 14:40 25.11.2019
3577 Mist 5 1011 93 5000 3.6 160 14:21 25.11.2019
3578 Mist 5 1011 93 4500 4.1 170 13:41 25.11.2019
3579 Mist 5 1011 93 4000 4.1 160 13:21 25.11.2019
3580 Mist 5 1011 93 4000 4.1 160 12:59 25.11.2019
3581 Mist 5 1011 93 4000 4.6 140 12:40 25.11.2019
3582 Mist 5 1011 93 4000 4.1 160 12:21 25.11.2019
3583 Mist 5 1011 93 4200 5.1 160 11:59 25.11.2019
3584 Mist 5 1011 93 4200 5.1 160 11:39 25.11.2019
3585 Mist 5 1011 93 4700 4.6 150 11:20 25.11.2019
3586 Mist 5 1011 93 4900 5.7 150 10:46 25.11.2019
3587 Mist 5 1011 93 4900 5.7 150 10:28 25.11.2019
3588 Mist 5 1011 93 4900 5.1 140 09:59 25.11.2019
3589 Mist 5 1011 93 5000 5.1 130 09:41 25.11.2019
3590 Mist 5 1011 93 5000 5.1 130 09:41 25.11.2019
3591 Mist 5 1011 93 5000 4.6 130 09:23 25.11.2019
3592 Mist 5 1011 93 5000 4.6 120 08:41 25.11.2019
3593 Mist 5 1012 93 4800 2.1 100 08:22 25.11.2019
3594 Mist 5 1011 93 5000 5.1 120 07:47 25.11.2019
3595 Mist 5 1011 93 4500 3.6 100 07:28 25.11.2019
3596 Mist 5 1011 93 4000 4.1 120 06:58 25.11.2019
3597 Mist 5 1011 93 4000 3.1 100 06:23 25.11.2019
3598 Mist 5 1011 93 4000 3.1 100 06:23 25.11.2019
3599 Mist 5 1011 93 5000 3.1 120 05:50 25.11.2019
3600 Mist 5 1011 93 5000 2.6 130 05:31 25.11.2019
3601 Mist 5 1011 93 5000 3.1 110 04:35 25.11.2019
3602 Clouds 5 1011 93 6000 4.1 120 02:36 25.11.2019
3603 Clouds 5 1011 93 6000 3.6 130 01:43 25.11.2019
3604 Clouds 5 1011 93 6000 4.1 150 01:24 25.11.2019
3605 Clouds 5 1011 93 6000 4.1 140 00:42 25.11.2019
3606 Clouds 5 1011 93 6000 3.6 130 00:20 25.11.2019
3607 Mist 5 1011 93 5000 4.1 130 23:44 24.11.2019
3608 Mist 5 1011 93 5000 4.1 120 23:20 24.11.2019
3609 Mist 5 1011 93 5000 4.1 120 22:57 24.11.2019
3610 Mist 5 1011 93 5000 4.1 120 22:39 24.11.2019
3611 Mist 5 1011 93 5000 4.6 130 22:19 24.11.2019
3612 Mist 5 1011 93 5000 4.6 120 21:57 24.11.2019
3613 Mist 5 1011 93 5000 4.6 120 21:38 24.11.2019
3614 Mist 5 1011 93 5000 5.1 120 21:20 24.11.2019
3615 Mist 5 1011 93 5000 5.1 120 20:57 24.11.2019
3616 Clouds 5 1011 93 6000 5.1 130 20:37 24.11.2019
3617 Clouds 5 1011 93 6000 5.1 110 20:18 24.11.2019
3618 Clouds 5 1011 93 6000 4.6 120 19:56 24.11.2019
3619 Clouds 5 1011 93 6000 4.6 120 19:38 24.11.2019
3620 Clouds 5 1011 93 6000 4.6 110 19:19 24.11.2019
3621 Clouds 5 1011 93 7000 5.1 100 18:57 24.11.2019
3622 Clouds 5 1011 93 7000 5.1 100 18:37 24.11.2019
3623 Clouds 5 1011 93 7000 4.6 100 18:19 24.11.2019
3624 Clouds 5 1010 87 7000 4.6 100 17:55 24.11.2019
3625 Clouds 5 1010 87 7000 4.6 100 17:37 24.11.2019
3626 Clouds 5 1010 93 8000 4.6 90 17:19 24.11.2019
3627 Clouds 5 1010 93 8000 4.6 90 17:19 24.11.2019
3628 Clouds 5 1010 87 8000 4.6 100 16:57 24.11.2019
3629 Clouds 5 1010 87 8000 4.6 100 16:38 24.11.2019
3630 Clouds 5 1010 87 8000 4.6 90 16:19 24.11.2019
3631 Clouds 5 1010 87 8000 5.1 90 15:43 24.11.2019
3632 Clouds 5 1010 87 8000 4.1 90 15:25 24.11.2019
3633 Clouds 5 1010 87 8000 4.1 90 14:58 24.11.2019
3634 Clouds 5 1010 87 8000 4.6 90 14:38 24.11.2019
3635 Clouds 5 1010 86 8000 5.1 90 14:18 24.11.2019
3636 Clouds 5 1010 86 8000 5.1 90 13:54 24.11.2019
3637 Clouds 5 1010 93 7000 5.7 80 13:36 24.11.2019
3638 Clouds 5 1010 86 7000 5.1 90 13:18 24.11.2019
3639 Clouds 5 1010 86 7000 5.7 90 12:42 24.11.2019
3640 Clouds 5 1010 86 7000 5.1 90 12:19 24.11.2019
3641 Clouds 5 1010 86 7000 5.1 90 11:58 24.11.2019
3642 Clouds 5 1010 86 7000 5.1 90 11:37 24.11.2019
3643 Clouds 5 1010 86 7000 5.1 90 11:18 24.11.2019
3644 Clouds 5 1010 86 7000 5.7 90 10:47 24.11.2019
3645 Clouds 4 1010 86 7000 5.7 90 10:29 24.11.2019
3646 Clouds 4 1010 86 7000 6.7 90 09:59 24.11.2019
3647 Clouds 4 1010 86 7000 6.7 90 09:38 24.11.2019
3648 Clouds 4 1010 93 6000 5.7 100 09:19 24.11.2019
3649 Clouds 4 1010 93 6000 5.7 100 08:56 24.11.2019
3650 Clouds 4 1009 93 6000 6.7 100 08:37 24.11.2019
3651 Clouds 4 1009 93 6000 6.7 100 08:18 24.11.2019
3652 Clouds 4 1009 93 6000 6.7 100 07:47 24.11.2019
3653 Clouds 4 1009 93 6000 6.7 100 07:20 24.11.2019
3654 Clouds 4 1009 93 7000 6.7 100 06:26 24.11.2019
3655 Clouds 5 1008 86 8000 6.2 100 04:54 24.11.2019
3656 Clouds 4 1008 86 8000 6.2 100 04:35 24.11.2019
3657 Clouds 5 1008 86 9000 7.7 100 02:35 24.11.2019
3658 Clouds 6 1008 81 10000 5.7 90 01:55 24.11.2019
3659 Clouds 5 1008 81 10000 5.7 90 01:32 24.11.2019
3660 Clouds 6 1008 81 10000 6.2 100 00:50 24.11.2019
3661 Clouds 6 1008 87 10000 4.6 90 00:25 24.11.2019
3662 Clouds 6 1008 87 10000 4.6 80 23:57 23.11.2019
3663 Clouds 6 1008 87 10000 4.6 80 23:38 23.11.2019
3664 Clouds 6 1008 87 10000 4.6 80 23:20 23.11.2019
3665 Clouds 6 1008 87 10000 4.6 90 22:55 23.11.2019
3666 Clouds 6 1008 87 10000 4.6 90 22:37 23.11.2019
3667 Clouds 6 1007 87 10000 5.1 80 22:19 23.11.2019
3668 Clouds 6 1008 87 10000 5.7 80 21:55 23.11.2019
3669 Clouds 6 1008 87 10000 5.7 80 21:36 23.11.2019
3670 Clouds 6 1007 87 10000 4.6 80 21:18 23.11.2019
3671 Clouds 6 1007 87 10000 5.7 90 20:38 23.11.2019
3672 Clouds 6 1007 87 10000 5.7 80 20:20 23.11.2019
3673 Clouds 6 1007 87 10000 5.7 80 20:20 23.11.2019
3674 Clouds 6 1007 87 10000 5.7 80 19:57 23.11.2019
3675 Clouds 6 1007 87 10000 6.7 80 19:38 23.11.2019
3676 Clouds 6 1007 87 10000 5.7 80 19:19 23.11.2019
3677 Clouds 6 1007 87 10000 7.2 80 18:56 23.11.2019
3678 Clouds 6 1007 87 10000 7.2 80 18:37 23.11.2019
3679 Clouds 6 1007 81 10000 7.7 90 18:19 23.11.2019
3680 Clouds 7 1006 81 10000 6.7 90 17:43 23.11.2019
3681 Clouds 7 1006 81 10000 6.2 90 17:21 23.11.2019
3682 Clouds 7 1006 87 10000 5.7 90 16:57 23.11.2019
3683 Clouds 7 1006 87 10000 5.7 90 16:38 23.11.2019
3684 Clouds 7 1006 87 10000 5.1 80 16:20 23.11.2019
3685 Clouds 7 1006 87 10000 5.1 80 15:58 23.11.2019
3686 Clouds 7 1006 81 10000 5.1 90 15:39 23.11.2019
3687 Clouds 7 1006 81 10000 6.7 90 15:19 23.11.2019
3688 Clouds 8 1006 81 10000 5.7 80 14:57 23.11.2019
3689 Clouds 7 1006 81 10000 5.7 80 14:38 23.11.2019
3690 Clouds 8 1006 81 10000 5.7 80 14:20 23.11.2019
3691 Clouds 8 1006 76 10000 6.7 80 13:44 23.11.2019
3692 Clouds 8 1006 81 10000 7.2 80 13:22 23.11.2019
3693 Clouds 8 1006 81 10000 7.2 80 12:59 23.11.2019
3694 Clouds 8 1006 76 10000 7.2 80 12:40 23.11.2019
3695 Clouds 8 1006 81 10000 6.7 80 12:22 23.11.2019
3696 Clouds 8 1007 81 10000 6.7 90 11:43 23.11.2019
3697 Clouds 8 1007 81 10000 6.7 90 11:43 23.11.2019
3698 Clouds 8 1007 81 10000 6.2 90 11:21 23.11.2019
3699 Clouds 8 1007 81 10000 7.2 90 10:45 23.11.2019
3700 Clouds 7 1007 81 10000 5.7 90 10:22 23.11.2019
3701 Clouds 7 1007 81 10000 5.1 100 09:58 23.11.2019
3702 Clouds 7 1007 81 10000 5.1 100 09:39 23.11.2019
3703 Clouds 7 1007 81 10000 6.2 100 09:18 23.11.2019
3704 Clouds 8 1007 87 10000 5.1 100 08:41 23.11.2019
3705 Clouds 8 1007 87 10000 5.1 100 08:18 23.11.2019
3706 Clouds 8 1006 87 10000 6.2 100 07:41 23.11.2019
3707 Clouds 8 1007 87 10000 6.2 100 06:52 23.11.2019
3708 Clouds 8 1007 87 10000 6.2 110 06:26 23.11.2019
3709 Clouds 8 1007 87 9000 5.7 100 05:57 23.11.2019
3710 Clouds 8 1007 87 8000 5.7 100 05:31 23.11.2019
3711 Clouds 8 1007 87 8000 5.7 110 04:57 23.11.2019
3712 Clouds 8 1007 87 8000 5.7 110 04:32 23.11.2019
3713 Clouds 8 1007 93 10000 5.1 110 03:26 23.11.2019
3714 Clouds 8 1007 87 10000 5.1 110 02:38 23.11.2019
3715 Clouds 8 1008 87 10000 5.1 110 01:40 23.11.2019
3716 Clouds 8 1008 81 10000 4.6 120 00:48 23.11.2019
3717 Clouds 8 1008 81 10000 6.7 120 00:20 23.11.2019
3718 Clouds 8 1008 81 10000 6.2 120 23:56 22.11.2019
3719 Clouds 8 1008 87 10000 5.1 120 23:37 22.11.2019
3720 Clouds 8 1008 87 10000 5.1 120 23:37 22.11.2019
3721 Clouds 8 1008 87 10000 5.1 120 23:18 22.11.2019
3722 Clouds 7 1008 87 10000 4.1 120 22:55 22.11.2019
3723 Clouds 7 1008 87 10000 4.1 120 22:37 22.11.2019
3724 Clouds 7 1008 87 10000 4.6 120 22:18 22.11.2019
3725 Clouds 7 1009 81 10000 5.1 110 21:41 22.11.2019
3726 Clouds 7 1009 81 10000 5.1 120 21:21 22.11.2019
3727 Clouds 7 1009 87 10000 5.1 120 20:56 22.11.2019
3728 Clouds 7 1009 87 10000 5.1 120 20:38 22.11.2019
3729 Clouds 6 1009 87 10000 4.6 110 20:20 22.11.2019
3730 Clouds 6 1009 93 8000 4.6 100 19:54 22.11.2019
3731 Clouds 6 1009 93 8000 4.6 100 19:36 22.11.2019
3732 Drizzle 6 1009 93 6000 4.1 140 19:18 22.11.2019
3733 Drizzle 6 1009 93 7000 5.7 130 18:39 22.11.2019
3734 Clouds 6 1009 93 9000 6.2 120 18:21 22.11.2019
3735 Clouds 6 1009 93 8000 5.7 110 17:43 22.11.2019
3736 Clouds 6 1009 93 8000 5.1 100 17:24 22.11.2019
3737 Clouds 6 1009 93 8000 5.1 100 16:59 22.11.2019
3738 Clouds 6 1009 93 8000 4.6 110 16:40 22.11.2019
3739 Clouds 6 1009 87 9000 3.6 110 16:22 22.11.2019
3740 Clouds 7 1009 87 8000 3.6 120 15:41 22.11.2019
3741 Clouds 7 1009 93 7000 4.1 140 15:23 22.11.2019
3742 Clouds 7 1009 93 6000 5.1 150 14:56 22.11.2019
3743 Clouds 7 1009 93 6000 5.1 150 14:37 22.11.2019
3744 Clouds 7 1009 93 6000 5.1 150 14:37 22.11.2019
3745 Clouds 7 1009 87 7000 5.1 150 14:19 22.11.2019
3746 Clouds 7 1009 87 7000 5.1 150 13:55 22.11.2019
3747 Clouds 7 1009 87 6000 4.6 150 13:36 22.11.2019
3748 Clouds 7 1009 81 7000 3.6 140 13:18 22.11.2019
3749 Clouds 7 1009 81 7000 3.6 140 13:18 22.11.2019
3750 Clouds 7 1009 81 7000 4.1 140 12:40 22.11.2019
3751 Clouds 7 1009 87 8000 4.1 150 12:20 22.11.2019
3752 Clouds 7 1009 87 8000 4.1 150 11:59 22.11.2019
3753 Clouds 7 1009 87 10000 3.6 150 11:39 22.11.2019
3754 Clouds 6 1009 87 10000 4.1 150 11:20 22.11.2019
3755 Clouds 6 1009 93 9000 3.1 150 10:59 22.11.2019
3756 Clouds 6 1009 93 9000 3.1 150 10:39 22.11.2019
3757 Clouds 6 1009 87 7000 3.6 140 10:21 22.11.2019
3758 Clouds 5 1009 87 7000 3.6 140 09:55 22.11.2019
3759 Clouds 5 1009 87 7000 3.6 150 09:37 22.11.2019
3760 Clouds 5 1009 93 7000 4.1 150 09:19 22.11.2019
3761 Clouds 5 1008 93 6000 3.6 140 08:46 22.11.2019
3762 Clouds 5 1008 93 6000 3.1 140 08:27 22.11.2019
3763 Clouds 5 1008 93 6000 3.6 140 08:27 22.11.2019
3764 Clouds 6 1008 93 10000 3.1 140 07:46 22.11.2019
3765 Clouds 6 1008 93 10000 3.6 160 07:23 22.11.2019
3766 Clouds 6 1008 93 10000 3.6 160 06:57 22.11.2019
3767 Clouds 6 1008 93 10000 3.6 160 06:37 22.11.2019
3768 Clouds 6 1007 93 10000 3.6 150 05:54 22.11.2019
3769 Clouds 7 1007 87 10000 3.6 150 04:51 22.11.2019
3770 Clouds 7 1007 93 10000 3.6 170 02:56 22.11.2019
3771 Clouds 7 1007 93 10000 3.6 170 02:32 22.11.2019
3772 Rain 8 1007 93 8000 2.6 150 01:46 22.11.2019
3773 Clouds 8 1007 93 8000 3.1 150 01:20 22.11.2019
3774 Clouds 8 1007 93 8000 3.1 150 00:54 22.11.2019
3775 Clouds 8 1007 93 8000 4.1 160 00:25 22.11.2019
3776 Clouds 8 1008 100 6000 2.6 130 23:57 21.11.2019
3777 Clouds 8 1008 100 6000 2.6 130 23:38 21.11.2019
3778 Mist 8 1008 100 4800 1.5 90 23:20 21.11.2019
3779 Drizzle 8 1008 100 3500 2.6 110 22:54 21.11.2019
3780 Drizzle 8 1008 100 3500 2.6 110 22:36 21.11.2019
3781 Drizzle 8 1008 100 2500 2.6 120 22:18 21.11.2019
3782 Drizzle 8 1008 100 2500 2.6 120 21:54 21.11.2019
3783 Drizzle 8 1008 100 1800 2.1 90 21:36 21.11.2019
3784 Drizzle 8 1008 100 2000 2.6 90 21:18 21.11.2019
3785 Drizzle 8 1008 100 2000 2.6 90 20:54 21.11.2019
3786 Rain 7 1009 100 3200 2.6 90 20:36 21.11.2019
3787 Drizzle 7 1009 93 3000 2.1 80 20:18 21.11.2019
3788 Rain 7 1009 93 2800 2.6 90 19:41 21.11.2019
3789 Mist 7 1009 93 2500 3.1 90 19:23 21.11.2019
3790 Mist 7 1009 93 2500 3.1 90 18:59 21.11.2019
3791 Rain 7 1009 93 2500 3.6 90 18:40 21.11.2019
3792 Rain 7 1009 100 3800 3.1 90 18:21 21.11.2019
3793 Rain 7 1009 100 3800 3.1 90 17:58 21.11.2019
3794 Rain 7 1009 100 4500 3.6 90 17:39 21.11.2019
3795 Rain 7 1009 93 4800 3.1 90 17:21 21.11.2019
3796 Rain 7 1009 93 4800 3.1 90 16:57 21.11.2019
3797 Mist 7 1010 93 4800 3.1 90 16:57 21.11.2019
3798 Mist 6 1010 93 4800 3.1 90 16:39 21.11.2019
3799 Rain 6 1010 93 4800 3.1 90 16:20 21.11.2019
3800 Rain 6 1010 93 4500 3.6 90 15:44 21.11.2019
3801 Rain 6 1010 93 4500 3.6 80 15:21 21.11.2019
3802 Rain 6 1010 93 4500 3.6 80 14:59 21.11.2019
3803 Mist 6 1010 100 4000 3.1 80 14:38 21.11.2019
3804 Mist 6 1010 100 4000 3.6 80 14:20 21.11.2019
3805 Rain 6 1011 93 4500 3.1 80 13:59 21.11.2019
3806 Rain 5 1011 93 4500 3.1 80 13:37 21.11.2019
3807 Clouds 5 1011 100 7000 2.6 50 13:19 21.11.2019
3808 Clouds 5 1012 100 7000 2.1 60 12:43 21.11.2019
3809 Drizzle 5 1012 93 4200 2.6 50 12:24 21.11.2019
3810 Mist 5 1012 93 4500 2.6 40 11:56 21.11.2019
3811 Mist 4 1012 93 4500 2.6 40 11:38 21.11.2019
3812 Drizzle 4 1013 100 3800 2.6 50 11:20 21.11.2019
3813 Drizzle 4 1013 100 3500 2.6 40 10:55 21.11.2019
3814 Drizzle 4 1013 100 3500 2.6 40 10:37 21.11.2019
3815 Drizzle 4 1013 93 3500 2.1 30 10:19 21.11.2019
3816 Drizzle 3 1013 93 3500 2.1 40 09:43 21.11.2019
3817 Drizzle 3 1014 93 4000 2.6 50 09:23 21.11.2019
3818 Drizzle 3 1014 93 4000 2.6 50 08:58 21.11.2019
3819 Clouds 3 1014 100 7000 2.1 40 08:39 21.11.2019
3820 Clouds 3 1014 93 8000 2.1 40 08:18 21.11.2019
3821 Clouds 3 1014 93 8000 2.1 40 07:40 21.11.2019
3822 Clouds 3 1014 93 7000 1.5 40 07:18 21.11.2019
3823 Clouds 3 1014 93 6000 1.5 50 06:47 21.11.2019
3824 Mist 3 1014 93 5000 2.1 50 06:28 21.11.2019
3825 Mist 3 1015 93 4500 2.1 60 05:27 21.11.2019
3826 Clouds 3 1015 86 10000 1.5 120 03:32 21.11.2019
3827 Clouds 3 1016 93 8000 2.6 120 02:40 21.11.2019
3828 Clouds 3 1016 93 6000 2.6 130 01:53 21.11.2019
3829 Clouds 4 1016 93 6000 2.6 130 01:53 21.11.2019
3830 Mist 4 1016 100 5000 0.5 70 01:25 21.11.2019
3831 Mist 4 1016 100 5000 1 330 00:54 21.11.2019
3832 Mist 4 1016 100 5000 0.5 320 00:21 21.11.2019
3833 Mist 4 1016 100 5000 1 310 23:55 20.11.2019
3834 Mist 4 1016 100 5000 1 310 23:37 20.11.2019
3835 Drizzle 4 1016 100 5000 1 310 23:19 20.11.2019
3836 Drizzle 4 1016 100 5000 0.5 0 22:55 20.11.2019
3837 Drizzle 4 1016 100 5000 0.5 0 22:36 20.11.2019
3838 Drizzle 4 1016 100 4900 0.5 10 22:18 20.11.2019
3839 Drizzle 4 1017 100 4800 1 310 21:55 20.11.2019
3840 Drizzle 4 1017 100 4800 1 310 21:36 20.11.2019
3841 Drizzle 4 1017 100 4800 0.5 360 21:18 20.11.2019
3842 Drizzle 4 1017 100 5000 0.5 0 20:54 20.11.2019
3843 Mist 4 1017 100 5000 1 290 20:36 20.11.2019
3844 Mist 4 1017 100 5000 1 290 20:18 20.11.2019
3845 Mist 4 1017 100 5000 1 290 20:18 20.11.2019
3846 -273 0 0 0 0 0 19:54 20.11.2019
3847 Clouds 4 1017 93 6000 1 330 19:36 20.11.2019
3848 Clouds 4 1017 93 6000 1 330 19:36 20.11.2019
3849 Clouds 4 1017 93 6000 1 0 19:18 20.11.2019
3850 Clouds 4 1017 93 6000 1 0 19:18 20.11.2019
3851 Rain 4 1017 93 6000 1 0 18:55 20.11.2019
3852 Rain 4 1017 93 6000 1 0 18:36 20.11.2019
3853 Rain 4 1017 100 6000 1 0 18:18 20.11.2019
3854 Clouds 4 1017 93 7000 1 300 17:54 20.11.2019
3855 Clouds 4 1017 93 7000 1 300 17:36 20.11.2019
3856 Clouds 4 1017 100 6000 1.5 330 17:18 20.11.2019
3857 Mist 4 1017 100 5000 2.1 330 16:41 20.11.2019
3858 Mist 4 1017 93 4800 2.1 310 16:20 20.11.2019
3859 Mist 4 1017 93 4800 2.1 310 15:57 20.11.2019
3860 Mist 4 1017 93 4800 2.1 310 15:57 20.11.2019
3861 Rain 4 1017 93 4800 2.1 310 15:39 20.11.2019
3862 Rain 4 1018 93 4800 2.6 330 15:20 20.11.2019
3863 Rain 4 1018 93 4500 2.1 300 14:56 20.11.2019
3864 Rain 4 1018 93 4500 2.1 300 14:38 20.11.2019
3865 Rain 4 1018 93 4500 1.5 310 14:19 20.11.2019
3866 Rain 4 1018 93 4500 2.1 330 13:55 20.11.2019
3867 Rain 4 1018 93 4500 2.1 330 13:37 20.11.2019
3868 Rain 4 1018 93 4500 1.5 320 13:18 20.11.2019
3869 Rain 4 1019 93 4500 1 0 12:42 20.11.2019
3870 Rain 4 1019 93 4200 1 310 12:23 20.11.2019
3871 Rain 4 1019 93 4600 1 0 11:57 20.11.2019
3872 Rain 4 1019 93 4600 1 0 11:37 20.11.2019
3873 Rain 3 1019 93 4000 0.5 0 11:18 20.11.2019
3874 Rain 3 1020 93 3000 1 0 10:55 20.11.2019
3875 Rain 3 1020 93 3000 1 0 10:36 20.11.2019
3876 Rain 3 1020 93 3000 2.1 60 10:18 20.11.2019
3877 Rain 3 1020 93 3000 2.1 60 10:18 20.11.2019
3878 Mist 3 1019 93 2900 1 50 09:42 20.11.2019
3879 Mist 3 1020 93 2900 1 0 09:21 20.11.2019
3880 Mist 3 1019 93 2500 0.5 0 08:54 20.11.2019
3881 Mist 3 1019 93 2500 0.5 0 08:36 20.11.2019
3882 Mist 3 1019 93 2700 0.5 0 08:18 20.11.2019
3883 Mist 3 1019 93 4500 0.5 0 07:40 20.11.2019
3884 Mist 3 1019 93 4600 2.1 210 07:21 20.11.2019
3885 Mist 3 1019 93 4000 1.5 210 06:46 20.11.2019
3886 Mist 3 1019 93 4000 1.5 180 06:19 20.11.2019
3887 Mist 3 1019 93 5000 1.5 10 04:51 20.11.2019
3888 Mist 3 1019 100 5000 1 0 03:28 20.11.2019
3889 Mist 4 1019 93 5000 1.5 230 02:18 20.11.2019
3890 Clouds 4 1019 93 6000 1.5 260 01:32 20.11.2019
3891 Clouds 4 1019 93 6000 2.1 170 00:40 20.11.2019
3892 Clouds 4 1019 93 6000 2.6 210 23:54 19.11.2019
3893 Clouds 4 1018 93 6000 3.1 210 23:26 19.11.2019
3894 Clouds 4 1018 93 6000 3.1 210 22:58 19.11.2019
3895 Clouds 4 1018 93 6000 3.6 200 22:39 19.11.2019
3896 Clouds 4 1018 93 6000 3.6 210 22:19 19.11.2019
3897 Clouds 4 1018 93 7000 4.1 210 21:56 19.11.2019
3898 Clouds 4 1018 93 7000 4.1 210 21:37 19.11.2019
3899 Clouds 4 1018 93 7000 4.1 210 21:19 19.11.2019
3900 Clouds 5 1018 93 7000 4.1 210 20:56 19.11.2019
3901 Clouds 5 1017 93 10000 3.6 220 20:38 19.11.2019
3902 Clouds 5 1017 93 10000 3.1 220 20:19 19.11.2019
3903 Clouds 5 1017 93 10000 4.1 210 19:56 19.11.2019
3904 Clouds 5 1017 93 10000 4.1 210 19:38 19.11.2019
3905 Clouds 5 1016 93 10000 4.1 210 19:19 19.11.2019
3906 Clouds 6 1016 87 10000 4.1 210 18:55 19.11.2019
3907 Clouds 6 1016 87 10000 4.1 210 18:36 19.11.2019
3908 Clouds 6 1016 87 10000 4.6 210 18:18 19.11.2019
3909 Clouds 7 1015 87 10000 4.1 230 17:55 19.11.2019
3910 Clouds 7 1015 87 10000 4.1 230 17:37 19.11.2019
3911 Clouds 7 1015 87 10000 4.1 230 17:37 19.11.2019
3912 Clouds 7 1015 87 10000 4.6 220 17:18 19.11.2019
3913 Clouds 7 1015 81 10000 4.1 220 16:43 19.11.2019
3914 Clouds 8 1015 81 10000 4.1 220 16:24 19.11.2019
3915 Clouds 8 1014 81 10000 5.1 230 15:59 19.11.2019
3916 Clouds 8 1014 81 10000 5.1 230 15:39 19.11.2019
3917 Rain 8 1014 76 10000 5.7 230 15:21 19.11.2019
3918 Clouds 9 1013 81 10000 5.7 230 14:56 19.11.2019
3919 Clouds 9 1013 81 10000 5.7 230 14:37 19.11.2019
3920 Rain 9 1013 76 10000 6.7 220 14:19 19.11.2019
3921 Clouds 8 1012 81 10000 6.7 230 13:40 19.11.2019
3922 Clouds 8 1012 81 10000 7.2 230 13:19 19.11.2019
3923 Clouds 8 1012 81 10000 6.7 230 12:41 19.11.2019
3924 Clouds 8 1011 87 10000 6.7 230 12:23 19.11.2019
3925 Clouds 8 1011 87 10000 6.7 230 11:59 19.11.2019
3926 Clouds 8 1011 87 10000 7.2 230 11:39 19.11.2019
3927 Clouds 8 1011 87 10000 7.2 230 11:20 19.11.2019
3928 Drizzle 7 1010 87 10000 7.2 230 10:48 19.11.2019
3929 Drizzle 7 1009 87 10000 7.7 230 10:23 19.11.2019
3930 Drizzle 7 1009 87 10000 7.7 230 10:23 19.11.2019
3931 Drizzle 7 1009 87 10000 8.2 230 09:59 19.11.2019
3932 Drizzle 7 1009 87 10000 8.2 230 09:41 19.11.2019
3933 Drizzle 7 1008 87 10000 7.2 230 09:19 19.11.2019
3934 Drizzle 7 1008 87 10000 7.2 230 09:19 19.11.2019
3935 Rain 7 1007 87 10000 7.7 240 08:55 19.11.2019
3936 Rain 7 1007 87 10000 7.7 240 08:37 19.11.2019
3937 Drizzle 7 1006 87 10000 7.7 240 08:19 19.11.2019
3938 Drizzle 7 1005 87 10000 7.2 240 07:42 19.11.2019
3939 Rain 7 1004 87 10000 7.7 240 07:22 19.11.2019
3940 Rain 7 1003 87 10000 7.7 240 06:52 19.11.2019
3941 Rain 7 1003 87 10000 7.7 240 06:33 19.11.2019
3942 Drizzle 6 1002 93 10000 7.2 230 05:49 19.11.2019
3943 Drizzle 5 1002 93 7000 5.7 160 04:46 19.11.2019
3944 Drizzle 5 1002 93 10000 7.2 150 03:35 19.11.2019
3945 Drizzle 5 1002 86 10000 7.2 160 02:59 19.11.2019
3946 Clouds 5 1002 81 10000 7.7 160 02:33 19.11.2019
3947 Clouds 5 1003 81 10000 7.7 150 01:46 19.11.2019
3948 Clouds 5 1003 81 10000 7.7 160 00:37 19.11.2019
3949 Clouds 5 1003 81 10000 7.2 170 00:19 19.11.2019
3950 Clouds 5 1003 81 10000 6.7 180 23:37 18.11.2019
3951 Clouds 5 1004 81 10000 5.7 180 23:19 18.11.2019
3952 Clouds 5 1004 87 10000 6.2 170 22:46 18.11.2019
3953 Clouds 5 1004 87 10000 6.2 170 22:24 18.11.2019
3954 Clouds 5 1004 81 10000 5.7 170 21:57 18.11.2019
3955 Clouds 5 1004 87 10000 6.2 180 21:39 18.11.2019
3956 Clouds 5 1004 87 10000 6.2 180 21:20 18.11.2019
3957 Clouds 6 1004 87 10000 6.2 180 20:57 18.11.2019
3958 Clouds 6 1004 87 10000 6.2 180 20:57 18.11.2019
3959 Clouds 6 1004 87 10000 6.2 180 20:39 18.11.2019
3960 Rain 6 1004 87 10000 6.2 180 20:18 18.11.2019
3961 Rain 6 1004 87 10000 5.7 190 19:56 18.11.2019
3962 Rain 6 1004 87 10000 5.7 190 19:38 18.11.2019
3963 Rain 6 1004 93 7000 4.6 170 19:19 18.11.2019
3964 Rain 6 1004 93 7000 4.6 170 18:56 18.11.2019
3965 Drizzle 6 1004 87 7000 5.1 190 18:38 18.11.2019
3966 Drizzle 6 1004 87 7000 5.7 180 18:19 18.11.2019
3967 Drizzle 7 1004 93 5000 4.1 190 17:55 18.11.2019
3968 Drizzle 7 1004 93 5000 4.1 190 17:36 18.11.2019
3969 Drizzle 7 1004 93 5000 4.1 190 17:18 18.11.2019
3970 Mist 7 1004 93 5000 3.6 210 16:42 18.11.2019
3971 Mist 7 1003 93 5000 4.6 220 16:23 18.11.2019
3972 Mist 7 1003 93 5000 4.6 220 15:57 18.11.2019
3973 Clouds 7 1004 93 6000 4.1 220 15:39 18.11.2019
3974 Clouds 7 1004 93 6000 4.1 210 15:20 18.11.2019
3975 Clouds 8 1004 87 6000 4.1 210 14:44 18.11.2019
3976 Clouds 8 1003 87 6000 3.1 230 14:24 18.11.2019
3977 Clouds 8 1003 87 6000 3.1 230 13:59 18.11.2019
3978 Clouds 8 1003 87 6000 2.6 230 13:41 18.11.2019
3979 Clouds 8 1003 93 6000 2.1 220 13:23 18.11.2019
3980 Clouds 8 1003 93 6000 2.6 220 12:40 18.11.2019
3981 Mist 8 1003 93 5000 1.5 250 12:20 18.11.2019
3982 Mist 8 1004 93 5000 2.1 240 11:56 18.11.2019
3983 Mist 8 1004 93 5000 2.1 240 11:37 18.11.2019
3984 Mist 8 1004 93 4800 2.6 220 11:19 18.11.2019
3985 Mist 8 1004 93 4000 3.1 220 10:42 18.11.2019
3986 Mist 8 1004 93 4000 3.1 220 10:42 18.11.2019
3987 Mist 8 1004 93 4500 2.6 190 10:23 18.11.2019
3988 Mist 7 1004 93 5000 2.6 190 09:57 18.11.2019
3989 Mist 8 1004 93 5000 2.6 190 09:38 18.11.2019
3990 Mist 7 1004 93 5000 1 0 09:20 18.11.2019
3991 Mist 7 1003 93 5000 1.5 60 08:47 18.11.2019
3992 Mist 7 1003 93 5000 1.5 60 08:24 18.11.2019
3993 Clouds 7 1004 93 6000 1.5 80 07:58 18.11.2019
3994 Clouds 7 1003 93 6000 1 0 07:38 18.11.2019
3995 Clouds 7 1003 93 7000 1 0 07:20 18.11.2019
3996 Mist 7 1003 93 5000 2.6 100 06:43 18.11.2019
3997 Mist 7 1003 93 5000 3.1 70 06:25 18.11.2019
3998 Clouds 7 1003 93 6000 3.6 60 05:42 18.11.2019
3999 Clouds 7 1004 93 8000 3.1 60 03:59 18.11.2019
4000 Clouds 7 1005 93 10000 3.1 30 01:40 18.11.2019
4001 Clouds 6 1007 93 10000 3.1 20 00:54 18.11.2019
4002 Clouds 6 1007 87 10000 4.1 20 00:20 18.11.2019
4003 Clouds 6 1007 87 10000 4.1 20 23:41 17.11.2019
4004 Clouds 6 1007 87 10000 4.1 20 23:21 17.11.2019
4005 Clouds 6 1008 93 10000 4.1 20 22:57 17.11.2019
4006 Clouds 6 1008 93 10000 4.1 20 22:39 17.11.2019
4007 Clouds 6 1009 93 10000 4.6 20 22:21 17.11.2019
4008 Clouds 6 1009 93 10000 4.6 20 21:57 17.11.2019
4009 Clouds 6 1009 93 10000 4.6 20 21:38 17.11.2019
4010 Clouds 6 1010 93 10000 4.1 10 21:18 17.11.2019
4011 Drizzle 5 1010 93 10000 4.1 360 20:55 17.11.2019
4012 Drizzle 5 1010 93 10000 4.1 360 20:37 17.11.2019
4013 Rain 5 1011 100 7000 3.6 10 20:18 17.11.2019
4014 Rain 5 1011 100 7000 3.6 10 19:55 17.11.2019
4015 Rain 5 1011 87 7000 3.6 360 19:37 17.11.2019
4016 Rain 5 1011 87 10000 3.1 20 19:19 17.11.2019
4017 Rain 5 1011 81 10000 4.1 20 18:54 17.11.2019
4018 Rain 5 1011 81 10000 4.1 20 18:36 17.11.2019
4019 Rain 5 1011 81 10000 4.1 20 18:18 17.11.2019
4020 Rain 5 1011 81 10000 4.1 30 17:57 17.11.2019
4021 Rain 5 1011 81 10000 4.1 30 17:38 17.11.2019
4022 Clouds 5 1012 80 10000 3.1 20 17:19 17.11.2019
4023 Clouds 5 1012 80 10000 3.1 20 17:19 17.11.2019
4024 Clouds 5 1012 80 10000 3.1 30 16:55 17.11.2019
4025 Clouds 5 1012 80 10000 3.1 30 16:55 17.11.2019
4026 Clouds 5 1012 80 10000 3.1 30 16:37 17.11.2019
4027 Clouds 5 1012 80 10000 2.6 10 16:19 17.11.2019
4028 Clouds 5 1013 86 10000 2.6 20 15:54 17.11.2019
4029 Clouds 5 1013 86 10000 2.6 20 15:36 17.11.2019
4030 Clouds 5 1013 81 10000 2.1 40 15:18 17.11.2019
4031 Clouds 5 1013 81 10000 2.1 40 15:18 17.11.2019
4032 Clouds 5 1013 81 10000 2.6 50 14:54 17.11.2019
4033 Clouds 5 1013 81 10000 2.6 50 14:36 17.11.2019
4034 Clouds 5 1013 81 10000 2.6 60 14:18 17.11.2019
4035 Clouds 5 1014 81 10000 2.6 60 13:40 17.11.2019
4036 Clouds 5 1014 81 10000 2.1 60 13:21 17.11.2019
4037 Clouds 5 1014 86 10000 2.6 80 12:59 17.11.2019
4038 Clouds 4 1014 86 10000 2.1 90 12:38 17.11.2019
4039 Clouds 4 1014 86 10000 2.6 90 12:19 17.11.2019
4040 Clouds 4 1015 86 10000 2.1 110 11:55 17.11.2019
4041 Clouds 3 1015 86 10000 2.1 110 11:37 17.11.2019
4042 Clouds 2 1015 86 10000 1.5 110 11:18 17.11.2019
4043 Clouds 1 1015 93 10000 1.5 140 10:41 17.11.2019
4044 Clouds 1 1015 87 10000 2.1 100 10:22 17.11.2019
4045 Clouds 0 1015 87 9000 2.1 110 09:43 17.11.2019
4046 Clouds 0 1015 87 9000 2.1 130 09:24 17.11.2019
4047 Clouds 0 1015 87 9000 2.1 130 09:24 17.11.2019
4048 Clouds 0 1015 87 9000 2.1 130 08:58 17.11.2019
4049 Clouds 0 1015 87 8000 3.1 150 08:37 17.11.2019
4050 Clouds 0 1015 91 7000 2.6 150 08:19 17.11.2019
4051 Clouds 0 1014 91 7000 4.1 150 07:45 17.11.2019
4052 Fog 0 1014 91 9000 3.1 130 07:22 17.11.2019
4053 Fog 1 1014 91 9000 3.1 130 06:56 17.11.2019
4054 Clouds 1 1013 91 10000 1.5 130 06:31 17.11.2019
4055 Clouds 1 1013 91 10000 2.1 160 05:39 17.11.2019
4056 Clear 2 1013 92 10000 2.6 140 04:23 17.11.2019
4057 Clear 2 1013 92 10000 1.5 120 03:43 17.11.2019
4058 Clear 2 1013 93 10000 3.1 150 03:23 17.11.2019
4059 Clouds 2 1012 93 10000 2.1 160 02:25 17.11.2019
4060 Clouds 2 1011 86 10000 2.1 200 01:25 17.11.2019
4061 Clouds 3 1011 86 10000 4.1 200 00:53 17.11.2019
4062 Clouds 3 1011 80 10000 4.1 220 00:22 17.11.2019
4063 Clouds 3 1011 86 10000 4.6 210 23:44 16.11.2019
4064 Clouds 3 1011 86 10000 6.2 210 23:20 16.11.2019
4065 Clouds 4 1011 86 10000 6.2 210 22:59 16.11.2019
4066 Clouds 4 1011 80 10000 6.7 210 22:40 16.11.2019
4067 Clouds 4 1010 80 10000 7.7 210 22:19 16.11.2019
4068 Clouds 4 1010 80 10000 6.2 210 21:42 16.11.2019
4069 Clouds 4 1010 80 10000 6.2 210 21:24 16.11.2019
4070 Clouds 4 1009 86 10000 8.2 210 20:59 16.11.2019
4071 Clouds 5 1009 86 10000 8.2 210 20:41 16.11.2019
4072 Rain 5 1009 86 10000 7.2 210 20:20 16.11.2019
4073 Rain 5 1009 86 10000 7.2 210 19:58 16.11.2019
4074 Clouds 5 1008 86 10000 7.7 220 19:39 16.11.2019
4075 Clouds 5 1008 86 10000 6.7 200 19:20 16.11.2019
4076 Rain 5 1007 93 8000 6.2 220 18:46 16.11.2019
4077 Rain 5 1007 93 8000 6.2 220 18:28 16.11.2019
4078 Rain 5 1006 93 5000 6.2 230 17:57 16.11.2019
4079 Rain 5 1006 93 5000 6.2 230 17:38 16.11.2019
4080 Rain 5 1006 93 5000 7.2 230 17:19 16.11.2019
4081 Rain 5 1006 93 4500 5.1 230 16:48 16.11.2019
4082 Rain 5 1006 93 4500 5.1 230 16:48 16.11.2019
4083 Drizzle 5 1006 93 4000 5.7 230 16:30 16.11.2019
4084 Drizzle 5 1006 93 4000 5.7 230 15:59 16.11.2019
4085 Rain 5 1005 86 5000 6.7 240 15:39 16.11.2019
4086 Rain 5 1005 86 5000 7.7 240 15:21 16.11.2019
4087 Drizzle 5 1004 86 5000 7.2 240 14:57 16.11.2019
4088 Drizzle 5 1004 86 5000 7.2 240 14:39 16.11.2019
4089 Drizzle 5 1004 86 5000 5.1 240 14:21 16.11.2019
4090 Drizzle 5 1004 93 5000 6.2 240 13:55 16.11.2019
4091 Drizzle 5 1004 93 5000 6.2 240 13:37 16.11.2019
4092 Rain 5 1003 93 5000 7.2 230 13:18 16.11.2019
4093 Rain 6 1003 93 5000 7.2 230 12:54 16.11.2019
4094 Rain 6 1003 93 5000 5.1 230 12:36 16.11.2019
4095 Rain 6 1003 93 5000 5.1 230 12:18 16.11.2019
4096 Rain 6 1003 100 5000 4.6 240 11:41 16.11.2019
4097 Rain 6 1002 100 4200 4.6 250 11:23 16.11.2019
4098 Rain 7 1002 93 3500 4.1 240 10:55 16.11.2019
4099 Rain 7 1002 93 3500 4.1 240 10:37 16.11.2019
4100 Rain 7 1002 93 2500 2.6 230 10:18 16.11.2019
4101 Drizzle 7 1003 93 2000 1 250 09:40 16.11.2019
4102 Drizzle 7 1003 93 1200 1 0 09:20 16.11.2019
4103 Drizzle 7 1002 93 1200 2.1 320 08:56 16.11.2019
4104 Drizzle 7 1002 93 1200 2.1 320 08:36 16.11.2019
4105 Drizzle 7 1002 100 1500 2.6 310 08:18 16.11.2019
4106 Drizzle 7 1002 100 1500 1 0 07:41 16.11.2019
4107 Mist 7 1003 100 3000 0.5 0 07:19 16.11.2019
4108 Mist 7 1002 100 3500 1.5 330 06:43 16.11.2019
4109 Mist 7 1003 100 3500 1.5 330 06:23 16.11.2019
4110 Mist 6 1003 100 4000 1.5 340 04:47 16.11.2019
4111 Mist 6 1004 100 4500 1.5 220 03:26 16.11.2019
4112 Mist 6 1004 93 5000 2.1 40 02:54 16.11.2019
4113 Clouds 7 1004 87 7000 3.1 50 01:43 16.11.2019
4114 Clouds 7 1004 93 7000 2.1 40 00:59 16.11.2019
4115 Clouds 7 1005 93 7000 1.5 40 00:37 16.11.2019
4116 Clouds 7 1005 93 7000 1 0 00:18 16.11.2019
4117 Clouds 7 1005 93 8000 1 70 23:39 15.11.2019
4118 Clouds 7 1005 87 8000 1.5 100 23:20 15.11.2019
4119 Clouds 7 1004 93 8000 2.1 60 22:43 15.11.2019
4120 Clouds 7 1005 81 8000 2.1 70 22:20 15.11.2019
4121 Clouds 7 1005 81 8000 2.1 70 22:00 15.11.2019
4122 Clouds 7 1005 87 8000 2.6 90 21:40 15.11.2019
4123 Clouds 7 1005 81 8000 3.1 90 21:20 15.11.2019
4124 Clouds 7 1005 81 8000 3.1 90 20:58 15.11.2019
4125 Clouds 7 1005 81 8000 3.6 100 20:39 15.11.2019
4126 Clouds 7 1005 81 8000 3.6 100 20:39 15.11.2019
4127 Clouds 7 1005 87 8000 3.6 80 20:21 15.11.2019
4128 Clouds 7 1005 87 8000 5.1 70 19:58 15.11.2019
4129 Clouds 7 1005 87 8000 5.1 70 19:40 15.11.2019
4130 Clouds 7 1005 87 8000 5.1 70 19:20 15.11.2019
4131 Clouds 7 1004 87 7000 5.1 70 18:58 15.11.2019
4132 Clouds 6 1004 87 7000 5.1 70 18:40 15.11.2019
4133 Clouds 6 1005 87 7000 4.6 60 18:21 15.11.2019
4134 Clouds 6 1005 93 6000 4.1 70 17:43 15.11.2019
4135 Drizzle 6 1005 93 5000 4.1 70 17:25 15.11.2019
4136 Mist 6 1005 93 5000 4.6 80 16:57 15.11.2019
4137 Mist 6 1005 93 5000 4.6 80 16:38 15.11.2019
4138 Clouds 6 1005 93 6000 5.7 70 16:20 15.11.2019
4139 Clouds 6 1005 87 6000 5.7 70 15:39 15.11.2019
4140 Clouds 6 1005 87 7000 6.2 70 15:20 15.11.2019
4141 Clouds 6 1005 87 7000 6.2 70 14:58 15.11.2019
4142 Clouds 6 1005 87 7000 5.7 80 14:40 15.11.2019
4143 Clouds 5 1005 81 8000 5.7 70 14:21 15.11.2019
4144 Clouds 5 1005 81 8000 5.7 70 13:59 15.11.2019
4145 Clouds 5 1005 81 8000 5.7 70 13:40 15.11.2019
4146 Clouds 5 1005 86 8000 6.7 70 13:21 15.11.2019
4147 Clouds 5 1005 86 8000 6.7 70 12:59 15.11.2019
4148 Clouds 5 1005 86 9000 6.7 80 12:41 15.11.2019
4149 Clouds 5 1005 86 9000 6.7 80 12:41 15.11.2019
4150 Clouds 5 1006 86 8000 8.2 90 12:21 15.11.2019
4151 Clouds 5 1006 86 8000 8.2 90 11:59 15.11.2019
4152 Clouds 5 1005 80 7000 7.7 80 11:39 15.11.2019
4153 Clouds 4 1005 80 7000 8.2 80 11:21 15.11.2019
4154 Clouds 4 1005 80 7000 8.2 80 10:57 15.11.2019
4155 Clouds 4 1006 80 6000 6.7 80 10:39 15.11.2019
4156 Clouds 4 1006 80 7000 7.2 80 10:20 15.11.2019
4157 Clouds 4 1006 86 7000 6.7 80 09:41 15.11.2019
4158 Clouds 4 1006 86 8000 7.7 80 09:20 15.11.2019
4159 Clouds 4 1006 86 8000 7.7 80 08:57 15.11.2019
4160 Clouds 4 1007 80 9000 7.2 80 08:39 15.11.2019
4161 Clouds 4 1006 80 10000 6.7 80 08:18 15.11.2019
4162 Clouds 3 1007 80 10000 7.2 80 07:42 15.11.2019
4163 Clouds 3 1007 80 10000 6.7 80 07:22 15.11.2019
4164 Clouds 3 1007 80 10000 6.7 80 06:36 15.11.2019
4165 Clouds 3 1007 80 10000 6.7 80 06:36 15.11.2019
4166 Clouds 3 1007 80 10000 7.2 100 05:52 15.11.2019
4167 Clouds 3 1008 80 10000 8.7 90 05:31 15.11.2019
4168 Clouds 3 1008 80 10000 6.7 100 04:53 15.11.2019
4169 Clouds 3 1009 86 10000 6.2 80 03:39 15.11.2019
4170 Clouds 3 1009 86 10000 4.6 70 02:34 15.11.2019
4171 Clouds 3 1009 86 10000 4.6 70 01:55 15.11.2019
4172 Clouds 3 1009 86 10000 4.6 70 01:32 15.11.2019
4173 Clouds 3 1009 86 10000 4.1 80 00:41 15.11.2019
4174 Clouds 3 1009 86 10000 4.6 80 00:23 15.11.2019
4175 Clouds 3 1010 86 10000 4.1 90 23:46 14.11.2019
4176 Clouds 3 1010 86 10000 4.6 90 23:26 14.11.2019
4177 Clouds 3 1010 86 10000 5.1 90 22:42 14.11.2019
4178 Clouds 3 1009 86 10000 4.1 90 22:23 14.11.2019
4179 Clouds 3 1009 86 10000 4.1 90 22:23 14.11.2019
4180 Clouds 4 1009 80 10000 5.1 90 21:59 14.11.2019
4181 Clouds 4 1009 80 10000 5.1 90 21:41 14.11.2019
4182 Clouds 4 1010 80 10000 4.1 90 21:22 14.11.2019
4183 Clouds 4 1009 80 10000 4.1 90 20:55 14.11.2019
4184 Clouds 4 1009 80 10000 4.1 90 20:37 14.11.2019
4185 Clouds 4 1009 80 10000 5.1 90 20:19 14.11.2019
4186 Clouds 4 1009 80 10000 5.1 90 19:57 14.11.2019
4187 Clouds 5 1010 80 10000 5.1 100 19:38 14.11.2019
4188 Clouds 5 1009 80 10000 4.6 100 19:18 14.11.2019
4189 Clouds 4 1009 80 10000 3.6 100 18:43 14.11.2019
4190 Clouds 4 1009 80 10000 3.6 100 18:43 14.11.2019
4191 Clouds 5 1008 80 10000 3.6 90 18:24 14.11.2019
4192 Clouds 5 1008 80 10000 3.6 90 17:58 14.11.2019
4193 Clouds 5 1008 75 10000 2.6 90 17:38 14.11.2019
4194 Clouds 5 1008 75 10000 2.6 90 17:20 14.11.2019
4195 Clouds 5 1008 75 10000 3.6 100 16:58 14.11.2019
4196 Clouds 6 1008 75 10000 3.6 100 16:39 14.11.2019
4197 Clouds 6 1008 75 10000 3.6 100 16:20 14.11.2019
4198 Clouds 7 1008 75 10000 3.6 90 15:58 14.11.2019
4199 Clouds 7 1008 75 10000 3.6 90 15:39 14.11.2019
4200 Clouds 7 1007 75 10000 4.6 100 15:20 14.11.2019
4201 Clouds 7 1007 75 10000 4.6 100 14:58 14.11.2019
4202 Clouds 7 1007 70 10000 4.6 100 14:40 14.11.2019
4203 Clouds 8 1007 70 10000 4.1 100 14:21 14.11.2019
4204 Clouds 7 1007 70 10000 3.6 100 13:55 14.11.2019
4205 Clouds 7 1007 70 10000 3.6 100 13:36 14.11.2019
4206 Clouds 7 1008 75 10000 3.1 160 13:18 14.11.2019
4207 Clear 7 1008 70 10000 4.6 170 12:44 14.11.2019
4208 Clear 7 1007 75 10000 4.6 160 12:24 14.11.2019
4209 Clear 6 1007 75 10000 3.6 150 11:56 14.11.2019
4210 Clear 6 1007 75 10000 3.6 150 11:38 14.11.2019
4211 Clouds 5 1007 81 10000 3.1 140 11:19 14.11.2019
4212 Clouds 5 1007 86 10000 4.1 160 10:57 14.11.2019
4213 Clouds 5 1007 86 10000 4.1 160 10:37 14.11.2019
4214 Clouds 4 1007 93 10000 3.6 150 10:19 14.11.2019
4215 Clouds 4 1007 93 10000 3.6 150 09:55 14.11.2019
4216 Clouds 3 1005 93 8000 1.5 70 09:37 14.11.2019
4217 Clouds 2 1005 93 8000 1.5 70 09:18 14.11.2019
4218 Clouds 2 1005 93 8000 1.5 70 08:46 14.11.2019
4219 Clouds 2 1005 100 8000 2.6 140 08:24 14.11.2019
4220 Fog 2 1005 100 7000 2.6 130 07:43 14.11.2019
4221 Clouds 2 1004 93 8000 3.6 160 07:25 14.11.2019
4222 Clouds 3 1004 93 10000 3.1 150 06:55 14.11.2019
4223 Clouds 3 1004 93 10000 3.1 150 06:37 14.11.2019
4224 Clouds 3 1003 93 10000 2.6 150 06:18 14.11.2019
4225 Clouds 5 1003 93 10000 1 0 04:40 14.11.2019
4226 Clouds 5 1003 93 10000 1 0 03:52 14.11.2019
4227 Clouds 4 1002 93 10000 1 0 02:41 14.11.2019
4228 Clouds 4 1002 93 8000 2.1 190 01:41 14.11.2019
4229 Clouds 4 1002 93 8000 2.1 210 01:20 14.11.2019
4230 Clouds 4 1002 93 8000 2.6 230 00:48 14.11.2019
4231 Clouds 4 1001 93 10000 2.6 210 00:25 14.11.2019
4232 Clouds 4 1001 93 10000 3.1 210 23:41 13.11.2019
4233 Clouds 4 1001 93 10000 3.1 220 23:21 13.11.2019
4234 Clouds 4 1001 93 10000 3.1 220 22:56 13.11.2019
4235 Clouds 5 1001 93 10000 3.6 210 22:38 13.11.2019
4236 Clouds 5 1001 93 10000 4.6 210 22:20 13.11.2019
4237 Clouds 5 1001 87 10000 5.1 210 21:55 13.11.2019
4238 Clouds 5 1001 87 10000 5.1 210 21:55 13.11.2019
4239 Clouds 5 1001 87 10000 5.1 210 21:37 13.11.2019
4240 Clouds 5 1000 87 10000 5.7 210 21:19 13.11.2019
4241 Clouds 5 1000 87 10000 6.2 210 20:56 13.11.2019
4242 Clouds 5 1000 87 10000 6.2 210 20:37 13.11.2019
4243 Clouds 5 1000 81 10000 5.1 200 20:19 13.11.2019
4244 Clouds 5 1000 87 10000 4.6 200 19:56 13.11.2019
4245 Clouds 5 1000 87 10000 4.6 200 19:37 13.11.2019
4246 Clouds 6 1000 87 10000 5.7 200 19:18 13.11.2019
4247 Clouds 6 1000 87 10000 5.7 200 18:54 13.11.2019
4248 Clouds 6 1000 87 10000 5.7 200 18:36 13.11.2019
4249 Clouds 6 1000 81 10000 4.6 190 18:18 13.11.2019
4250 Clouds 6 1000 81 10000 4.6 190 18:18 13.11.2019
4251 Clouds 6 1000 81 10000 5.1 180 17:40 13.11.2019
4252 Clouds 6 1000 81 10000 4.6 180 17:22 13.11.2019
4253 Clouds 6 999 81 10000 5.1 190 17:00 13.11.2019
4254 Clouds 6 999 81 10000 5.1 190 16:40 13.11.2019
4255 Clouds 6 999 81 10000 5.7 190 16:22 13.11.2019
4256 Clouds 6 999 75 10000 8.2 200 15:58 13.11.2019
4257 Clouds 6 999 75 10000 8.2 200 15:40 13.11.2019
4258 Clouds 6 999 75 10000 7.7 200 15:22 13.11.2019
4259 Clouds 6 999 75 10000 7.2 200 14:59 13.11.2019
4260 Clouds 6 999 75 10000 7.2 200 14:37 13.11.2019
4261 Clouds 6 999 75 10000 8.2 210 14:19 13.11.2019
4262 Clouds 6 999 75 10000 6.2 200 13:38 13.11.2019
4263 Clouds 5 999 75 10000 6.2 180 13:19 13.11.2019
4264 Clouds 5 999 75 10000 5.7 180 12:58 13.11.2019
4265 Clouds 5 999 75 10000 5.7 180 12:38 13.11.2019
4266 Rain 5 999 80 10000 5.7 180 12:20 13.11.2019
4267 Clouds 5 999 80 10000 5.1 180 11:55 13.11.2019
4268 Clouds 4 999 80 10000 5.1 180 11:36 13.11.2019
4269 Clouds 4 999 86 10000 5.7 170 11:18 13.11.2019
4270 Clouds 4 999 80 10000 5.7 160 10:54 13.11.2019
4271 Clouds 3 999 80 10000 5.7 160 10:36 13.11.2019
4272 Clouds 3 999 86 10000 4.6 170 10:18 13.11.2019
4273 Clouds 2 999 86 10000 5.7 160 09:40 13.11.2019
4274 Clouds 2 999 86 10000 5.7 160 09:40 13.11.2019
4275 Clouds 2 1000 78 10000 5.1 150 09:20 13.11.2019
4276 Clouds 2 999 78 10000 5.1 150 08:41 13.11.2019
4277 Clouds 2 999 94 10000 5.1 150 08:22 13.11.2019
4278 Clouds 1 999 94 10000 5.1 150 07:57 13.11.2019
4279 Clouds 1 999 94 10000 5.7 150 07:38 13.11.2019
4280 Clouds 1 999 93 10000 5.1 160 07:18 13.11.2019
4281 Clouds 1 999 93 10000 4.1 150 06:41 13.11.2019
4282 Clouds 2 999 94 10000 3.6 140 06:18 13.11.2019
4283 Clouds 1 999 93 10000 4.1 140 05:47 13.11.2019
4284 Clouds 2 999 93 10000 5.1 150 04:59 13.11.2019
4285 Clouds 2 1000 93 10000 4.6 150 03:56 13.11.2019
4286 Clouds 2 1000 93 10000 2.1 140 01:51 13.11.2019
4287 Clouds 2 1000 93 10000 2.1 140 01:27 13.11.2019
4288 Clouds 2 1000 93 10000 2.1 140 01:27 13.11.2019
4289 Clouds 3 1001 93 10000 3.6 150 00:43 13.11.2019
4290 Clouds 3 1001 86 10000 4.1 150 23:56 12.11.2019
4291 Clouds 3 1001 86 10000 4.1 150 23:38 12.11.2019
4292 Clouds 3 1001 93 10000 3.6 180 23:18 12.11.2019
4293 Clouds 3 1001 86 10000 4.1 180 22:42 12.11.2019
4294 Clouds 4 1001 80 10000 4.6 170 22:19 12.11.2019
4295 Clouds 4 1001 80 10000 3.6 180 21:57 12.11.2019
4296 Clouds 4 1001 80 10000 3.6 180 21:38 12.11.2019
4297 Clouds 4 1001 75 10000 4.6 170 21:20 12.11.2019
4298 Clouds 5 1001 75 10000 5.1 190 20:55 12.11.2019
4299 Clouds 5 1001 75 10000 5.1 190 20:37 12.11.2019
4300 Clouds 5 1001 75 10000 3.6 190 20:18 12.11.2019
4301 Clouds 5 1001 75 10000 3.6 190 20:18 12.11.2019
4302 Clouds 5 1001 75 10000 3.6 190 19:56 12.11.2019
4303 Rain 5 1001 81 10000 4.6 180 19:38 12.11.2019
4304 Rain 6 1001 70 10000 6.2 170 19:18 12.11.2019
4305 Rain 6 1001 70 10000 5.7 170 18:55 12.11.2019
4306 Rain 6 1001 70 10000 5.7 170 18:37 12.11.2019
4307 Rain 6 1001 70 10000 5.7 170 18:37 12.11.2019
4308 Clouds 6 1001 70 10000 5.7 140 18:19 12.11.2019
4309 Clouds 6 1001 70 10000 5.1 160 17:55 12.11.2019
4310 Clouds 6 1001 70 10000 5.1 160 17:37 12.11.2019
4311 Clouds 6 1001 75 10000 5.1 160 17:19 12.11.2019
4312 Rain 7 1001 75 10000 5.1 180 16:44 12.11.2019
4313 Rain 7 1001 65 10000 6.2 160 16:25 12.11.2019
4314 Clouds 7 1001 65 10000 5.7 170 15:57 12.11.2019
4315 Clouds 7 1001 65 10000 5.7 170 15:57 12.11.2019
4316 Clouds 7 1001 65 10000 5.7 170 15:39 12.11.2019
4317 Clouds 7 1000 65 10000 4.6 180 15:20 12.11.2019
4318 Clouds 7 1000 65 10000 4.6 180 14:55 12.11.2019
4319 Clouds 7 1000 65 10000 5.1 180 14:36 12.11.2019
4320 Clouds 8 1001 65 10000 5.7 180 14:18 12.11.2019
4321 Rain 7 1001 65 10000 6.2 200 13:54 12.11.2019
4322 Rain 7 1001 65 10000 6.2 200 13:36 12.11.2019
4323 Clouds 7 1001 65 10000 6.7 190 13:18 12.11.2019
4324 Clouds 7 1001 70 10000 7.7 200 12:40 12.11.2019
4325 Clouds 7 1001 70 10000 6.2 190 12:19 12.11.2019
4326 Clouds 7 1001 70 10000 6.7 190 11:56 12.11.2019
4327 Clouds 7 1001 70 10000 6.7 190 11:38 12.11.2019
4328 Clouds 7 1001 70 10000 6.7 190 11:38 12.11.2019
4329 Clouds 7 1001 70 10000 7.7 180 11:20 12.11.2019
4330 Clouds 6 1001 75 10000 8.2 180 10:55 12.11.2019
4331 Clouds 6 1001 75 10000 8.2 180 10:37 12.11.2019
4332 Clouds 5 1001 75 10000 8.2 180 10:19 12.11.2019
4333 Clouds 5 1001 75 10000 7.2 190 09:40 12.11.2019
4334 Clouds 5 1001 75 10000 6.2 170 09:21 12.11.2019
4335 Clouds 5 1001 75 10000 6.2 170 08:52 12.11.2019
4336 Clouds 5 1001 75 10000 6.2 170 08:30 12.11.2019
4337 Clouds 5 1001 75 10000 6.2 160 07:55 12.11.2019
4338 Clouds 5 1001 75 10000 6.2 160 07:36 12.11.2019
4339 Clouds 5 1001 75 10000 4.6 170 07:18 12.11.2019
4340 Clouds 4 1001 80 10000 5.7 180 06:39 12.11.2019
4341 Clouds 4 1000 80 10000 4.6 180 06:21 12.11.2019
4342 Clouds 4 1000 80 10000 5.7 170 05:46 12.11.2019
4343 Clouds 4 1000 80 10000 4.1 160 04:44 12.11.2019
4344 Clouds 4 1001 80 10000 4.6 170 03:39 12.11.2019
4345 Clouds 3 1001 86 10000 4.1 160 01:44 12.11.2019
4346 Clouds 3 1001 86 10000 4.6 150 01:21 12.11.2019
4347 Clouds 3 1001 86 10000 4.6 160 00:47 12.11.2019
4348 Clouds 3 1001 86 10000 5.1 160 00:24 12.11.2019
4349 Clouds 3 1002 86 10000 4.6 150 23:44 11.11.2019
4350 Clouds 3 1002 80 10000 5.7 150 23:23 11.11.2019
4351 Clouds 3 1002 86 10000 6.2 150 22:57 11.11.2019
4352 Clouds 3 1002 86 10000 6.2 150 22:36 11.11.2019
4353 Clouds 3 1002 86 10000 6.2 150 22:18 11.11.2019
4354 Clouds 3 1002 86 10000 7.2 150 21:57 11.11.2019
4355 Clouds 3 1002 86 10000 7.2 150 21:38 11.11.2019
4356 Clouds 3 1002 86 10000 7.7 150 21:19 11.11.2019
4357 Clouds 3 1002 86 10000 7.2 150 20:43 11.11.2019
4358 Clouds 3 1002 86 10000 6.7 140 20:21 11.11.2019
4359 Clouds 3 1002 86 10000 6.7 140 19:59 11.11.2019
4360 Clouds 3 1003 86 10000 6.2 150 19:41 11.11.2019
4361 Clouds 3 1003 93 10000 6.2 150 19:19 11.11.2019
4362 Clouds 3 1003 86 10000 5.1 130 18:57 11.11.2019
4363 Clouds 3 1003 86 10000 5.1 130 18:38 11.11.2019
4364 Clouds 3 1004 86 10000 5.1 150 18:19 11.11.2019
4365 Clouds 3 1004 93 10000 6.2 130 17:43 11.11.2019
4366 Clouds 3 1004 93 10000 6.7 140 17:24 11.11.2019
4367 Clouds 4 1005 86 10000 5.7 140 16:54 11.11.2019
4368 Clouds 4 1005 86 10000 5.7 140 16:36 11.11.2019
4369 Clouds 4 1005 86 10000 6.7 140 16:18 11.11.2019
4370 Clouds 4 1005 80 10000 6.7 150 15:41 11.11.2019
4371 Clouds 4 1005 80 10000 6.7 150 15:20 11.11.2019
4372 Clouds 4 1006 80 10000 6.7 150 14:54 11.11.2019
4373 Clouds 5 1006 80 10000 6.7 150 14:54 11.11.2019
4374 Clouds 5 1006 80 10000 6.7 150 14:36 11.11.2019
4375 Clouds 5 1006 80 10000 5.7 140 14:18 11.11.2019
4376 -273 0 0 0 0 0 13:39 11.11.2019
4377 Clouds 5 1007 80 10000 5.1 140 13:21 11.11.2019
4378 Clouds 5 1007 80 10000 5.1 140 12:58 11.11.2019
4379 Clouds 5 1008 80 10000 5.1 140 12:40 11.11.2019
4380 Clouds 4 1008 86 10000 5.1 160 12:22 11.11.2019
4381 Clouds 4 1008 86 10000 5.1 160 11:57 11.11.2019
4382 Clouds 3 1009 86 10000 4.6 140 11:39 11.11.2019
4383 Clouds 2 1009 93 10000 4.1 150 11:21 11.11.2019
4384 Clouds 2 1009 93 10000 5.1 160 10:43 11.11.2019
4385 Clouds 1 1009 79 7000 5.7 170 10:19 11.11.2019
4386 Clouds 1 1009 79 7000 5.7 170 09:58 11.11.2019
4387 Mist 1 1009 79 4200 5.7 160 09:39 11.11.2019
4388 Mist 1 1009 79 4200 5.7 160 09:39 11.11.2019
4389 Mist 1 1009 79 4000 5.7 140 09:19 11.11.2019
4390 Mist 0 1010 80 4000 5.7 160 08:41 11.11.2019
4391 Clouds 1 1010 92 7000 5.1 140 08:22 11.11.2019
4392 Clouds 0 1010 92 7000 5.1 140 07:57 11.11.2019
4393 Clouds 0 1010 86 8000 4.1 160 07:38 11.11.2019
4394 Clouds 0 1010 92 9000 3.1 160 07:19 11.11.2019
4395 Clouds 0 1011 92 9000 3.1 140 06:55 11.11.2019
4396 Clouds 1 1011 92 9000 3.1 140 06:37 11.11.2019
4397 Clouds 1 1011 92 9000 2.6 140 06:18 11.11.2019
4398 Clouds 1 1012 92 9000 2.6 140 05:42 11.11.2019
4399 Clouds 2 1012 100 10000 2.6 150 03:26 11.11.2019
4400 Clouds 2 1012 93 10000 2.6 140 02:30 11.11.2019
4401 Clouds 3 1013 86 10000 2.6 190 01:58 11.11.2019
4402 Clouds 3 1013 86 10000 2.6 210 01:36 11.11.2019
4403 Clouds 3 1013 80 10000 4.1 190 00:54 11.11.2019
4404 Clouds 3 1013 86 10000 3.6 220 00:33 11.11.2019
4405 Clouds 3 1013 86 10000 3.6 230 23:58 10.11.2019
4406 Clouds 3 1013 80 10000 3.6 190 23:37 10.11.2019
4407 Clouds 3 1013 80 10000 4.6 210 23:19 10.11.2019
4408 Clouds 4 1014 80 10000 4.6 210 22:55 10.11.2019
4409 Clouds 4 1014 80 10000 4.6 210 22:37 10.11.2019
4410 Clouds 4 1014 75 10000 3.1 200 22:19 10.11.2019
4411 Clouds 4 1014 75 10000 3.1 200 21:55 10.11.2019
4412 Clouds 4 1014 81 10000 3.6 200 21:36 10.11.2019
4413 Clouds 4 1014 80 10000 3.1 160 21:18 10.11.2019
4414 Clouds 4 1014 86 10000 2.6 180 20:41 10.11.2019
4415 Clouds 4 1014 86 10000 2.6 170 20:22 10.11.2019
4416 Clouds 4 1014 86 10000 2.6 170 19:56 10.11.2019
4417 Clear 4 1014 80 10000 3.1 170 19:37 10.11.2019
4418 Clear 5 1014 80 10000 3.1 190 19:19 10.11.2019
4419 Clear 5 1014 80 10000 3.1 190 18:58 10.11.2019
4420 Clear 5 1014 80 10000 3.1 180 18:40 10.11.2019
4421 Clear 5 1014 80 10000 3.1 170 18:19 10.11.2019
4422 Clear 5 1014 80 10000 2.6 180 17:57 10.11.2019
4423 Clear 5 1014 80 10000 2.6 180 17:38 10.11.2019
4424 Clear 5 1013 80 10000 1.5 240 17:20 10.11.2019
4425 Clear 6 1013 75 10000 3.1 170 16:58 10.11.2019
4426 Clear 6 1013 75 10000 3.1 170 16:39 10.11.2019
4427 Clear 7 1013 70 10000 3.1 230 16:21 10.11.2019
4428 Clear 7 1013 70 10000 3.1 230 15:56 10.11.2019
4429 Clear 7 1013 70 10000 3.6 230 15:36 10.11.2019
4430 Clear 8 1013 65 10000 3.6 220 15:18 10.11.2019
4431 Clear 8 1013 65 10000 3.6 220 14:55 10.11.2019
4432 Clear 8 1013 65 10000 4.1 230 14:36 10.11.2019
4433 Clear 8 1012 65 10000 3.6 210 14:18 10.11.2019
4434 Clear 8 1012 70 10000 3.1 170 13:42 10.11.2019
4435 Clear 8 1013 70 10000 3.6 180 13:21 10.11.2019
4436 Clear 8 1013 70 10000 3.1 190 12:58 10.11.2019
4437 Clear 7 1013 70 10000 3.1 190 12:40 10.11.2019
4438 Clear 7 1013 75 10000 2.6 160 12:18 10.11.2019
4439 Clear 6 1013 75 10000 2.6 160 11:55 10.11.2019
4440 Clear 6 1013 75 10000 2.1 160 11:36 10.11.2019
4441 Clear 5 1013 81 10000 2.1 170 11:18 10.11.2019
4442 Clear 5 1013 81 10000 2.1 170 11:18 10.11.2019
4443 Clear 4 1013 80 10000 2.6 150 10:42 10.11.2019
4444 Clear 3 1012 86 10000 2.1 150 10:20 10.11.2019
4445 Clear 3 1012 86 10000 2.1 150 09:55 10.11.2019
4446 Clear 2 1012 93 9000 2.6 150 09:37 10.11.2019
4447 Clear 2 1012 85 9000 3.1 160 09:18 10.11.2019
4448 Fog 2 1012 85 9000 2.6 160 08:39 10.11.2019
4449 Fog 2 1012 85 9000 2.6 160 08:39 10.11.2019
4450 Clouds 1 1011 94 9000 2.1 140 08:20 10.11.2019
4451 Fog 1 1011 94 8000 2.1 150 07:45 10.11.2019
4452 Fog 1 1010 94 8000 2.6 160 07:26 10.11.2019
4453 Fog 2 1010 100 8000 2.1 140 06:54 10.11.2019
4454 Fog 2 1010 100 8000 1.5 150 05:55 10.11.2019
4455 Clouds 3 1009 93 9000 1.5 130 03:31 10.11.2019
4456 Clouds 3 1009 86 9000 1.5 140 02:27 10.11.2019
4457 Fog 3 1008 100 9000 1.5 150 01:36 10.11.2019
4458 Fog 3 1008 93 8000 1 110 01:18 10.11.2019
4459 Clouds 4 1008 100 8000 1.5 140 00:23 10.11.2019
4460 Clouds 4 1008 100 8000 1.5 140 00:23 10.11.2019
4461 Clouds 3 1008 93 8000 1.5 140 23:40 09.11.2019
4462 Clouds 3 1008 93 8000 1.5 120 23:19 09.11.2019
4463 Clouds 3 1007 100 8000 2.1 150 22:42 09.11.2019
4464 Clouds 3 1007 100 8000 2.1 150 22:22 09.11.2019
4465 Clouds 3 1007 93 9000 2.1 160 21:58 09.11.2019
4466 Clouds 4 1007 93 9000 2.1 160 21:40 09.11.2019
4467 Clouds 4 1007 93 8000 1.5 210 21:21 09.11.2019
4468 Clouds 4 1007 93 8000 1.5 210 20:56 09.11.2019
4469 Clouds 4 1007 93 9000 2.1 220 20:38 09.11.2019
4470 Clouds 4 1007 93 9000 2.1 200 20:20 09.11.2019
4471 Clouds 5 1007 93 6000 1 0 19:54 09.11.2019
4472 Clouds 5 1007 93 6000 1 0 19:36 09.11.2019
4473 Clouds 5 1007 93 6000 1.5 200 19:18 09.11.2019
4474 Clouds 5 1007 93 6000 1 0 18:39 09.11.2019
4475 Clouds 5 1007 93 6000 1 0 18:39 09.11.2019
4476 Clouds 5 1007 86 8000 3.1 230 18:19 09.11.2019
4477 Clouds 6 1007 87 10000 5.1 230 17:44 09.11.2019
4478 Clouds 6 1007 81 10000 3.6 220 17:23 09.11.2019
4479 Clouds 7 1007 81 10000 3.6 220 16:59 09.11.2019
4480 Rain 7 1007 81 10000 3.6 220 16:41 09.11.2019
4481 Clouds 7 1006 76 10000 4.6 220 16:20 09.11.2019
4482 Clouds 7 1006 76 10000 4.6 220 16:20 09.11.2019
4483 Clouds 8 1006 76 10000 4.6 220 15:54 09.11.2019
4484 Rain 8 1006 81 10000 2.6 230 15:36 09.11.2019
4485 Clouds 8 1006 76 10000 2.1 230 15:18 09.11.2019
4486 Clouds 8 1006 70 10000 2.1 150 14:41 09.11.2019
4487 Clouds 8 1006 76 10000 1.5 200 14:20 09.11.2019
4488 Clouds 8 1006 81 10000 1.5 190 13:57 09.11.2019
4489 Clouds 8 1006 81 10000 1.5 190 13:36 09.11.2019
4490 Clouds 8 1006 87 10000 2.6 230 13:18 09.11.2019
4491 Clouds 7 1006 87 10000 2.6 220 12:47 09.11.2019
4492 Rain 7 1007 87 8000 2.6 230 12:29 09.11.2019
4493 Rain 7 1007 93 7000 2.1 230 11:57 09.11.2019
4494 Rain 7 1007 93 7000 2.1 230 11:38 09.11.2019
4495 Rain 6 1007 93 7000 2.6 230 11:19 09.11.2019
4496 Rain 6 1007 93 7000 3.1 230 10:41 09.11.2019
4497 Rain 5 1007 100 10000 1.5 220 10:20 09.11.2019
4498 Rain 5 1007 100 10000 1.5 220 09:59 09.11.2019
4499 Rain 5 1007 100 10000 1.5 220 09:59 09.11.2019
4500 Rain 5 1007 93 9000 1.5 240 09:41 09.11.2019
4501 Rain 5 1007 100 9000 1.5 220 09:20 09.11.2019
4502 Rain 5 1007 100 9000 1 0 08:43 09.11.2019
4503 Rain 4 1007 100 9000 1 0 08:24 09.11.2019
4504 Rain 4 1007 100 10000 0.5 0 07:55 09.11.2019
4505 Rain 4 1007 100 8000 0.5 0 07:37 09.11.2019
4506 Fog 4 1007 100 8000 0.5 0 07:18 09.11.2019
4507 Clouds 4 1007 93 8000 0.5 20 06:42 09.11.2019
4508 Clouds 4 1007 100 8000 0.5 0 06:23 09.11.2019
4509 Clouds 4 1007 100 7000 1 310 05:39 09.11.2019
4510 Mist 4 1007 93 5000 0.5 80 04:29 09.11.2019
4511 Mist 4 1007 100 2800 0.5 0 02:47 09.11.2019
4512 Mist 4 1007 100 2800 0.5 0 02:26 09.11.2019
4513 Mist 4 1007 100 2000 0.5 0 01:18 09.11.2019
4514 Fog 4 1007 100 6000 0.5 0 00:40 09.11.2019
4515 Fog 4 1008 100 6000 1 0 00:22 09.11.2019
4516 Clouds 4 1008 93 10000 1.5 340 23:40 08.11.2019
4517 Clouds 5 1008 100 10000 0.5 60 23:22 08.11.2019
4518 Clouds 5 1008 93 10000 1.5 60 22:59 08.11.2019
4519 Clouds 5 1008 93 10000 1.5 60 22:39 08.11.2019
4520 Clouds 5 1008 93 10000 2.1 80 22:21 08.11.2019
4521 Clouds 5 1008 100 10000 1.5 50 21:42 08.11.2019
4522 Clouds 5 1008 100 10000 1.5 50 21:23 08.11.2019
4523 Clouds 5 1008 100 10000 1 70 20:58 08.11.2019
4524 Clouds 5 1008 100 10000 1 70 20:40 08.11.2019
4525 Clouds 5 1008 100 10000 1 0 20:20 08.11.2019
4526 Clouds 6 1008 93 10000 1 0 19:55 08.11.2019
4527 Clouds 6 1008 93 10000 1 0 19:37 08.11.2019
4528 Clouds 6 1008 93 10000 1 0 19:18 08.11.2019
4529 Clouds 6 1008 93 10000 1 0 18:54 08.11.2019
4530 Clouds 6 1008 93 10000 1 0 18:36 08.11.2019
4531 Clouds 6 1008 87 10000 2.1 130 18:18 08.11.2019
4532 Clouds 7 1008 87 10000 2.6 110 17:54 08.11.2019
4533 Clouds 7 1008 87 10000 2.6 110 17:36 08.11.2019
4534 Clouds 7 1008 81 10000 2.6 110 17:18 08.11.2019
4535 Clouds 7 1008 81 10000 2.6 110 16:57 08.11.2019
4536 Clouds 7 1007 81 10000 2.1 100 16:38 08.11.2019
4537 Clouds 8 1007 81 10000 2.1 90 16:18 08.11.2019
4538 Clouds 8 1007 81 10000 2.1 90 15:54 08.11.2019
4539 Clouds 9 1007 81 10000 2.1 80 15:36 08.11.2019
4540 Clouds 9 1007 81 10000 2.1 80 15:18 08.11.2019
4541 Clouds 9 1007 71 10000 1 0 14:54 08.11.2019
4542 Clouds 9 1007 71 10000 1 0 14:36 08.11.2019
4543 Clouds 9 1007 71 10000 1 0 14:18 08.11.2019
4544 Clouds 9 1007 71 10000 0.5 0 13:42 08.11.2019
4545 Clouds 9 1007 76 10000 2.1 130 13:22 08.11.2019
4546 Clouds 9 1007 76 10000 1 0 12:57 08.11.2019
4547 Clouds 8 1007 76 10000 1 0 12:39 08.11.2019
4548 Clouds 8 1008 81 10000 2.6 150 12:21 08.11.2019
4549 Clouds 8 1008 81 10000 3.1 160 11:55 08.11.2019
4550 Clouds 7 1008 81 10000 3.1 160 11:37 08.11.2019
4551 Clouds 7 1008 81 10000 3.1 160 11:37 08.11.2019
4552 Clouds 7 1008 87 10000 3.1 150 11:18 08.11.2019
4553 Clouds 6 1007 87 10000 2.1 150 10:42 08.11.2019
4554 Clouds 6 1007 81 10000 1.5 150 10:22 08.11.2019
4555 Clouds 5 1007 87 10000 2.1 160 09:58 08.11.2019
4556 Clouds 5 1007 87 10000 2.1 160 09:40 08.11.2019
4557 Clouds 4 1007 93 10000 1 0 09:19 08.11.2019
4558 Clouds 3 1006 93 10000 0.5 0 08:46 08.11.2019
4559 Clouds 3 1006 100 10000 0.5 40 08:25 08.11.2019
4560 Clouds 3 1006 100 10000 0.5 40 07:57 08.11.2019
4561 Clouds 3 1006 93 10000 2.1 140 07:39 08.11.2019
4562 Clouds 4 1005 93 10000 2.6 160 07:20 08.11.2019
4563 Clouds 4 1005 93 10000 1.5 200 06:40 08.11.2019
4564 Clouds 4 1005 93 10000 1.5 180 06:20 08.11.2019
4565 Clouds 3 1005 93 10000 3.1 200 05:39 08.11.2019
4566 Clear 5 1004 86 10000 2.6 210 04:43 08.11.2019
4567 Clear 5 1004 93 10000 4.1 210 03:43 08.11.2019
4568 Clear 6 1004 87 10000 4.1 210 03:20 08.11.2019
4569 Clear 6 1003 87 10000 4.1 220 02:41 08.11.2019
4570 Clouds 6 1003 93 10000 4.6 210 01:46 08.11.2019
4571 Clouds 7 1002 93 10000 4.6 220 01:18 08.11.2019
4572 Clouds 7 1002 87 10000 3.6 210 00:24 08.11.2019
4573 Clouds 7 1002 87 10000 3.6 210 23:58 07.11.2019
4574 Clouds 7 1001 93 10000 3.6 190 23:40 07.11.2019
4575 Clouds 7 1001 93 10000 5.1 180 23:21 07.11.2019
4576 Clouds 7 1001 93 9000 5.1 150 22:42 07.11.2019
4577 Drizzle 7 1001 93 7000 4.6 150 22:21 07.11.2019
4578 Drizzle 7 1001 93 7000 4.6 150 21:56 07.11.2019
4579 Rain 7 1000 93 6000 4.6 120 21:37 07.11.2019
4580 Rain 7 1000 93 6000 3.6 100 21:19 07.11.2019
4581 Rain 7 1000 100 6000 4.1 100 20:57 07.11.2019
4582 Rain 7 1000 100 6000 4.1 100 20:39 07.11.2019
4583 Rain 7 1000 93 6000 4.1 100 20:21 07.11.2019
4584 Rain 6 1000 93 6000 3.6 100 19:55 07.11.2019
4585 Rain 6 1000 93 6000 3.6 100 19:36 07.11.2019
4586 Rain 6 1001 93 6000 4.1 100 19:18 07.11.2019
4587 Rain 6 1001 100 6000 5.1 110 18:55 07.11.2019
4588 Rain 6 1001 100 6000 5.1 110 18:37 07.11.2019
4589 Clouds 6 1001 93 7000 4.1 100 18:19 07.11.2019
4590 Clouds 6 1001 93 8000 5.1 80 17:40 07.11.2019
4591 Clouds 6 1001 87 10000 4.1 100 17:21 07.11.2019
4592 Clouds 6 1001 87 10000 4.1 100 16:58 07.11.2019
4593 Clouds 6 1001 87 10000 4.1 90 16:40 07.11.2019
4594 Clouds 6 1001 87 10000 4.1 90 16:20 07.11.2019
4595 Clouds 6 1001 87 10000 4.1 100 15:58 07.11.2019
4596 Clouds 6 1001 93 10000 4.6 110 15:39 07.11.2019
4597 Clouds 6 1001 93 10000 4.6 110 15:19 07.11.2019
4598 Clouds 6 1001 93 10000 5.1 100 14:45 07.11.2019
4599 Clouds 6 1001 93 10000 5.1 100 14:27 07.11.2019
4600 Clouds 6 1001 87 10000 4.1 130 13:57 07.11.2019
4601 Clouds 5 1001 87 10000 4.6 90 13:39 07.11.2019
4602 Clouds 5 1001 87 10000 4.6 90 13:21 07.11.2019
4603 Clouds 5 1001 87 10000 4.6 90 13:21 07.11.2019
4604 Clouds 5 1001 87 10000 3.6 90 12:58 07.11.2019
4605 Clouds 5 1001 87 10000 3.6 90 12:58 07.11.2019
4606 Clouds 5 1001 87 10000 3.6 90 12:40 07.11.2019
4607 Clouds 5 1001 93 10000 4.6 100 12:22 07.11.2019
4608 Clouds 5 1001 93 10000 4.6 100 12:22 07.11.2019
4609 Clouds 5 1002 87 10000 3.6 90 11:59 07.11.2019
4610 Clouds 5 1002 93 9000 3.6 110 11:40 07.11.2019
4611 Clouds 5 1002 93 9000 3.6 110 11:22 07.11.2019
4612 Mist 4 1002 93 5000 3.1 110 10:42 07.11.2019
4613 Mist 4 1002 93 5000 3.1 110 10:19 07.11.2019
4614 Mist 4 1002 100 5000 2.6 120 09:45 07.11.2019
4615 Mist 4 1002 100 5000 3.1 110 09:25 07.11.2019
4616 Mist 4 1002 100 4000 3.1 130 08:59 07.11.2019
4617 Mist 4 1002 100 4000 3.1 130 08:59 07.11.2019
4618 Mist 4 1002 100 1600 2.1 120 08:40 07.11.2019
4619 Mist 3 1002 100 1600 2.1 120 08:22 07.11.2019
4620 Mist 3 1002 100 1600 2.1 150 07:56 07.11.2019
4621 Mist 3 1002 100 1200 3.6 170 07:37 07.11.2019
4622 Mist 3 1002 100 1200 3.6 170 07:19 07.11.2019
4623 Fog 3 1002 100 400 2.6 140 06:44 07.11.2019
4624 Fog 3 1002 100 400 2.6 140 06:23 07.11.2019
4625 Fog 3 1002 100 400 2.6 140 06:23 07.11.2019
4626 Fog 4 1002 100 250 2.6 140 05:48 07.11.2019
4627 Fog 4 1002 100 250 2.6 140 05:30 07.11.2019
4628 Fog 4 1002 100 600 1 0 04:50 07.11.2019
4629 Fog 4 1002 100 600 1 0 04:50 07.11.2019
4630 Fog 4 1002 100 500 1 0 04:28 07.11.2019
4631 Fog 4 1002 100 500 1 0 04:28 07.11.2019
4632 Fog 5 1002 93 7000 2.1 220 01:27 07.11.2019
4633 Fog 5 1002 100 7000 0.5 240 00:30 07.11.2019
4634 Rain 5 1002 93 5000 0.5 0 23:56 06.11.2019
4635 Mist 5 1002 93 4800 0.5 0 23:38 06.11.2019
4636 Mist 5 1002 93 4800 0.5 0 23:18 06.11.2019
4637 Clouds 6 1002 100 10000 0.5 210 22:39 06.11.2019
4638 Clouds 6 1002 100 10000 0.5 210 22:20 06.11.2019
4639 Clouds 6 1002 93 10000 1 280 21:57 06.11.2019
4640 Clouds 6 1002 93 10000 1 280 21:57 06.11.2019
4641 Clouds 6 1002 100 10000 1 0 21:39 06.11.2019
4642 Rain 6 1002 93 10000 1 0 21:19 06.11.2019
4643 Rain 6 1002 93 10000 1 0 20:57 06.11.2019
4644 Clouds 6 1001 100 10000 1 0 20:39 06.11.2019
4645 Clouds 6 1001 100 10000 1 0 20:20 06.11.2019
4646 Clouds 6 1001 100 10000 0.5 0 19:57 06.11.2019
4647 Clouds 6 1001 100 10000 0.5 130 19:37 06.11.2019
4648 Clouds 6 1001 100 10000 0.5 130 19:19 06.11.2019
4649 Clouds 6 1001 100 10000 0.5 130 18:56 06.11.2019
4650 Clouds 6 1001 100 10000 0.5 350 18:38 06.11.2019
4651 Clouds 7 1001 93 10000 0.5 0 18:18 06.11.2019
4652 Clouds 7 1001 93 10000 1 0 17:42 06.11.2019
4653 -273 0 0 0 0 0 17:23 06.11.2019
4654 Clouds 7 1001 87 10000 2.6 320 16:58 06.11.2019
4655 Clouds 7 1001 87 10000 2.6 320 16:39 06.11.2019
4656 Clouds 7 1001 81 10000 2.1 290 16:21 06.11.2019
4657 Clouds 7 1001 81 10000 2.1 290 15:58 06.11.2019
4658 Clouds 7 1001 81 10000 2.6 290 15:38 06.11.2019
4659 Clouds 7 1000 87 10000 3.1 290 15:19 06.11.2019
4660 Clouds 8 1000 87 10000 3.1 290 14:59 06.11.2019
4661 Clouds 8 1000 87 10000 2.1 280 14:41 06.11.2019
4662 Clouds 8 1000 87 10000 3.1 290 14:23 06.11.2019
4663 Clouds 8 1000 87 10000 3.1 290 13:59 06.11.2019
4664 Clouds 7 1000 87 10000 2.6 300 13:38 06.11.2019
4665 Clouds 7 1000 93 10000 2.6 290 13:19 06.11.2019
4666 Drizzle 7 1000 93 10000 2.1 300 12:55 06.11.2019
4667 Drizzle 7 1000 93 10000 2.1 300 12:37 06.11.2019
4668 Drizzle 7 1000 93 9000 1.5 240 12:19 06.11.2019
4669 Drizzle 7 1000 93 9000 1.5 260 11:57 06.11.2019
4670 Drizzle 7 1000 93 9000 1.5 260 11:36 06.11.2019
4671 Drizzle 7 1000 93 9000 1.5 290 11:18 06.11.2019
4672 Drizzle 7 1000 93 9000 1.5 310 10:56 06.11.2019
4673 Drizzle 7 1000 93 9000 1.5 310 10:37 06.11.2019
4674 Clouds 7 1000 93 10000 1 0 10:19 06.11.2019
4675 Clouds 7 1000 93 10000 1 0 09:43 06.11.2019
4676 Clouds 7 1000 93 10000 1 0 09:43 06.11.2019
4677 Clouds 7 999 93 10000 1.5 350 09:21 06.11.2019
4678 Clouds 6 999 93 10000 1 350 08:58 06.11.2019
4679 Clouds 6 999 93 10000 1 350 08:38 06.11.2019
4680 Clouds 6 999 93 10000 1 0 08:20 06.11.2019
4681 Clouds 6 999 93 10000 1.5 10 07:56 06.11.2019
4682 Clouds 6 999 93 10000 1.5 10 07:37 06.11.2019
4683 Drizzle 6 998 93 8000 1.5 350 07:19 06.11.2019
4684 Drizzle 6 998 93 6000 1.5 330 06:42 06.11.2019
4685 Drizzle 7 998 93 4500 2.1 320 06:23 06.11.2019
4686 Drizzle 7 998 93 10000 2.1 320 04:18 06.11.2019
4687 Drizzle 7 998 93 10000 2.1 320 02:20 06.11.2019
4688 Drizzle 7 998 93 10000 1.5 350 01:31 06.11.2019
4689 Drizzle 7 997 93 10000 1 0 00:37 06.11.2019
4690 Rain 7 997 93 10000 2.1 360 23:58 05.11.2019
4691 Rain 7 997 93 10000 2.1 360 23:58 05.11.2019
4692 Rain 7 997 93 10000 2.1 360 23:38 05.11.2019
4693 Rain 7 997 93 10000 2.1 360 23:38 05.11.2019
4694 Rain 7 997 93 10000 1.5 360 23:20 05.11.2019
4695 Rain 7 997 93 10000 2.1 10 22:43 05.11.2019
4696 Rain 7 997 93 10000 1.5 10 22:20 05.11.2019
4697 Rain 7 997 93 10000 1.5 10 21:59 05.11.2019
4698 Rain 7 997 93 10000 1.5 10 21:59 05.11.2019
4699 Rain 8 997 93 10000 2.1 360 21:41 05.11.2019
4700 Rain 8 997 93 10000 2.6 10 21:21 05.11.2019
4701 Rain 8 997 93 10000 2.6 10 20:58 05.11.2019
4702 Rain 8 996 93 10000 3.1 20 20:38 05.11.2019
4703 Rain 8 996 93 10000 3.1 30 20:20 05.11.2019
4704 Rain 8 996 93 10000 2.1 30 19:57 05.11.2019
4705 Rain 8 996 93 10000 2.1 30 19:38 05.11.2019
4706 Rain 8 996 93 10000 2.1 30 19:38 05.11.2019
4707 Rain 8 996 93 10000 2.6 30 19:20 05.11.2019
4708 Rain 8 996 93 7000 1.5 30 18:57 05.11.2019
4709 Rain 9 996 93 7000 1.5 30 18:39 05.11.2019
4710 Rain 9 996 93 6000 2.1 20 18:20 05.11.2019
4711 Rain 9 996 93 6000 2.1 20 17:58 05.11.2019
4712 Rain 9 996 93 8000 1.5 30 17:38 05.11.2019
4713 Rain 9 995 93 8000 2.1 50 17:18 05.11.2019
4714 Rain 9 995 93 8000 2.6 50 16:55 05.11.2019
4715 Rain 9 995 93 8000 2.6 50 16:37 05.11.2019
4716 Rain 9 995 100 8000 3.1 50 16:18 05.11.2019
4717 Rain 9 995 93 5000 2.6 50 15:38 05.11.2019
4718 Rain 9 995 87 5000 3.1 80 15:19 05.11.2019
4719 Rain 10 995 87 5000 3.1 80 14:58 05.11.2019
4720 Rain 9 995 93 6000 2.1 40 14:39 05.11.2019
4721 Clouds 10 995 93 7000 1.5 40 14:21 05.11.2019
4722 Rain 10 995 93 3100 2.1 230 13:44 05.11.2019
4723 Clouds 10 995 87 7000 1.5 30 13:25 05.11.2019
4724 Clouds 10 995 87 7000 2.1 70 12:59 05.11.2019
4725 Clouds 10 994 93 7000 1.5 50 12:39 05.11.2019
4726 Clouds 10 994 87 6000 1 360 12:20 05.11.2019
4727 Rain 10 994 93 5000 0.5 0 11:55 05.11.2019
4728 Rain 10 994 93 5000 0.5 0 11:37 05.11.2019
4729 Rain 9 994 93 4900 1 0 11:19 05.11.2019
4730 Clouds 9 994 93 6000 0.5 30 10:43 05.11.2019
4731 Rain 9 994 93 6000 0.5 0 10:24 05.11.2019
4732 Rain 9 994 100 5000 1 0 09:58 05.11.2019
4733 Rain 9 994 100 5000 1 0 09:40 05.11.2019
4734 Rain 8 994 100 6000 1 0 09:19 05.11.2019
4735 Mist 8 993 100 6000 0.5 0 08:55 05.11.2019
4736 Mist 8 993 100 6000 0.5 0 08:37 05.11.2019
4737 Mist 8 993 93 5000 1 0 08:18 05.11.2019
4738 Mist 8 993 100 4000 0.5 70 07:44 05.11.2019
4739 Mist 8 993 100 3200 0.5 0 07:25 05.11.2019
4740 Mist 8 992 93 3200 1 50 06:51 05.11.2019
4741 Mist 8 992 100 3200 1 70 06:27 05.11.2019
4742 Mist 8 992 100 3200 2.1 150 05:40 05.11.2019
4743 Mist 8 992 100 3200 1.5 130 05:19 05.11.2019
4744 Mist 8 992 100 3500 0.5 0 04:20 05.11.2019
4745 Mist 8 992 100 4000 1 0 03:24 05.11.2019
4746 Mist 8 992 100 4800 0.5 0 02:42 05.11.2019
4747 Mist 8 992 100 4800 0.5 0 01:53 05.11.2019
4748 Mist 8 992 100 4800 1.5 70 00:46 05.11.2019
4749 Mist 8 992 100 4800 1.5 70 00:26 05.11.2019
4750 Clouds 8 991 93 7000 1.5 10 23:42 04.11.2019
4751 Clouds 8 991 93 7000 0.5 0 23:19 04.11.2019
4752 Clouds 8 991 100 8000 1 340 22:57 04.11.2019
4753 Clouds 8 991 100 8000 1 340 22:39 04.11.2019
4754 Clouds 8 991 100 8000 0.73 255 22:20 04.11.2019
4755 Clouds 8 991 100 8000 0.73 255 22:20 04.11.2019
4756 Clouds 8 991 100 8000 1 0 21:55 04.11.2019
4757 Clouds 8 991 100 8000 1 0 21:37 04.11.2019
4758 -273 0 0 0 0 0 21:18 04.11.2019
4759 Clouds 8 991 93 9000 1 250 20:56 04.11.2019
4760 Clouds 9 990 93 9000 0.5 0 20:37 04.11.2019
4761 Clouds 9 990 93 10000 1.5 240 20:19 04.11.2019
4762 Clouds 9 990 100 10000 1 0 19:57 04.11.2019
4763 Clouds 9 990 100 10000 1 0 19:38 04.11.2019
4764 Clouds 9 990 93 10000 1.5 230 19:20 04.11.2019
4765 Clouds 9 990 100 10000 1 0 18:54 04.11.2019
4766 Clouds 9 990 100 10000 1 0 18:36 04.11.2019
4767 Clouds 9 990 93 10000 0.88 206 18:18 04.11.2019
4768 Clouds 9 990 93 10000 0.88 206 18:18 04.11.2019
4769 Clouds 10 989 93 10000 1 310 17:38 04.11.2019
4770 Clouds 10 989 87 10000 0.5 0 17:20 04.11.2019
4771 Clouds 11 989 93 10000 1 250 16:56 04.11.2019
4772 Clouds 11 989 93 10000 1 250 16:38 04.11.2019
4773 Clouds 11 989 81 10000 1 0 16:19 04.11.2019
4774 Clouds 11 989 76 10000 2.1 250 15:41 04.11.2019
4775 Clouds 11 988 76 10000 3.1 250 15:22 04.11.2019
4776 Clouds 11 988 76 10000 2.6 230 14:59 04.11.2019
4777 Clouds 11 988 76 10000 2.6 230 14:41 04.11.2019
4778 Clouds 11 988 76 10000 3.6 240 14:21 04.11.2019
4779 Clouds 11 988 76 10000 4.6 230 13:58 04.11.2019
4780 Clouds 11 988 76 10000 4.6 230 13:40 04.11.2019
4781 Clouds 11 988 76 10000 3.6 240 13:21 04.11.2019
4782 Clouds 11 988 76 10000 3.6 240 13:21 04.11.2019
4783 Clouds 11 988 81 10000 3.1 250 12:58 04.11.2019
4784 Clouds 11 988 81 10000 3.1 250 12:39 04.11.2019
4785 Clouds 10 988 81 10000 3.6 230 12:21 04.11.2019
4786 Clouds 10 988 81 10000 3.6 230 11:56 04.11.2019
4787 Clouds 11 988 87 10000 3.6 240 11:38 04.11.2019
4788 Clouds 10 988 87 10000 4.6 240 11:19 04.11.2019
4789 Clouds 10 988 87 10000 5.1 240 10:42 04.11.2019
4790 Clouds 10 988 87 10000 5.1 240 10:42 04.11.2019
4791 -273 0 0 0 0 0 10:24 04.11.2019
4792 Rain 10 987 93 9000 4.6 240 09:46 04.11.2019
4793 Rain 10 987 93 7000 3.6 230 09:28 04.11.2019
4794 Rain 10 987 93 9000 4.6 240 09:28 04.11.2019
4795 Rain 10 987 100 6000 2.6 180 08:59 04.11.2019
4796 Rain 10 987 100 6000 2.6 180 08:40 04.11.2019
4797 Rain 10 987 100 5000 3.1 160 08:21 04.11.2019
4798 Rain 10 986 93 6000 3.6 160 07:45 04.11.2019
4799 Rain 10 986 93 7000 2.6 150 07:24 04.11.2019
4800 Rain 10 986 93 7000 2.6 150 07:24 04.11.2019
4801 Rain 10 986 93 6000 2.6 160 06:58 04.11.2019
4802 Rain 10 986 93 6000 2.6 160 06:36 04.11.2019
4803 Rain 10 986 93 8000 1.5 190 05:59 04.11.2019
4804 Rain 10 986 93 8000 3.6 120 04:45 04.11.2019
4805 Rain 10 986 93 8000 3.6 120 04:24 04.11.2019
4806 Clouds 10 986 100 10000 3.1 120 02:59 04.11.2019
4807 Clouds 10 986 87 10000 4.6 110 01:22 04.11.2019
4808 Clouds 10 986 87 10000 3.6 90 00:52 04.11.2019
4809 Clouds 10 986 93 10000 3.6 100 00:21 04.11.2019
4810 Clouds 10 986 93 10000 3.6 100 23:58 03.11.2019
4811 Clouds 10 986 93 10000 3.1 90 23:37 03.11.2019
4812 Clouds 10 987 87 10000 3.1 100 23:18 03.11.2019
4813 Clouds 10 987 87 10000 3.1 100 23:18 03.11.2019
4814 Clouds 10 987 93 10000 2.6 80 22:56 03.11.2019
4815 Clouds 10 987 93 10000 2.6 80 22:38 03.11.2019
4816 Clouds 10 987 93 10000 2.6 90 22:18 03.11.2019
4817 Clouds 10 987 87 10000 2.6 100 21:42 03.11.2019
4818 Clouds 10 987 87 10000 2.6 100 21:21 03.11.2019
4819 Clouds 10 987 87 10000 3.1 90 20:58 03.11.2019
4820 Clouds 10 987 87 10000 3.1 90 20:37 03.11.2019
4821 Clouds 10 987 87 10000 3.1 100 20:19 03.11.2019
4822 Clouds 10 987 87 10000 3.1 100 19:57 03.11.2019
4823 Clouds 10 987 87 10000 3.1 100 19:38 03.11.2019
4824 Clouds 10 987 87 10000 2.6 80 19:20 03.11.2019
4825 Clouds 10 987 87 10000 2.6 80 18:57 03.11.2019
4826 Clouds 10 987 87 10000 2.6 80 18:37 03.11.2019
4827 Clouds 10 987 87 10000 2.6 90 18:18 03.11.2019
4828 Clouds 11 987 81 10000 2.6 80 17:42 03.11.2019
4829 Clouds 11 987 81 10000 2.1 90 17:21 03.11.2019
4830 Clouds 12 987 81 10000 2.1 90 16:59 03.11.2019
4831 Clouds 12 987 76 10000 2.6 140 16:41 03.11.2019
4832 Clouds 12 987 82 10000 2.1 110 16:22 03.11.2019
4833 Clouds 12 987 82 10000 2.1 110 15:58 03.11.2019
4834 Clouds 12 987 76 10000 2.6 110 15:40 03.11.2019
4835 Clouds 13 987 76 10000 2.6 140 15:22 03.11.2019
4836 Clouds 12 987 76 10000 2.6 140 14:56 03.11.2019
4837 Clouds 13 987 76 10000 2.6 180 14:37 03.11.2019
4838 Clouds 12 987 76 10000 3.1 160 14:18 03.11.2019
4839 Clouds 13 987 76 10000 2.6 170 13:42 03.11.2019
4840 Clouds 12 987 81 10000 3.6 160 13:20 03.11.2019
4841 Clouds 12 987 81 10000 3.6 160 12:58 03.11.2019
4842 Clouds 12 987 81 10000 3.6 160 12:37 03.11.2019
4843 Clouds 12 987 81 10000 4.1 160 12:18 03.11.2019
4844 Clouds 11 987 81 10000 4.1 160 11:42 03.11.2019
4845 Clouds 11 987 87 10000 3.6 140 11:22 03.11.2019
4846 Clouds 11 987 87 10000 3.1 150 10:58 03.11.2019
4847 Clouds 10 987 87 10000 3.1 150 10:39 03.11.2019
4848 Clouds 10 987 87 10000 3.6 140 10:21 03.11.2019
4849 Clouds 10 987 87 10000 3.6 140 10:21 03.11.2019
4850 Clouds 10 987 87 10000 3.6 140 09:55 03.11.2019
4851 Rain 9 987 87 10000 2.6 140 09:37 03.11.2019
4852 Clouds 9 987 93 10000 3.1 130 09:19 03.11.2019
4853 Rain 9 987 93 10000 2.1 120 08:38 03.11.2019
4854 Clouds 9 987 93 10000 3.1 140 08:20 03.11.2019
4855 Rain 9 987 87 10000 3.1 130 07:45 03.11.2019
4856 Rain 9 987 87 10000 3.1 130 07:23 03.11.2019
4857 Rain 9 987 87 10000 4.1 150 06:49 03.11.2019
4858 Rain 9 987 87 10000 4.1 150 06:30 03.11.2019
4859 Rain 10 987 87 10000 4.1 150 05:38 03.11.2019
4860 Clouds 10 987 76 10000 4.1 160 04:56 03.11.2019
4861 Clouds 10 987 76 10000 4.1 160 04:33 03.11.2019
4862 Clouds 10 987 87 10000 4.1 160 03:30 03.11.2019
4863 Clouds 10 987 87 10000 3.6 160 02:41 03.11.2019
4864 Clouds 10 988 87 10000 4.6 160 02:19 03.11.2019
4865 Clouds 10 988 87 10000 4.1 150 01:38 03.11.2019
4866 Clouds 10 988 87 10000 4.1 160 01:20 03.11.2019
4867 Clouds 10 988 87 10000 4.1 150 00:43 03.11.2019
4868 Clouds 10 988 87 10000 4.1 170 00:25 03.11.2019
4869 Clouds 10 988 87 10000 4.1 170 23:57 02.11.2019
4870 Clouds 10 988 87 10000 4.1 160 23:38 02.11.2019
4871 Rain 10 988 81 10000 5.1 150 23:19 02.11.2019
4872 Rain 10 988 81 10000 5.1 150 23:19 02.11.2019
4873 Rain 10 988 87 10000 4.1 160 22:55 02.11.2019
4874 Rain 10 988 87 10000 4.1 160 22:37 02.11.2019
4875 Clouds 10 988 87 10000 4.1 170 22:18 02.11.2019
4876 Clouds 10 988 87 10000 4.6 160 21:56 02.11.2019
4877 Clouds 10 988 87 10000 4.6 160 21:38 02.11.2019
4878 Clouds 10 988 87 10000 4.6 170 21:18 02.11.2019
4879 Clouds 10 988 87 10000 4.6 170 21:18 02.11.2019
4880 Clouds 10 988 87 10000 4.6 170 20:58 02.11.2019
4881 Clouds 10 988 87 10000 4.1 160 20:39 02.11.2019
4882 Clouds 10 988 93 10000 4.1 160 20:19 02.11.2019
4883 Clouds 10 988 93 10000 4.1 160 20:19 02.11.2019
4884 Rain 10 989 87 10000 3.6 160 19:41 02.11.2019
4885 Rain 10 989 87 10000 3.6 170 19:23 02.11.2019
4886 Rain 11 989 87 10000 3.6 220 18:57 02.11.2019
4887 Rain 11 989 87 10000 3.6 220 18:38 02.11.2019
4888 Rain 11 989 87 10000 4.6 200 18:20 02.11.2019
4889 Clouds 12 989 93 10000 1 220 17:58 02.11.2019
4890 Clouds 12 989 93 10000 1 220 17:39 02.11.2019
4891 Clouds 12 989 87 10000 4.1 210 17:21 02.11.2019
4892 Clouds 12 989 87 10000 4.1 210 16:57 02.11.2019
4893 Clouds 13 988 87 10000 3.6 190 16:37 02.11.2019
4894 Rain 13 988 87 10000 4.6 250 16:18 02.11.2019
4895 Clouds 14 988 82 10000 3.1 200 15:42 02.11.2019
4896 Clouds 14 988 87 10000 3.1 210 15:20 02.11.2019
4897 Clouds 14 988 87 10000 3.1 210 15:20 02.11.2019
4898 Clouds 14 988 87 10000 4.1 220 14:43 02.11.2019
4899 Clouds 14 988 87 10000 4.1 220 14:24 02.11.2019
4900 Clouds 14 988 87 10000 5.1 220 13:59 02.11.2019
4901 Clouds 14 988 87 10000 5.1 220 13:39 02.11.2019
4902 Clouds 14 988 93 10000 4.6 220 13:20 02.11.2019
4903 Drizzle 14 988 93 10000 5.1 220 12:56 02.11.2019
4904 Drizzle 13 988 93 10000 5.1 220 12:37 02.11.2019
4905 Drizzle 13 988 100 4600 6.2 220 12:19 02.11.2019
4906 Drizzle 12 988 93 5000 4.6 200 11:42 02.11.2019
4907 Drizzle 11 988 100 8000 4.1 160 11:23 02.11.2019
4908 Rain 11 988 93 4600 4.1 160 10:56 02.11.2019
4909 Rain 11 988 93 4600 4.1 160 10:38 02.11.2019
4910 Rain 10 988 100 5000 4.1 150 10:18 02.11.2019
4911 Rain 10 988 100 4000 4.1 150 09:40 02.11.2019
4912 Drizzle 10 988 93 4600 4.6 150 09:22 02.11.2019
4913 Drizzle 9 989 100 4200 4.1 150 08:51 02.11.2019
4914 Drizzle 9 989 100 3500 4.1 140 08:24 02.11.2019
4915 Drizzle 9 989 100 3500 4.1 140 07:58 02.11.2019
4916 Drizzle 8 989 93 4200 4.1 150 07:40 02.11.2019
4917 Drizzle 8 989 100 4500 3.6 140 07:22 02.11.2019
4918 Drizzle 8 990 100 4500 3.6 140 06:50 02.11.2019
4919 Drizzle 8 990 100 4500 3.6 140 06:22 02.11.2019
4920 Rain 8 991 93 4800 3.1 140 05:44 02.11.2019
4921 Rain 7 992 100 4000 3.6 140 04:24 02.11.2019
4922 Drizzle 7 992 93 4000 3.6 140 03:51 02.11.2019
4923 Drizzle 7 993 93 4500 4.1 150 03:30 02.11.2019
4924 Drizzle 6 994 100 4000 4.1 150 02:29 02.11.2019
4925 Drizzle 6 995 100 5000 4.1 150 01:36 02.11.2019
4926 Drizzle 6 995 93 3500 4.1 140 01:18 02.11.2019
4927 Drizzle 6 996 93 5000 4.6 140 00:42 02.11.2019
4928 Drizzle 5 996 100 5000 4.1 140 00:21 02.11.2019
4929 Drizzle 5 997 100 5000 3.6 130 23:42 01.11.2019
4930 Mist 5 997 93 5000 3.6 140 23:20 01.11.2019
4931 Mist 5 998 93 5000 3.6 140 22:42 01.11.2019
4932 Mist 5 998 93 5000 4.1 140 22:21 01.11.2019
4933 Mist 5 998 93 5000 4.1 140 22:21 01.11.2019
4934 Drizzle 5 999 93 4500 4.1 140 21:56 01.11.2019
4935 Drizzle 4 999 93 4500 4.1 140 21:37 01.11.2019
4936 Drizzle 4 999 100 4000 4.1 150 21:18 01.11.2019
4937 Drizzle 4 1000 93 4500 4.6 150 20:42 01.11.2019
4938 Drizzle 4 1000 93 4500 4.6 150 20:24 01.11.2019
4939 Drizzle 4 1001 93 3500 5.1 150 19:59 01.11.2019
4940 Drizzle 4 1001 93 3500 5.1 150 19:41 01.11.2019
4941 Rain 4 1002 93 4000 4.6 140 19:22 01.11.2019
4942 Rain 4 1003 93 6000 4.6 150 18:57 01.11.2019
4943 Rain 4 1003 93 6000 4.6 150 18:38 01.11.2019
4944 Rain 4 1003 86 6000 5.7 140 18:18 01.11.2019
4945 Rain 4 1003 86 5000 5.1 140 17:41 01.11.2019
4946 Rain 4 1003 86 5000 5.1 140 17:41 01.11.2019
4947 Rain 4 1004 86 5000 5.1 140 17:23 01.11.2019
4948 Rain 4 1004 86 5000 5.1 140 16:58 01.11.2019
4949 Rain 4 1004 86 6000 5.1 140 16:36 01.11.2019
4950 Rain 4 1005 80 7000 5.1 150 16:18 01.11.2019
4951 Rain 4 1006 80 9000 5.7 150 15:41 01.11.2019
4952 Clouds 4 1006 81 10000 6.2 150 15:22 01.11.2019
4953 Clouds 4 1006 81 10000 6.2 150 14:57 01.11.2019
4954 Clouds 4 1007 81 10000 6.7 140 14:39 01.11.2019
4955 Clouds 4 1007 81 10000 6.7 140 14:39 01.11.2019
4956 Clouds 4 1007 64 10000 5.7 150 14:21 01.11.2019
4957 Clouds 5 1007 64 10000 5.7 150 13:56 01.11.2019
4958 Clouds 4 1008 62 10000 5.1 160 13:37 01.11.2019
4959 Clouds 4 1009 62 10000 6.2 150 13:18 01.11.2019
4960 Clouds 4 1009 62 10000 4.6 140 12:43 01.11.2019
4961 Clouds 4 1010 62 10000 6.2 140 12:24 01.11.2019
4962 Clouds 3 1011 74 10000 5.1 150 11:44 01.11.2019
4963 Clouds 3 1011 80 10000 6.2 150 11:25 01.11.2019
4964 Clouds 2 1012 80 10000 6.2 130 10:59 01.11.2019
4965 Clouds 2 1012 80 10000 6.2 130 10:40 01.11.2019
4966 Clouds 1 1012 80 10000 6.2 140 10:21 01.11.2019
4967 Clouds 1 1013 80 10000 4.6 130 09:56 01.11.2019
4968 Clouds 1 1013 80 10000 4.6 130 09:37 01.11.2019
4969 Clouds 0 1014 80 0 4.6 130 09:19 01.11.2019
4970 Clouds 0 1014 68 10000 4.6 120 08:42 01.11.2019
4971 Clouds -1 1015 76 10000 4.1 130 08:22 01.11.2019
4972 Clouds -1 1016 86 10000 2.6 160 07:54 01.11.2019
4973 Clouds -1 1016 86 10000 2.6 160 07:36 01.11.2019
4974 Clouds -1 1016 86 10000 3.6 140 07:18 01.11.2019
4975 Clouds -1 1016 92 10000 2.6 140 06:40 01.11.2019
4976 Clouds -1 1016 92 10000 4.6 110 06:21 01.11.2019
4977 Clouds -1 1017 86 10000 3.1 100 05:43 01.11.2019
4978 Clouds -1 1019 92 10000 1.5 120 03:42 01.11.2019
4979 Clouds -1 1020 83 10000 2.1 120 02:47 01.11.2019
4980 Clear -1 1021 80 10000 2.6 130 01:28 01.11.2019
4981 Clear 0 1022 88 10000 2.6 120 00:39 01.11.2019
4982 Clear 0 1022 86 10000 2.6 140 00:18 01.11.2019
4983 Clear 0 1022 86 10000 3.1 110 23:42 31.10.2019
4984 Clear 0 1023 86 10000 3.1 130 23:22 31.10.2019
4985 Clear 0 1023 86 10000 3.6 120 22:54 31.10.2019
4986 Clear 0 1023 86 10000 3.6 120 22:36 31.10.2019
4987 Clear 0 1024 80 10000 3.1 90 22:18 31.10.2019
4988 Clear 1 1024 80 10000 2.6 80 21:41 31.10.2019
4989 Clear 1 1024 80 10000 2.6 110 21:20 31.10.2019
4990 Clear 1 1024 80 10000 2.6 110 20:56 31.10.2019
4991 Clouds 1 1024 82 10000 3.1 120 20:37 31.10.2019
4992 Clouds 1 1024 78 10000 2.6 90 20:19 31.10.2019
4993 Clouds 1 1025 78 10000 2.6 90 19:40 31.10.2019
4994 Clouds 1 1025 78 10000 2.6 90 19:40 31.10.2019
4995 Clouds 1 1025 80 10000 2.6 80 19:21 31.10.2019
4996 Clouds 2 1025 78 10000 2.6 100 18:56 31.10.2019
4997 Clouds 2 1025 78 10000 2.6 100 18:38 31.10.2019
4998 Clouds 3 1025 78 10000 2.1 100 18:19 31.10.2019
4999 Clouds 4 1025 65 10000 2.1 100 17:41 31.10.2019
5000 Clouds 5 1025 66 10000 2.6 100 17:22 31.10.2019
5001 Clouds 6 1025 66 10000 2.6 100 16:58 31.10.2019
5002 Clouds 6 1025 66 10000 2.6 100 16:40 31.10.2019
5003 Clouds 7 1025 66 10000 2.6 120 16:20 31.10.2019
5004 -273 0 0 0 0 0 15:56 31.10.2019
5005 Clouds 7 1025 66 10000 1.5 150 15:37 31.10.2019
5006 Clouds 8 1025 52 10000 2.1 100 15:19 31.10.2019
5007 Clouds 8 1025 52 10000 2.1 100 15:19 31.10.2019
5008 Clouds 8 1025 52 10000 2.1 100 15:19 31.10.2019
5009 Clouds 8 1025 66 10000 3.1 100 14:55 31.10.2019
5010 Clouds 8 1025 66 10000 3.1 100 14:37 31.10.2019
5011 Clouds 8 1026 52 10000 2.6 150 14:19 31.10.2019
5012 Clouds 8 1026 55 10000 3.6 140 13:54 31.10.2019
5013 Clouds 8 1026 58 10000 3.6 140 13:36 31.10.2019
5014 Clouds 7 1026 58 10000 3.1 140 13:18 31.10.2019
5015 Clouds 7 1027 58 10000 3.6 170 12:42 31.10.2019
5016 Clouds 7 1027 65 10000 2.6 130 12:23 31.10.2019
5017 Clouds 6 1027 65 10000 2.6 130 11:55 31.10.2019
5018 Clouds 5 1027 70 10000 3.1 150 11:36 31.10.2019
5019 Clouds 5 1027 75 10000 2.6 160 11:18 31.10.2019
5020 Clouds 3 1027 80 10000 2.1 170 10:40 31.10.2019
5021 Clouds 2 1028 76 10000 1.5 150 10:22 31.10.2019
5022 Clouds 2 1028 76 10000 1.5 150 09:59 31.10.2019
5023 Clouds 1 1028 76 10000 1.5 170 09:41 31.10.2019
5024 Clouds 1 1028 86 10000 1 0 09:18 31.10.2019
5025 Clouds -1 1028 92 10000 1.5 90 08:49 31.10.2019
5026 Clouds -2 1028 92 10000 1.5 90 08:30 31.10.2019
5027 Clouds -3 1027 92 10000 1.5 90 07:56 31.10.2019
5028 Clouds -3 1027 92 10000 1.5 90 07:38 31.10.2019
5029 Clouds -3 1027 92 10000 1.5 80 07:19 31.10.2019
5030 Clouds -3 1027 92 10000 1.5 80 06:38 31.10.2019
5031 Clouds -3 1027 100 10000 1.5 60 06:19 31.10.2019
5032 Fog -2 1028 92 10000 1.5 50 04:35 31.10.2019
5033 Clear -2 1028 92 10000 1.5 50 02:44 31.10.2019
5034 Clear -2 1028 100 10000 1 0 01:53 31.10.2019
5035 Clear -1 1029 100 10000 1 0 00:39 31.10.2019
5036 Clear -1 1029 88 10000 1.5 60 00:20 31.10.2019
5037 Clear -1 1029 87 10000 1 60 23:30 30.10.2019
5038 Clear -1 1029 87 10000 1.5 70 22:55 30.10.2019
5039 Clear -1 1029 87 10000 1.5 70 22:37 30.10.2019
5040 Clear -1 1029 87 10000 1.5 50 22:18 30.10.2019
5041 Clear 0 1029 87 10000 1.5 50 21:54 30.10.2019
5042 Clear 0 1029 87 10000 1.5 50 21:36 30.10.2019
5043 Clear 0 1030 87 10000 1.5 60 21:18 30.10.2019
5044 Clear 0 1029 87 10000 1 0 20:42 30.10.2019
5045 Clear 0 1029 87 10000 1 0 20:42 30.10.2019
5046 Clear 1 1029 80 10000 0.5 0 20:22 30.10.2019
5047 Clear 1 1029 80 10000 1 0 19:59 30.10.2019
5048 Clear 1 1029 80 10000 1 0 19:39 30.10.2019
5049 Clear 2 1030 93 10000 0.5 0 19:21 30.10.2019
5050 Clear 2 1030 86 10000 0.5 0 18:58 30.10.2019
5051 Clear 3 1030 86 10000 0.5 0 18:37 30.10.2019
5052 Clouds 3 1029 93 10000 1 0 18:18 30.10.2019
5053 Clouds 4 1029 80 10000 2.6 70 17:55 30.10.2019
5054 Clouds 5 1029 80 10000 2.6 70 17:36 30.10.2019
5055 Clouds 5 1029 70 10000 1.5 40 17:18 30.10.2019
5056 Clouds 7 1029 65 10000 2.1 20 16:42 30.10.2019
5057 Clouds 8 1029 61 10000 1.5 360 16:23 30.10.2019
5058 Clouds 8 1029 61 10000 1.5 360 15:57 30.10.2019
5059 Clouds 8 1029 57 10000 1.5 330 15:38 30.10.2019
5060 Clouds 8 1029 72 10000 1 0 15:19 30.10.2019
5061 Clouds 9 1029 72 10000 1 0 15:19 30.10.2019
5062 Clouds 9 1030 57 10000 1 0 14:57 30.10.2019
5063 Clouds 9 1030 57 10000 1 0 14:39 30.10.2019
5064 Clouds 9 1030 62 10000 1.5 320 14:21 30.10.2019
5065 Clouds 9 1030 57 10000 1 0 13:54 30.10.2019
5066 Clouds 9 1030 57 10000 1 0 13:54 30.10.2019
5067 Clouds 9 1030 57 10000 1 0 13:36 30.10.2019
5068 Clouds 9 1031 57 10000 1 0 13:18 30.10.2019
5069 Clouds 9 1031 61 10000 1 0 12:44 30.10.2019
5070 Clouds 8 1031 57 10000 2.1 50 12:25 30.10.2019
5071 Clouds 8 1031 66 10000 1 0 11:58 30.10.2019
5072 Clouds 7 1031 66 10000 1 0 11:40 30.10.2019
5073 Clouds 7 1031 65 10000 0.5 0 11:19 30.10.2019
5074 Clear 5 1031 70 10000 0.5 140 10:43 30.10.2019
5075 Clear 4 1031 80 10000 1 0 10:23 30.10.2019
5076 Clear 3 1031 86 10000 1 0 09:42 30.10.2019
5077 Clear 2 1031 86 10000 1 0 09:24 30.10.2019
5078 Clear 1 1031 73 10000 0.5 0 08:57 30.10.2019
5079 Clear -1 1031 72 10000 0.5 0 08:39 30.10.2019
5080 Clear -1 1031 92 10000 0.5 0 08:20 30.10.2019
5081 Clear -2 1031 92 10000 1 330 07:46 30.10.2019
5082 Clear -2 1030 100 10000 1 0 07:21 30.10.2019
5083 Clear -2 1030 100 10000 1 320 06:42 30.10.2019
5084 Clear -2 1030 100 10000 1 320 06:42 30.10.2019
5085 Clear -2 1030 92 10000 0.5 200 06:21 30.10.2019
5086 Clear -2 1030 92 10000 1.5 310 05:42 30.10.2019
5087 Clear -1 1030 100 10000 0.77 33 04:55 30.10.2019
5088 Clear -1 1030 100 10000 0.5 300 03:43 30.10.2019
5089 Clear -1 1030 100 10000 0.5 340 02:55 30.10.2019
5090 Clear -1 1030 100 10000 0.5 330 02:19 30.10.2019
5091 Clear 0 1030 100 10000 0.5 360 01:32 30.10.2019
5092 Clear 0 1030 83 10000 1 320 00:31 30.10.2019
5093 Clear 0 1030 83 10000 0.21 54 23:46 29.10.2019
5094 Clear 1 1030 80 10000 0.5 320 23:25 29.10.2019
5095 Clear 1 1030 80 10000 1.5 330 22:55 29.10.2019
5096 Clear 1 1030 80 10000 1.5 330 22:37 29.10.2019
5097 Clear 1 1030 80 10000 1.5 330 22:37 29.10.2019
5098 Clear 2 1030 93 10000 1 330 22:18 29.10.2019
5099 Clouds 1 1030 80 10000 1 0 21:54 29.10.2019
5100 Clouds 1 1030 80 10000 1 0 21:36 29.10.2019
5101 Clouds 2 1030 80 10000 1 0 21:18 29.10.2019
5102 Clouds 2 1029 93 10000 1 0 20:41 29.10.2019
5103 Clear 3 1029 78 10000 0.5 0 20:21 29.10.2019
5104 Clear 3 1029 78 10000 0.5 0 20:21 29.10.2019
5105 Clear 3 1029 93 10000 0.5 0 19:57 29.10.2019
5106 Clear 3 1029 93 10000 0.5 0 19:38 29.10.2019
5107 Clear 4 1029 86 10000 0.5 350 19:20 29.10.2019
5108 Clear 3 1029 86 10000 0.5 350 18:57 29.10.2019
5109 Clear 4 1029 78 10000 1 0 18:37 29.10.2019
5110 Clear 4 1028 86 10000 1.69 46 18:19 29.10.2019
5111 Clear 4 1028 86 10000 1.69 46 18:19 29.10.2019
5112 Clear 5 1028 78 10000 1.5 30 17:56 29.10.2019
5113 Clear 5 1028 78 10000 1.5 30 17:37 29.10.2019
5114 Clouds 7 1028 71 10000 2.1 40 17:18 29.10.2019
5115 Clouds 8 1027 71 10000 3.1 40 16:40 29.10.2019
5116 Clouds 9 1027 57 10000 3.1 50 16:21 29.10.2019
5117 Clouds 9 1027 57 10000 3.6 20 15:58 29.10.2019
5118 Clouds 9 1027 57 10000 3.6 20 15:39 29.10.2019
5119 Clouds 9 1027 53 10000 3.6 30 15:20 29.10.2019
5120 Clouds 9 1026 57 10000 3.6 40 14:56 29.10.2019
5121 Clouds 10 1026 57 10000 3.6 40 14:38 29.10.2019
5122 Clouds 10 1026 61 10000 4.6 50 14:19 29.10.2019
5123 Clouds 10 1026 61 10000 3.1 50 13:40 29.10.2019
5124 Clouds 10 1026 70 10000 2.6 20 13:22 29.10.2019
5125 Clouds 10 1026 70 10000 3.6 30 12:56 29.10.2019
5126 Clouds 10 1026 70 10000 3.6 30 12:37 29.10.2019
5127 Clouds 9 1026 70 10000 3.6 30 12:19 29.10.2019
5128 Clouds 9 1026 70 10000 3.6 30 11:43 29.10.2019
5129 Clear 8 1026 70 10000 3.6 30 11:23 29.10.2019
5130 Clear 8 1026 70 10000 3.6 30 10:59 29.10.2019
5131 Clear 7 1025 81 10000 2.6 30 10:41 29.10.2019
5132 Clear 6 1025 87 10000 1.5 330 10:20 29.10.2019
5133 Clear 6 1025 86 10000 2.6 330 09:59 29.10.2019
5134 Clear 5 1025 86 10000 2.6 330 09:41 29.10.2019
5135 Clouds 4 1025 93 10000 2.6 320 09:23 29.10.2019
5136 Clouds 3 1024 93 8000 2.1 320 08:55 29.10.2019
5137 Clouds 3 1024 93 8000 2.1 320 08:36 29.10.2019
5138 Fog 2 1024 94 6000 1 0 08:18 29.10.2019
5139 Fog 2 1023 100 10000 1 0 07:47 29.10.2019
5140 Fog 2 1023 94 10000 1 0 07:19 29.10.2019
5141 Fog 2 1023 94 2000 2.1 330 06:52 29.10.2019
5142 Fog 1 1023 100 300 0.5 0 06:29 29.10.2019
5143 Fog 1 1022 94 250 1.5 320 05:53 29.10.2019
5144 Fog 1 1022 94 250 1.5 320 05:35 29.10.2019
5145 Fog 2 1022 93 200 1.19 295 04:39 29.10.2019
5146 Fog 2 1022 100 500 0.5 340 02:34 29.10.2019
5147 Fog 3 1022 100 900 1.53 276 01:56 29.10.2019
5148 Fog 3 1021 100 4000 0.5 0 01:34 29.10.2019
5149 Fog 3 1021 93 10000 0.5 0 00:52 29.10.2019
5150 Fog 4 1021 100 10000 1 0 23:59 28.10.2019
5151 Fog 4 1021 93 10000 1 300 23:37 28.10.2019
5152 Clouds 4 1021 93 10000 1.5 310 23:19 28.10.2019
5153 Clear 5 1021 100 10000 1.5 320 22:39 28.10.2019
5154 Clear 5 1021 100 10000 0.5 0 22:20 28.10.2019
5155 Clear 5 1021 93 10000 1.5 270 21:59 28.10.2019
5156 Clear 5 1021 93 10000 1.5 270 21:41 28.10.2019
5157 Clear 6 1021 93 10000 2.6 280 21:22 28.10.2019
5158 Clear 6 1021 87 10000 3.1 270 20:59 28.10.2019
5159 Clear 6 1021 87 10000 3.1 270 20:40 28.10.2019
5160 Rain 6 1021 87 10000 2.1 280 20:21 28.10.2019
5161 Rain 6 1021 87 10000 2.1 280 20:21 28.10.2019
5162 Rain 6 1021 87 10000 2.6 290 19:54 28.10.2019
5163 Rain 6 1021 87 10000 2.6 290 19:36 28.10.2019
5164 Rain 6 1021 87 10000 2.6 290 19:36 28.10.2019
5165 Rain 6 1021 87 10000 2.6 290 19:36 28.10.2019
5166 Rain 7 1021 87 10000 2.6 280 19:18 28.10.2019
5167 Rain 7 1021 87 10000 2.6 280 18:57 28.10.2019
5168 Rain 7 1020 81 10000 2.6 270 18:38 28.10.2019
5169 Rain 8 1020 81 10000 3.1 280 18:20 28.10.2019
5170 Rain 8 1020 81 10000 3.6 290 17:55 28.10.2019
5171 Rain 8 1020 81 10000 3.6 290 17:37 28.10.2019
5172 Clouds 9 1020 81 10000 3.1 280 17:18 28.10.2019
5173 Rain 9 1020 76 10000 4.1 310 16:55 28.10.2019
5174 Rain 10 1020 76 10000 4.1 310 16:36 28.10.2019
5175 Rain 10 1019 76 10000 5.1 280 16:18 28.10.2019
5176 Rain 10 1019 76 10000 5.7 300 15:56 28.10.2019
5177 Rain 10 1019 76 10000 5.7 300 15:37 28.10.2019
5178 Rain 11 1019 71 10000 4.6 270 15:18 28.10.2019
5179 Rain 11 1019 76 10000 4.1 250 14:55 28.10.2019
5180 Rain 11 1019 76 10000 4.1 250 14:36 28.10.2019
5181 Clouds 11 1019 76 10000 3.6 240 14:18 28.10.2019
5182 Clouds 11 1019 76 10000 3.6 240 14:18 28.10.2019
5183 Clouds 11 1020 81 10000 3.6 250 13:54 28.10.2019
5184 Clouds 11 1020 81 10000 3.6 250 13:54 28.10.2019
5185 Clouds 11 1020 81 10000 3.6 250 13:36 28.10.2019
5186 Clouds 12 1020 81 10000 5.1 280 13:18 28.10.2019
5187 Rain 12 1020 81 10000 5.1 250 12:40 28.10.2019
5188 Clouds 12 1020 76 10000 4.1 270 12:19 28.10.2019
5189 Clouds 11 1020 81 10000 3.6 260 11:39 28.10.2019
5190 Rain 11 1020 81 10000 4.1 260 11:20 28.10.2019
5191 Rain 11 1020 81 10000 4.1 260 11:20 28.10.2019
5192 Clouds 10 1020 81 10000 3.6 260 10:56 28.10.2019
5193 Clouds 10 1020 81 10000 3.6 260 10:38 28.10.2019
5194 Rain 10 1019 87 10000 3.1 260 10:19 28.10.2019
5195 Rain 9 1019 87 10000 3.1 260 09:54 28.10.2019
5196 Rain 9 1019 87 10000 3.6 250 09:36 28.10.2019
5197 Rain 8 1019 93 10000 5.1 250 09:18 28.10.2019
5198 Clouds 8 1019 93 10000 3.6 240 08:56 28.10.2019
5199 Clouds 7 1019 93 10000 3.6 240 08:37 28.10.2019
5200 Clouds 7 1019 93 10000 3.1 250 08:18 28.10.2019
5201 Rain 7 1018 93 10000 3.1 250 07:43 28.10.2019
5202 Clouds 7 1018 93 10000 3.6 250 07:23 28.10.2019
5203 Clouds 7 1018 93 10000 3.6 240 06:59 28.10.2019
5204 Clouds 7 1018 93 10000 3.6 240 06:37 28.10.2019
5205 Clouds 7 1018 93 10000 4.6 250 05:19 28.10.2019
5206 Clouds 8 1017 93 10000 5.1 250 03:44 28.10.2019
5207 Rain 8 1017 93 10000 4.6 250 02:46 28.10.2019
5208 Rain 8 1017 87 10000 5.1 250 01:52 28.10.2019
5209 Rain 8 1017 87 10000 4.6 250 00:47 28.10.2019
5210 Clouds 8 1017 87 10000 4.6 240 00:26 28.10.2019
5211 Rain 8 1017 76 10000 5.1 250 23:44 27.10.2019
5212 Clouds 8 1017 76 10000 5.1 250 23:22 27.10.2019
5213 Clouds 8 1017 76 10000 5.1 250 22:57 27.10.2019
5214 Clouds 8 1017 76 10000 5.7 250 22:37 27.10.2019
5215 Clouds 8 1017 76 10000 5.7 250 22:19 27.10.2019
5216 Clouds 8 1017 76 10000 5.7 250 21:56 27.10.2019
5217 Clouds 8 1017 76 10000 5.7 240 21:38 27.10.2019
5218 Clouds 9 1017 76 10000 4.6 240 21:20 27.10.2019
5219 Clouds 9 1017 76 10000 5.1 250 20:54 27.10.2019
5220 Clouds 9 1017 76 10000 5.1 250 20:36 27.10.2019
5221 Clouds 9 1017 76 10000 5.7 250 20:18 27.10.2019
5222 Rain 9 1017 71 10000 5.1 250 19:39 27.10.2019
5223 Rain 9 1017 71 10000 5.1 240 19:20 27.10.2019
5224 Rain 9 1017 71 10000 5.1 240 18:57 27.10.2019
5225 Clouds 9 1017 71 10000 4.6 240 18:39 27.10.2019
5226 Clouds 9 1017 71 10000 4.6 240 18:39 27.10.2019
5227 Clouds 10 1017 71 10000 4.6 240 18:21 27.10.2019
5228 Clouds 10 1016 71 10000 4.1 240 17:57 27.10.2019
5229 Clouds 10 1016 71 10000 4.1 240 17:38 27.10.2019
5230 Clouds 10 1016 66 10000 4.6 240 17:19 27.10.2019
5231 Clouds 11 1016 66 10000 6.2 250 16:57 27.10.2019
5232 Clouds 11 1016 66 10000 6.2 250 16:38 27.10.2019
5233 Clouds 11 1016 66 10000 5.7 240 16:20 27.10.2019
5234 Clouds 12 1016 62 10000 7.2 250 15:56 27.10.2019
5235 Clouds 12 1016 62 10000 7.2 250 15:37 27.10.2019
5236 Clouds 12 1016 62 10000 6.2 260 15:19 27.10.2019
5237 Clouds 12 1016 62 10000 6.7 260 14:42 27.10.2019
5238 Clouds 12 1016 58 10000 7.2 280 14:20 27.10.2019
5239 Clouds 12 1016 62 10000 7.7 260 13:58 27.10.2019
5240 Clouds 12 1016 62 10000 7.7 260 13:38 27.10.2019
5241 Clouds 12 1016 62 10000 7.2 250 13:19 27.10.2019
5242 Clouds 12 1016 62 10000 6.7 260 12:46 27.10.2019
5243 Clouds 12 1016 62 10000 6.7 260 12:24 27.10.2019
5244 Clouds 12 1016 62 10000 6.7 260 11:59 27.10.2019
5245 Clouds 11 1015 62 10000 5.7 260 11:41 27.10.2019
5246 Clouds 11 1015 62 10000 6.7 260 11:21 27.10.2019
5247 Clouds 11 1015 62 10000 7.2 270 10:44 27.10.2019
5248 Clouds 11 1014 62 10000 6.2 260 10:25 27.10.2019
5249 Clouds 11 1014 62 10000 6.2 260 09:57 27.10.2019
5250 Clouds 10 1014 66 10000 6.7 260 09:39 27.10.2019
5251 Clouds 9 1014 71 10000 5.1 260 09:18 27.10.2019
5252 Clouds 9 1014 71 10000 5.1 260 08:56 27.10.2019
5253 Clouds 9 1013 76 10000 4.1 270 08:37 27.10.2019
5254 Clouds 9 1013 76 10000 4.6 260 08:18 27.10.2019
5255 Clouds 9 1012 76 10000 5.1 260 07:43 27.10.2019
5256 Clouds 9 1011 76 10000 5.1 270 07:24 27.10.2019
5257 Clouds 9 1011 87 10000 5.1 270 06:49 27.10.2019
5258 Clouds 10 1011 87 10000 5.1 270 06:26 27.10.2019
5259 Drizzle 10 1010 93 10000 6.7 290 05:41 27.10.2019
5260 Drizzle 11 1009 93 10000 7.7 290 04:54 27.10.2019
5261 Clouds 16 1006 67 10000 8.7 230 02:55 27.10.2019
5262 Clouds 16 1006 63 10000 8.2 220 01:49 27.10.2019
5263 Clouds 16 1006 59 10000 8.7 230 01:21 27.10.2019
5264 Clouds 16 1006 63 10000 8.2 220 00:46 27.10.2019
5265 Clouds 16 1007 63 10000 7.7 210 00:24 27.10.2019
5266 Clouds 16 1007 63 10000 7.7 210 23:56 26.10.2019
5267 Rain 16 1007 72 10000 7.7 210 23:38 26.10.2019
5268 Clouds 16 1007 63 10000 7.2 200 23:20 26.10.2019
5269 Clouds 16 1007 63 10000 7.2 200 22:55 26.10.2019
5270 Clouds 16 1007 63 10000 7.2 200 22:36 26.10.2019
5271 Clouds 16 1007 63 10000 7.7 210 22:18 26.10.2019
5272 Clouds 16 1007 63 10000 7.7 210 22:18 26.10.2019
5273 Clouds 16 1008 63 10000 6.7 220 21:43 26.10.2019
5274 Clouds 16 1008 63 10000 7.2 220 21:21 26.10.2019
5275 Clouds 16 1008 63 10000 7.2 210 20:57 26.10.2019
5276 Clouds 16 1008 63 10000 7.2 210 20:36 26.10.2019
5277 Clouds 16 1008 67 10000 7.7 210 20:18 26.10.2019
5278 Clouds 16 1008 67 10000 7.7 210 20:18 26.10.2019
5279 Clouds 16 1008 67 10000 4.6 200 19:42 26.10.2019
5280 Clouds 17 1008 67 10000 5.7 210 19:20 26.10.2019
5281 Clouds 16 1008 67 10000 5.7 210 19:20 26.10.2019
5282 Clouds 17 1008 63 10000 5.1 200 18:57 26.10.2019
5283 Clouds 17 1008 63 10000 5.1 200 18:39 26.10.2019
5284 Clouds 17 1008 59 10000 6.2 210 18:19 26.10.2019
5285 Clouds 17 1008 63 10000 7.7 210 17:56 26.10.2019
5286 Clouds 18 1008 63 10000 7.7 210 17:37 26.10.2019
5287 Clouds 18 1009 63 10000 8.7 220 17:19 26.10.2019
5288 Clouds 18 1009 68 10000 8.7 220 16:44 26.10.2019
5289 Clouds 18 1009 68 10000 8.7 210 16:25 26.10.2019
5290 Clouds 18 1009 68 10000 8.7 210 15:59 26.10.2019
5291 Clouds 18 1009 63 10000 9.8 210 15:37 26.10.2019
5292 Clouds 18 1009 63 10000 9.8 210 15:18 26.10.2019
5293 Clouds 18 1010 68 10000 8.7 220 14:39 26.10.2019
5294 Clouds 18 1010 63 10000 11.3 230 14:19 26.10.2019
5295 Clouds 18 1011 67 0 7.28 227 13:56 26.10.2019
5296 Clouds 18 1011 67 0 7.28 227 13:36 26.10.2019
5297 Clouds 17 1011 68 10000 11.8 220 13:18 26.10.2019
5298 Clouds 15 1013 65 0 1.79 184 12:42 26.10.2019
5299 Clouds 16 1011 72 10000 9.3 220 12:19 26.10.2019
5300 Clouds 16 1011 72 10000 9.3 220 11:47 26.10.2019
5301 Clouds 16 1011 72 10000 9.3 220 11:25 26.10.2019
5302 Clouds 15 1011 77 10000 8.7 220 10:47 26.10.2019
5303 Clouds 15 1011 77 10000 8.7 220 10:26 26.10.2019
5304 Clouds 15 1011 77 10000 9.3 220 09:49 26.10.2019
5305 Clouds 15 1011 77 10000 8.7 220 09:30 26.10.2019
5306 Clouds 15 1011 77 10000 8.7 220 08:57 26.10.2019
5307 Clouds 15 1011 77 10000 9.3 220 08:39 26.10.2019
5308 Clouds 15 1011 72 10000 9.8 220 08:20 26.10.2019
5309 Clouds 15 1011 72 10000 9.3 220 07:43 26.10.2019
5310 Clouds 14 1011 72 10000 9.8 210 07:23 26.10.2019
5311 Clouds 14 1011 72 10000 10.3 210 06:40 26.10.2019
5312 Clouds 14 1011 72 10000 9.3 210 05:57 26.10.2019
5313 Clouds 14 1011 76 10000 9.8 210 05:19 26.10.2019
5314 Clouds 14 1012 76 10000 9.3 200 03:53 26.10.2019
5315 Clouds 13 1013 71 10000 9.8 210 02:35 26.10.2019
5316 Clouds 13 1013 71 10000 8.2 210 01:47 26.10.2019
5317 Clouds 13 1014 67 10000 6.7 190 00:56 26.10.2019
5318 Clouds 12 1014 67 10000 7.2 190 23:57 25.10.2019
5319 Clouds 12 1015 67 10000 7.2 190 23:38 25.10.2019
5320 Clouds 12 1015 71 10000 5.1 180 23:19 25.10.2019
5321 Clouds 12 1015 71 10000 5.1 160 22:40 25.10.2019
5322 Clouds 12 1016 71 10000 4.1 170 22:21 25.10.2019
5323 Clouds 12 1016 71 10000 4.1 170 21:57 25.10.2019
5324 Clouds 12 1016 71 10000 5.7 180 21:38 25.10.2019
5325 Clouds 12 1016 71 10000 5.1 190 21:19 25.10.2019
5326 Clouds 12 1017 71 10000 4.6 200 20:44 25.10.2019
5327 Clouds 12 1017 76 10000 5.1 200 20:20 25.10.2019
5328 Clouds 12 1017 76 10000 5.1 200 20:20 25.10.2019
5329 Clouds 13 1017 67 10000 6.2 200 19:59 25.10.2019
5330 Clouds 13 1017 71 10000 5.7 210 19:40 25.10.2019
5331 Clouds 13 1017 71 10000 5.7 200 19:22 25.10.2019
5332 Clouds 13 1017 71 10000 5.1 200 18:43 25.10.2019
5333 Clouds 14 1017 71 10000 6.7 210 18:21 25.10.2019
5334 Clouds 14 1017 67 10000 6.7 210 17:41 25.10.2019
5335 Clouds 14 1017 67 10000 7.2 210 17:21 25.10.2019
5336 Clouds 15 1017 67 10000 6.2 210 16:54 25.10.2019
5337 Clouds 15 1017 67 10000 6.2 210 16:36 25.10.2019
5338 Clouds 15 1017 67 10000 6.7 210 16:18 25.10.2019
5339 Clouds 15 1017 67 10000 6.2 220 15:40 25.10.2019
5340 Clouds 15 1017 67 10000 7.7 220 15:21 25.10.2019
5341 Clouds 15 1017 67 10000 7.7 230 14:57 25.10.2019
5342 Clouds 15 1017 67 10000 7.7 230 14:39 25.10.2019
5343 Clouds 15 1017 72 10000 7.7 230 14:20 25.10.2019
5344 Clouds 14 1017 67 10000 7.2 240 13:41 25.10.2019
5345 Clouds 14 1017 67 10000 6.7 230 13:23 25.10.2019
5346 Clouds 14 1016 71 10000 7.7 240 12:55 25.10.2019
5347 Clouds 14 1016 71 10000 7.7 240 12:37 25.10.2019
5348 Clouds 14 1016 76 10000 6.2 230 12:19 25.10.2019
5349 Clouds 13 1016 82 10000 6.2 230 11:40 25.10.2019
5350 Clouds 13 1016 82 10000 6.7 230 11:22 25.10.2019
5351 Clouds 13 1016 82 10000 6.7 230 10:57 25.10.2019
5352 Clouds 13 1015 82 10000 6.2 230 10:39 25.10.2019
5353 Clouds 13 1015 82 10000 6.2 240 10:19 25.10.2019
5354 Clouds 13 1014 87 10000 4.6 240 09:54 25.10.2019
5355 Clouds 13 1014 87 10000 4.6 240 09:36 25.10.2019
5356 Drizzle 12 1014 87 10000 6.7 230 09:18 25.10.2019
5357 Drizzle 13 1013 87 10000 6.2 230 08:43 25.10.2019
5358 Drizzle 13 1013 87 10000 5.7 240 08:23 25.10.2019
5359 Clouds 13 1012 82 10000 5.7 230 07:51 25.10.2019
5360 Clouds 13 1012 82 10000 5.7 230 07:32 25.10.2019
5361 Clouds 13 1012 82 10000 4.6 210 06:39 25.10.2019
5362 Clouds 13 1011 76 10000 4.1 230 05:51 25.10.2019
5363 Clouds 13 1011 76 10000 4.1 230 05:32 25.10.2019
5364 Clouds 14 1011 76 10000 5.1 230 04:38 25.10.2019
5365 Clouds 14 1010 77 10000 7.2 240 02:46 25.10.2019
5366 Clouds 14 1009 82 10000 4.1 220 01:53 25.10.2019
5367 Clouds 13 1009 82 10000 3.6 220 00:41 25.10.2019
5368 Clouds 13 1009 87 10000 3.6 150 23:57 24.10.2019
5369 Clouds 14 1009 87 10000 3.6 150 23:38 24.10.2019
5370 Clouds 14 1009 87 10000 4.1 160 23:19 24.10.2019
5371 Clouds 14 1009 87 10000 4.1 160 22:54 24.10.2019
5372 Clouds 14 1009 87 10000 4.1 160 22:54 24.10.2019
5373 Clouds 14 1009 87 10000 4.1 160 22:36 24.10.2019
5374 Clouds 13 1008 87 10000 3.6 190 22:18 24.10.2019
5375 Clouds 13 1008 93 10000 2.1 180 21:54 24.10.2019
5376 Clouds 13 1008 93 10000 2.1 180 21:36 24.10.2019
5377 Clouds 13 1008 93 10000 2.1 150 21:18 24.10.2019
5378 Clouds 13 1008 93 10000 2.6 150 20:54 24.10.2019
5379 Clouds 13 1008 93 10000 2.6 150 20:36 24.10.2019
5380 Clouds 13 1008 87 10000 3.1 160 20:18 24.10.2019
5381 Clouds 13 1008 87 10000 4.1 160 19:42 24.10.2019
5382 Clouds 13 1007 87 10000 3.1 170 19:23 24.10.2019
5383 Clouds 14 1007 87 10000 3.1 170 18:58 24.10.2019
5384 Clouds 14 1007 87 10000 3.1 170 18:58 24.10.2019
5385 Clouds 14 1007 82 10000 4.1 160 18:39 24.10.2019
5386 Clouds 14 1007 82 10000 4.1 170 18:21 24.10.2019
5387 Clouds 14 1007 82 10000 3.1 160 17:57 24.10.2019
5388 Clouds 14 1007 82 10000 3.1 160 17:37 24.10.2019
5389 Clouds 15 1007 82 10000 3.1 160 17:18 24.10.2019
5390 Clouds 15 1007 77 10000 3.1 170 16:42 24.10.2019
5391 Clouds 15 1007 82 10000 3.1 210 16:23 24.10.2019
5392 Clouds 15 1007 82 10000 3.1 210 15:59 24.10.2019
5393 Clouds 15 1008 82 10000 4.1 200 15:59 24.10.2019
5394 Clouds 15 1008 82 10000 4.1 200 15:41 24.10.2019
5395 Clouds 14 1007 82 9000 3.6 130 15:23 24.10.2019
5396 Clouds 14 1007 82 9000 3.6 130 14:59 24.10.2019
5397 Clouds 14 1007 87 9000 4.1 170 14:41 24.10.2019
5398 Clouds 14 1007 87 9000 4.1 170 14:41 24.10.2019
5399 Clouds 14 1007 87 8000 4.1 170 14:22 24.10.2019
5400 Clouds 14 1007 93 7000 3.6 160 13:57 24.10.2019
5401 Clouds 14 1007 93 7000 3.6 160 13:37 24.10.2019
5402 Clouds 14 1007 93 6000 3.6 140 13:18 24.10.2019
5403 Mist 13 1008 93 5000 4.6 160 12:55 24.10.2019
5404 Mist 13 1008 93 5000 4.6 160 12:37 24.10.2019
5405 Mist 13 1008 93 5000 4.1 150 12:18 24.10.2019
5406 Clouds 13 1008 93 4500 5.7 160 11:54 24.10.2019
5407 Clouds 13 1008 93 4500 5.7 160 11:54 24.10.2019
5408 Clouds 13 1008 93 4500 5.7 160 11:36 24.10.2019
5409 Mist 13 1008 93 3500 6.7 150 11:18 24.10.2019
5410 Mist 13 1008 93 3000 5.1 140 10:42 24.10.2019
5411 Mist 12 1008 93 3000 5.1 140 10:23 24.10.2019
5412 Mist 12 1008 93 2000 5.1 140 09:40 24.10.2019
5413 Mist 12 1008 93 2000 5.1 140 09:40 24.10.2019
5414 Mist 12 1008 93 2000 6.7 140 09:19 24.10.2019
5415 Mist 12 1008 93 2500 5.7 140 08:58 24.10.2019
5416 Mist 12 1008 93 2500 5.7 140 08:38 24.10.2019
5417 Mist 12 1008 93 2500 5.1 130 08:20 24.10.2019
5418 Mist 12 1008 93 2500 5.1 130 08:20 24.10.2019
5419 Mist 12 1008 93 3000 4.6 130 07:47 24.10.2019
5420 Mist 12 1008 93 3000 4.6 140 07:23 24.10.2019
5421 Mist 12 1008 93 3000 5.1 130 06:54 24.10.2019
5422 Mist 12 1008 93 3000 5.1 130 06:36 24.10.2019
5423 Mist 12 1009 93 3000 4.6 140 05:55 24.10.2019
5424 Mist 12 1009 93 3000 4.6 140 05:31 24.10.2019
5425 Mist 12 1009 93 3000 4.6 140 05:31 24.10.2019
5426 Mist 12 1010 93 3500 6.2 150 04:23 24.10.2019
5427 Mist 12 1009 93 4500 6.2 130 03:35 24.10.2019
5428 Mist 12 1010 93 5000 4.1 130 02:39 24.10.2019
5429 Clouds 12 1011 87 6000 4.1 140 02:19 24.10.2019
5430 Clouds 12 1011 87 6000 3.6 120 01:31 24.10.2019
5431 Clouds 12 1011 87 7000 3.6 140 00:56 24.10.2019
5432 Clouds 12 1011 87 8000 4.6 130 00:30 24.10.2019
5433 Clear 12 1012 87 9000 4.6 130 23:57 23.10.2019
5434 Clear 12 1012 87 9000 4.1 120 23:38 23.10.2019
5435 Clear 12 1012 93 9000 3.6 130 23:19 23.10.2019
5436 Clear 12 1012 93 9000 3.6 130 22:56 23.10.2019
5437 Clear 12 1012 93 9000 4.1 120 22:37 23.10.2019
5438 Clear 12 1013 87 9000 5.1 120 22:18 23.10.2019
5439 Clear 12 1013 82 9000 4.6 120 21:56 23.10.2019
5440 Clouds 12 1013 82 9000 4.6 120 21:37 23.10.2019
5441 Clouds 12 1014 82 10000 4.6 110 21:19 23.10.2019
5442 Clouds 12 1014 82 10000 4.1 110 20:54 23.10.2019
5443 Clouds 12 1014 82 10000 4.1 110 20:36 23.10.2019
5444 Clouds 12 1014 82 10000 4.1 110 20:18 23.10.2019
5445 Clouds 12 1015 82 10000 3.1 100 19:42 23.10.2019
5446 Clouds 13 1015 76 10000 3.6 110 19:19 23.10.2019
5447 Clouds 13 1015 76 10000 3.1 110 18:58 23.10.2019
5448 Clouds 13 1015 76 10000 3.1 110 18:39 23.10.2019
5449 Clouds 13 1015 76 10000 4.6 120 18:19 23.10.2019
5450 Clouds 14 1016 76 10000 4.1 100 17:55 23.10.2019
5451 Clouds 14 1016 76 10000 4.1 100 17:37 23.10.2019
5452 Clouds 14 1016 76 10000 3.6 110 17:18 23.10.2019
5453 Clouds 14 1016 72 10000 4.1 120 16:40 23.10.2019
5454 Clouds 14 1017 72 10000 4.1 100 16:21 23.10.2019
5455 Clouds 14 1017 72 10000 4.1 120 15:57 23.10.2019
5456 Clouds 14 1017 72 10000 4.1 120 15:39 23.10.2019
5457 Clouds 14 1017 76 10000 3.1 110 15:21 23.10.2019
5458 Clouds 14 1017 76 10000 3.1 110 14:56 23.10.2019
5459 Clouds 14 1018 76 10000 3.6 130 14:37 23.10.2019
5460 Clouds 14 1018 76 10000 4.1 160 14:19 23.10.2019
5461 Clouds 13 1019 76 10000 3.6 150 13:43 23.10.2019
5462 Clouds 14 1019 76 10000 3.6 150 13:43 23.10.2019
5463 Clouds 13 1019 71 10000 4.1 130 13:25 23.10.2019
5464 Clouds 13 1020 76 10000 2.6 150 12:59 23.10.2019
5465 Clouds 12 1020 76 10000 2.6 150 12:41 23.10.2019
5466 Clouds 12 1020 81 10000 2.6 140 12:19 23.10.2019
5467 Clouds 11 1020 81 10000 2.1 140 11:58 23.10.2019
5468 Clouds 11 1020 81 10000 2.1 140 11:40 23.10.2019
5469 Clouds 10 1021 87 8000 2.6 160 11:21 23.10.2019
5470 Clouds 10 1021 87 8000 2.6 160 10:59 23.10.2019
5471 Clouds 10 1021 93 7000 2.1 140 10:40 23.10.2019
5472 Clouds 10 1021 93 7000 2.1 150 10:22 23.10.2019
5473 Clouds 9 1021 93 6000 1 0 09:41 23.10.2019
5474 Mist 9 1021 93 4500 1.5 150 09:22 23.10.2019
5475 Mist 9 1021 93 4500 1.5 150 08:56 23.10.2019
5476 Mist 9 1021 100 4000 1 0 08:38 23.10.2019
5477 Mist 9 1021 93 4000 1.5 150 08:18 23.10.2019
5478 Mist 9 1021 93 2500 1.5 140 07:45 23.10.2019
5479 Fog 9 1021 93 900 2.1 170 07:21 23.10.2019
5480 Mist 9 1021 100 3000 2.6 160 06:45 23.10.2019
5481 Clouds 9 1021 93 6000 1.5 160 06:20 23.10.2019
5482 Fog 9 1021 100 7000 2.6 150 05:20 23.10.2019
5483 Fog 9 1022 93 8000 1.5 120 04:33 23.10.2019
5484 Clouds 9 1023 93 9000 1 150 02:45 23.10.2019
5485 Clouds 9 1023 93 9000 1.5 160 02:25 23.10.2019
5486 Clouds 10 1023 93 10000 1 0 01:25 23.10.2019
5487 Clouds 10 1023 93 10000 1.5 190 00:37 23.10.2019
5488 Clouds 10 1023 100 10000 1 0 00:19 23.10.2019
5489 Clouds 11 1023 93 10000 3.1 210 23:39 22.10.2019
5490 Clouds 11 1023 87 10000 2.6 220 23:18 22.10.2019
5491 Clouds 11 1023 87 10000 2.6 220 23:18 22.10.2019
5492 Clouds 11 1023 87 10000 2.6 220 22:55 22.10.2019
5493 Clouds 11 1023 93 10000 2.6 220 22:37 22.10.2019
5494 Clouds 11 1023 87 10000 2.1 220 22:19 22.10.2019
5495 Clouds 11 1023 87 10000 2.1 220 21:56 22.10.2019
5496 Clouds 12 1023 87 10000 2.6 220 21:36 22.10.2019
5497 Clouds 12 1023 87 10000 2.1 210 21:18 22.10.2019
5498 Clouds 12 1023 87 10000 2.1 210 20:55 22.10.2019
5499 Clouds 12 1023 82 10000 2.1 220 20:37 22.10.2019
5500 Clouds 12 1023 82 10000 1.5 230 20:18 22.10.2019
5501 Clouds 12 1023 82 10000 1.5 230 19:43 22.10.2019
5502 Clouds 13 1023 82 10000 1.5 230 19:24 22.10.2019
5503 Clouds 13 1023 82 10000 2.6 240 18:57 22.10.2019
5504 Clouds 13 1023 82 10000 2.6 240 18:39 22.10.2019
5505 Clouds 13 1022 82 10000 3.1 230 18:21 22.10.2019
5506 Clouds 13 1022 76 10000 3.6 230 17:56 22.10.2019
5507 Clouds 13 1022 76 10000 3.6 230 17:38 22.10.2019
5508 Clouds 14 1022 76 10000 4.6 240 17:19 22.10.2019
5509 Clouds 14 1022 76 10000 4.6 240 16:57 22.10.2019
5510 Clouds 14 1022 76 10000 3.6 250 16:37 22.10.2019
5511 Clouds 14 1022 76 10000 5.7 230 16:19 22.10.2019
5512 Clouds 13 1022 76 10000 5.7 230 16:19 22.10.2019
5513 Clouds 13 1023 76 10000 5.1 230 15:44 22.10.2019
5514 Clouds 14 1022 76 10000 6.2 230 15:21 22.10.2019
5515 Clouds 14 1022 76 10000 6.2 230 14:58 22.10.2019
5516 Clouds 13 1022 76 10000 5.7 230 14:40 22.10.2019
5517 Clouds 13 1022 82 10000 5.7 230 14:19 22.10.2019
5518 Clouds 13 1022 76 10000 6.2 210 13:42 22.10.2019
5519 Clouds 13 1023 82 10000 6.2 230 13:21 22.10.2019
5520 Clouds 13 1023 82 10000 6.2 220 12:58 22.10.2019
5521 Clouds 13 1023 82 10000 6.2 220 12:40 22.10.2019
5522 Clouds 12 1023 76 10000 6.7 220 12:21 22.10.2019
5523 Clouds 12 1023 87 10000 4.1 220 11:56 22.10.2019
5524 Clouds 12 1022 82 10000 4.1 240 11:38 22.10.2019
5525 Clouds 12 1022 81 10000 5.1 230 11:19 22.10.2019
5526 Clouds 12 1022 81 10000 5.1 230 10:55 22.10.2019
5527 Clouds 11 1022 81 10000 4.1 230 10:37 22.10.2019
5528 Clouds 11 1022 81 10000 4.6 220 10:18 22.10.2019
5529 -273 0 0 0 0 0 09:54 22.10.2019
5530 Clouds 11 1021 87 10000 4.1 220 09:36 22.10.2019
5531 Clouds 11 1021 87 10000 4.6 220 09:18 22.10.2019
5532 Clouds 11 1021 87 10000 5.1 210 08:42 22.10.2019
5533 Clouds 10 1021 76 10000 5.1 210 08:21 22.10.2019
5534 Clouds 10 1020 81 10000 5.1 210 07:46 22.10.2019
5535 Clouds 10 1020 87 10000 4.6 220 07:26 22.10.2019
5536 Clouds 10 1020 87 10000 3.6 230 06:51 22.10.2019
5537 Clouds 10 1020 87 10000 2.6 220 06:31 22.10.2019
5538 Clouds 10 1020 87 10000 2.6 220 05:56 22.10.2019
5539 Clouds 10 1020 87 10000 2.6 210 05:20 22.10.2019
5540 Clouds 10 1021 87 10000 2.1 210 02:47 22.10.2019
5541 Clouds 10 1021 87 10000 2.1 210 02:28 22.10.2019
5542 Clouds 11 1020 81 10000 2.6 240 01:28 22.10.2019
5543 Clouds 11 1020 87 10000 2.1 220 00:58 22.10.2019
5544 Clouds 12 1020 81 10000 2.6 240 00:40 22.10.2019
5545 Clouds 12 1020 87 10000 2.6 230 00:21 22.10.2019
5546 Clouds 12 1020 82 10000 3.1 250 23:55 21.10.2019
5547 Clouds 12 1020 82 10000 3.1 250 23:37 21.10.2019
5548 Clouds 12 1020 93 10000 4.1 240 23:18 21.10.2019
5549 Clouds 12 1020 93 10000 4.1 240 22:56 21.10.2019
5550 Clouds 12 1020 100 9000 4.6 230 22:37 21.10.2019
5551 Fog 12 1019 100 7000 1 0 22:19 21.10.2019
5552 Fog 12 1019 100 7000 1 0 21:54 21.10.2019
5553 Fog 12 1019 100 8000 1.5 100 21:36 21.10.2019
5554 Fog 12 1019 100 8000 1 0 21:18 21.10.2019
5555 Fog 13 1019 93 10000 2.1 100 20:41 21.10.2019
5556 Fog 13 1018 93 10000 1.5 60 20:21 21.10.2019
5557 Fog 13 1018 93 10000 1.5 60 19:59 21.10.2019
5558 Fog 13 1018 93 10000 1.5 120 19:41 21.10.2019
5559 Clouds 13 1018 93 10000 1.5 190 19:22 21.10.2019
5560 Clouds 14 1018 93 10000 1.5 190 18:57 21.10.2019
5561 Clouds 14 1018 100 10000 0.5 0 18:38 21.10.2019
5562 Clouds 14 1018 100 10000 0.5 0 18:38 21.10.2019
5563 Clouds 15 1017 93 10000 1.5 220 18:19 21.10.2019
5564 Clouds 15 1017 82 10000 2.1 220 17:59 21.10.2019
5565 Clouds 15 1017 82 10000 2.1 220 17:38 21.10.2019
5566 Clouds 15 1017 87 10000 3.1 200 17:19 21.10.2019
5567 Clouds 15 1017 87 10000 3.1 200 16:57 21.10.2019
5568 Clouds 15 1017 87 10000 2.6 190 16:39 21.10.2019
5569 Clouds 15 1017 87 10000 4.1 210 16:20 21.10.2019
5570 Clouds 14 1016 87 8000 4.1 170 15:47 21.10.2019
5571 Clouds 14 1017 87 7000 2.6 180 15:27 21.10.2019
5572 Clouds 14 1017 87 7000 2.6 180 14:59 21.10.2019
5573 Clouds 14 1016 93 6000 2.6 170 14:40 21.10.2019
5574 Mist 13 1016 93 5000 3.6 170 14:21 21.10.2019
5575 Mist 13 1017 100 4000 4.1 160 13:57 21.10.2019
5576 Mist 13 1017 100 4000 4.1 160 13:39 21.10.2019
5577 Mist 13 1017 93 5000 4.1 160 13:20 21.10.2019
5578 Mist 13 1017 93 5000 4.1 160 12:57 21.10.2019
5579 Clouds 13 1017 93 8000 4.1 160 12:39 21.10.2019
5580 Mist 12 1016 93 8000 3.6 110 12:19 21.10.2019
5581 Mist 12 1016 93 5000 3.6 110 11:40 21.10.2019
5582 Drizzle 12 1015 100 2500 3.6 80 11:22 21.10.2019
5583 Drizzle 12 1015 100 2500 3.6 80 10:58 21.10.2019
5584 Mist 12 1016 100 2000 3.1 90 10:38 21.10.2019
5585 Mist 12 1016 93 3200 3.1 100 10:19 21.10.2019
5586 Mist 12 1016 93 3200 3.1 100 09:57 21.10.2019
5587 Mist 12 1015 93 4500 2.6 80 09:38 21.10.2019
5588 Clouds 12 1015 93 6000 3.1 90 09:19 21.10.2019
5589 Clouds 11 1015 93 8000 3.6 90 08:41 21.10.2019
5590 Clouds 11 1015 93 10000 3.1 90 08:22 21.10.2019
5591 Clouds 11 1014 93 10000 4.6 90 07:45 21.10.2019
5592 Clouds 11 1014 93 10000 4.1 80 07:23 21.10.2019
5593 Clouds 11 1013 93 10000 5.1 80 06:59 21.10.2019
5594 Clouds 11 1013 93 10000 5.1 80 06:41 21.10.2019
5595 Drizzle 11 1013 93 10000 5.1 70 06:18 21.10.2019
5596 Rain 11 1013 93 10000 5.7 70 05:33 21.10.2019
5597 Drizzle 11 1013 100 10000 5.1 50 03:41 21.10.2019
5598 Rain 11 1014 93 10000 4.1 40 02:40 21.10.2019
5599 Clouds 11 1014 93 10000 3.6 40 02:20 21.10.2019
5600 Drizzle 11 1013 93 6000 3.6 40 01:45 21.10.2019
5601 Drizzle 11 1013 93 10000 3.6 40 01:20 21.10.2019
5602 Drizzle 11 1013 93 4000 3.6 30 00:40 21.10.2019
5603 Drizzle 11 1013 93 4500 3.6 40 00:22 21.10.2019
5604 Rain 11 1012 93 4500 2.6 30 23:40 20.10.2019
5605 Rain 11 1013 93 5000 3.6 30 23:21 20.10.2019
5606 Rain 11 1012 93 5000 2.6 40 22:55 20.10.2019
5607 Rain 11 1012 93 5000 2.6 40 22:36 20.10.2019
5608 Rain 11 1012 93 7000 2.6 40 22:18 20.10.2019
5609 Rain 11 1012 93 10000 2.6 40 21:40 20.10.2019
5610 Rain 11 1012 93 10000 2.6 40 21:22 20.10.2019
5611 Rain 11 1012 93 10000 2.6 40 20:59 20.10.2019
5612 Rain 11 1012 93 9000 1.5 30 20:39 20.10.2019
5613 Rain 11 1012 93 9000 2.1 40 20:18 20.10.2019
5614 Rain 11 1012 93 9000 2.1 40 19:56 20.10.2019
5615 Rain 11 1012 93 9000 2.1 30 19:37 20.10.2019
5616 Rain 12 1012 87 9000 1.5 40 19:19 20.10.2019
5617 Rain 12 1011 87 10000 1.5 40 18:42 20.10.2019
5618 Rain 12 1011 87 10000 1.5 40 18:42 20.10.2019
5619 Rain 12 1011 93 10000 1 60 18:23 20.10.2019
5620 Rain 12 1011 93 10000 1 60 17:59 20.10.2019
5621 Rain 12 1011 93 10000 1 60 17:59 20.10.2019
5622 Rain 12 1011 87 10000 1 330 17:40 20.10.2019
5623 Rain 13 1011 87 9000 1 20 17:22 20.10.2019
5624 Rain 13 1011 87 9000 1 20 16:56 20.10.2019
5625 Rain 13 1011 93 10000 0.5 50 16:38 20.10.2019
5626 Rain 13 1010 82 10000 0.5 0 16:19 20.10.2019
5627 Rain 13 1010 76 10000 0.5 0 15:55 20.10.2019
5628 Rain 13 1010 76 10000 0.5 0 15:36 20.10.2019
5629 Rain 13 1010 76 10000 1 0 15:18 20.10.2019
5630 Rain 13 1010 76 10000 1 0 14:55 20.10.2019
5631 Clouds 13 1010 82 10000 1 0 14:37 20.10.2019
5632 Clouds 13 1010 82 10000 0.5 0 14:18 20.10.2019
5633 Clouds 13 1010 82 10000 1 0 13:54 20.10.2019
5634 Clouds 13 1010 82 10000 1 0 13:36 20.10.2019
5635 Clouds 13 1010 87 10000 1 0 13:18 20.10.2019
5636 Clouds 13 1010 87 10000 1 0 12:54 20.10.2019
5637 Rain 13 1010 87 10000 0.5 0 12:36 20.10.2019
5638 Rain 12 1010 93 10000 1.5 210 12:18 20.10.2019
5639 Clouds 12 1010 93 9000 2.1 150 11:41 20.10.2019
5640 Rain 12 1010 93 8000 2.6 150 11:22 20.10.2019
5641 Clouds 11 1009 93 7000 2.1 120 10:58 20.10.2019
5642 Clouds 11 1009 93 7000 2.1 120 10:39 20.10.2019
5643 Rain 11 1009 93 7000 1.5 140 10:21 20.10.2019
5644 Mist 11 1009 93 7000 1 0 09:56 20.10.2019
5645 Mist 11 1009 93 7000 1 0 09:37 20.10.2019
5646 Mist 10 1009 100 7000 1.5 140 09:19 20.10.2019
5647 Fog 10 1009 100 6000 1 0 08:43 20.10.2019
5648 Fog 10 1008 100 6000 1 0 08:22 20.10.2019
5649 Mist 10 1008 100 6000 2.6 150 07:49 20.10.2019
5650 Mist 10 1008 93 5000 1.5 130 07:29 20.10.2019
5651 Fog 10 1008 100 4800 1 160 06:31 20.10.2019
5652 Fog 10 1007 93 8000 1.5 120 04:41 20.10.2019
5653 Fog 10 1007 100 6000 0.5 0 03:59 20.10.2019
5654 Fog 10 1007 100 6000 0.5 0 03:39 20.10.2019
5655 Clear 10 1007 100 10000 1 0 03:18 20.10.2019
5656 Clear 10 1007 93 10000 1 0 02:33 20.10.2019
5657 Clouds 11 1007 100 10000 2.1 230 01:55 20.10.2019
5658 Clouds 11 1007 93 10000 3.1 210 01:23 20.10.2019
5659 Clouds 11 1007 93 10000 1 0 00:54 20.10.2019
5660 Clouds 11 1007 93 10000 3.6 190 00:21 20.10.2019
5661 Clouds 11 1007 93 10000 3.6 190 23:58 19.10.2019
5662 Clouds 12 1006 93 10000 3.6 200 23:40 19.10.2019
5663 Clouds 12 1006 93 10000 3.1 210 23:21 19.10.2019
5664 Clouds 12 1006 93 10000 3.6 190 22:55 19.10.2019
5665 Clouds 12 1006 93 10000 3.6 190 22:37 19.10.2019
5666 Clouds 12 1006 87 10000 3.6 180 22:18 19.10.2019
5667 Clouds 12 1005 93 10000 3.6 200 21:45 19.10.2019
5668 Rain 12 1005 93 10000 3.6 180 21:21 19.10.2019
5669 Rain 13 1005 93 10000 3.6 180 20:44 19.10.2019
5670 Rain 13 1005 87 10000 3.6 160 20:22 19.10.2019
5671 Rain 13 1005 87 10000 3.6 160 19:57 19.10.2019
5672 Rain 13 1005 87 10000 3.6 150 19:39 19.10.2019
5673 Rain 13 1005 82 10000 3.1 150 19:20 19.10.2019
5674 Clouds 13 1005 82 10000 4.1 160 18:42 19.10.2019
5675 Clouds 13 1005 87 10000 3.6 160 18:23 19.10.2019
5676 Clouds 13 1005 87 10000 3.6 160 17:55 19.10.2019
5677 Clouds 14 1005 82 10000 5.7 170 17:36 19.10.2019
5678 Clouds 14 1005 82 10000 6.2 170 17:18 19.10.2019
5679 Rain 14 1005 82 10000 5.1 180 16:39 19.10.2019
5680 Clouds 14 1005 82 10000 4.1 170 16:20 19.10.2019
5681 Rain 14 1005 82 10000 4.1 160 15:45 19.10.2019
5682 Rain 14 1005 76 10000 5.1 160 15:26 19.10.2019
5683 Rain 14 1005 76 10000 5.1 160 14:56 19.10.2019
5684 Rain 14 1005 67 10000 5.7 170 14:38 19.10.2019
5685 Rain 14 1005 67 10000 5.1 180 14:20 19.10.2019
5686 Rain 14 1005 67 10000 5.1 180 14:19 19.10.2019
5687 Clouds 14 1005 67 10000 5.1 180 13:55 19.10.2019
5688 Clouds 14 1005 67 10000 5.1 180 13:36 19.10.2019
5689 Clear 14 1005 67 10000 5.1 170 13:18 19.10.2019
5690 Clear 14 1005 67 10000 5.1 170 13:18 19.10.2019
5691 Clear 13 1006 67 10000 4.6 170 12:40 19.10.2019
5692 Clear 13 1006 76 10000 4.6 170 12:22 19.10.2019
5693 Clear 13 1006 76 10000 4.6 170 11:59 19.10.2019
5694 Clear 12 1006 71 10000 5.1 180 11:40 19.10.2019
5695 Clear 12 1006 76 10000 4.6 160 11:22 19.10.2019
5696 Clear 11 1006 76 10000 4.6 160 10:42 19.10.2019
5697 Clear 11 1006 76 10000 4.6 160 10:23 19.10.2019
5698 Clear 10 1006 81 10000 5.1 160 09:59 19.10.2019
5699 Clear 10 1006 81 10000 5.1 160 09:41 19.10.2019
5700 Clear 9 1006 81 10000 5.1 160 09:23 19.10.2019
5701 Clear 9 1006 81 10000 5.1 160 08:57 19.10.2019
5702 Clouds 9 1006 76 10000 5.1 160 08:39 19.10.2019
5703 Clear 9 1006 76 10000 5.1 170 08:20 19.10.2019
5704 Clear 9 1006 76 10000 5.1 170 07:43 19.10.2019
5705 Clear 9 1006 76 10000 5.1 170 07:24 19.10.2019
5706 Clouds 8 1006 81 10000 3.1 190 06:45 19.10.2019
5707 Clear 9 1006 76 10000 5.1 180 05:56 19.10.2019
5708 Clear 9 1006 76 10000 5.7 180 05:27 19.10.2019
5709 Clouds 9 1006 81 10000 6.2 200 03:59 19.10.2019
5710 Clear 10 1007 71 10000 6.7 210 02:40 19.10.2019
5711 Clear 10 1006 76 10000 6.7 210 01:51 19.10.2019
5712 Clear 10 1006 76 10000 6.2 200 01:20 19.10.2019
5713 Clear 10 1006 76 10000 7.7 210 00:47 19.10.2019
5714 Clear 10 1006 76 10000 7.7 210 00:25 19.10.2019
5715 Clear 10 1006 76 10000 6.7 210 23:43 18.10.2019
5716 Clear 10 1006 76 10000 7.2 210 23:25 18.10.2019
5717 Clear 10 1006 76 10000 7.7 210 22:57 18.10.2019
5718 Clear 10 1006 76 10000 7.7 210 22:39 18.10.2019
5719 Clear 10 1006 76 10000 7.2 200 22:20 18.10.2019
5720 Clear 11 1005 76 10000 6.2 200 21:57 18.10.2019
5721 Clear 11 1005 76 10000 6.2 200 21:38 18.10.2019
5722 Clear 11 1005 81 10000 7.2 200 21:20 18.10.2019
5723 Clear 11 1005 81 10000 7.2 200 20:56 18.10.2019
5724 Clouds 11 1005 76 10000 6.2 210 20:38 18.10.2019
5725 Clouds 11 1005 76 10000 6.2 210 20:20 18.10.2019
5726 Clouds 11 1005 76 10000 6.2 210 20:20 18.10.2019
5727 Clouds 11 1004 76 10000 7.7 210 19:57 18.10.2019
5728 Clouds 11 1004 76 10000 7.7 210 19:38 18.10.2019
5729 Clouds 11 1004 76 10000 7.7 210 19:38 18.10.2019
5730 Clouds 12 1004 76 10000 7.7 210 19:20 18.10.2019
5731 Clouds 12 1004 76 10000 7.7 210 18:56 18.10.2019
5732 Clouds 12 1004 76 10000 8.2 210 18:38 18.10.2019
5733 Rain 12 1003 76 10000 8.7 210 18:20 18.10.2019
5734 Rain 12 1003 76 10000 8.7 210 17:39 18.10.2019
5735 Clouds 12 1003 76 10000 8.7 210 17:20 18.10.2019
5736 Clouds 12 1003 76 10000 8.7 210 16:59 18.10.2019
5737 Rain 14 1002 76 10000 8.2 230 16:38 18.10.2019
5738 Rain 15 1001 72 10000 7.2 150 16:19 18.10.2019
5739 Rain 16 1001 72 10000 7.2 150 15:54 18.10.2019
5740 Clouds 16 1002 72 10000 7.7 170 15:54 18.10.2019
5741 Clouds 17 1002 72 10000 7.7 170 15:36 18.10.2019
5742 Clouds 17 1002 67 10000 7.7 170 15:18 18.10.2019
5743 Clouds 17 1002 67 10000 7.7 170 14:56 18.10.2019
5744 Clouds 17 1003 68 10000 7.7 180 14:38 18.10.2019
5745 Clouds 17 1003 67 10000 6.7 180 14:18 18.10.2019
5746 Clouds 16 1004 72 10000 6.7 180 13:42 18.10.2019
5747 Clouds 16 1005 77 10000 5.7 170 13:23 18.10.2019
5748 Clouds 15 1005 77 10000 5.7 170 12:58 18.10.2019
5749 Clouds 15 1005 77 10000 6.2 170 12:39 18.10.2019
5750 Clouds 15 1005 82 10000 5.7 170 12:21 18.10.2019
5751 Clouds 14 1005 82 10000 5.7 170 11:57 18.10.2019
5752 Clouds 14 1006 82 10000 5.7 160 11:57 18.10.2019
5753 Clouds 14 1006 82 10000 5.7 160 11:39 18.10.2019
5754 Clouds 14 1006 82 10000 5.1 160 11:20 18.10.2019
5755 Clouds 14 1006 93 10000 4.6 150 10:56 18.10.2019
5756 Clouds 14 1006 93 10000 4.6 150 10:38 18.10.2019
5757 Clouds 14 1006 93 10000 4.6 150 10:38 18.10.2019
5758 Clouds 13 1006 87 10000 5.7 150 10:18 18.10.2019
5759 Clouds 13 1007 87 10000 4.1 150 09:55 18.10.2019
5760 Clouds 13 1007 87 10000 4.1 150 09:37 18.10.2019
5761 Clouds 13 1007 93 10000 3.6 150 09:18 18.10.2019
5762 Clouds 13 1007 87 10000 4.6 180 08:42 18.10.2019
5763 Clouds 12 1007 93 10000 3.6 180 08:24 18.10.2019
5764 Clouds 13 1007 93 10000 4.6 180 07:48 18.10.2019
5765 Clouds 12 1007 93 10000 4.6 180 07:29 18.10.2019
5766 Clouds 13 1007 93 10000 3.6 190 06:41 18.10.2019
5767 Clouds 13 1008 87 10000 3.6 200 06:23 18.10.2019
5768 Clouds 13 1008 87 10000 3.6 200 05:59 18.10.2019
5769 Clouds 13 1008 93 10000 2.1 210 05:24 18.10.2019
5770 Clouds 13 1008 93 10000 2.1 210 04:56 18.10.2019
5771 Clouds 13 1008 93 10000 4.6 170 03:34 18.10.2019
5772 Drizzle 13 1008 93 6000 4.6 160 02:50 18.10.2019
5773 Drizzle 13 1008 93 6000 4.6 160 02:32 18.10.2019
5774 Rain 13 1009 93 10000 4.1 150 01:38 18.10.2019
5775 Rain 13 1009 93 10000 3.1 150 00:56 18.10.2019
5776 Rain 13 1009 93 10000 3.1 150 00:38 18.10.2019
5777 Rain 12 1009 93 10000 3.6 150 00:18 18.10.2019
5778 Rain 12 1010 93 10000 3.6 140 23:38 17.10.2019
5779 Clouds 12 1010 93 10000 3.6 120 23:20 17.10.2019
5780 Rain 12 1010 93 10000 2.6 150 22:56 17.10.2019
5781 Rain 12 1010 93 10000 2.6 150 22:56 17.10.2019
5782 Rain 12 1010 93 10000 2.6 150 22:38 17.10.2019
5783 Clouds 12 1010 93 10000 2.6 130 22:19 17.10.2019
5784 Clear 12 1010 93 10000 2.6 130 21:57 17.10.2019
5785 Clear 12 1010 93 10000 2.6 130 21:39 17.10.2019
5786 Fog 12 1010 93 10000 2.1 100 21:20 17.10.2019
5787 Clouds 13 1010 93 10000 0.5 0 20:58 17.10.2019
5788 Clouds 13 1010 93 10000 0.5 0 20:39 17.10.2019
5789 Clouds 13 1011 100 10000 1 0 20:19 17.10.2019
5790 Clouds 13 1011 100 10000 1 0 20:19 17.10.2019
5791 Clouds 13 1011 100 10000 1 0 19:58 17.10.2019
5792 Clouds 13 1010 100 10000 0.5 0 19:39 17.10.2019
5793 Clouds 13 1010 93 10000 1 0 19:19 17.10.2019
5794 Clouds 13 1010 93 10000 1 0 18:58 17.10.2019
5795 Clouds 14 1010 93 10000 1 0 18:38 17.10.2019
5796 Clouds 14 1010 93 10000 2.1 220 18:19 17.10.2019
5797 Clouds 14 1010 93 10000 2.1 200 17:42 17.10.2019
5798 Clouds 14 1010 87 10000 2.1 230 17:23 17.10.2019
5799 Clouds 15 1010 87 10000 2.1 230 16:57 17.10.2019
5800 Clouds 15 1010 87 10000 1.5 220 16:38 17.10.2019
5801 Clouds 14 1010 93 10000 1 0 16:18 17.10.2019
5802 Clouds 15 1010 93 10000 1 0 15:55 17.10.2019
5803 Rain 14 1010 93 5000 3.6 290 15:37 17.10.2019
5804 Rain 14 1010 87 5000 5.7 220 15:19 17.10.2019
5805 Rain 14 1010 87 5000 5.7 220 14:54 17.10.2019
5806 Clouds 14 1009 87 10000 4.6 220 14:36 17.10.2019
5807 Clouds 14 1009 87 10000 4.1 220 14:18 17.10.2019
5808 Clouds 14 1009 87 10000 5.7 220 13:39 17.10.2019
5809 Drizzle 15 1009 87 9000 6.2 220 13:19 17.10.2019
5810 Drizzle 14 1009 87 9000 6.2 220 12:55 17.10.2019
5811 Drizzle 14 1009 87 10000 6.2 220 12:55 17.10.2019
5812 Drizzle 14 1009 87 10000 6.2 220 12:36 17.10.2019
5813 Drizzle 14 1009 87 9000 5.7 220 12:18 17.10.2019
5814 Drizzle 14 1009 87 10000 5.7 220 11:41 17.10.2019
5815 Drizzle 14 1008 93 10000 5.7 210 11:21 17.10.2019
5816 Drizzle 14 1008 93 10000 5.7 210 10:58 17.10.2019
5817 Clouds 14 1008 93 10000 5.1 210 10:39 17.10.2019
5818 Clouds 13 1008 93 10000 6.2 210 10:19 17.10.2019
5819 Clouds 13 1008 93 10000 6.2 210 09:55 17.10.2019
5820 Clouds 13 1008 93 10000 6.7 210 09:55 17.10.2019
5821 Clouds 13 1008 93 10000 6.2 210 09:55 17.10.2019
5822 Clouds 13 1008 93 10000 6.7 210 09:37 17.10.2019
5823 Clouds 13 1008 93 10000 6.2 210 09:19 17.10.2019
5824 Clouds 13 1007 87 10000 6.2 210 08:46 17.10.2019
5825 Clouds 13 1007 93 10000 5.7 200 08:26 17.10.2019
5826 Clouds 13 1007 93 10000 5.7 200 07:58 17.10.2019
5827 Drizzle 13 1007 93 10000 5.1 200 07:40 17.10.2019
5828 Clouds 13 1007 93 10000 6.2 210 07:20 17.10.2019
5829 Clouds 13 1007 93 10000 6.2 210 07:20 17.10.2019
5830 Clouds 13 1007 87 10000 6.2 200 06:42 17.10.2019
5831 Clouds 13 1007 87 10000 6.2 200 06:42 17.10.2019
5832 Drizzle 13 1007 93 10000 5.7 200 06:23 17.10.2019
5833 Drizzle 13 1007 93 10000 5.7 200 05:58 17.10.2019
5834 Clouds 13 1007 93 10000 5.1 200 05:35 17.10.2019
5835 Rain 13 1007 93 10000 5.1 200 04:58 17.10.2019
5836 Rain 13 1007 93 10000 5.1 180 04:31 17.10.2019
5837 Rain 13 1007 93 10000 4.1 170 03:45 17.10.2019
5838 Clouds 13 1008 93 10000 4.6 170 01:56 17.10.2019
5839 Clouds 13 1008 93 10000 4.6 170 01:56 17.10.2019
5840 Clouds 12 1008 93 10000 3.6 170 00:42 17.10.2019
5841 Clouds 12 1008 93 10000 3.6 190 00:20 17.10.2019
5842 Clouds 12 1008 93 10000 3.6 190 23:58 16.10.2019
5843 Clouds 12 1008 87 10000 4.1 190 23:39 16.10.2019
5844 Clouds 12 1008 87 10000 3.6 170 23:18 16.10.2019
5845 Clouds 11 1008 87 10000 3.6 160 22:54 16.10.2019
5846 Clouds 11 1008 87 10000 3.6 160 22:36 16.10.2019
5847 Clouds 11 1008 87 10000 4.1 160 22:18 16.10.2019
5848 Clouds 11 1008 87 10000 2.6 140 21:54 16.10.2019
5849 Clouds 11 1008 87 10000 4.1 160 21:54 16.10.2019
5850 Clouds 11 1008 87 10000 2.6 140 21:36 16.10.2019
5851 Clouds 11 1008 100 10000 2.6 130 21:18 16.10.2019
5852 Fog 11 1008 93 10000 2.6 130 20:56 16.10.2019
5853 Fog 11 1008 93 10000 2.6 130 20:37 16.10.2019
5854 Fog 11 1008 93 10000 2.6 130 20:37 16.10.2019
5855 Fog 11 1008 93 10000 2.6 130 20:37 16.10.2019
5856 Clouds 11 1008 93 10000 2.1 150 20:19 16.10.2019
5857 Clouds 12 1008 93 10000 2.6 170 19:40 16.10.2019
5858 Clouds 12 1008 93 10000 2.6 170 19:40 16.10.2019
5859 Clouds 12 1008 93 10000 1 0 19:21 16.10.2019
5860 Clouds 12 1008 87 10000 2.6 220 18:58 16.10.2019
5861 Clouds 12 1008 87 10000 2.6 220 18:58 16.10.2019
5862 Clouds 12 1008 87 10000 2.6 220 18:38 16.10.2019
5863 Clouds 13 1008 82 10000 2.6 220 18:18 16.10.2019
5864 Clouds 13 1008 82 10000 2.6 220 17:56 16.10.2019
5865 -273 0 0 0 0 0 17:56 16.10.2019
5866 Clouds 14 1008 76 10000 4.6 230 17:37 16.10.2019
5867 Clouds 14 1008 76 10000 5.1 230 17:19 16.10.2019
5868 Clouds 14 1008 76 10000 5.1 230 16:57 16.10.2019
5869 Clouds 14 1008 77 10000 6.2 230 16:38 16.10.2019
5870 Clouds 14 1008 82 10000 4.1 240 16:20 16.10.2019
5871 Clouds 14 1008 82 10000 4.1 240 15:54 16.10.2019
5872 Clouds 14 1008 87 10000 4.6 240 15:54 16.10.2019
5873 Clouds 14 1008 87 10000 4.6 240 15:36 16.10.2019
5874 Clouds 14 1008 87 10000 4.6 260 15:18 16.10.2019
5875 Clouds 14 1008 87 10000 4.6 260 14:55 16.10.2019
5876 Clouds 13 1008 87 10000 4.6 260 14:36 16.10.2019
5877 Rain 13 1008 87 9000 3.1 300 14:18 16.10.2019
5878 Rain 13 1007 87 10000 4.1 300 13:41 16.10.2019
5879 Rain 13 1007 87 10000 4.1 250 13:23 16.10.2019
5880 Rain 13 1007 87 10000 4.6 250 12:44 16.10.2019
5881 Drizzle 13 1007 87 8000 4.1 250 12:20 16.10.2019
5882 Drizzle 13 1007 87 8000 4.1 250 11:59 16.10.2019
5883 Rain 13 1007 93 8000 3.6 260 11:41 16.10.2019
5884 Drizzle 13 1007 100 6000 3.1 270 11:18 16.10.2019
5885 Drizzle 13 1007 100 6000 3.6 270 10:37 16.10.2019
5886 Drizzle 13 1007 100 6000 3.1 270 10:19 16.10.2019
5887 Drizzle 13 1007 93 7000 3.6 270 09:54 16.10.2019
5888 Drizzle 13 1007 93 7000 3.6 270 09:36 16.10.2019
5889 Drizzle 13 1007 93 8000 4.1 280 09:18 16.10.2019
5890 Rain 13 1006 93 4600 4.6 280 08:42 16.10.2019
5891 Rain 13 1006 100 3500 4.6 280 08:23 16.10.2019
5892 Rain 13 1006 100 5000 4.1 260 07:45 16.10.2019
5893 -273 0 0 0 0 0 07:25 16.10.2019
5894 Rain 13 1006 93 4500 1.5 280 06:58 16.10.2019
5895 Rain 13 1006 93 4500 1.5 280 06:58 16.10.2019
5896 Rain 13 1006 93 4500 2.1 280 06:39 16.10.2019
5897 Rain 13 1006 93 4500 1.5 310 05:44 16.10.2019
5898 Rain 13 1006 93 4000 4.1 260 03:24 16.10.2019
5899 Clouds 13 1005 93 7000 3.1 310 02:47 16.10.2019
5900 Clouds 13 1005 93 8000 1.5 40 01:19 16.10.2019
5901 Rain 13 1005 100 8000 1 0 00:49 16.10.2019
5902 Rain 14 1005 100 8000 1 0 00:27 16.10.2019
5903 Clouds 14 1005 100 9000 1.5 350 23:41 15.10.2019
5904 Clouds 14 1006 93 10000 1.5 360 23:22 15.10.2019
5905 Clouds 14 1006 93 10000 1.5 360 22:56 15.10.2019
5906 Clouds 14 1006 93 10000 1 0 22:38 15.10.2019
5907 Clouds 14 1006 93 10000 1.5 330 22:20 15.10.2019
5908 Clouds 14 1006 93 10000 1.5 330 21:56 15.10.2019
5909 -273 0 0 0 0 0 21:56 15.10.2019
5910 -273 0 0 0 0 0 21:56 15.10.2019
5911 Clouds 14 1006 100 10000 0.5 0 21:38 15.10.2019
5912 Clouds 14 1006 100 10000 0.5 0 21:20 15.10.2019
5913 Clouds 14 1006 100 10000 0.5 0 20:57 15.10.2019
5914 Clouds 14 1006 93 10000 0.5 0 20:39 15.10.2019
5915 Clouds 14 1006 93 10000 0.5 0 20:39 15.10.2019
5916 Clouds 15 1006 100 10000 1 0 20:20 15.10.2019
5917 Clouds 15 1006 100 10000 1 0 19:58 15.10.2019
5918 Clouds 16 1006 93 10000 1 0 19:40 15.10.2019
5919 Clouds 16 1005 87 10000 1.5 340 19:20 15.10.2019
5920 Clouds 17 1005 82 10000 1.5 320 18:48 15.10.2019
5921 Clouds 17 1005 82 10000 1.5 320 18:29 15.10.2019
5922 Clouds 19 1005 64 10000 1 0 17:59 15.10.2019
5923 Clouds 20 1005 64 10000 1 0 17:41 15.10.2019
5924 Clouds 19 1005 64 10000 1 0 17:41 15.10.2019
5925 Clouds 20 1005 64 10000 0.5 0 17:20 15.10.2019
5926 Clouds 20 1005 64 10000 0.5 0 17:20 15.10.2019
5927 Clouds 20 1005 64 10000 0.5 0 16:58 15.10.2019
5928 Clouds 21 1005 68 10000 1.5 310 16:39 15.10.2019
5929 Clouds 20 1005 64 10000 2.6 310 16:20 15.10.2019
5930 Clouds 20 1005 64 10000 2.1 300 15:55 15.10.2019
5931 Clouds 21 1005 64 10000 2.1 300 15:37 15.10.2019
5932 Clouds 21 1005 64 10000 2.1 290 15:19 15.10.2019
5933 Clouds 20 1005 68 10000 3.6 290 14:38 15.10.2019
5934 Clouds 20 1005 68 10000 2.6 290 14:20 15.10.2019
5935 Clouds 20 1005 68 10000 2.6 290 13:59 15.10.2019
5936 Clouds 20 1006 68 10000 3.6 250 13:40 15.10.2019
5937 Clouds 19 1006 72 10000 3.6 220 13:20 15.10.2019
5938 Clouds 18 1006 77 10000 2.1 170 12:44 15.10.2019
5939 Clouds 17 1006 77 10000 2.6 180 12:22 15.10.2019
5940 Clouds 17 1006 77 10000 2.6 180 11:59 15.10.2019
5941 Clouds 16 1005 77 10000 2.6 160 11:40 15.10.2019
5942 Clouds 16 1006 82 10000 3.1 150 11:20 15.10.2019
5943 Clear 14 1006 87 10000 3.1 140 10:46 15.10.2019
5944 Clouds 14 1006 87 10000 3.1 140 10:46 15.10.2019
5945 Clear 13 1006 87 10000 2.6 140 10:24 15.10.2019
5946 Clear 13 1006 87 10000 2.6 140 09:59 15.10.2019
5947 -273 0 0 0 0 0 09:40 15.10.2019
5948 Clear 12 1006 93 10000 2.6 120 09:21 15.10.2019
5949 Clear 12 1006 93 10000 2.6 120 09:21 15.10.2019
5950 Clear 12 1006 93 10000 2.1 120 08:58 15.10.2019
5951 Clear 12 1006 93 10000 2.1 120 08:39 15.10.2019
5952 Clear 12 1006 93 10000 2.6 120 08:20 15.10.2019
5953 Clear 12 1006 93 10000 2.1 90 07:43 15.10.2019
5954 Clear 12 1006 93 10000 2.6 100 07:23 15.10.2019
5955 Clear 12 1006 93 10000 2.6 100 07:23 15.10.2019
5956 Clear 12 1006 93 10000 2.6 110 06:58 15.10.2019
5957 Clear 12 1006 93 10000 2.6 110 06:39 15.10.2019
5958 Clear 12 1007 93 10000 2.6 80 05:56 15.10.2019
5959 Clear 12 1007 93 10000 2.6 80 05:37 15.10.2019
5960 Clear 12 1007 87 10000 2.6 90 04:49 15.10.2019
5961 Clear 12 1007 87 10000 3.1 90 04:19 15.10.2019
5962 Clear 13 1008 87 10000 2.6 90 03:35 15.10.2019
5963 Clear 13 1008 87 10000 2.6 90 03:35 15.10.2019
5964 Clear 13 1009 82 10000 3.6 100 01:59 15.10.2019
5965 Clear 13 1009 82 10000 3.6 100 01:40 15.10.2019
5966 Clear 13 1009 87 10000 3.1 100 01:18 15.10.2019
5967 Clear 13 1010 82 10000 2.1 90 00:26 15.10.2019
5968 Clear 13 1010 82 10000 2.1 90 23:59 14.10.2019
5969 Clear 13 1010 87 10000 3.6 90 23:38 14.10.2019
5970 Clear 14 1011 82 10000 3.1 90 23:19 14.10.2019
5971 Clear 14 1011 82 10000 4.1 90 22:40 14.10.2019
5972 Clear 14 1011 82 10000 3.6 80 22:21 14.10.2019
5973 Clear 14 1011 82 10000 3.6 80 21:59 14.10.2019
5974 Clear 14 1011 87 10000 3.6 80 21:40 14.10.2019
5975 Clear 14 1011 82 10000 4.1 60 21:21 14.10.2019
5976 Clear 14 1011 82 10000 4.1 60 20:59 14.10.2019
5977 Clouds 14 1012 82 10000 4.1 80 20:39 14.10.2019
5978 Clear 14 1012 82 10000 4.1 60 20:20 14.10.2019
5979 Clear 14 1012 82 10000 4.1 60 19:58 14.10.2019
5980 Clouds 15 1012 82 10000 3.6 70 19:40 14.10.2019
5981 Clouds 15 1013 77 10000 3.1 60 19:22 14.10.2019
5982 Clouds 15 1013 77 10000 3.1 60 18:58 14.10.2019
5983 Clear 15 1013 77 10000 3.6 80 18:38 14.10.2019
5984 Clear 16 1012 77 10000 3.6 90 18:19 14.10.2019
5985 Clear 16 1013 67 10000 3.6 90 17:44 14.10.2019
5986 Clear 16 1013 67 10000 4.6 100 17:26 14.10.2019
5987 Clear 17 1013 67 10000 4.6 100 16:59 14.10.2019
5988 Clouds 17 1013 67 10000 3.6 90 16:40 14.10.2019
5989 Clouds 17 1013 63 10000 3.6 90 16:21 14.10.2019
5990 Clouds 17 1014 63 10000 3.1 70 15:42 14.10.2019
5991 Clouds 17 1014 67 10000 2.6 90 15:23 14.10.2019
5992 Clouds 17 1014 67 10000 1.5 0 14:57 14.10.2019
5993 Clouds 17 1014 67 10000 1.5 0 14:39 14.10.2019
5994 Clouds 17 1015 67 10000 1 0 14:19 14.10.2019
5995 Clouds 17 1015 72 10000 1 0 13:44 14.10.2019
5996 Clouds 17 1015 72 10000 1.5 250 13:21 14.10.2019
5997 Clouds 17 1015 72 10000 2.6 260 12:55 14.10.2019
5998 Clouds 16 1015 72 10000 2.6 260 12:37 14.10.2019
5999 Clouds 16 1015 72 10000 2.6 260 12:18 14.10.2019
6000 Clouds 15 1015 77 10000 4.6 280 11:44 14.10.2019
6001 Clouds 15 1015 77 10000 3.6 260 11:26 14.10.2019
6002 Clouds 14 1014 82 10000 3.6 240 10:57 14.10.2019
6003 Clouds 14 1014 82 10000 3.6 240 10:38 14.10.2019
6004 Clouds 13 1014 87 10000 3.6 240 10:19 14.10.2019
6005 Clear 13 1014 87 10000 3.1 240 09:54 14.10.2019
6006 Clear 13 1014 87 10000 3.1 240 09:36 14.10.2019
6007 Clear 13 1013 87 10000 3.6 240 09:18 14.10.2019
6008 Clouds 13 1013 87 10000 3.6 230 08:42 14.10.2019
6009 Clouds 13 1012 87 10000 3.6 230 08:20 14.10.2019
6010 Clouds 13 1012 87 10000 3.1 240 07:41 14.10.2019
6011 Clouds 13 1012 87 10000 3.1 240 07:41 14.10.2019
6012 Clouds 13 1012 87 10000 4.1 250 07:18 14.10.2019
6013 Clouds 13 1012 82 10000 3.6 240 06:38 14.10.2019
6014 Clouds 13 1011 82 10000 4.1 250 06:20 14.10.2019
6015 Clouds 14 1011 82 10000 4.6 260 05:46 14.10.2019
6016 Clouds 15 1010 82 10000 5.1 250 04:42 14.10.2019
6017 Clouds 16 1009 77 10000 6.2 250 03:27 14.10.2019
6018 Clouds 16 1009 82 10000 5.7 240 02:42 14.10.2019
6019 Clear 17 1007 88 10000 5.1 220 01:23 14.10.2019
6020 Clear 17 1007 93 10000 4.6 220 00:56 14.10.2019
6021 Rain 17 1007 93 10000 5.7 240 00:20 14.10.2019
6022 Rain 17 1007 88 6000 7.2 270 23:45 13.10.2019
6023 Rain 18 1005 72 10000 5.7 210 23:20 13.10.2019
6024 Clear 18 1005 72 10000 7.7 200 22:58 13.10.2019
6025 Clear 18 1005 72 10000 7.7 200 22:40 13.10.2019
6026 Clear 18 1005 72 10000 6.2 200 22:21 13.10.2019
6027 Clear 18 1005 72 10000 6.2 200 22:21 13.10.2019
6028 Clear 18 1005 72 10000 6.2 200 21:58 13.10.2019
6029 Clear 18 1006 82 10000 3.6 180 21:38 13.10.2019
6030 Clear 18 1005 77 10000 6.2 180 21:19 13.10.2019
6031 Clear 18 1005 77 10000 6.2 180 20:58 13.10.2019
6032 Clear 18 1005 82 10000 5.1 170 20:39 13.10.2019
6033 Clear 18 1006 88 10000 4.6 170 20:21 13.10.2019
6034 Clear 18 1006 88 10000 3.6 170 19:59 13.10.2019
6035 Clear 18 1006 88 10000 3.6 170 19:39 13.10.2019
6036 Clear 18 1006 88 10000 3.6 170 19:39 13.10.2019
6037 Clear 18 1006 93 10000 3.6 160 19:21 13.10.2019
6038 -273 0 0 0 0 0 18:58 13.10.2019
6039 -273 0 0 0 0 0 18:55 13.10.2019
6040 Clouds 18 1006 93 10000 4.1 160 18:36 13.10.2019
6041 Clouds 18 1006 93 10000 4.1 140 18:18 13.10.2019
6042 Clouds 18 1006 88 10000 4.6 140 17:44 13.10.2019
6043 -273 0 0 0 0 0 17:26 13.10.2019
6044 Clouds 18 1007 93 10000 3.6 140 17:25 13.10.2019
6045 Clouds 18 1006 88 10000 4.6 140 17:25 13.10.2019
6046 Clouds 18 1007 93 10000 3.6 150 16:54 13.10.2019
6047 Clouds 18 1007 93 10000 3.6 150 16:36 13.10.2019
6048 Clouds 18 1007 93 10000 3.6 150 16:18 13.10.2019
6049 Rain 17 1008 93 10000 2.6 140 15:55 13.10.2019
6050 Rain 17 1008 93 10000 2.6 140 15:36 13.10.2019
6051 Rain 17 1008 88 8000 2.1 160 15:18 13.10.2019
6052 Rain 17 1008 88 10000 3.6 160 14:40 13.10.2019
6053 Clouds 17 1009 93 10000 4.1 160 14:22 13.10.2019
6054 Rain 17 1009 88 10000 3.1 150 14:00 13.10.2019
6055 Rain 16 1009 88 10000 3.1 150 13:39 13.10.2019
6056 Rain 16 1009 93 10000 4.6 140 13:21 13.10.2019
6057 Rain 15 1009 93 10000 4.6 140 12:57 13.10.2019
6058 Clouds 15 1010 87 10000 4.1 170 12:39 13.10.2019
6059 Clouds 15 1010 87 10000 4.1 170 12:39 13.10.2019
6060 Clouds 14 1009 87 10000 3.1 160 12:20 13.10.2019
6061 Clouds 13 1009 87 10000 3.1 150 11:58 13.10.2019
6062 Clouds 13 1009 87 10000 3.1 150 11:38 13.10.2019
6063 Clouds 13 1009 93 9000 2.6 130 11:19 13.10.2019
6064 Clouds 12 1010 100 7000 2.6 110 10:43 13.10.2019
6065 Clouds 12 1010 93 6000 2.6 110 10:24 13.10.2019
6066 Clouds 11 1010 93 6000 2.6 110 09:59 13.10.2019
6067 Clouds 11 1010 93 6000 2.6 110 09:59 13.10.2019
6068 Clouds 11 1010 93 6000 1.5 90 09:39 13.10.2019
6069 Rain 11 1010 100 5000 2.1 90 09:20 13.10.2019
6070 Drizzle 11 1010 93 8000 2.1 90 08:43 13.10.2019
6071 Clouds 11 1010 93 10000 2.1 80 08:25 13.10.2019
6072 -273 0 0 0 0 0 08:25 13.10.2019
6073 Clouds 11 1010 93 10000 2.1 110 07:51 13.10.2019
6074 Clouds 11 1010 93 10000 2.1 110 07:33 13.10.2019
6075 Clouds 11 1010 93 10000 2.6 110 06:51 13.10.2019
6076 Rain 11 1010 93 10000 2.6 110 06:23 13.10.2019
6077 Rain 11 1010 93 10000 2.6 110 06:23 13.10.2019
6078 Drizzle 11 1010 93 6000 2.1 130 05:19 13.10.2019
6079 Drizzle 11 1011 93 5000 2.1 150 04:34 13.10.2019
6080 Drizzle 11 1011 93 5000 2.1 150 04:34 13.10.2019
6081 Drizzle 11 1011 100 4800 2.1 180 02:53 13.10.2019
6082 Drizzle 11 1011 93 5000 2.6 170 02:30 13.10.2019
6083 Drizzle 11 1011 93 4000 1.5 200 01:36 13.10.2019
6084 Drizzle 11 1011 93 4000 1.5 200 01:36 13.10.2019
6085 Rain 11 1011 93 4800 1 220 00:55 13.10.2019
6086 Rain 11 1011 93 4800 1 220 00:37 13.10.2019
6087 Rain 11 1011 93 10000 2.1 190 00:18 13.10.2019
6088 Rain 11 1011 93 10000 1.5 190 23:42 12.10.2019
6089 Drizzle 11 1011 93 6000 2.6 200 23:23 12.10.2019
6090 Drizzle 11 1010 93 5000 1.5 220 22:59 12.10.2019
6091 Drizzle 11 1010 93 5000 1.5 220 22:40 12.10.2019
6092 Drizzle 11 1010 93 6000 2.1 230 22:22 12.10.2019
6093 Drizzle 11 1010 93 6000 2.1 230 21:58 12.10.2019
6094 Drizzle 11 1010 93 6000 2.1 220 21:40 12.10.2019
6095 Drizzle 11 1010 93 6000 2.1 220 21:40 12.10.2019
6096 Rain 11 1010 93 10000 3.1 230 21:21 12.10.2019
6097 Rain 12 1010 100 10000 3.6 210 20:54 12.10.2019
6098 Rain 12 1010 100 10000 3.6 210 20:54 12.10.2019
6099 Rain 12 1010 100 10000 3.6 210 20:54 12.10.2019
6100 Rain 12 1010 100 10000 3.6 210 20:36 12.10.2019
6101 Drizzle 12 1010 87 6000 3.1 220 20:18 12.10.2019
6102 Rain 12 1010 87 10000 4.1 230 19:36 12.10.2019
6103 Rain 12 1010 82 10000 4.1 240 19:18 12.10.2019
6104 Clouds 13 1010 87 10000 4.1 220 18:44 12.10.2019
6105 Clouds 13 1009 87 10000 3.1 230 18:26 12.10.2019
6106 Clouds 13 1009 87 10000 3.1 240 17:46 12.10.2019
6107 Clouds 13 1009 87 10000 4.1 240 17:25 12.10.2019
6108 Clouds 13 1009 87 10000 4.1 240 16:59 12.10.2019
6109 Clouds 13 1009 82 10000 3.6 230 16:40 12.10.2019
6110 Clouds 13 1009 82 10000 3.6 230 16:40 12.10.2019
6111 Clouds 13 1009 82 10000 5.7 230 16:21 12.10.2019
6112 Clouds 13 1009 82 10000 5.7 230 15:57 12.10.2019
6113 Clouds 13 1009 82 10000 5.7 230 15:57 12.10.2019
6114 Clouds 13 1009 82 10000 5.7 230 15:38 12.10.2019
6115 Clouds 13 1009 87 10000 3.6 240 15:18 12.10.2019
6116 Clouds 13 1008 87 10000 4.6 240 14:40 12.10.2019
6117 Clouds 13 1008 87 10000 4.6 240 14:20 12.10.2019
6118 Clouds 13 1008 87 10000 4.1 230 13:52 12.10.2019
6119 Clouds 13 1008 87 10000 4.1 230 13:33 12.10.2019
6120 Drizzle 12 1008 93 10000 4.6 230 12:57 12.10.2019
6121 Drizzle 12 1008 93 10000 4.6 230 12:38 12.10.2019
6122 Drizzle 12 1008 93 8000 4.6 230 12:20 12.10.2019
6123 Drizzle 12 1007 93 8000 4.1 250 11:47 12.10.2019
6124 Drizzle 12 1007 93 4800 4.1 230 11:26 12.10.2019
6125 Drizzle 11 1007 93 4200 2.1 240 10:59 12.10.2019
6126 Drizzle 11 1007 93 4200 2.1 240 10:40 12.10.2019
6127 Drizzle 11 1006 93 4800 2.6 260 10:21 12.10.2019
6128 Drizzle 11 1006 93 4200 4.1 260 09:57 12.10.2019
6129 Drizzle 11 1006 93 4800 2.6 260 09:57 12.10.2019
6130 Drizzle 11 1006 93 4200 4.1 260 09:38 12.10.2019
6131 Drizzle 11 1006 93 8000 3.1 240 09:20 12.10.2019
6132 Drizzle 11 1005 100 7000 3.1 250 08:55 12.10.2019
6133 Drizzle 11 1005 100 7000 3.1 250 08:36 12.10.2019
6134 Drizzle 11 1005 100 4200 3.6 260 08:18 12.10.2019
6135 Drizzle 12 1005 93 5000 3.1 250 07:33 12.10.2019
6136 Rain 12 1004 82 10000 4.1 260 06:44 12.10.2019
6137 Rain 13 1004 87 10000 4.1 260 05:46 12.10.2019
6138 Rain 14 1003 87 8000 7.7 220 04:47 12.10.2019
6139 Clouds 15 1003 77 10000 8.2 230 03:57 12.10.2019
6140 Rain 15 1003 77 10000 8.2 230 02:57 12.10.2019
6141 Drizzle 15 1003 82 10000 8.7 220 01:36 12.10.2019
6142 Drizzle 14 1004 82 9000 9.3 220 00:58 12.10.2019
6143 Clouds 14 1004 82 10000 7.7 220 00:39 12.10.2019
6144 Drizzle 14 1004 93 4900 9.3 220 23:57 11.10.2019
6145 Drizzle 14 1004 93 4900 9.3 220 23:38 11.10.2019
6146 Drizzle 14 1004 87 5000 8.7 220 23:19 11.10.2019
6147 Drizzle 14 1004 87 9000 8.7 220 22:40 11.10.2019
6148 Drizzle 14 1004 87 7000 9.8 220 22:21 11.10.2019
6149 Drizzle 14 1004 87 4500 10.3 220 21:56 11.10.2019
6150 Drizzle 14 1004 87 4500 10.3 220 21:38 11.10.2019
6151 Drizzle 14 1004 87 10000 9.3 210 21:19 11.10.2019
6152 Drizzle 14 1005 87 8000 9.8 220 20:44 11.10.2019
6153 Drizzle 14 1005 87 6000 10.8 220 20:25 11.10.2019
6154 Drizzle 14 1005 87 10000 8.2 220 19:56 11.10.2019
6155 Drizzle 14 1005 87 10000 8.2 220 19:38 11.10.2019
6156 Drizzle 14 1005 87 6000 9.8 220 19:18 11.10.2019
6157 Drizzle 14 1005 87 6000 9.8 220 18:58 11.10.2019
6158 Rain 14 1005 77 10000 9.8 220 18:38 11.10.2019
6159 Rain 14 1005 77 10000 9.8 220 18:38 11.10.2019
6160 Clouds 14 1006 77 10000 9.8 210 18:19 11.10.2019
6161 Clouds 14 1006 77 10000 9.8 210 17:58 11.10.2019
6162 Clouds 14 1006 77 10000 9.3 210 17:38 11.10.2019
6163 Clouds 14 1006 77 10000 9.3 210 17:38 11.10.2019
6164 Rain 14 1006 77 10000 9.8 210 17:19 11.10.2019
6165 Rain 14 1006 77 10000 9.8 210 16:58 11.10.2019
6166 Rain 14 1006 82 10000 9.8 210 16:39 11.10.2019
6167 Rain 14 1006 82 10000 8.2 210 16:19 11.10.2019
6168 Rain 14 1007 87 10000 8.2 220 15:41 11.10.2019
6169 Rain 14 1007 87 10000 9.3 220 15:21 11.10.2019
6170 Rain 14 1007 87 10000 9.3 220 14:58 11.10.2019
6171 Rain 14 1007 87 10000 8.7 210 14:39 11.10.2019
6172 Clouds 14 1007 87 10000 8.2 220 14:20 11.10.2019
6173 Clouds 14 1007 87 10000 7.2 220 13:45 11.10.2019
6174 Clouds 14 1007 87 10000 7.2 220 13:45 11.10.2019
6175 Clouds 14 1007 87 10000 7.2 220 13:25 11.10.2019
6176 Drizzle 14 1008 87 10000 7.7 220 12:57 11.10.2019
6177 Drizzle 13 1008 87 10000 7.7 220 12:39 11.10.2019
6178 Drizzle 13 1008 87 10000 7.7 220 12:39 11.10.2019
6179 Drizzle 13 1008 87 10000 7.7 210 12:20 11.10.2019
6180 Drizzle 13 1008 87 10000 7.7 210 11:58 11.10.2019
6181 Rain 13 1008 87 10000 6.2 220 11:38 11.10.2019
6182 Rain 13 1008 87 10000 6.2 220 11:38 11.10.2019
6183 Drizzle 13 1008 87 10000 6.7 220 11:20 11.10.2019
6184 Clouds 13 1009 87 10000 7.2 230 10:56 11.10.2019
6185 Clouds 13 1009 87 10000 7.2 230 10:56 11.10.2019
6186 Clouds 13 1009 87 10000 7.2 230 10:36 11.10.2019
6187 Clouds 12 1008 87 10000 7.7 220 10:18 11.10.2019
6188 Clouds 12 1008 93 10000 7.7 230 09:42 11.10.2019
6189 Clouds 12 1008 93 10000 7.7 230 09:21 11.10.2019
6190 Clouds 12 1008 93 10000 7.7 230 08:59 11.10.2019
6191 Drizzle 12 1008 87 10000 9.3 220 08:39 11.10.2019
6192 Drizzle 11 1007 87 3500 7.2 220 08:20 11.10.2019
6193 Drizzle 11 1007 87 3500 7.2 220 07:57 11.10.2019
6194 Rain 12 1007 87 4500 7.7 220 07:38 11.10.2019
6195 Rain 12 1007 81 10000 8.2 210 07:19 11.10.2019
6196 Clouds 12 1008 81 10000 8.2 210 06:43 11.10.2019
6197 Clouds 12 1008 81 10000 7.7 210 06:19 11.10.2019
6198 Clouds 11 1008 87 10000 7.2 210 05:32 11.10.2019
6199 Clouds 11 1009 87 10000 6.7 210 04:59 11.10.2019
6200 Clouds 11 1009 81 10000 7.2 210 03:46 11.10.2019
6201 Clear 10 1010 87 10000 5.1 210 01:57 11.10.2019
6202 Clear 10 1011 87 10000 5.7 220 00:42 11.10.2019
6203 Clear 10 1011 87 10000 5.1 220 00:22 11.10.2019
6204 Clear 10 1011 87 10000 4.6 220 23:42 10.10.2019
6205 Clear 10 1011 87 10000 5.1 230 23:20 10.10.2019
6206 Clear 10 1011 87 10000 5.1 230 22:57 10.10.2019
6207 Clear 10 1011 87 10000 5.1 230 22:38 10.10.2019
6208 Clear 10 1011 93 10000 4.1 220 22:19 10.10.2019
6209 Clear 10 1010 87 10000 5.1 230 21:56 10.10.2019
6210 Clear 10 1010 87 10000 5.1 230 21:38 10.10.2019
6211 Clouds 10 1010 87 10000 5.1 230 21:20 10.10.2019
6212 Clouds 10 1010 93 10000 5.1 220 20:42 10.10.2019
6213 Clouds 10 1010 87 10000 5.1 220 20:21 10.10.2019
6214 Clouds 10 1010 87 10000 5.1 220 19:58 10.10.2019
6215 Clouds 10 1010 87 10000 5.1 230 19:40 10.10.2019
6216 Rain 11 1010 87 10000 4.1 230 19:20 10.10.2019
6217 Rain 11 1009 81 10000 4.6 230 18:57 10.10.2019
6218 Rain 11 1009 81 10000 4.6 230 18:38 10.10.2019
6219 Clouds 11 1009 81 10000 5.1 230 18:19 10.10.2019
6220 Clouds 11 1009 81 10000 5.1 230 17:54 10.10.2019
6221 Clouds 11 1009 81 10000 5.1 230 17:36 10.10.2019
6222 Clouds 11 1009 81 10000 5.1 230 17:36 10.10.2019
6223 Rain 11 1008 81 10000 5.7 230 17:18 10.10.2019
6224 Rain 11 1008 81 10000 5.7 230 17:18 10.10.2019
6225 Rain 11 1008 87 10000 4.6 220 16:41 10.10.2019
6226 Rain 12 1008 87 10000 3.6 240 16:22 10.10.2019
6227 Rain 12 1008 67 10000 7.7 230 15:54 10.10.2019
6228 Rain 12 1008 67 10000 7.7 230 15:36 10.10.2019
6229 Clouds 13 1008 71 10000 7.7 230 15:18 10.10.2019
6230 Clouds 13 1008 71 10000 8.2 230 14:54 10.10.2019
6231 Clouds 13 1008 71 10000 8.2 230 14:36 10.10.2019
6232 Clouds 13 1008 71 10000 7.2 240 14:18 10.10.2019
6233 Clouds 13 1007 76 10000 8.2 230 13:41 10.10.2019
6234 Clouds 13 1007 76 10000 8.2 230 13:41 10.10.2019
6235 Clouds 13 1007 76 10000 6.2 240 13:23 10.10.2019
6236 Clouds 12 1007 76 10000 6.2 240 12:57 10.10.2019
6237 Clouds 12 1007 81 10000 6.7 230 12:39 10.10.2019
6238 Clouds 12 1007 76 10000 7.2 230 12:20 10.10.2019
6239 Clouds 12 1007 76 10000 6.7 240 11:55 10.10.2019
6240 Clouds 11 1007 76 10000 6.7 240 11:37 10.10.2019
6241 Clouds 11 1006 81 10000 6.2 230 11:18 10.10.2019
6242 Clouds 10 1006 87 10000 5.7 230 10:44 10.10.2019
6243 Clouds 10 1006 87 10000 5.1 240 10:26 10.10.2019
6244 Clouds 9 1005 87 10000 5.7 230 09:56 10.10.2019
6245 Clouds 9 1005 87 10000 5.7 230 09:38 10.10.2019
6246 Clouds 9 1005 87 10000 4.6 240 09:19 10.10.2019
6247 Clouds 8 1004 87 10000 5.1 230 08:56 10.10.2019
6248 Clouds 8 1004 87 10000 5.1 230 08:37 10.10.2019
6249 Clouds 8 1004 93 10000 4.6 230 08:18 10.10.2019
6250 Clouds 8 1004 87 10000 5.7 230 07:42 10.10.2019
6251 Clouds 8 1004 87 10000 4.6 240 07:20 10.10.2019
6252 Clouds 8 1004 87 10000 5.1 240 06:46 10.10.2019
6253 Clouds 8 1003 87 10000 5.1 230 06:26 10.10.2019
6254 Clouds 8 1003 87 10000 5.1 230 05:27 10.10.2019
6255 Clouds 9 1003 93 10000 6.2 230 04:39 10.10.2019
6256 Clouds 9 1003 93 10000 4.6 230 04:21 10.10.2019
6257 Clouds 9 1002 93 10000 4.1 230 01:43 10.10.2019
6258 Clouds 9 1002 93 10000 4.1 220 01:24 10.10.2019
6259 Clear 9 1002 93 10000 4.6 220 00:54 10.10.2019
6260 Clear 9 1002 93 10000 3.6 230 00:22 10.10.2019
6261 Clear 9 1002 93 10000 3.1 220 23:40 09.10.2019
6262 Clear 9 1002 93 10000 4.1 230 23:21 09.10.2019
6263 Clear 9 1002 87 10000 4.6 230 22:56 09.10.2019
6264 Clear 9 1002 87 10000 4.6 230 22:38 09.10.2019
6265 Clear 10 1002 87 10000 3.1 240 22:20 09.10.2019
6266 Clouds 10 1002 87 10000 3.6 240 21:40 09.10.2019
6267 Clouds 10 1002 93 10000 3.1 230 21:21 09.10.2019
6268 Clouds 10 1002 93 10000 3.1 230 20:56 09.10.2019
6269 Rain 10 1002 87 8000 5.1 240 20:38 09.10.2019
6270 Rain 10 1002 81 10000 5.1 210 20:19 09.10.2019
6271 Rain 11 1002 81 10000 5.1 210 20:19 09.10.2019
6272 Rain 11 1002 81 10000 5.1 210 20:19 09.10.2019
6273 Rain 11 1002 81 10000 5.1 210 19:58 09.10.2019
6274 Clouds 11 1002 81 10000 3.1 200 19:40 09.10.2019
6275 Clouds 11 1002 81 10000 3.6 200 19:22 09.10.2019
6276 Clouds 12 1002 81 10000 4.6 210 18:38 09.10.2019
6277 Clouds 12 1002 81 10000 4.6 210 18:20 09.10.2019
6278 Rain 12 1002 81 10000 5.7 210 17:58 09.10.2019
6279 Rain 12 1002 81 10000 5.7 210 17:58 09.10.2019
6280 Rain 13 1002 81 10000 5.7 210 17:39 09.10.2019
6281 Clouds 13 1002 71 10000 6.2 210 17:21 09.10.2019
6282 Clouds 13 1003 71 10000 6.2 220 16:56 09.10.2019
6283 Clouds 13 1003 71 10000 6.2 220 16:56 09.10.2019
6284 Clouds 13 1003 71 10000 6.2 220 16:56 09.10.2019
6285 Clouds 13 1003 71 10000 6.2 220 16:37 09.10.2019
6286 Clouds 13 1003 71 10000 5.7 220 16:19 09.10.2019
6287 Clouds 14 1003 67 10000 7.2 220 15:55 09.10.2019
6288 Clouds 14 1003 67 10000 7.2 220 15:37 09.10.2019
6289 Clouds 14 1003 71 10000 7.2 210 15:18 09.10.2019
6290 Clouds 14 1003 71 10000 6.7 220 14:45 09.10.2019
6291 Clouds 14 1003 67 10000 7.7 220 14:19 09.10.2019
6292 Clouds 14 1003 67 10000 7.7 220 13:59 09.10.2019
6293 Clouds 14 1004 71 10000 6.7 230 13:38 09.10.2019
6294 Clouds 14 1004 76 10000 6.7 220 13:18 09.10.2019
6295 Clouds 13 1004 82 10000 6.2 220 12:44 09.10.2019
6296 Clouds 13 1004 82 10000 6.2 220 12:23 09.10.2019
6297 Clouds 13 1004 82 10000 6.2 220 12:23 09.10.2019
6298 Clouds 13 1004 81 10000 6.7 230 11:58 09.10.2019
6299 Clouds 12 1004 81 10000 6.7 230 11:40 09.10.2019
6300 Clouds 12 1004 87 10000 6.2 230 11:20 09.10.2019
6301 Clouds 12 1005 87 10000 6.7 230 10:59 09.10.2019
6302 Clouds 12 1005 87 10000 6.7 230 10:40 09.10.2019
6303 Clouds 12 1005 87 10000 6.2 220 10:19 09.10.2019
6304 Clouds 11 1005 87 10000 6.2 220 09:56 09.10.2019
6305 Clouds 11 1004 93 10000 5.7 220 09:38 09.10.2019
6306 Clouds 11 1004 87 10000 4.6 220 09:18 09.10.2019
6307 Clouds 10 1004 87 10000 4.6 230 08:39 09.10.2019
6308 Clouds 11 1004 87 10000 5.1 220 08:20 09.10.2019
6309 Clouds 10 1004 87 10000 5.7 230 07:47 09.10.2019
6310 Clouds 10 1004 87 10000 5.1 230 07:25 09.10.2019
6311 Clouds 10 1004 87 10000 5.1 230 07:25 09.10.2019
6312 Clouds 10 1004 87 10000 5.1 230 07:25 09.10.2019
6313 Clouds 10 1004 87 10000 5.1 230 07:25 09.10.2019
6314 Clouds 11 1004 87 10000 5.7 230 06:59 09.10.2019
6315 Clouds 11 1004 87 10000 5.7 230 06:41 09.10.2019
6316 Clouds 11 1003 93 10000 4.6 220 05:53 09.10.2019
6317 Clouds 10 1003 87 10000 5.7 230 05:18 09.10.2019
6318 Rain 11 1002 93 10000 3.6 240 03:49 09.10.2019
6319 Clear 11 1002 87 10000 4.1 220 02:35 09.10.2019
6320 Rain 10 1002 93 10000 4.6 220 01:39 09.10.2019
6321 Clouds 10 1002 93 10000 3.1 210 01:19 09.10.2019
6322 Clouds 10 1002 93 10000 3.1 210 00:55 09.10.2019
6323 Clouds 10 1002 93 10000 3.1 210 00:37 09.10.2019
6324 Clouds 10 1003 93 10000 3.1 220 00:19 09.10.2019
6325 Clear 10 1002 93 10000 3.6 220 23:39 08.10.2019
6326 Clear 10 1002 93 10000 3.6 220 23:39 08.10.2019
6327 Clear 10 1002 93 10000 3.6 220 23:18 08.10.2019
6328 Clear 11 1002 93 10000 2.6 230 22:55 08.10.2019
6329 Clear 11 1002 93 10000 2.6 230 22:37 08.10.2019
6330 Clouds 11 1002 100 10000 3.1 230 22:18 08.10.2019
6331 Clouds 11 1002 93 10000 3.6 230 21:56 08.10.2019
6332 Clouds 11 1002 93 10000 3.6 230 21:37 08.10.2019
6333 Clouds 11 1002 93 10000 3.6 230 21:18 08.10.2019
6334 Clouds 12 1002 93 10000 3.6 230 20:55 08.10.2019
6335 Rain 12 1002 93 10000 5.1 220 20:37 08.10.2019
6336 Clouds 12 1002 87 10000 4.1 230 20:18 08.10.2019
6337 Clouds 13 1002 93 10000 3.6 230 19:55 08.10.2019
6338 Clouds 13 1002 93 10000 3.6 230 19:36 08.10.2019
6339 Rain 13 1002 87 10000 1.5 250 19:18 08.10.2019
6340 Clouds 13 1002 87 10000 3.6 220 18:42 08.10.2019
6341 Rain 14 1002 87 10000 3.1 240 18:24 08.10.2019
6342 Rain 14 1002 87 10000 3.1 240 17:58 08.10.2019
6343 Rain 14 1002 82 10000 6.2 230 17:39 08.10.2019
6344 Rain 15 1002 82 10000 4.1 240 17:20 08.10.2019
6345 Rain 15 1002 82 10000 3.6 250 16:56 08.10.2019
6346 Rain 15 1002 82 10000 3.6 250 16:37 08.10.2019
6347 Rain 15 1002 82 10000 5.7 240 16:19 08.10.2019
6348 Clouds 15 1002 77 10000 4.6 250 15:40 08.10.2019
6349 Clouds 15 1002 77 10000 5.7 230 15:20 08.10.2019
6350 Clouds 15 1002 77 10000 5.7 230 15:20 08.10.2019
6351 Clouds 15 1002 77 10000 4.6 260 14:57 08.10.2019
6352 Clouds 15 1002 77 10000 4.6 260 14:38 08.10.2019
6353 Clouds 15 1002 77 10000 4.6 250 14:19 08.10.2019
6354 Clouds 15 1003 82 10000 4.6 250 13:55 08.10.2019
6355 Clouds 15 1003 82 10000 4.6 250 13:55 08.10.2019
6356 Clouds 14 1003 82 10000 4.6 250 13:37 08.10.2019
6357 Clouds 14 1003 82 10000 4.6 250 13:37 08.10.2019
6358 Clouds 14 1003 82 10000 5.7 250 13:18 08.10.2019
6359 Clouds 14 1003 87 10000 6.2 250 12:41 08.10.2019
6360 Clouds 13 1002 93 10000 5.7 240 12:20 08.10.2019
6361 Rain 13 1003 93 10000 5.7 240 11:59 08.10.2019
6362 Rain 13 1003 93 10000 5.7 240 11:40 08.10.2019
6363 Drizzle 12 1003 87 10000 5.7 240 11:21 08.10.2019
6364 Drizzle 12 1003 93 10000 5.7 240 10:55 08.10.2019
6365 Drizzle 11 1003 93 10000 5.7 240 10:36 08.10.2019
6366 Drizzle 11 1003 100 10000 5.1 230 10:18 08.10.2019
6367 Drizzle 10 1003 93 4500 6.2 220 09:41 08.10.2019
6368 Drizzle 10 1003 93 4500 6.7 220 09:22 08.10.2019
6369 Drizzle 10 1003 93 4500 6.7 220 08:57 08.10.2019
6370 Rain 10 1003 93 9000 6.7 200 08:39 08.10.2019
6371 Rain 10 1004 93 4500 5.7 170 08:21 08.10.2019
6372 Rain 9 1004 93 4500 5.1 160 07:41 08.10.2019
6373 Rain 9 1005 100 6000 5.7 160 07:20 08.10.2019
6374 Rain 9 1006 93 7000 4.6 160 06:49 08.10.2019
6375 Rain 9 1006 87 8000 4.1 160 06:28 08.10.2019
6376 Rain 9 1007 87 10000 3.6 160 05:45 08.10.2019
6377 Rain 9 1007 87 10000 3.6 160 05:45 08.10.2019
6378 Rain 8 1008 87 10000 3.6 150 05:25 08.10.2019
6379 Rain 8 1009 81 10000 4.1 150 03:57 08.10.2019
6380 Clouds 8 1010 75 10000 4.1 140 03:24 08.10.2019
6381 Clear 8 1011 75 10000 4.1 150 02:35 08.10.2019
6382 Clouds 8 1011 75 10000 4.1 150 01:44 08.10.2019
6383 Clouds 8 1011 75 10000 4.1 150 01:26 08.10.2019
6384 Clouds 8 1013 70 10000 4.1 140 00:46 08.10.2019
6385 Clouds 8 1013 70 10000 4.6 160 00:20 08.10.2019
6386 Clear 7 1014 70 10000 4.6 150 23:39 07.10.2019
6387 Clear 7 1014 70 10000 4.1 150 23:20 07.10.2019
6388 Clear 7 1015 70 10000 4.1 150 22:56 07.10.2019
6389 Clear 7 1015 70 10000 4.1 150 22:38 07.10.2019
6390 Clear 7 1016 70 10000 3.6 140 22:20 07.10.2019
6391 Clear 7 1016 70 10000 3.6 140 21:56 07.10.2019
6392 Clear 7 1016 70 10000 3.6 140 21:38 07.10.2019
6393 Clear 7 1017 70 10000 2.6 150 21:20 07.10.2019
6394 Clear 7 1017 70 10000 2.6 150 21:20 07.10.2019
6395 Clear 7 1017 66 10000 3.1 150 20:57 07.10.2019
6396 Clear 7 1017 66 10000 3.1 150 20:39 07.10.2019
6397 Clear 7 1017 66 10000 3.6 130 20:20 07.10.2019
6398 Clear 8 1017 61 10000 3.6 130 19:58 07.10.2019
6399 Clear 8 1017 61 10000 3.6 130 19:39 07.10.2019
6400 Clear 8 1018 57 10000 3.6 150 19:19 07.10.2019
6401 Clear 9 1018 57 10000 2.6 160 18:56 07.10.2019
6402 Clear 9 1018 57 10000 2.6 160 18:56 07.10.2019
6403 Clear 10 1018 57 10000 2.6 160 18:38 07.10.2019
6404 Clear 10 1017 53 10000 4.1 140 18:18 07.10.2019
6405 Clear 10 1017 53 10000 4.1 140 18:18 07.10.2019
6406 Clear 11 1017 53 10000 3.6 140 17:43 07.10.2019
6407 Clear 11 1018 50 10000 4.1 150 17:20 07.10.2019
6408 Clouds 11 1018 53 10000 3.6 140 16:57 07.10.2019
6409 Clouds 12 1018 53 10000 3.6 140 16:38 07.10.2019
6410 Clouds 12 1019 46 10000 3.1 150 16:20 07.10.2019
6411 Clouds 12 1019 46 10000 3.1 170 15:45 07.10.2019
6412 Clouds 12 1019 46 10000 4.1 150 15:26 07.10.2019
6413 Clouds 12 1020 46 10000 3.6 170 14:55 07.10.2019
6414 Clouds 12 1020 46 10000 3.6 170 14:37 07.10.2019
6415 Clouds 12 1020 50 10000 3.6 130 14:19 07.10.2019
6416 Clouds 12 1020 54 10000 3.1 140 13:43 07.10.2019
6417 Clouds 11 1021 57 10000 3.1 140 13:20 07.10.2019
6418 Clouds 11 1021 53 10000 2.6 120 12:56 07.10.2019
6419 Clouds 11 1021 53 10000 2.6 120 12:38 07.10.2019
6420 Clouds 10 1021 57 10000 2.1 120 12:19 07.10.2019
6421 Clear 10 1021 61 10000 2.1 80 11:57 07.10.2019
6422 Clear 9 1021 61 10000 2.1 80 11:38 07.10.2019
6423 Clear 9 1022 66 10000 1 0 11:20 07.10.2019
6424 Clear 7 1022 70 10000 0.5 0 10:42 07.10.2019
6425 Clear 7 1021 75 10000 2.53 112.688 10:21 07.10.2019
6426 Clear 4 1022 80 10000 2.53 112.688 09:43 07.10.2019
6427 Clear 3 1021 86 10000 1 40 09:25 07.10.2019
6428 Clear 1 1021 100 10000 0.5 0 08:58 07.10.2019
6429 Clear 1 1021 100 10000 0.5 0 08:39 07.10.2019
6430 Clear 0 1021 90 10000 1 320 08:20 07.10.2019
6431 Mist 0 1021 100 10000 1 0 07:44 07.10.2019
6432 Mist 0 1020 90 10000 1 60 07:25 07.10.2019
6433 Clear 1 1020 90 10000 0.5 0 06:56 07.10.2019
6434 Clear 0 1020 90 10000 0.5 0 06:37 07.10.2019
6435 Clear 1 1021 91 10000 1 0 05:56 07.10.2019
6436 Clear 1 1020 91 10000 0.5 0 05:25 07.10.2019
6437 Clear 1 1021 91 10000 1.5 320 04:47 07.10.2019
6438 Clear 2 1020 86 10000 0.5 0 03:46 07.10.2019
6439 Clear 2 1020 86 10000 0.5 0 03:27 07.10.2019
6440 Clear 3 1020 93 10000 1 0 02:37 07.10.2019
6441 Clear 3 1020 93 10000 2.6 60 02:18 07.10.2019
6442 Clear 3 1019 93 10000 2.6 60 01:23 07.10.2019
6443 Clear 4 1019 93 10000 3.1 60 00:51 07.10.2019
6444 Clear 4 1019 93 10000 3.1 60 00:26 07.10.2019
6445 Clear 4 1019 86 10000 3.1 60 23:59 06.10.2019
6446 Clear 4 1019 86 10000 3.1 60 23:40 06.10.2019
6447 Clear 4 1019 86 10000 3.1 60 23:20 06.10.2019
6448 Clear 5 1019 86 10000 2.6 60 22:56 06.10.2019
6449 Clear 5 1019 86 10000 2.6 60 22:37 06.10.2019
6450 Clear 5 1019 81 10000 2.6 60 22:19 06.10.2019
6451 Clear 6 1019 81 10000 3.1 70 21:55 06.10.2019
6452 Clear 6 1019 81 10000 3.1 70 21:37 06.10.2019
6453 Clear 6 1018 87 10000 3.6 70 21:18 06.10.2019
6454 Clear 6 1018 87 10000 3.6 70 21:18 06.10.2019
6455 Clear 6 1018 81 10000 3.6 70 20:56 06.10.2019
6456 Clear 6 1018 81 10000 3.6 70 20:38 06.10.2019
6457 Clouds 7 1018 81 10000 4.1 70 20:19 06.10.2019
6458 Clouds 7 1018 75 10000 4.1 70 19:56 06.10.2019
6459 Clouds 8 1018 75 10000 4.1 70 19:37 06.10.2019
6460 Clouds 8 1018 76 10000 3.6 80 19:18 06.10.2019
6461 Clouds 8 1017 76 10000 4.1 90 18:56 06.10.2019
6462 Clouds 8 1017 76 10000 4.1 90 18:37 06.10.2019
6463 Clouds 9 1017 71 10000 4.6 90 18:18 06.10.2019
6464 Clouds 10 1017 71 10000 5.1 90 17:43 06.10.2019
6465 Clouds 10 1017 71 10000 5.7 100 17:20 06.10.2019
6466 Clouds 10 1017 71 10000 5.7 100 16:58 06.10.2019
6467 Clouds 10 1018 71 10000 5.7 90 16:40 06.10.2019
6468 Clouds 10 1018 71 10000 5.7 110 16:22 06.10.2019
6469 Clouds 10 1018 71 10000 5.1 90 15:45 06.10.2019
6470 Clouds 11 1018 71 10000 5.7 100 15:22 06.10.2019
6471 Clouds 11 1018 71 10000 5.7 100 14:58 06.10.2019
6472 Clouds 11 1019 71 10000 6.2 90 14:40 06.10.2019
6473 Clouds 11 1019 66 10000 4.6 90 14:22 06.10.2019
6474 Clouds 11 1019 66 10000 6.2 90 13:55 06.10.2019
6475 Clouds 11 1019 66 10000 6.2 90 13:37 06.10.2019
6476 Clouds 11 1019 62 10000 5.7 90 13:19 06.10.2019
6477 Clouds 11 1020 71 10000 6.2 100 12:55 06.10.2019
6478 Clouds 10 1020 71 10000 6.2 100 12:37 06.10.2019
6479 Clouds 10 1020 71 10000 4.6 100 12:19 06.10.2019
6480 Clouds 10 1020 70 10000 5.1 110 11:43 06.10.2019
6481 Clouds 9 1020 76 10000 5.1 90 11:24 06.10.2019
6482 Clouds 9 1020 76 10000 5.1 90 11:24 06.10.2019
6483 Clouds 9 1020 76 10000 5.1 90 10:58 06.10.2019
6484 Clouds 8 1021 81 10000 4.6 130 10:39 06.10.2019
6485 Clear 7 1021 81 10000 3.6 120 10:21 06.10.2019
6486 Clear 6 1021 87 10000 2.6 100 09:42 06.10.2019
6487 Clear 6 1021 87 10000 2.6 100 09:42 06.10.2019
6488 Clear 6 1021 87 10000 1.5 90 09:21 06.10.2019
6489 Clear 6 1021 87 10000 1.5 90 09:21 06.10.2019
6490 Clear 5 1021 93 10000 2.6 90 08:59 06.10.2019
6491 Clear 4 1021 93 10000 2.6 90 08:39 06.10.2019
6492 Clear 4 1021 93 10000 2.6 100 08:19 06.10.2019
6493 Clear 4 1021 93 10000 2.6 100 07:42 06.10.2019
6494 Fog 4 1021 93 10000 2.6 100 07:18 06.10.2019
6495 Clear 5 1021 86 10000 2.6 90 06:18 06.10.2019
6496 Clear 5 1022 86 10000 2.6 90 05:27 06.10.2019
6497 Clear 5 1022 93 10000 2.1 70 03:23 06.10.2019
6498 Clear 5 1022 93 10000 2.6 70 02:40 06.10.2019
6499 Clear 5 1022 93 10000 2.6 70 02:40 06.10.2019
6500 Clear 5 1022 93 10000 2.1 60 02:19 06.10.2019
6501 Clear 5 1022 100 10000 2.6 70 01:38 06.10.2019
6502 Clear 5 1022 93 10000 2.6 70 01:20 06.10.2019
6503 Clear 6 1022 93 10000 2.6 60 00:45 06.10.2019
6504 Clear 6 1022 93 10000 2.6 70 00:24 06.10.2019
6505 Clouds 6 1022 93 10000 2.1 60 23:44 05.10.2019
6506 Clouds 6 1022 93 10000 2.1 60 23:22 05.10.2019
6507 Clear 6 1022 93 10000 2.6 50 22:58 05.10.2019
6508 Clear 6 1022 93 10000 2.6 50 22:39 05.10.2019
6509 Clear 7 1022 93 10000 2.1 50 22:20 05.10.2019
6510 Clear 7 1022 93 10000 2.1 50 22:20 05.10.2019
6511 Clear 7 1021 87 10000 2.1 50 21:56 05.10.2019
6512 Clear 7 1021 87 10000 2.1 50 21:37 05.10.2019
6513 Clear 7 1021 87 10000 2.6 50 21:18 05.10.2019
6514 Clear 8 1021 87 10000 1.5 50 20:55 05.10.2019
6515 Clear 8 1021 87 10000 1.5 50 20:55 05.10.2019
6516 Clear 7 1021 87 10000 1.5 50 20:36 05.10.2019
6517 Clear 8 1021 87 10000 2.1 40 20:18 05.10.2019
6518 Clear 8 1020 87 10000 2.1 30 19:37 05.10.2019
6519 Clear 9 1020 81 10000 2.6 50 19:19 05.10.2019
6520 Clouds 9 1020 76 10000 4.6 60 18:55 05.10.2019
6521 Clouds 10 1020 76 10000 4.6 60 18:37 05.10.2019
6522 Clouds 10 1019 71 10000 5.7 60 18:19 05.10.2019
6523 Rain 11 1019 71 10000 6.2 60 17:43 05.10.2019
6524 Rain 11 1019 76 10000 6.2 50 17:24 05.10.2019
6525 Rain 11 1019 76 10000 6.2 50 16:58 05.10.2019
6526 Rain 12 1018 71 10000 5.1 60 16:40 05.10.2019
6527 Clouds 12 1018 62 10000 5.7 60 16:21 05.10.2019
6528 Clouds 12 1018 58 10000 3.6 40 15:57 05.10.2019
6529 Clouds 12 1018 58 10000 3.6 40 15:38 05.10.2019
6530 Clouds 12 1018 62 10000 3.6 30 15:20 05.10.2019
6531 Rain 12 1018 58 10000 4.1 60 14:44 05.10.2019
6532 Clouds 12 1017 62 10000 4.6 50 14:26 05.10.2019
6533 Clouds 12 1017 62 10000 4.6 50 14:26 05.10.2019
6534 Clouds 12 1017 62 10000 3.6 30 13:59 05.10.2019
6535 Clouds 12 1017 62 10000 3.6 30 13:41 05.10.2019
6536 Clouds 12 1017 71 10000 4.6 40 13:20 05.10.2019
6537 Clouds 11 1017 76 10000 5.7 50 12:44 05.10.2019
6538 Clouds 11 1017 76 10000 4.1 40 12:20 05.10.2019
6539 Rain 11 1016 76 10000 3.1 30 11:54 05.10.2019
6540 Rain 11 1016 76 10000 3.1 30 11:36 05.10.2019
6541 Rain 11 1016 76 10000 3.6 30 11:18 05.10.2019
6542 Rain 10 1016 87 10000 3.6 20 10:44 05.10.2019
6543 Rain 10 1015 87 10000 3.1 30 10:24 05.10.2019
6544 Rain 9 1015 87 10000 2.6 20 09:56 05.10.2019
6545 Rain 9 1015 87 10000 2.6 20 09:38 05.10.2019
6546 Clouds 8 1014 87 10000 3.1 10 09:20 05.10.2019
6547 Rain 7 1013 87 10000 4.6 20 08:39 05.10.2019
6548 Rain 7 1013 87 10000 4.6 20 08:39 05.10.2019
6549 -273 0 0 0 0 0 08:19 05.10.2019
6550 Rain 7 1013 93 10000 2.6 360 08:19 05.10.2019
6551 Clouds 7 1012 93 10000 3.1 10 07:56 05.10.2019
6552 Clouds 7 1012 93 10000 3.1 10 07:33 05.10.2019
6553 Clouds 7 1011 93 10000 3.1 20 06:58 05.10.2019
6554 Clear 7 1011 87 10000 4.1 20 06:27 05.10.2019
6555 Clouds 7 1011 93 10000 3.1 360 05:40 05.10.2019
6556 Clouds 7 1010 93 10000 3.1 350 03:57 05.10.2019
6557 Clouds 7 1009 87 10000 2.6 20 03:28 05.10.2019
6558 Clouds 8 1009 93 10000 3.6 30 01:42 05.10.2019
6559 Clouds 8 1008 93 10000 4.1 40 01:20 05.10.2019
6560 Clouds 8 1008 87 10000 3.6 40 00:43 05.10.2019
6561 Clouds 8 1008 93 10000 3.6 40 00:25 05.10.2019
6562 Clouds 8 1007 87 10000 4.6 60 23:44 04.10.2019
6563 Clouds 8 1007 93 10000 3.6 60 23:26 04.10.2019
6564 Clouds 8 1007 93 10000 4.1 70 22:59 04.10.2019
6565 Clouds 8 1007 93 10000 4.1 70 22:39 04.10.2019
6566 Rain 8 1007 93 10000 4.6 70 22:20 04.10.2019
6567 Rain 8 1007 93 10000 4.1 70 21:57 04.10.2019
6568 Rain 8 1007 93 10000 4.1 70 21:39 04.10.2019
6569 Rain 8 1006 93 10000 4.6 70 21:20 04.10.2019
6570 Rain 8 1006 93 10000 4.6 70 20:57 04.10.2019
6571 Rain 9 1006 93 10000 3.6 70 20:38 04.10.2019
6572 Rain 9 1006 93 10000 4.1 80 20:20 04.10.2019
6573 Rain 9 1006 93 9000 4.1 80 19:48 04.10.2019
6574 Rain 9 1006 93 7000 4.1 80 19:29 04.10.2019
6575 Rain 9 1006 93 7000 3.6 80 18:59 04.10.2019
6576 Rain 9 1006 93 7000 3.6 80 18:39 04.10.2019
6577 Rain 9 1006 93 7000 4.1 90 18:19 04.10.2019
6578 Rain 9 1006 93 7000 5.1 90 17:57 04.10.2019
6579 Rain 9 1006 93 7000 5.1 90 17:38 04.10.2019
6580 Rain 10 1006 93 8000 4.6 70 17:19 04.10.2019
6581 Rain 10 1006 93 10000 4.6 80 16:54 04.10.2019
6582 Rain 10 1006 93 10000 4.6 80 16:36 04.10.2019
6583 Rain 10 1006 93 10000 4.6 80 16:36 04.10.2019
6584 Rain 10 1006 87 10000 3.6 90 16:18 04.10.2019
6585 Rain 10 1006 87 10000 3.6 90 15:54 04.10.2019
6586 Rain 10 1006 87 10000 3.6 90 15:36 04.10.2019
6587 Rain 10 1006 87 10000 3.1 100 15:18 04.10.2019
6588 Rain 10 1007 81 10000 3.6 120 14:41 04.10.2019
6589 Clouds 10 1007 87 10000 3.6 150 14:22 04.10.2019
6590 Rain 10 1007 93 10000 3.6 150 13:59 04.10.2019
6591 -273 0 0 0 0 0 13:40 04.10.2019
6592 Rain 10 1007 87 7000 4.1 160 13:19 04.10.2019
6593 Drizzle 10 1008 87 8000 4.1 140 12:45 04.10.2019
6594 Drizzle 10 1008 87 8000 4.1 140 12:27 04.10.2019
6595 Drizzle 10 1008 93 8000 3.6 120 12:27 04.10.2019
6596 Rain 10 1008 93 8000 3.6 120 11:56 04.10.2019
6597 Rain 9 1008 93 8000 3.6 120 11:38 04.10.2019
6598 Rain 9 1008 93 8000 3.6 150 11:19 04.10.2019
6599 Mist 9 1009 100 4800 4.6 160 10:39 04.10.2019
6600 Mist 9 1009 100 3000 4.6 150 10:20 04.10.2019
6601 Mist 9 1009 93 2500 4.1 140 09:45 04.10.2019
6602 Fog 9 1009 100 3000 3.6 140 09:27 04.10.2019
6603 Mist 8 1009 100 2500 3.6 140 08:56 04.10.2019
6604 Mist 8 1009 100 2500 3.6 140 08:37 04.10.2019
6605 Mist 8 1010 100 2700 3.6 130 08:19 04.10.2019
6606 Mist 8 1010 100 3500 3.1 160 07:43 04.10.2019
6607 Mist 8 1010 100 4000 3.1 150 07:21 04.10.2019
6608 Mist 8 1010 100 7000 3.1 160 06:42 04.10.2019
6609 Clouds 8 1010 93 8000 3.6 150 06:24 04.10.2019
6610 Clouds 8 1011 93 10000 3.6 130 05:24 04.10.2019
6611 Clouds 7 1011 93 10000 3.6 140 04:56 04.10.2019
6612 Clouds 8 1012 87 10000 2.1 140 03:47 04.10.2019
6613 Clouds 8 1012 87 10000 2.1 140 03:47 04.10.2019
6614 Clouds 7 1013 93 10000 2.1 140 02:53 04.10.2019
6615 Clouds 7 1013 93 10000 2.1 140 02:53 04.10.2019
6616 Clouds 7 1013 93 10000 1 0 01:55 04.10.2019
6617 Clouds 7 1013 93 10000 2.1 130 01:30 04.10.2019
6618 Clouds 7 1013 93 10000 1.5 120 00:57 04.10.2019
6619 Clouds 7 1014 100 10000 3.1 90 23:58 03.10.2019
6620 Clouds 7 1014 100 10000 3.1 90 23:37 03.10.2019
6621 Clouds 7 1014 93 10000 2.6 90 23:18 03.10.2019
6622 Clouds 7 1014 93 10000 2.6 90 23:18 03.10.2019
6623 Clouds 7 1014 93 10000 2.1 90 22:56 03.10.2019
6624 Clouds 7 1014 93 10000 2.1 90 22:37 03.10.2019
6625 Fog 7 1014 100 10000 1.5 80 22:19 03.10.2019
6626 Clouds 7 1014 100 10000 0.5 0 21:56 03.10.2019
6627 Clouds 8 1014 100 10000 0.5 0 21:37 03.10.2019
6628 Clouds 8 1014 93 10000 1.5 50 21:19 03.10.2019
6629 Clouds 8 1014 93 10000 1 0 20:55 03.10.2019
6630 Clouds 8 1014 93 10000 1 0 20:55 03.10.2019
6631 Clouds 8 1014 93 10000 1 0 20:37 03.10.2019
6632 Clouds 9 1014 100 10000 0.5 0 20:19 03.10.2019
6633 Clouds 9 1014 93 10000 1.5 40 19:41 03.10.2019
6634 Clouds 10 1014 87 10000 1 0 19:22 03.10.2019
6635 Clouds 11 1014 81 10000 1 0 18:59 03.10.2019
6636 Clouds 11 1014 81 10000 1 0 18:40 03.10.2019
6637 Clouds 12 1014 76 10000 2.1 360 18:19 03.10.2019
6638 Clouds 12 1014 76 10000 2.1 360 18:19 03.10.2019
6639 Clouds 12 1014 76 10000 2.1 360 17:59 03.10.2019
6640 Clouds 12 1014 76 10000 2.1 360 17:59 03.10.2019
6641 Clouds 12 1014 71 10000 2.6 320 17:41 03.10.2019
6642 Clouds 13 1014 71 10000 2.6 320 17:19 03.10.2019
6643 Clouds 13 1014 66 10000 2.6 300 16:44 03.10.2019
6644 Clouds 13 1014 66 10000 3.1 350 16:26 03.10.2019
6645 Clouds 13 1014 66 10000 3.1 350 15:57 03.10.2019
6646 Clouds 13 1014 66 10000 2.6 310 15:39 03.10.2019
6647 Clouds 13 1014 71 10000 2.1 270 15:21 03.10.2019
6648 Clouds 13 1015 71 10000 3.6 290 14:47 03.10.2019
6649 Clouds 12 1015 71 10000 3.1 320 14:27 03.10.2019
6650 Clouds 12 1015 71 10000 3.1 310 13:59 03.10.2019
6651 Clouds 12 1015 71 10000 3.1 310 13:41 03.10.2019
6652 Clouds 12 1015 76 10000 2.6 330 13:19 03.10.2019
6653 Clouds 12 1015 76 10000 2.6 310 12:57 03.10.2019
6654 Clouds 12 1014 76 10000 2.1 0 12:38 03.10.2019
6655 Clouds 12 1014 76 10000 2.1 0 12:19 03.10.2019
6656 Clouds 11 1014 76 10000 3.1 300 11:54 03.10.2019
6657 Clouds 11 1014 76 10000 3.1 300 11:36 03.10.2019
6658 Clouds 10 1014 81 10000 3.6 300 11:18 03.10.2019
6659 Clouds 9 1014 81 10000 3.6 310 10:41 03.10.2019
6660 Rain 8 1014 93 10000 3.1 300 10:19 03.10.2019
6661 Clouds 7 1014 93 10000 3.6 310 09:59 03.10.2019
6662 Clouds 7 1014 93 10000 3.6 310 09:40 03.10.2019
6663 Clouds 7 1013 93 10000 3.1 290 09:21 03.10.2019
6664 Clouds 7 1013 93 10000 2.1 290 08:55 03.10.2019
6665 Clouds 6 1013 93 10000 2.1 290 08:36 03.10.2019
6666 Clouds 6 1013 93 10000 2.6 280 08:18 03.10.2019
6667 Clouds 6 1012 93 10000 3.6 310 07:41 03.10.2019
6668 Clouds 6 1012 87 10000 3.6 280 07:19 03.10.2019
6669 Clouds 6 1012 87 10000 3.6 280 07:19 03.10.2019
6670 Clouds 6 1012 93 10000 3.6 310 06:51 03.10.2019
6671 Clouds 7 1011 93 10000 4.6 300 06:25 03.10.2019
6672 Clouds 7 1011 93 10000 3.6 310 05:47 03.10.2019
6673 Clear 7 1011 93 10000 3.1 310 05:20 03.10.2019
6674 Clear 7 1011 87 10000 3.6 300 04:39 03.10.2019
6675 Clear 7 1010 87 10000 4.1 290 03:26 03.10.2019
6676 Clear 8 1010 93 10000 4.6 300 02:43 03.10.2019
6677 Clear 8 1010 87 10000 4.6 300 02:19 03.10.2019
6678 Clouds 8 1009 87 10000 4.6 300 01:37 03.10.2019
6679 Clouds 9 1008 81 10000 6.2 300 00:51 03.10.2019
6680 Clouds 9 1008 81 10000 6.2 310 00:28 03.10.2019
6681 Clouds 9 1007 87 10000 6.7 300 23:44 02.10.2019
6682 Clouds 9 1007 87 10000 6.2 300 23:24 02.10.2019
6683 Clouds 9 1007 87 10000 6.2 300 22:57 02.10.2019
6684 Clouds 9 1006 87 10000 4.6 260 22:38 02.10.2019
6685 Rain 9 1006 87 10000 5.1 250 22:18 02.10.2019
6686 Rain 9 1006 87 10000 6.2 250 21:54 02.10.2019
6687 Rain 9 1006 87 10000 6.2 250 21:54 02.10.2019
6688 -273 0 0 0 0 0 21:54 02.10.2019
6689 Rain 9 1006 87 10000 6.2 250 21:36 02.10.2019
6690 Rain 10 1006 87 10000 6.2 240 21:18 02.10.2019
6691 Rain 10 1006 93 10000 5.7 240 20:54 02.10.2019
6692 Rain 9 1006 93 10000 5.7 240 20:36 02.10.2019
6693 Rain 10 1006 87 10000 4.6 230 20:18 02.10.2019
6694 Rain 10 1006 87 10000 4.1 240 19:41 02.10.2019
6695 Rain 10 1007 87 10000 4.1 240 19:21 02.10.2019
6696 Rain 10 1007 81 10000 5.1 230 18:57 02.10.2019
6697 Rain 10 1007 81 10000 5.1 230 18:38 02.10.2019
6698 Clouds 11 1007 76 10000 5.1 230 18:20 02.10.2019
6699 Rain 11 1007 81 10000 5.7 260 17:57 02.10.2019
6700 Rain 11 1007 81 10000 5.7 260 17:38 02.10.2019
6701 Rain 11 1006 66 10000 3.6 270 17:19 02.10.2019
6702 Rain 12 1006 76 10000 2.6 270 16:45 02.10.2019
6703 Rain 12 1006 76 10000 2.6 270 16:22 02.10.2019
6704 Rain 12 1006 62 10000 4.6 260 15:59 02.10.2019
6705 Rain 12 1006 71 10000 4.1 250 15:41 02.10.2019
6706 Rain 12 1006 71 10000 4.1 250 15:22 02.10.2019
6707 Rain 13 1006 66 10000 4.1 290 14:58 02.10.2019
6708 Clouds 13 1006 71 10000 4.1 240 14:40 02.10.2019
6709 Clouds 13 1006 71 10000 4.1 240 14:21 02.10.2019
6710 Clouds 12 1006 76 10000 3.6 250 13:48 02.10.2019
6711 Rain 13 1005 62 10000 4.6 270 13:29 02.10.2019
6712 Clouds 12 1005 62 10000 4.1 270 12:59 02.10.2019
6713 Clouds 12 1005 66 10000 4.6 250 12:39 02.10.2019
6714 Clouds 12 1005 66 10000 4.6 250 12:20 02.10.2019
6715 Clouds 12 1005</